<?xml version="1.0" encoding="UTF-8" standalone="no" ?>
<gpx xmlns="http://www.topografix.com/GPX/1/1" xmlns:xsi="http://www.w3.org/2001/XMLSchema-instance" xsi:schemaLocation="http://www.topografix.com/GPX/1/1 http://www.topografix.com/GPX/1/1/gpx.xsd" version="1.1" creator="VisuGPX - https://www.visugpx.com">
  <metadata>
    <name>Pornichet 02/07/2020</name>
    <desc><![CDATA[Sortie VTT du jeudi 02 juillet 2020]]></desc>
  </metadata>
  <trk>
    <name><![CDATA[Pornichet Cyclisme]]></name>
    <trkseg>
      <trkpt lat="47.26405" lon="-2.31569">
        <ele>9.6</ele>
        <time>2020-07-02T06:57:19.000Z</time>
      </trkpt>
      <trkpt lat="47.26405" lon="-2.31584">
        <ele>9.6</ele>
        <time>2020-07-02T06:57:22.000Z</time>
      </trkpt>
      <trkpt lat="47.26405" lon="-2.3159">
        <ele>0.40000000596046</ele>
        <time>2020-07-02T06:57:23.000Z</time>
      </trkpt>
      <trkpt lat="47.26405" lon="-2.31608">
        <ele>0.40000000596046</ele>
        <time>2020-07-02T06:57:26.000Z</time>
      </trkpt>
      <trkpt lat="47.26403" lon="-2.31647">
        <ele>0.40000000596046</ele>
        <time>2020-07-02T06:57:33.000Z</time>
      </trkpt>
      <trkpt lat="47.26393" lon="-2.31653">
        <ele>0.40000000596046</ele>
        <time>2020-07-02T06:57:37.000Z</time>
      </trkpt>
      <trkpt lat="47.26382" lon="-2.31658">
        <ele>0.40000000596046</ele>
        <time>2020-07-02T06:57:40.000Z</time>
      </trkpt>
      <trkpt lat="47.26374" lon="-2.31663">
        <ele>0.40000000596046</ele>
        <time>2020-07-02T06:57:42.000Z</time>
      </trkpt>
      <trkpt lat="47.26365" lon="-2.31667">
        <ele>0.40000000596046</ele>
        <time>2020-07-02T06:57:44.000Z</time>
      </trkpt>
      <trkpt lat="47.26355" lon="-2.31672">
        <ele>0.40000000596046</ele>
        <time>2020-07-02T06:57:46.000Z</time>
      </trkpt>
      <trkpt lat="47.26351" lon="-2.31674">
        <ele>0.40000000596046</ele>
        <time>2020-07-02T06:57:47.000Z</time>
      </trkpt>
      <trkpt lat="47.26346" lon="-2.31676">
        <ele>0.40000000596046</ele>
        <time>2020-07-02T06:57:48.000Z</time>
      </trkpt>
      <trkpt lat="47.26339" lon="-2.31679">
        <ele>6.7</ele>
        <time>2020-07-02T06:57:50.000Z</time>
      </trkpt>
      <trkpt lat="47.26336" lon="-2.31682">
        <ele>-0.60000002384186</ele>
        <time>2020-07-02T06:57:51.000Z</time>
      </trkpt>
      <trkpt lat="47.26333" lon="-2.31686">
        <ele>-1</ele>
        <time>2020-07-02T06:57:52.000Z</time>
      </trkpt>
      <trkpt lat="47.26332" lon="-2.3169">
        <ele>-1.3999999761581</ele>
        <time>2020-07-02T06:57:53.000Z</time>
      </trkpt>
      <trkpt lat="47.2633" lon="-2.31694">
        <ele>-1.7999999523163</ele>
        <time>2020-07-02T06:57:54.000Z</time>
      </trkpt>
      <trkpt lat="47.26322" lon="-2.31699">
        <ele>-1.7999999523163</ele>
        <time>2020-07-02T06:57:56.000Z</time>
      </trkpt>
      <trkpt lat="47.26314" lon="-2.31704">
        <ele>-1.7999999523163</ele>
        <time>2020-07-02T06:57:58.000Z</time>
      </trkpt>
      <trkpt lat="47.2631" lon="-2.31705">
        <ele>-1.7999999523163</ele>
        <time>2020-07-02T06:57:59.000Z</time>
      </trkpt>
      <trkpt lat="47.26301" lon="-2.31704">
        <ele>-2.2000000476837</ele>
        <time>2020-07-02T06:58:01.000Z</time>
      </trkpt>
      <trkpt lat="47.26298" lon="-2.31701">
        <ele>-2.5999999046326</ele>
        <time>2020-07-02T06:58:02.000Z</time>
      </trkpt>
      <trkpt lat="47.26295" lon="-2.31698">
        <ele>-3</ele>
        <time>2020-07-02T06:58:03.000Z</time>
      </trkpt>
      <trkpt lat="47.26293" lon="-2.31693">
        <ele>-3.4000000953674</ele>
        <time>2020-07-02T06:58:04.000Z</time>
      </trkpt>
      <trkpt lat="47.2629" lon="-2.31688">
        <ele>-3.7999999523163</ele>
        <time>2020-07-02T06:58:05.000Z</time>
      </trkpt>
      <trkpt lat="47.26281" lon="-2.31672">
        <ele>-3.7999999523163</ele>
        <time>2020-07-02T06:58:07.000Z</time>
      </trkpt>
      <trkpt lat="47.2626" lon="-2.31632">
        <ele>-3.7999999523163</ele>
        <time>2020-07-02T06:58:16.000Z</time>
      </trkpt>
      <trkpt lat="47.26254" lon="-2.31622">
        <ele>-3.7999999523163</ele>
        <time>2020-07-02T06:58:18.000Z</time>
      </trkpt>
      <trkpt lat="47.26241" lon="-2.31609">
        <ele>-3.7999999523163</ele>
        <time>2020-07-02T06:58:21.000Z</time>
      </trkpt>
      <trkpt lat="47.26222" lon="-2.31594">
        <ele>-3.7999999523163</ele>
        <time>2020-07-02T06:58:25.000Z</time>
      </trkpt>
      <trkpt lat="47.26218" lon="-2.31592">
        <ele>-3.7999999523163</ele>
        <time>2020-07-02T06:58:26.000Z</time>
      </trkpt>
      <trkpt lat="47.26213" lon="-2.3159">
        <ele>-3.7999999523163</ele>
        <time>2020-07-02T06:58:27.000Z</time>
      </trkpt>
      <trkpt lat="47.26197" lon="-2.31591">
        <ele>-3.7999999523163</ele>
        <time>2020-07-02T06:58:30.000Z</time>
      </trkpt>
      <trkpt lat="47.26157" lon="-2.31601">
        <ele>-3.7999999523163</ele>
        <time>2020-07-02T06:58:38.000Z</time>
      </trkpt>
      <trkpt lat="47.2614" lon="-2.31608">
        <ele>-3.7999999523163</ele>
        <time>2020-07-02T06:58:42.000Z</time>
      </trkpt>
      <trkpt lat="47.26131" lon="-2.3161">
        <ele>-3.7999999523163</ele>
        <time>2020-07-02T06:58:44.000Z</time>
      </trkpt>
      <trkpt lat="47.26107" lon="-2.31609">
        <ele>-3.7999999523163</ele>
        <time>2020-07-02T06:58:49.000Z</time>
      </trkpt>
      <trkpt lat="47.26103" lon="-2.31606">
        <ele>-3.7999999523163</ele>
        <time>2020-07-02T06:58:50.000Z</time>
      </trkpt>
      <trkpt lat="47.26091" lon="-2.31588">
        <ele>-3.7999999523163</ele>
        <time>2020-07-02T06:58:54.000Z</time>
      </trkpt>
      <trkpt lat="47.26083" lon="-2.31577">
        <ele>-3.7999999523163</ele>
        <time>2020-07-02T06:58:57.000Z</time>
      </trkpt>
      <trkpt lat="47.2608" lon="-2.31575">
        <ele>-3.7999999523163</ele>
        <time>2020-07-02T06:58:58.000Z</time>
      </trkpt>
      <trkpt lat="47.26067" lon="-2.31557">
        <ele>-3.7999999523163</ele>
        <time>2020-07-02T06:59:03.000Z</time>
      </trkpt>
      <trkpt lat="47.26054" lon="-2.31528">
        <ele>-3.7999999523163</ele>
        <time>2020-07-02T06:59:09.000Z</time>
      </trkpt>
      <trkpt lat="47.2604" lon="-2.31509">
        <ele>-3.7999999523163</ele>
        <time>2020-07-02T06:59:14.000Z</time>
      </trkpt>
      <trkpt lat="47.26037" lon="-2.31508">
        <ele>-3.7999999523163</ele>
        <time>2020-07-02T06:59:15.000Z</time>
      </trkpt>
      <trkpt lat="47.26029" lon="-2.31516">
        <ele>-3.7999999523163</ele>
        <time>2020-07-02T06:59:18.000Z</time>
      </trkpt>
      <trkpt lat="47.26026" lon="-2.31525">
        <ele>-3.7999999523163</ele>
        <time>2020-07-02T06:59:20.000Z</time>
      </trkpt>
      <trkpt lat="47.2602" lon="-2.31542">
        <ele>-3.7999999523163</ele>
        <time>2020-07-02T06:59:23.000Z</time>
      </trkpt>
      <trkpt lat="47.26018" lon="-2.31547">
        <ele>-3.4000000953674</ele>
        <time>2020-07-02T06:59:24.000Z</time>
      </trkpt>
      <trkpt lat="47.26015" lon="-2.31551">
        <ele>-3</ele>
        <time>2020-07-02T06:59:25.000Z</time>
      </trkpt>
      <trkpt lat="47.26011" lon="-2.31554">
        <ele>-2.2000000476837</ele>
        <time>2020-07-02T06:59:26.000Z</time>
      </trkpt>
      <trkpt lat="47.26008" lon="-2.31555">
        <ele>-1.7999999523163</ele>
        <time>2020-07-02T06:59:27.000Z</time>
      </trkpt>
      <trkpt lat="47.25999" lon="-2.31545">
        <ele>-1.7999999523163</ele>
        <time>2020-07-02T06:59:30.000Z</time>
      </trkpt>
      <trkpt lat="47.25984" lon="-2.31522">
        <ele>-1.7999999523163</ele>
        <time>2020-07-02T06:59:35.000Z</time>
      </trkpt>
      <trkpt lat="47.25982" lon="-2.31516">
        <ele>-1.7999999523163</ele>
        <time>2020-07-02T06:59:36.000Z</time>
      </trkpt>
      <trkpt lat="47.25973" lon="-2.31498">
        <ele>-1.7999999523163</ele>
        <time>2020-07-02T06:59:39.000Z</time>
      </trkpt>
      <trkpt lat="47.25962" lon="-2.31475">
        <ele>-1.7999999523163</ele>
        <time>2020-07-02T06:59:43.000Z</time>
      </trkpt>
      <trkpt lat="47.25954" lon="-2.31465">
        <ele>-1.7999999523163</ele>
        <time>2020-07-02T06:59:45.000Z</time>
      </trkpt>
      <trkpt lat="47.25943" lon="-2.31455">
        <ele>-1.7999999523163</ele>
        <time>2020-07-02T06:59:48.000Z</time>
      </trkpt>
      <trkpt lat="47.25935" lon="-2.3145">
        <ele>-1.7999999523163</ele>
        <time>2020-07-02T06:59:50.000Z</time>
      </trkpt>
      <trkpt lat="47.25927" lon="-2.3145">
        <ele>-1.7999999523163</ele>
        <time>2020-07-02T06:59:52.000Z</time>
      </trkpt>
      <trkpt lat="47.2592" lon="-2.31462">
        <ele>-1.7999999523163</ele>
        <time>2020-07-02T06:59:55.000Z</time>
      </trkpt>
      <trkpt lat="47.25917" lon="-2.31472">
        <ele>-1.7999999523163</ele>
        <time>2020-07-02T06:59:57.000Z</time>
      </trkpt>
      <trkpt lat="47.25909" lon="-2.31497">
        <ele>-1.7999999523163</ele>
        <time>2020-07-02T07:00:03.000Z</time>
      </trkpt>
      <trkpt lat="47.25909" lon="-2.31498">
        <ele>-1.7999999523163</ele>
        <time>2020-07-02T07:00:04.000Z</time>
      </trkpt>
      <trkpt lat="47.25909" lon="-2.31499">
        <ele>-1.7999999523163</ele>
        <time>2020-07-02T07:00:07.000Z</time>
      </trkpt>
      <trkpt lat="47.25902" lon="-2.31507">
        <ele>-1.7999999523163</ele>
        <time>2020-07-02T07:00:11.000Z</time>
      </trkpt>
      <trkpt lat="47.25894" lon="-2.31525">
        <ele>-1.7999999523163</ele>
        <time>2020-07-02T07:00:15.000Z</time>
      </trkpt>
      <trkpt lat="47.25892" lon="-2.31531">
        <ele>-1.7999999523163</ele>
        <time>2020-07-02T07:00:16.000Z</time>
      </trkpt>
      <trkpt lat="47.25889" lon="-2.31542">
        <ele>-1.3999999761581</ele>
        <time>2020-07-02T07:00:18.000Z</time>
      </trkpt>
      <trkpt lat="47.25887" lon="-2.31547">
        <ele>-1</ele>
        <time>2020-07-02T07:00:19.000Z</time>
      </trkpt>
      <trkpt lat="47.25884" lon="-2.31552">
        <ele>-0.60000002384186</ele>
        <time>2020-07-02T07:00:20.000Z</time>
      </trkpt>
      <trkpt lat="47.25882" lon="-2.31558">
        <ele>9.3</ele>
        <time>2020-07-02T07:00:21.000Z</time>
      </trkpt>
      <trkpt lat="47.25879" lon="-2.31563">
        <ele>0.40000000596046</ele>
        <time>2020-07-02T07:00:22.000Z</time>
      </trkpt>
      <trkpt lat="47.25866" lon="-2.31577">
        <ele>0.40000000596046</ele>
        <time>2020-07-02T07:00:26.000Z</time>
      </trkpt>
      <trkpt lat="47.25839" lon="-2.31603">
        <ele>0.40000000596046</ele>
        <time>2020-07-02T07:00:34.000Z</time>
      </trkpt>
      <trkpt lat="47.25828" lon="-2.31614">
        <ele>0.80000001192093</ele>
        <time>2020-07-02T07:00:37.000Z</time>
      </trkpt>
      <trkpt lat="47.25825" lon="-2.31617">
        <ele>1.2000000476837</ele>
        <time>2020-07-02T07:00:38.000Z</time>
      </trkpt>
      <trkpt lat="47.25821" lon="-2.3162">
        <ele>1.6000000238419</ele>
        <time>2020-07-02T07:00:39.000Z</time>
      </trkpt>
      <trkpt lat="47.25818" lon="-2.31623">
        <ele>2.5999999046326</ele>
        <time>2020-07-02T07:00:40.000Z</time>
      </trkpt>
      <trkpt lat="47.25814" lon="-2.31626">
        <ele>2.5999999046326</ele>
        <time>2020-07-02T07:00:41.000Z</time>
      </trkpt>
      <trkpt lat="47.25786" lon="-2.31651">
        <ele>2.5999999046326</ele>
        <time>2020-07-02T07:00:48.000Z</time>
      </trkpt>
      <trkpt lat="47.25782" lon="-2.31654">
        <ele>2.5999999046326</ele>
        <time>2020-07-02T07:00:49.000Z</time>
      </trkpt>
      <trkpt lat="47.25759" lon="-2.31673">
        <ele>2.5999999046326</ele>
        <time>2020-07-02T07:00:54.000Z</time>
      </trkpt>
      <trkpt lat="47.25732" lon="-2.31695">
        <ele>2.5999999046326</ele>
        <time>2020-07-02T07:01:00.000Z</time>
      </trkpt>
      <trkpt lat="47.25725" lon="-2.31702">
        <ele>2.2000000476837</ele>
        <time>2020-07-02T07:01:02.000Z</time>
      </trkpt>
      <trkpt lat="47.25721" lon="-2.31702">
        <ele>1.6000000238419</ele>
        <time>2020-07-02T07:01:03.000Z</time>
      </trkpt>
      <trkpt lat="47.25718" lon="-2.31698">
        <ele>1.2000000476837</ele>
        <time>2020-07-02T07:01:04.000Z</time>
      </trkpt>
      <trkpt lat="47.25715" lon="-2.31695">
        <ele>0.40000000596046</ele>
        <time>2020-07-02T07:01:05.000Z</time>
      </trkpt>
      <trkpt lat="47.25708" lon="-2.31689">
        <ele>0.40000000596046</ele>
        <time>2020-07-02T07:01:07.000Z</time>
      </trkpt>
      <trkpt lat="47.25699" lon="-2.31684">
        <ele>0.40000000596046</ele>
        <time>2020-07-02T07:01:09.000Z</time>
      </trkpt>
      <trkpt lat="47.25675" lon="-2.31674">
        <ele>0.40000000596046</ele>
        <time>2020-07-02T07:01:15.000Z</time>
      </trkpt>
      <trkpt lat="47.2567" lon="-2.31677">
        <ele>0.40000000596046</ele>
        <time>2020-07-02T07:01:18.000Z</time>
      </trkpt>
      <trkpt lat="47.25657" lon="-2.31685">
        <ele>0.80000001192093</ele>
        <time>2020-07-02T07:01:23.000Z</time>
      </trkpt>
      <trkpt lat="47.25653" lon="-2.31688">
        <ele>1.2000000476837</ele>
        <time>2020-07-02T07:01:24.000Z</time>
      </trkpt>
      <trkpt lat="47.25649" lon="-2.31692">
        <ele>1.6000000238419</ele>
        <time>2020-07-02T07:01:25.000Z</time>
      </trkpt>
      <trkpt lat="47.25645" lon="-2.31697">
        <ele>2.2000000476837</ele>
        <time>2020-07-02T07:01:26.000Z</time>
      </trkpt>
      <trkpt lat="47.25642" lon="-2.31701">
        <ele>2.5999999046326</ele>
        <time>2020-07-02T07:01:27.000Z</time>
      </trkpt>
      <trkpt lat="47.25632" lon="-2.31715">
        <ele>3</ele>
        <time>2020-07-02T07:01:31.000Z</time>
      </trkpt>
      <trkpt lat="47.2563" lon="-2.31718">
        <ele>3.4000000953674</ele>
        <time>2020-07-02T07:01:32.000Z</time>
      </trkpt>
      <trkpt lat="47.25628" lon="-2.31722">
        <ele>3.7999999523163</ele>
        <time>2020-07-02T07:01:33.000Z</time>
      </trkpt>
      <trkpt lat="47.25626" lon="-2.31727">
        <ele>4.1999998092651</ele>
        <time>2020-07-02T07:01:34.000Z</time>
      </trkpt>
      <trkpt lat="47.25625" lon="-2.31733">
        <ele>4.5999999046326</ele>
        <time>2020-07-02T07:01:35.000Z</time>
      </trkpt>
      <trkpt lat="47.25624" lon="-2.31739">
        <ele>4.5999999046326</ele>
        <time>2020-07-02T07:01:36.000Z</time>
      </trkpt>
      <trkpt lat="47.25618" lon="-2.31758">
        <ele>4.5999999046326</ele>
        <time>2020-07-02T07:01:39.000Z</time>
      </trkpt>
      <trkpt lat="47.25615" lon="-2.31762">
        <ele>4.5999999046326</ele>
        <time>2020-07-02T07:01:40.000Z</time>
      </trkpt>
      <trkpt lat="47.25601" lon="-2.31768">
        <ele>4.5999999046326</ele>
        <time>2020-07-02T07:01:43.000Z</time>
      </trkpt>
      <trkpt lat="47.25576" lon="-2.31774">
        <ele>4.5999999046326</ele>
        <time>2020-07-02T07:01:48.000Z</time>
      </trkpt>
      <trkpt lat="47.25567" lon="-2.31784">
        <ele>5</ele>
        <time>2020-07-02T07:01:51.000Z</time>
      </trkpt>
      <trkpt lat="47.25565" lon="-2.31789">
        <ele>5.4000000953674</ele>
        <time>2020-07-02T07:01:52.000Z</time>
      </trkpt>
      <trkpt lat="47.25564" lon="-2.31793">
        <ele>5.8000001907349</ele>
        <time>2020-07-02T07:01:53.000Z</time>
      </trkpt>
      <trkpt lat="47.25562" lon="-2.31798">
        <ele>6.5999999046326</ele>
        <time>2020-07-02T07:01:54.000Z</time>
      </trkpt>
      <trkpt lat="47.25559" lon="-2.31801">
        <ele>6.5999999046326</ele>
        <time>2020-07-02T07:01:55.000Z</time>
      </trkpt>
      <trkpt lat="47.25553" lon="-2.31803">
        <ele>6.5999999046326</ele>
        <time>2020-07-02T07:01:57.000Z</time>
      </trkpt>
      <trkpt lat="47.25537" lon="-2.31807">
        <ele>7</ele>
        <time>2020-07-02T07:02:01.000Z</time>
      </trkpt>
      <trkpt lat="47.25532" lon="-2.31809">
        <ele>7.4000000953674</ele>
        <time>2020-07-02T07:02:02.000Z</time>
      </trkpt>
      <trkpt lat="47.25528" lon="-2.3181">
        <ele>7.8000001907349</ele>
        <time>2020-07-02T07:02:03.000Z</time>
      </trkpt>
      <trkpt lat="47.25524" lon="-2.31811">
        <ele>8.1999998092651</ele>
        <time>2020-07-02T07:02:04.000Z</time>
      </trkpt>
      <trkpt lat="47.2552" lon="-2.31812">
        <ele>8.8000001907349</ele>
        <time>2020-07-02T07:02:05.000Z</time>
      </trkpt>
      <trkpt lat="47.25506" lon="-2.3182">
        <ele>8.8000001907349</ele>
        <time>2020-07-02T07:02:10.000Z</time>
      </trkpt>
      <trkpt lat="47.2551" lon="-2.31826">
        <ele>8.8000001907349</ele>
        <time>2020-07-02T07:02:13.000Z</time>
      </trkpt>
      <trkpt lat="47.25517" lon="-2.31824">
        <ele>8.8000001907349</ele>
        <time>2020-07-02T07:02:17.000Z</time>
      </trkpt>
      <trkpt lat="47.25518" lon="-2.31823">
        <ele>8.8000001907349</ele>
        <time>2020-07-02T07:02:18.000Z</time>
      </trkpt>
      <trkpt lat="47.2552" lon="-2.31823">
        <ele>8.8000001907349</ele>
        <time>2020-07-02T07:02:22.000Z</time>
      </trkpt>
      <trkpt lat="47.2552" lon="-2.31824">
        <ele>8.8000001907349</ele>
        <time>2020-07-02T07:02:25.000Z</time>
      </trkpt>
      <trkpt lat="47.25521" lon="-2.31825">
        <ele>12.800000190735</ele>
        <time>2020-07-02T07:13:16.000Z</time>
      </trkpt>
      <trkpt lat="47.25521" lon="-2.31827">
        <ele>12.800000190735</ele>
        <time>2020-07-02T07:13:17.000Z</time>
      </trkpt>
      <trkpt lat="47.2552" lon="-2.31833">
        <ele>12.800000190735</ele>
        <time>2020-07-02T07:13:20.000Z</time>
      </trkpt>
      <trkpt lat="47.25519" lon="-2.31834">
        <ele>12.800000190735</ele>
        <time>2020-07-02T07:13:21.000Z</time>
      </trkpt>
      <trkpt lat="47.25517" lon="-2.31832">
        <ele>12.800000190735</ele>
        <time>2020-07-02T07:13:23.000Z</time>
      </trkpt>
      <trkpt lat="47.25513" lon="-2.31827">
        <ele>12.800000190735</ele>
        <time>2020-07-02T07:13:27.000Z</time>
      </trkpt>
      <trkpt lat="47.25509" lon="-2.31826">
        <ele>12.800000190735</ele>
        <time>2020-07-02T07:13:29.000Z</time>
      </trkpt>
      <trkpt lat="47.25501" lon="-2.31824">
        <ele>12.800000190735</ele>
        <time>2020-07-02T07:13:32.000Z</time>
      </trkpt>
      <trkpt lat="47.25485" lon="-2.31829">
        <ele>12.800000190735</ele>
        <time>2020-07-02T07:13:38.000Z</time>
      </trkpt>
      <trkpt lat="47.25468" lon="-2.31843">
        <ele>12.800000190735</ele>
        <time>2020-07-02T07:13:44.000Z</time>
      </trkpt>
      <trkpt lat="47.25462" lon="-2.31848">
        <ele>12.800000190735</ele>
        <time>2020-07-02T07:13:46.000Z</time>
      </trkpt>
      <trkpt lat="47.25456" lon="-2.31844">
        <ele>12.800000190735</ele>
        <time>2020-07-02T07:13:48.000Z</time>
      </trkpt>
      <trkpt lat="47.25451" lon="-2.31827">
        <ele>12.800000190735</ele>
        <time>2020-07-02T07:13:51.000Z</time>
      </trkpt>
      <trkpt lat="47.25442" lon="-2.31784">
        <ele>12.800000190735</ele>
        <time>2020-07-02T07:13:59.000Z</time>
      </trkpt>
      <trkpt lat="47.25435" lon="-2.3176">
        <ele>13.199999809265</ele>
        <time>2020-07-02T07:14:04.000Z</time>
      </trkpt>
      <trkpt lat="47.25433" lon="-2.31755">
        <ele>13.60000038147</ele>
        <time>2020-07-02T07:14:05.000Z</time>
      </trkpt>
      <trkpt lat="47.25431" lon="-2.31751">
        <ele>14</ele>
        <time>2020-07-02T07:14:06.000Z</time>
      </trkpt>
      <trkpt lat="47.2543" lon="-2.31745">
        <ele>14.39999961853</ele>
        <time>2020-07-02T07:14:07.000Z</time>
      </trkpt>
      <trkpt lat="47.25429" lon="-2.3174">
        <ele>14.800000190735</ele>
        <time>2020-07-02T07:14:08.000Z</time>
      </trkpt>
      <trkpt lat="47.25422" lon="-2.31721">
        <ele>14.800000190735</ele>
        <time>2020-07-02T07:14:12.000Z</time>
      </trkpt>
      <trkpt lat="47.25411" lon="-2.31692">
        <ele>14.800000190735</ele>
        <time>2020-07-02T07:14:18.000Z</time>
      </trkpt>
      <trkpt lat="47.25395" lon="-2.31656">
        <ele>14.800000190735</ele>
        <time>2020-07-02T07:14:26.000Z</time>
      </trkpt>
      <trkpt lat="47.25375" lon="-2.31618">
        <ele>14.800000190735</ele>
        <time>2020-07-02T07:14:35.000Z</time>
      </trkpt>
      <trkpt lat="47.25363" lon="-2.31598">
        <ele>15.199999809265</ele>
        <time>2020-07-02T07:14:40.000Z</time>
      </trkpt>
      <trkpt lat="47.25361" lon="-2.31594">
        <ele>15.60000038147</ele>
        <time>2020-07-02T07:14:41.000Z</time>
      </trkpt>
      <trkpt lat="47.25359" lon="-2.3159">
        <ele>16</ele>
        <time>2020-07-02T07:14:42.000Z</time>
      </trkpt>
      <trkpt lat="47.25357" lon="-2.31586">
        <ele>16.60000038147</ele>
        <time>2020-07-02T07:14:43.000Z</time>
      </trkpt>
      <trkpt lat="47.25354" lon="-2.31582">
        <ele>17</ele>
        <time>2020-07-02T07:14:44.000Z</time>
      </trkpt>
      <trkpt lat="47.25338" lon="-2.31552">
        <ele>17</ele>
        <time>2020-07-02T07:14:51.000Z</time>
      </trkpt>
      <trkpt lat="47.25328" lon="-2.31516">
        <ele>17</ele>
        <time>2020-07-02T07:14:58.000Z</time>
      </trkpt>
      <trkpt lat="47.25326" lon="-2.31506">
        <ele>17.39999961853</ele>
        <time>2020-07-02T07:15:00.000Z</time>
      </trkpt>
      <trkpt lat="47.25325" lon="-2.31501">
        <ele>17.799999237061</ele>
        <time>2020-07-02T07:15:01.000Z</time>
      </trkpt>
      <trkpt lat="47.25325" lon="-2.31495">
        <ele>18.200000762939</ele>
        <time>2020-07-02T07:15:02.000Z</time>
      </trkpt>
      <trkpt lat="47.25324" lon="-2.3149">
        <ele>19</ele>
        <time>2020-07-02T07:15:03.000Z</time>
      </trkpt>
      <trkpt lat="47.25322" lon="-2.31468">
        <ele>19</ele>
        <time>2020-07-02T07:15:07.000Z</time>
      </trkpt>
      <trkpt lat="47.25314" lon="-2.31437">
        <ele>19</ele>
        <time>2020-07-02T07:15:14.000Z</time>
      </trkpt>
      <trkpt lat="47.25316" lon="-2.31413">
        <ele>19</ele>
        <time>2020-07-02T07:15:19.000Z</time>
      </trkpt>
      <trkpt lat="47.25318" lon="-2.31408">
        <ele>19</ele>
        <time>2020-07-02T07:15:20.000Z</time>
      </trkpt>
      <trkpt lat="47.25327" lon="-2.31385">
        <ele>19</ele>
        <time>2020-07-02T07:15:24.000Z</time>
      </trkpt>
      <trkpt lat="47.25332" lon="-2.31357">
        <ele>19</ele>
        <time>2020-07-02T07:15:28.000Z</time>
      </trkpt>
      <trkpt lat="47.25333" lon="-2.31348">
        <ele>19</ele>
        <time>2020-07-02T07:15:29.000Z</time>
      </trkpt>
      <trkpt lat="47.25341" lon="-2.31283">
        <ele>19</ele>
        <time>2020-07-02T07:15:36.000Z</time>
      </trkpt>
      <trkpt lat="47.25343" lon="-2.31241">
        <ele>18.60000038147</ele>
        <time>2020-07-02T07:15:40.000Z</time>
      </trkpt>
      <trkpt lat="47.25343" lon="-2.3123">
        <ele>18.200000762939</ele>
        <time>2020-07-02T07:15:41.000Z</time>
      </trkpt>
      <trkpt lat="47.25343" lon="-2.31218">
        <ele>17.799999237061</ele>
        <time>2020-07-02T07:15:42.000Z</time>
      </trkpt>
      <trkpt lat="47.25343" lon="-2.31207">
        <ele>17.39999961853</ele>
        <time>2020-07-02T07:15:43.000Z</time>
      </trkpt>
      <trkpt lat="47.25342" lon="-2.31197">
        <ele>17</ele>
        <time>2020-07-02T07:15:44.000Z</time>
      </trkpt>
      <trkpt lat="47.25338" lon="-2.31166">
        <ele>16.60000038147</ele>
        <time>2020-07-02T07:15:47.000Z</time>
      </trkpt>
      <trkpt lat="47.25335" lon="-2.31157">
        <ele>16.200000762939</ele>
        <time>2020-07-02T07:15:48.000Z</time>
      </trkpt>
      <trkpt lat="47.25331" lon="-2.3115">
        <ele>15.800000190735</ele>
        <time>2020-07-02T07:15:49.000Z</time>
      </trkpt>
      <trkpt lat="47.25327" lon="-2.31143">
        <ele>15.39999961853</ele>
        <time>2020-07-02T07:15:50.000Z</time>
      </trkpt>
      <trkpt lat="47.25324" lon="-2.31135">
        <ele>15</ele>
        <time>2020-07-02T07:15:51.000Z</time>
      </trkpt>
      <trkpt lat="47.25321" lon="-2.31126">
        <ele>15</ele>
        <time>2020-07-02T07:15:52.000Z</time>
      </trkpt>
      <trkpt lat="47.2532" lon="-2.31099">
        <ele>15</ele>
        <time>2020-07-02T07:15:55.000Z</time>
      </trkpt>
      <trkpt lat="47.25319" lon="-2.31082">
        <ele>15</ele>
        <time>2020-07-02T07:15:57.000Z</time>
      </trkpt>
      <trkpt lat="47.25315" lon="-2.31058">
        <ele>15</ele>
        <time>2020-07-02T07:16:00.000Z</time>
      </trkpt>
      <trkpt lat="47.25302" lon="-2.31003">
        <ele>15</ele>
        <time>2020-07-02T07:16:07.000Z</time>
      </trkpt>
      <trkpt lat="47.25301" lon="-2.30996">
        <ele>15.39999961853</ele>
        <time>2020-07-02T07:16:08.000Z</time>
      </trkpt>
      <trkpt lat="47.25299" lon="-2.30988">
        <ele>15.800000190735</ele>
        <time>2020-07-02T07:16:09.000Z</time>
      </trkpt>
      <trkpt lat="47.25297" lon="-2.30981">
        <ele>16.200000762939</ele>
        <time>2020-07-02T07:16:10.000Z</time>
      </trkpt>
      <trkpt lat="47.25295" lon="-2.30973">
        <ele>16.60000038147</ele>
        <time>2020-07-02T07:16:11.000Z</time>
      </trkpt>
      <trkpt lat="47.25293" lon="-2.30966">
        <ele>17</ele>
        <time>2020-07-02T07:16:12.000Z</time>
      </trkpt>
      <trkpt lat="47.25286" lon="-2.30944">
        <ele>17</ele>
        <time>2020-07-02T07:16:15.000Z</time>
      </trkpt>
      <trkpt lat="47.25268" lon="-2.30888">
        <ele>17.39999961853</ele>
        <time>2020-07-02T07:16:23.000Z</time>
      </trkpt>
      <trkpt lat="47.25265" lon="-2.30882">
        <ele>17.799999237061</ele>
        <time>2020-07-02T07:16:24.000Z</time>
      </trkpt>
      <trkpt lat="47.25263" lon="-2.30875">
        <ele>18.200000762939</ele>
        <time>2020-07-02T07:16:25.000Z</time>
      </trkpt>
      <trkpt lat="47.25262" lon="-2.30868">
        <ele>18.60000038147</ele>
        <time>2020-07-02T07:16:26.000Z</time>
      </trkpt>
      <trkpt lat="47.2526" lon="-2.30862">
        <ele>19</ele>
        <time>2020-07-02T07:16:27.000Z</time>
      </trkpt>
      <trkpt lat="47.25256" lon="-2.30849">
        <ele>19</ele>
        <time>2020-07-02T07:16:29.000Z</time>
      </trkpt>
      <trkpt lat="47.25249" lon="-2.30817">
        <ele>19.39999961853</ele>
        <time>2020-07-02T07:16:34.000Z</time>
      </trkpt>
      <trkpt lat="47.25247" lon="-2.3081">
        <ele>19.799999237061</ele>
        <time>2020-07-02T07:16:35.000Z</time>
      </trkpt>
      <trkpt lat="47.25246" lon="-2.30804">
        <ele>20.39999961853</ele>
        <time>2020-07-02T07:16:36.000Z</time>
      </trkpt>
      <trkpt lat="47.25245" lon="-2.30797">
        <ele>20.799999237061</ele>
        <time>2020-07-02T07:16:37.000Z</time>
      </trkpt>
      <trkpt lat="47.25245" lon="-2.30791">
        <ele>21.200000762939</ele>
        <time>2020-07-02T07:16:38.000Z</time>
      </trkpt>
      <trkpt lat="47.25244" lon="-2.30758">
        <ele>21.200000762939</ele>
        <time>2020-07-02T07:16:43.000Z</time>
      </trkpt>
      <trkpt lat="47.25242" lon="-2.30732">
        <ele>21.60000038147</ele>
        <time>2020-07-02T07:16:47.000Z</time>
      </trkpt>
      <trkpt lat="47.25241" lon="-2.30725">
        <ele>22</ele>
        <time>2020-07-02T07:16:48.000Z</time>
      </trkpt>
      <trkpt lat="47.25241" lon="-2.30719">
        <ele>22.39999961853</ele>
        <time>2020-07-02T07:16:49.000Z</time>
      </trkpt>
      <trkpt lat="47.2524" lon="-2.30713">
        <ele>22.799999237061</ele>
        <time>2020-07-02T07:16:50.000Z</time>
      </trkpt>
      <trkpt lat="47.25238" lon="-2.30707">
        <ele>23.200000762939</ele>
        <time>2020-07-02T07:16:51.000Z</time>
      </trkpt>
      <trkpt lat="47.25228" lon="-2.30688">
        <ele>23.200000762939</ele>
        <time>2020-07-02T07:16:55.000Z</time>
      </trkpt>
      <trkpt lat="47.25222" lon="-2.30682">
        <ele>23.200000762939</ele>
        <time>2020-07-02T07:16:57.000Z</time>
      </trkpt>
      <trkpt lat="47.25215" lon="-2.30671">
        <ele>23.200000762939</ele>
        <time>2020-07-02T07:17:00.000Z</time>
      </trkpt>
      <trkpt lat="47.25202" lon="-2.30643">
        <ele>23.60000038147</ele>
        <time>2020-07-02T07:17:06.000Z</time>
      </trkpt>
      <trkpt lat="47.25199" lon="-2.30638">
        <ele>24</ele>
        <time>2020-07-02T07:17:07.000Z</time>
      </trkpt>
      <trkpt lat="47.25197" lon="-2.30632">
        <ele>24.39999961853</ele>
        <time>2020-07-02T07:17:08.000Z</time>
      </trkpt>
      <trkpt lat="47.25195" lon="-2.30627">
        <ele>24.799999237061</ele>
        <time>2020-07-02T07:17:09.000Z</time>
      </trkpt>
      <trkpt lat="47.25193" lon="-2.30622">
        <ele>25.200000762939</ele>
        <time>2020-07-02T07:17:10.000Z</time>
      </trkpt>
      <trkpt lat="47.25184" lon="-2.306">
        <ele>25.200000762939</ele>
        <time>2020-07-02T07:17:14.000Z</time>
      </trkpt>
      <trkpt lat="47.25174" lon="-2.30565">
        <ele>25.799999237061</ele>
        <time>2020-07-02T07:17:20.000Z</time>
      </trkpt>
      <trkpt lat="47.25172" lon="-2.3056">
        <ele>26.200000762939</ele>
        <time>2020-07-02T07:17:21.000Z</time>
      </trkpt>
      <trkpt lat="47.25171" lon="-2.30554">
        <ele>26.60000038147</ele>
        <time>2020-07-02T07:17:22.000Z</time>
      </trkpt>
      <trkpt lat="47.25169" lon="-2.30548">
        <ele>27</ele>
        <time>2020-07-02T07:17:23.000Z</time>
      </trkpt>
      <trkpt lat="47.25167" lon="-2.30543">
        <ele>27.39999961853</ele>
        <time>2020-07-02T07:17:24.000Z</time>
      </trkpt>
      <trkpt lat="47.25155" lon="-2.30503">
        <ele>27.39999961853</ele>
        <time>2020-07-02T07:17:31.000Z</time>
      </trkpt>
      <trkpt lat="47.2514" lon="-2.30464">
        <ele>27.799999237061</ele>
        <time>2020-07-02T07:17:38.000Z</time>
      </trkpt>
      <trkpt lat="47.25137" lon="-2.30458">
        <ele>28.200000762939</ele>
        <time>2020-07-02T07:17:39.000Z</time>
      </trkpt>
      <trkpt lat="47.25135" lon="-2.30452">
        <ele>28.60000038147</ele>
        <time>2020-07-02T07:17:40.000Z</time>
      </trkpt>
      <trkpt lat="47.25133" lon="-2.30447">
        <ele>29</ele>
        <time>2020-07-02T07:17:41.000Z</time>
      </trkpt>
      <trkpt lat="47.2513" lon="-2.30441">
        <ele>29.39999961853</ele>
        <time>2020-07-02T07:17:42.000Z</time>
      </trkpt>
      <trkpt lat="47.25115" lon="-2.30404">
        <ele>29.39999961853</ele>
        <time>2020-07-02T07:17:49.000Z</time>
      </trkpt>
      <trkpt lat="47.2511" lon="-2.30387">
        <ele>29.39999961853</ele>
        <time>2020-07-02T07:17:52.000Z</time>
      </trkpt>
      <trkpt lat="47.25105" lon="-2.3037">
        <ele>29.39999961853</ele>
        <time>2020-07-02T07:17:55.000Z</time>
      </trkpt>
      <trkpt lat="47.25102" lon="-2.30356">
        <ele>29.39999961853</ele>
        <time>2020-07-02T07:17:57.000Z</time>
      </trkpt>
      <trkpt lat="47.25097" lon="-2.30328">
        <ele>29.39999961853</ele>
        <time>2020-07-02T07:18:01.000Z</time>
      </trkpt>
      <trkpt lat="47.25088" lon="-2.30302">
        <ele>29.799999237061</ele>
        <time>2020-07-02T07:18:05.000Z</time>
      </trkpt>
      <trkpt lat="47.25085" lon="-2.30297">
        <ele>30.200000762939</ele>
        <time>2020-07-02T07:18:06.000Z</time>
      </trkpt>
      <trkpt lat="47.25082" lon="-2.30291">
        <ele>30.60000038147</ele>
        <time>2020-07-02T07:18:07.000Z</time>
      </trkpt>
      <trkpt lat="47.25079" lon="-2.30286">
        <ele>31</ele>
        <time>2020-07-02T07:18:08.000Z</time>
      </trkpt>
      <trkpt lat="47.25077" lon="-2.3028">
        <ele>31.39999961853</ele>
        <time>2020-07-02T07:18:09.000Z</time>
      </trkpt>
      <trkpt lat="47.25073" lon="-2.30274">
        <ele>31.39999961853</ele>
        <time>2020-07-02T07:18:10.000Z</time>
      </trkpt>
      <trkpt lat="47.25067" lon="-2.30261">
        <ele>31.39999961853</ele>
        <time>2020-07-02T07:18:12.000Z</time>
      </trkpt>
      <trkpt lat="47.25058" lon="-2.30226">
        <ele>31.39999961853</ele>
        <time>2020-07-02T07:18:17.000Z</time>
      </trkpt>
      <trkpt lat="47.25057" lon="-2.30203">
        <ele>31.39999961853</ele>
        <time>2020-07-02T07:18:20.000Z</time>
      </trkpt>
      <trkpt lat="47.25058" lon="-2.30186">
        <ele>31.39999961853</ele>
        <time>2020-07-02T07:18:22.000Z</time>
      </trkpt>
      <trkpt lat="47.25065" lon="-2.30142">
        <ele>31.39999961853</ele>
        <time>2020-07-02T07:18:28.000Z</time>
      </trkpt>
      <trkpt lat="47.2507" lon="-2.30135">
        <ele>31.39999961853</ele>
        <time>2020-07-02T07:18:30.000Z</time>
      </trkpt>
      <trkpt lat="47.25074" lon="-2.30134">
        <ele>31.39999961853</ele>
        <time>2020-07-02T07:18:31.000Z</time>
      </trkpt>
      <trkpt lat="47.25094" lon="-2.30133">
        <ele>31.39999961853</ele>
        <time>2020-07-02T07:18:35.000Z</time>
      </trkpt>
      <trkpt lat="47.25104" lon="-2.30131">
        <ele>31.39999961853</ele>
        <time>2020-07-02T07:18:37.000Z</time>
      </trkpt>
      <trkpt lat="47.25124" lon="-2.30128">
        <ele>31.39999961853</ele>
        <time>2020-07-02T07:18:41.000Z</time>
      </trkpt>
      <trkpt lat="47.25161" lon="-2.30119">
        <ele>31.39999961853</ele>
        <time>2020-07-02T07:18:48.000Z</time>
      </trkpt>
      <trkpt lat="47.25172" lon="-2.30118">
        <ele>31.39999961853</ele>
        <time>2020-07-02T07:18:50.000Z</time>
      </trkpt>
      <trkpt lat="47.2518" lon="-2.30123">
        <ele>31.39999961853</ele>
        <time>2020-07-02T07:18:52.000Z</time>
      </trkpt>
      <trkpt lat="47.25191" lon="-2.30144">
        <ele>31.39999961853</ele>
        <time>2020-07-02T07:18:55.000Z</time>
      </trkpt>
      <trkpt lat="47.25195" lon="-2.30149">
        <ele>31.39999961853</ele>
        <time>2020-07-02T07:18:56.000Z</time>
      </trkpt>
      <trkpt lat="47.2521" lon="-2.30167">
        <ele>31.39999961853</ele>
        <time>2020-07-02T07:18:59.000Z</time>
      </trkpt>
      <trkpt lat="47.25215" lon="-2.30172">
        <ele>31</ele>
        <time>2020-07-02T07:19:00.000Z</time>
      </trkpt>
      <trkpt lat="47.2522" lon="-2.30176">
        <ele>30.60000038147</ele>
        <time>2020-07-02T07:19:01.000Z</time>
      </trkpt>
      <trkpt lat="47.25224" lon="-2.3018">
        <ele>30.200000762939</ele>
        <time>2020-07-02T07:19:02.000Z</time>
      </trkpt>
      <trkpt lat="47.2523" lon="-2.30181">
        <ele>29.799999237061</ele>
        <time>2020-07-02T07:19:03.000Z</time>
      </trkpt>
      <trkpt lat="47.25236" lon="-2.30184">
        <ele>29.39999961853</ele>
        <time>2020-07-02T07:19:04.000Z</time>
      </trkpt>
      <trkpt lat="47.2526" lon="-2.30193">
        <ele>29.39999961853</ele>
        <time>2020-07-02T07:19:08.000Z</time>
      </trkpt>
      <trkpt lat="47.25272" lon="-2.30198">
        <ele>29</ele>
        <time>2020-07-02T07:19:10.000Z</time>
      </trkpt>
      <trkpt lat="47.25278" lon="-2.30201">
        <ele>28.60000038147</ele>
        <time>2020-07-02T07:19:11.000Z</time>
      </trkpt>
      <trkpt lat="47.25284" lon="-2.30204">
        <ele>28.200000762939</ele>
        <time>2020-07-02T07:19:12.000Z</time>
      </trkpt>
      <trkpt lat="47.25289" lon="-2.30207">
        <ele>27.60000038147</ele>
        <time>2020-07-02T07:19:13.000Z</time>
      </trkpt>
      <trkpt lat="47.25294" lon="-2.30209">
        <ele>27.200000762939</ele>
        <time>2020-07-02T07:19:14.000Z</time>
      </trkpt>
      <trkpt lat="47.25297" lon="-2.30212">
        <ele>27.200000762939</ele>
        <time>2020-07-02T07:19:15.000Z</time>
      </trkpt>
      <trkpt lat="47.25302" lon="-2.30211">
        <ele>27.200000762939</ele>
        <time>2020-07-02T07:19:17.000Z</time>
      </trkpt>
      <trkpt lat="47.25304" lon="-2.30209">
        <ele>27.200000762939</ele>
        <time>2020-07-02T07:19:18.000Z</time>
      </trkpt>
      <trkpt lat="47.25318" lon="-2.30207">
        <ele>27.200000762939</ele>
        <time>2020-07-02T07:19:22.000Z</time>
      </trkpt>
      <trkpt lat="47.25324" lon="-2.30208">
        <ele>27.200000762939</ele>
        <time>2020-07-02T07:19:23.000Z</time>
      </trkpt>
      <trkpt lat="47.25334" lon="-2.30208">
        <ele>27.200000762939</ele>
        <time>2020-07-02T07:19:25.000Z</time>
      </trkpt>
      <trkpt lat="47.25345" lon="-2.30208">
        <ele>27.200000762939</ele>
        <time>2020-07-02T07:19:27.000Z</time>
      </trkpt>
      <trkpt lat="47.25355" lon="-2.30209">
        <ele>26.799999237061</ele>
        <time>2020-07-02T07:19:29.000Z</time>
      </trkpt>
      <trkpt lat="47.25361" lon="-2.30209">
        <ele>26.39999961853</ele>
        <time>2020-07-02T07:19:30.000Z</time>
      </trkpt>
      <trkpt lat="47.25367" lon="-2.30209">
        <ele>26</ele>
        <time>2020-07-02T07:19:31.000Z</time>
      </trkpt>
      <trkpt lat="47.25372" lon="-2.3021">
        <ele>25.60000038147</ele>
        <time>2020-07-02T07:19:32.000Z</time>
      </trkpt>
      <trkpt lat="47.25377" lon="-2.30211">
        <ele>25.200000762939</ele>
        <time>2020-07-02T07:19:33.000Z</time>
      </trkpt>
      <trkpt lat="47.25381" lon="-2.30212">
        <ele>25.200000762939</ele>
        <time>2020-07-02T07:19:34.000Z</time>
      </trkpt>
      <trkpt lat="47.25384" lon="-2.30216">
        <ele>25.200000762939</ele>
        <time>2020-07-02T07:19:35.000Z</time>
      </trkpt>
      <trkpt lat="47.25392" lon="-2.3022">
        <ele>25.200000762939</ele>
        <time>2020-07-02T07:19:37.000Z</time>
      </trkpt>
      <trkpt lat="47.25398" lon="-2.30222">
        <ele>25.200000762939</ele>
        <time>2020-07-02T07:19:38.000Z</time>
      </trkpt>
      <trkpt lat="47.25413" lon="-2.30228">
        <ele>25.200000762939</ele>
        <time>2020-07-02T07:19:41.000Z</time>
      </trkpt>
      <trkpt lat="47.25417" lon="-2.30229">
        <ele>25.200000762939</ele>
        <time>2020-07-02T07:19:42.000Z</time>
      </trkpt>
      <trkpt lat="47.25438" lon="-2.30235">
        <ele>25.200000762939</ele>
        <time>2020-07-02T07:19:46.000Z</time>
      </trkpt>
      <trkpt lat="47.25462" lon="-2.30242">
        <ele>25.200000762939</ele>
        <time>2020-07-02T07:19:50.000Z</time>
      </trkpt>
      <trkpt lat="47.25467" lon="-2.30245">
        <ele>24.799999237061</ele>
        <time>2020-07-02T07:19:51.000Z</time>
      </trkpt>
      <trkpt lat="47.25471" lon="-2.30246">
        <ele>24.39999961853</ele>
        <time>2020-07-02T07:19:52.000Z</time>
      </trkpt>
      <trkpt lat="47.25475" lon="-2.30243">
        <ele>24</ele>
        <time>2020-07-02T07:19:53.000Z</time>
      </trkpt>
      <trkpt lat="47.25479" lon="-2.3024">
        <ele>23.60000038147</ele>
        <time>2020-07-02T07:19:54.000Z</time>
      </trkpt>
      <trkpt lat="47.25481" lon="-2.30234">
        <ele>23.200000762939</ele>
        <time>2020-07-02T07:19:55.000Z</time>
      </trkpt>
      <trkpt lat="47.25484" lon="-2.30223">
        <ele>23.200000762939</ele>
        <time>2020-07-02T07:19:57.000Z</time>
      </trkpt>
      <trkpt lat="47.25491" lon="-2.30207">
        <ele>23.200000762939</ele>
        <time>2020-07-02T07:20:00.000Z</time>
      </trkpt>
      <trkpt lat="47.25494" lon="-2.30203">
        <ele>23.200000762939</ele>
        <time>2020-07-02T07:20:01.000Z</time>
      </trkpt>
      <trkpt lat="47.25497" lon="-2.30199">
        <ele>23.200000762939</ele>
        <time>2020-07-02T07:20:02.000Z</time>
      </trkpt>
      <trkpt lat="47.25505" lon="-2.30199">
        <ele>23.200000762939</ele>
        <time>2020-07-02T07:20:04.000Z</time>
      </trkpt>
      <trkpt lat="47.25515" lon="-2.30199">
        <ele>23.200000762939</ele>
        <time>2020-07-02T07:20:06.000Z</time>
      </trkpt>
      <trkpt lat="47.25523" lon="-2.30199">
        <ele>23.200000762939</ele>
        <time>2020-07-02T07:20:08.000Z</time>
      </trkpt>
      <trkpt lat="47.25528" lon="-2.30197">
        <ele>22.799999237061</ele>
        <time>2020-07-02T07:20:09.000Z</time>
      </trkpt>
      <trkpt lat="47.25532" lon="-2.30194">
        <ele>22.39999961853</ele>
        <time>2020-07-02T07:20:10.000Z</time>
      </trkpt>
      <trkpt lat="47.25537" lon="-2.30192">
        <ele>22</ele>
        <time>2020-07-02T07:20:11.000Z</time>
      </trkpt>
      <trkpt lat="47.25543" lon="-2.30189">
        <ele>21.60000038147</ele>
        <time>2020-07-02T07:20:12.000Z</time>
      </trkpt>
      <trkpt lat="47.25547" lon="-2.30186">
        <ele>21.200000762939</ele>
        <time>2020-07-02T07:20:13.000Z</time>
      </trkpt>
      <trkpt lat="47.25552" lon="-2.30186">
        <ele>21.200000762939</ele>
        <time>2020-07-02T07:20:14.000Z</time>
      </trkpt>
      <trkpt lat="47.25569" lon="-2.30188">
        <ele>21.200000762939</ele>
        <time>2020-07-02T07:20:17.000Z</time>
      </trkpt>
      <trkpt lat="47.25587" lon="-2.30201">
        <ele>21.200000762939</ele>
        <time>2020-07-02T07:20:20.000Z</time>
      </trkpt>
      <trkpt lat="47.25594" lon="-2.30207">
        <ele>21.200000762939</ele>
        <time>2020-07-02T07:20:21.000Z</time>
      </trkpt>
      <trkpt lat="47.25609" lon="-2.30226">
        <ele>21.200000762939</ele>
        <time>2020-07-02T07:20:24.000Z</time>
      </trkpt>
      <trkpt lat="47.25615" lon="-2.30241">
        <ele>21.200000762939</ele>
        <time>2020-07-02T07:20:26.000Z</time>
      </trkpt>
      <trkpt lat="47.25626" lon="-2.30291">
        <ele>21.200000762939</ele>
        <time>2020-07-02T07:20:32.000Z</time>
      </trkpt>
      <trkpt lat="47.2563" lon="-2.30339">
        <ele>21.200000762939</ele>
        <time>2020-07-02T07:20:38.000Z</time>
      </trkpt>
      <trkpt lat="47.25637" lon="-2.30338">
        <ele>21.200000762939</ele>
        <time>2020-07-02T07:20:41.000Z</time>
      </trkpt>
      <trkpt lat="47.2564" lon="-2.30336">
        <ele>21.200000762939</ele>
        <time>2020-07-02T07:20:42.000Z</time>
      </trkpt>
      <trkpt lat="47.25651" lon="-2.30319">
        <ele>21.200000762939</ele>
        <time>2020-07-02T07:20:46.000Z</time>
      </trkpt>
      <trkpt lat="47.25656" lon="-2.30301">
        <ele>21.200000762939</ele>
        <time>2020-07-02T07:20:49.000Z</time>
      </trkpt>
      <trkpt lat="47.25655" lon="-2.30295">
        <ele>21.200000762939</ele>
        <time>2020-07-02T07:20:50.000Z</time>
      </trkpt>
      <trkpt lat="47.25662" lon="-2.30272">
        <ele>21.200000762939</ele>
        <time>2020-07-02T07:20:54.000Z</time>
      </trkpt>
      <trkpt lat="47.25669" lon="-2.30267">
        <ele>21.200000762939</ele>
        <time>2020-07-02T07:20:56.000Z</time>
      </trkpt>
      <trkpt lat="47.25676" lon="-2.3026">
        <ele>21.200000762939</ele>
        <time>2020-07-02T07:20:58.000Z</time>
      </trkpt>
      <trkpt lat="47.25681" lon="-2.3025">
        <ele>21.200000762939</ele>
        <time>2020-07-02T07:21:00.000Z</time>
      </trkpt>
      <trkpt lat="47.25684" lon="-2.30237">
        <ele>21.200000762939</ele>
        <time>2020-07-02T07:21:02.000Z</time>
      </trkpt>
      <trkpt lat="47.25694" lon="-2.30218">
        <ele>21.200000762939</ele>
        <time>2020-07-02T07:21:05.000Z</time>
      </trkpt>
      <trkpt lat="47.257" lon="-2.30213">
        <ele>21.200000762939</ele>
        <time>2020-07-02T07:21:06.000Z</time>
      </trkpt>
      <trkpt lat="47.25725" lon="-2.30206">
        <ele>21.200000762939</ele>
        <time>2020-07-02T07:21:10.000Z</time>
      </trkpt>
      <trkpt lat="47.25743" lon="-2.30214">
        <ele>20.799999237061</ele>
        <time>2020-07-02T07:21:13.000Z</time>
      </trkpt>
      <trkpt lat="47.25749" lon="-2.30217">
        <ele>20.200000762939</ele>
        <time>2020-07-02T07:21:14.000Z</time>
      </trkpt>
      <trkpt lat="47.25756" lon="-2.3022">
        <ele>19.799999237061</ele>
        <time>2020-07-02T07:21:15.000Z</time>
      </trkpt>
      <trkpt lat="47.25762" lon="-2.30223">
        <ele>19.39999961853</ele>
        <time>2020-07-02T07:21:16.000Z</time>
      </trkpt>
      <trkpt lat="47.25768" lon="-2.30226">
        <ele>19</ele>
        <time>2020-07-02T07:21:17.000Z</time>
      </trkpt>
      <trkpt lat="47.25795" lon="-2.3024">
        <ele>19</ele>
        <time>2020-07-02T07:21:21.000Z</time>
      </trkpt>
      <trkpt lat="47.25816" lon="-2.3025">
        <ele>19</ele>
        <time>2020-07-02T07:21:24.000Z</time>
      </trkpt>
      <trkpt lat="47.25831" lon="-2.30256">
        <ele>19</ele>
        <time>2020-07-02T07:21:26.000Z</time>
      </trkpt>
      <trkpt lat="47.25838" lon="-2.30259">
        <ele>19</ele>
        <time>2020-07-02T07:21:27.000Z</time>
      </trkpt>
      <trkpt lat="47.25866" lon="-2.30272">
        <ele>19</ele>
        <time>2020-07-02T07:21:32.000Z</time>
      </trkpt>
      <trkpt lat="47.25871" lon="-2.30272">
        <ele>19</ele>
        <time>2020-07-02T07:21:33.000Z</time>
      </trkpt>
      <trkpt lat="47.25878" lon="-2.30264">
        <ele>19</ele>
        <time>2020-07-02T07:21:35.000Z</time>
      </trkpt>
      <trkpt lat="47.25889" lon="-2.3025">
        <ele>19</ele>
        <time>2020-07-02T07:21:38.000Z</time>
      </trkpt>
      <trkpt lat="47.25892" lon="-2.30243">
        <ele>19</ele>
        <time>2020-07-02T07:21:39.000Z</time>
      </trkpt>
      <trkpt lat="47.25892" lon="-2.30235">
        <ele>19</ele>
        <time>2020-07-02T07:21:40.000Z</time>
      </trkpt>
      <trkpt lat="47.2589" lon="-2.30203">
        <ele>19</ele>
        <time>2020-07-02T07:21:44.000Z</time>
      </trkpt>
      <trkpt lat="47.25888" lon="-2.30196">
        <ele>19</ele>
        <time>2020-07-02T07:21:45.000Z</time>
      </trkpt>
      <trkpt lat="47.25885" lon="-2.30189">
        <ele>19</ele>
        <time>2020-07-02T07:21:46.000Z</time>
      </trkpt>
      <trkpt lat="47.25881" lon="-2.30175">
        <ele>19</ele>
        <time>2020-07-02T07:21:48.000Z</time>
      </trkpt>
      <trkpt lat="47.2589" lon="-2.30166">
        <ele>19</ele>
        <time>2020-07-02T07:21:51.000Z</time>
      </trkpt>
      <trkpt lat="47.25908" lon="-2.30169">
        <ele>19</ele>
        <time>2020-07-02T07:21:54.000Z</time>
      </trkpt>
      <trkpt lat="47.2592" lon="-2.30167">
        <ele>19</ele>
        <time>2020-07-02T07:21:56.000Z</time>
      </trkpt>
      <trkpt lat="47.25939" lon="-2.30164">
        <ele>19</ele>
        <time>2020-07-02T07:21:59.000Z</time>
      </trkpt>
      <trkpt lat="47.25945" lon="-2.30161">
        <ele>19</ele>
        <time>2020-07-02T07:22:00.000Z</time>
      </trkpt>
      <trkpt lat="47.25954" lon="-2.30152">
        <ele>18.60000038147</ele>
        <time>2020-07-02T07:22:02.000Z</time>
      </trkpt>
      <trkpt lat="47.25958" lon="-2.30145">
        <ele>17.60000038147</ele>
        <time>2020-07-02T07:22:03.000Z</time>
      </trkpt>
      <trkpt lat="47.25962" lon="-2.30139">
        <ele>17.200000762939</ele>
        <time>2020-07-02T07:22:04.000Z</time>
      </trkpt>
      <trkpt lat="47.25965" lon="-2.30133">
        <ele>16.799999237061</ele>
        <time>2020-07-02T07:22:05.000Z</time>
      </trkpt>
      <trkpt lat="47.25972" lon="-2.30127">
        <ele>16.799999237061</ele>
        <time>2020-07-02T07:22:07.000Z</time>
      </trkpt>
      <trkpt lat="47.25979" lon="-2.30127">
        <ele>16.799999237061</ele>
        <time>2020-07-02T07:22:09.000Z</time>
      </trkpt>
      <trkpt lat="47.25983" lon="-2.30126">
        <ele>16.799999237061</ele>
        <time>2020-07-02T07:22:10.000Z</time>
      </trkpt>
      <trkpt lat="47.25999" lon="-2.30122">
        <ele>16.799999237061</ele>
        <time>2020-07-02T07:22:15.000Z</time>
      </trkpt>
      <trkpt lat="47.26011" lon="-2.30126">
        <ele>16.799999237061</ele>
        <time>2020-07-02T07:22:19.000Z</time>
      </trkpt>
      <trkpt lat="47.2602" lon="-2.30129">
        <ele>16.799999237061</ele>
        <time>2020-07-02T07:22:21.000Z</time>
      </trkpt>
      <trkpt lat="47.26024" lon="-2.3013">
        <ele>16.799999237061</ele>
        <time>2020-07-02T07:22:22.000Z</time>
      </trkpt>
      <trkpt lat="47.26029" lon="-2.30131">
        <ele>16.799999237061</ele>
        <time>2020-07-02T07:22:23.000Z</time>
      </trkpt>
      <trkpt lat="47.26046" lon="-2.30131">
        <ele>17.200000762939</ele>
        <time>2020-07-02T07:22:27.000Z</time>
      </trkpt>
      <trkpt lat="47.2605" lon="-2.30133">
        <ele>18</ele>
        <time>2020-07-02T07:22:28.000Z</time>
      </trkpt>
      <trkpt lat="47.26054" lon="-2.30137">
        <ele>18.39999961853</ele>
        <time>2020-07-02T07:22:29.000Z</time>
      </trkpt>
      <trkpt lat="47.26058" lon="-2.3014">
        <ele>18.799999237061</ele>
        <time>2020-07-02T07:22:30.000Z</time>
      </trkpt>
      <trkpt lat="47.26067" lon="-2.30146">
        <ele>18.799999237061</ele>
        <time>2020-07-02T07:22:33.000Z</time>
      </trkpt>
      <trkpt lat="47.2608" lon="-2.30142">
        <ele>18.799999237061</ele>
        <time>2020-07-02T07:22:37.000Z</time>
      </trkpt>
      <trkpt lat="47.26083" lon="-2.30143">
        <ele>19.200000762939</ele>
        <time>2020-07-02T07:22:38.000Z</time>
      </trkpt>
      <trkpt lat="47.26085" lon="-2.30145">
        <ele>19.60000038147</ele>
        <time>2020-07-02T07:22:39.000Z</time>
      </trkpt>
      <trkpt lat="47.26087" lon="-2.30147">
        <ele>20.200000762939</ele>
        <time>2020-07-02T07:22:40.000Z</time>
      </trkpt>
      <trkpt lat="47.26089" lon="-2.30149">
        <ele>20.60000038147</ele>
        <time>2020-07-02T07:22:41.000Z</time>
      </trkpt>
      <trkpt lat="47.26091" lon="-2.30151">
        <ele>21</ele>
        <time>2020-07-02T07:22:42.000Z</time>
      </trkpt>
      <trkpt lat="47.26097" lon="-2.30153">
        <ele>21</ele>
        <time>2020-07-02T07:22:44.000Z</time>
      </trkpt>
      <trkpt lat="47.26102" lon="-2.30154">
        <ele>21</ele>
        <time>2020-07-02T07:22:45.000Z</time>
      </trkpt>
      <trkpt lat="47.26125" lon="-2.3015">
        <ele>21</ele>
        <time>2020-07-02T07:22:50.000Z</time>
      </trkpt>
      <trkpt lat="47.26129" lon="-2.30149">
        <ele>21.39999961853</ele>
        <time>2020-07-02T07:22:51.000Z</time>
      </trkpt>
      <trkpt lat="47.26133" lon="-2.30149">
        <ele>22.200000762939</ele>
        <time>2020-07-02T07:22:52.000Z</time>
      </trkpt>
      <trkpt lat="47.26137" lon="-2.30148">
        <ele>22.799999237061</ele>
        <time>2020-07-02T07:22:53.000Z</time>
      </trkpt>
      <trkpt lat="47.26141" lon="-2.30148">
        <ele>23.200000762939</ele>
        <time>2020-07-02T07:22:54.000Z</time>
      </trkpt>
      <trkpt lat="47.26152" lon="-2.30145">
        <ele>23.200000762939</ele>
        <time>2020-07-02T07:22:57.000Z</time>
      </trkpt>
      <trkpt lat="47.26163" lon="-2.30142">
        <ele>23.60000038147</ele>
        <time>2020-07-02T07:23:01.000Z</time>
      </trkpt>
      <trkpt lat="47.26165" lon="-2.30143">
        <ele>24</ele>
        <time>2020-07-02T07:23:02.000Z</time>
      </trkpt>
      <trkpt lat="47.26167" lon="-2.30147">
        <ele>24.39999961853</ele>
        <time>2020-07-02T07:23:03.000Z</time>
      </trkpt>
      <trkpt lat="47.26168" lon="-2.30151">
        <ele>24.799999237061</ele>
        <time>2020-07-02T07:23:04.000Z</time>
      </trkpt>
      <trkpt lat="47.2617" lon="-2.30155">
        <ele>25.200000762939</ele>
        <time>2020-07-02T07:23:05.000Z</time>
      </trkpt>
      <trkpt lat="47.26178" lon="-2.30154">
        <ele>25.200000762939</ele>
        <time>2020-07-02T07:23:07.000Z</time>
      </trkpt>
      <trkpt lat="47.26185" lon="-2.3015">
        <ele>25.200000762939</ele>
        <time>2020-07-02T07:23:09.000Z</time>
      </trkpt>
      <trkpt lat="47.26193" lon="-2.30147">
        <ele>25.200000762939</ele>
        <time>2020-07-02T07:23:11.000Z</time>
      </trkpt>
      <trkpt lat="47.26206" lon="-2.30143">
        <ele>25.60000038147</ele>
        <time>2020-07-02T07:23:14.000Z</time>
      </trkpt>
      <trkpt lat="47.26211" lon="-2.30141">
        <ele>26</ele>
        <time>2020-07-02T07:23:15.000Z</time>
      </trkpt>
      <trkpt lat="47.26215" lon="-2.30139">
        <ele>26.39999961853</ele>
        <time>2020-07-02T07:23:16.000Z</time>
      </trkpt>
      <trkpt lat="47.26219" lon="-2.30138">
        <ele>27.39999961853</ele>
        <time>2020-07-02T07:23:17.000Z</time>
      </trkpt>
      <trkpt lat="47.26222" lon="-2.30137">
        <ele>27.39999961853</ele>
        <time>2020-07-02T07:23:18.000Z</time>
      </trkpt>
      <trkpt lat="47.26243" lon="-2.3013">
        <ele>27.39999961853</ele>
        <time>2020-07-02T07:23:24.000Z</time>
      </trkpt>
      <trkpt lat="47.26251" lon="-2.30141">
        <ele>27.39999961853</ele>
        <time>2020-07-02T07:23:27.000Z</time>
      </trkpt>
      <trkpt lat="47.26253" lon="-2.30147">
        <ele>27.39999961853</ele>
        <time>2020-07-02T07:23:28.000Z</time>
      </trkpt>
      <trkpt lat="47.26266" lon="-2.3018">
        <ele>27.39999961853</ele>
        <time>2020-07-02T07:23:33.000Z</time>
      </trkpt>
      <trkpt lat="47.26269" lon="-2.30196">
        <ele>27.39999961853</ele>
        <time>2020-07-02T07:23:35.000Z</time>
      </trkpt>
      <trkpt lat="47.26272" lon="-2.30215">
        <ele>27.39999961853</ele>
        <time>2020-07-02T07:23:37.000Z</time>
      </trkpt>
      <trkpt lat="47.26283" lon="-2.30282">
        <ele>27.39999961853</ele>
        <time>2020-07-02T07:23:44.000Z</time>
      </trkpt>
      <trkpt lat="47.263" lon="-2.30333">
        <ele>27.39999961853</ele>
        <time>2020-07-02T07:23:50.000Z</time>
      </trkpt>
      <trkpt lat="47.26303" lon="-2.30349">
        <ele>27.39999961853</ele>
        <time>2020-07-02T07:23:52.000Z</time>
      </trkpt>
      <trkpt lat="47.26305" lon="-2.30365">
        <ele>27.39999961853</ele>
        <time>2020-07-02T07:23:54.000Z</time>
      </trkpt>
      <trkpt lat="47.26314" lon="-2.30423">
        <ele>27.39999961853</ele>
        <time>2020-07-02T07:24:01.000Z</time>
      </trkpt>
      <trkpt lat="47.26325" lon="-2.3048">
        <ele>27.39999961853</ele>
        <time>2020-07-02T07:24:08.000Z</time>
      </trkpt>
      <trkpt lat="47.26332" lon="-2.30506">
        <ele>27.39999961853</ele>
        <time>2020-07-02T07:24:11.000Z</time>
      </trkpt>
      <trkpt lat="47.26335" lon="-2.30522">
        <ele>27.39999961853</ele>
        <time>2020-07-02T07:24:13.000Z</time>
      </trkpt>
      <trkpt lat="47.2634" lon="-2.30537">
        <ele>27.39999961853</ele>
        <time>2020-07-02T07:24:15.000Z</time>
      </trkpt>
      <trkpt lat="47.26344" lon="-2.30555">
        <ele>27.39999961853</ele>
        <time>2020-07-02T07:24:18.000Z</time>
      </trkpt>
      <trkpt lat="47.26345" lon="-2.30584">
        <ele>26.799999237061</ele>
        <time>2020-07-02T07:24:23.000Z</time>
      </trkpt>
      <trkpt lat="47.26347" lon="-2.30591">
        <ele>26.39999961853</ele>
        <time>2020-07-02T07:24:24.000Z</time>
      </trkpt>
      <trkpt lat="47.26349" lon="-2.30597">
        <ele>26</ele>
        <time>2020-07-02T07:24:25.000Z</time>
      </trkpt>
      <trkpt lat="47.26352" lon="-2.30602">
        <ele>25.60000038147</ele>
        <time>2020-07-02T07:24:26.000Z</time>
      </trkpt>
      <trkpt lat="47.26354" lon="-2.30606">
        <ele>25.200000762939</ele>
        <time>2020-07-02T07:24:27.000Z</time>
      </trkpt>
      <trkpt lat="47.26358" lon="-2.30614">
        <ele>25.200000762939</ele>
        <time>2020-07-02T07:24:29.000Z</time>
      </trkpt>
      <trkpt lat="47.2637" lon="-2.30636">
        <ele>25.200000762939</ele>
        <time>2020-07-02T07:24:35.000Z</time>
      </trkpt>
      <trkpt lat="47.26387" lon="-2.30655">
        <ele>25.200000762939</ele>
        <time>2020-07-02T07:24:40.000Z</time>
      </trkpt>
      <trkpt lat="47.26411" lon="-2.30675">
        <ele>25.200000762939</ele>
        <time>2020-07-02T07:24:46.000Z</time>
      </trkpt>
      <trkpt lat="47.26418" lon="-2.30682">
        <ele>25.200000762939</ele>
        <time>2020-07-02T07:24:48.000Z</time>
      </trkpt>
      <trkpt lat="47.26423" lon="-2.30696">
        <ele>25.200000762939</ele>
        <time>2020-07-02T07:24:51.000Z</time>
      </trkpt>
      <trkpt lat="47.2643" lon="-2.30711">
        <ele>25.200000762939</ele>
        <time>2020-07-02T07:24:54.000Z</time>
      </trkpt>
      <trkpt lat="47.26436" lon="-2.30728">
        <ele>25.200000762939</ele>
        <time>2020-07-02T07:24:57.000Z</time>
      </trkpt>
      <trkpt lat="47.26441" lon="-2.3074">
        <ele>25.200000762939</ele>
        <time>2020-07-02T07:24:59.000Z</time>
      </trkpt>
      <trkpt lat="47.26455" lon="-2.30773">
        <ele>24.799999237061</ele>
        <time>2020-07-02T07:25:04.000Z</time>
      </trkpt>
      <trkpt lat="47.26457" lon="-2.30779">
        <ele>24.39999961853</ele>
        <time>2020-07-02T07:25:05.000Z</time>
      </trkpt>
      <trkpt lat="47.2646" lon="-2.30786">
        <ele>24</ele>
        <time>2020-07-02T07:25:06.000Z</time>
      </trkpt>
      <trkpt lat="47.26462" lon="-2.30793">
        <ele>23.60000038147</ele>
        <time>2020-07-02T07:25:07.000Z</time>
      </trkpt>
      <trkpt lat="47.26464" lon="-2.308">
        <ele>23.200000762939</ele>
        <time>2020-07-02T07:25:08.000Z</time>
      </trkpt>
      <trkpt lat="47.26467" lon="-2.30807">
        <ele>23.200000762939</ele>
        <time>2020-07-02T07:25:09.000Z</time>
      </trkpt>
      <trkpt lat="47.2647" lon="-2.30813">
        <ele>23.200000762939</ele>
        <time>2020-07-02T07:25:10.000Z</time>
      </trkpt>
      <trkpt lat="47.26472" lon="-2.30819">
        <ele>22.799999237061</ele>
        <time>2020-07-02T07:25:11.000Z</time>
      </trkpt>
      <trkpt lat="47.26475" lon="-2.30825">
        <ele>22.200000762939</ele>
        <time>2020-07-02T07:25:12.000Z</time>
      </trkpt>
      <trkpt lat="47.26478" lon="-2.3083">
        <ele>21.799999237061</ele>
        <time>2020-07-02T07:25:13.000Z</time>
      </trkpt>
      <trkpt lat="47.2648" lon="-2.30835">
        <ele>21.39999961853</ele>
        <time>2020-07-02T07:25:14.000Z</time>
      </trkpt>
      <trkpt lat="47.26483" lon="-2.3084">
        <ele>21</ele>
        <time>2020-07-02T07:25:15.000Z</time>
      </trkpt>
      <trkpt lat="47.26489" lon="-2.30849">
        <ele>21</ele>
        <time>2020-07-02T07:25:17.000Z</time>
      </trkpt>
      <trkpt lat="47.26497" lon="-2.30862">
        <ele>20.39999961853</ele>
        <time>2020-07-02T07:25:20.000Z</time>
      </trkpt>
      <trkpt lat="47.26499" lon="-2.30867">
        <ele>19.39999961853</ele>
        <time>2020-07-02T07:25:21.000Z</time>
      </trkpt>
      <trkpt lat="47.26501" lon="-2.30871">
        <ele>18.799999237061</ele>
        <time>2020-07-02T07:25:22.000Z</time>
      </trkpt>
      <trkpt lat="47.26503" lon="-2.30875">
        <ele>18.200000762939</ele>
        <time>2020-07-02T07:25:23.000Z</time>
      </trkpt>
      <trkpt lat="47.26506" lon="-2.30878">
        <ele>17.60000038147</ele>
        <time>2020-07-02T07:25:24.000Z</time>
      </trkpt>
      <trkpt lat="47.26509" lon="-2.30878">
        <ele>17</ele>
        <time>2020-07-02T07:25:25.000Z</time>
      </trkpt>
      <trkpt lat="47.26512" lon="-2.30877">
        <ele>16.39999961853</ele>
        <time>2020-07-02T07:25:26.000Z</time>
      </trkpt>
      <trkpt lat="47.26521" lon="-2.3087">
        <ele>16.39999961853</ele>
        <time>2020-07-02T07:25:29.000Z</time>
      </trkpt>
      <trkpt lat="47.26525" lon="-2.30868">
        <ele>16.39999961853</ele>
        <time>2020-07-02T07:25:30.000Z</time>
      </trkpt>
      <trkpt lat="47.26538" lon="-2.30852">
        <ele>16.39999961853</ele>
        <time>2020-07-02T07:25:35.000Z</time>
      </trkpt>
      <trkpt lat="47.26556" lon="-2.30834">
        <ele>16.39999961853</ele>
        <time>2020-07-02T07:25:42.000Z</time>
      </trkpt>
      <trkpt lat="47.26566" lon="-2.30817">
        <ele>16.799999237061</ele>
        <time>2020-07-02T07:25:47.000Z</time>
      </trkpt>
      <trkpt lat="47.26568" lon="-2.30814">
        <ele>17.200000762939</ele>
        <time>2020-07-02T07:25:48.000Z</time>
      </trkpt>
      <trkpt lat="47.2657" lon="-2.30811">
        <ele>17.60000038147</ele>
        <time>2020-07-02T07:25:49.000Z</time>
      </trkpt>
      <trkpt lat="47.26572" lon="-2.30808">
        <ele>18</ele>
        <time>2020-07-02T07:25:50.000Z</time>
      </trkpt>
      <trkpt lat="47.26575" lon="-2.30804">
        <ele>18.39999961853</ele>
        <time>2020-07-02T07:25:51.000Z</time>
      </trkpt>
      <trkpt lat="47.26584" lon="-2.30792">
        <ele>18.39999961853</ele>
        <time>2020-07-02T07:25:54.000Z</time>
      </trkpt>
      <trkpt lat="47.26601" lon="-2.30772">
        <ele>18.39999961853</ele>
        <time>2020-07-02T07:25:59.000Z</time>
      </trkpt>
      <trkpt lat="47.26605" lon="-2.30765">
        <ele>18.799999237061</ele>
        <time>2020-07-02T07:26:01.000Z</time>
      </trkpt>
      <trkpt lat="47.26607" lon="-2.30758">
        <ele>19.200000762939</ele>
        <time>2020-07-02T07:26:02.000Z</time>
      </trkpt>
      <trkpt lat="47.26608" lon="-2.30754">
        <ele>19.799999237061</ele>
        <time>2020-07-02T07:26:03.000Z</time>
      </trkpt>
      <trkpt lat="47.2661" lon="-2.3075">
        <ele>20.200000762939</ele>
        <time>2020-07-02T07:26:04.000Z</time>
      </trkpt>
      <trkpt lat="47.26618" lon="-2.30742">
        <ele>20.60000038147</ele>
        <time>2020-07-02T07:26:05.000Z</time>
      </trkpt>
      <trkpt lat="47.2664" lon="-2.30723">
        <ele>20.60000038147</ele>
        <time>2020-07-02T07:26:10.000Z</time>
      </trkpt>
      <trkpt lat="47.26642" lon="-2.30717">
        <ele>20.60000038147</ele>
        <time>2020-07-02T07:26:11.000Z</time>
      </trkpt>
      <trkpt lat="47.26652" lon="-2.30696">
        <ele>20.60000038147</ele>
        <time>2020-07-02T07:26:16.000Z</time>
      </trkpt>
      <trkpt lat="47.26654" lon="-2.30697">
        <ele>20.60000038147</ele>
        <time>2020-07-02T07:26:18.000Z</time>
      </trkpt>
      <trkpt lat="47.26657" lon="-2.30707">
        <ele>21</ele>
        <time>2020-07-02T07:26:21.000Z</time>
      </trkpt>
      <trkpt lat="47.26658" lon="-2.30711">
        <ele>21.39999961853</ele>
        <time>2020-07-02T07:26:22.000Z</time>
      </trkpt>
      <trkpt lat="47.2666" lon="-2.30716">
        <ele>21.799999237061</ele>
        <time>2020-07-02T07:26:23.000Z</time>
      </trkpt>
      <trkpt lat="47.26662" lon="-2.30721">
        <ele>22.200000762939</ele>
        <time>2020-07-02T07:26:24.000Z</time>
      </trkpt>
      <trkpt lat="47.26669" lon="-2.3073">
        <ele>22.60000038147</ele>
        <time>2020-07-02T07:26:25.000Z</time>
      </trkpt>
      <trkpt lat="47.26673" lon="-2.30737">
        <ele>22.60000038147</ele>
        <time>2020-07-02T07:26:26.000Z</time>
      </trkpt>
      <trkpt lat="47.26694" lon="-2.30775">
        <ele>23</ele>
        <time>2020-07-02T07:26:32.000Z</time>
      </trkpt>
      <trkpt lat="47.26697" lon="-2.3078">
        <ele>23.60000038147</ele>
        <time>2020-07-02T07:26:33.000Z</time>
      </trkpt>
      <trkpt lat="47.26699" lon="-2.30786">
        <ele>24</ele>
        <time>2020-07-02T07:26:34.000Z</time>
      </trkpt>
      <trkpt lat="47.26701" lon="-2.30792">
        <ele>24.799999237061</ele>
        <time>2020-07-02T07:26:35.000Z</time>
      </trkpt>
      <trkpt lat="47.26714" lon="-2.30826">
        <ele>24.799999237061</ele>
        <time>2020-07-02T07:26:41.000Z</time>
      </trkpt>
      <trkpt lat="47.26717" lon="-2.30831">
        <ele>25.200000762939</ele>
        <time>2020-07-02T07:26:42.000Z</time>
      </trkpt>
      <trkpt lat="47.26719" lon="-2.30836">
        <ele>25.60000038147</ele>
        <time>2020-07-02T07:26:43.000Z</time>
      </trkpt>
      <trkpt lat="47.26722" lon="-2.30841">
        <ele>26</ele>
        <time>2020-07-02T07:26:44.000Z</time>
      </trkpt>
      <trkpt lat="47.26725" lon="-2.30846">
        <ele>26.39999961853</ele>
        <time>2020-07-02T07:26:45.000Z</time>
      </trkpt>
      <trkpt lat="47.26728" lon="-2.30851">
        <ele>27</ele>
        <time>2020-07-02T07:26:46.000Z</time>
      </trkpt>
      <trkpt lat="47.26735" lon="-2.3086">
        <ele>27</ele>
        <time>2020-07-02T07:26:48.000Z</time>
      </trkpt>
      <trkpt lat="47.26742" lon="-2.30864">
        <ele>27</ele>
        <time>2020-07-02T07:26:50.000Z</time>
      </trkpt>
      <trkpt lat="47.26747" lon="-2.30863">
        <ele>27</ele>
        <time>2020-07-02T07:26:51.000Z</time>
      </trkpt>
      <trkpt lat="47.26759" lon="-2.30852">
        <ele>27</ele>
        <time>2020-07-02T07:26:54.000Z</time>
      </trkpt>
      <trkpt lat="47.26763" lon="-2.30849">
        <ele>27</ele>
        <time>2020-07-02T07:26:55.000Z</time>
      </trkpt>
      <trkpt lat="47.26767" lon="-2.30845">
        <ele>27</ele>
        <time>2020-07-02T07:26:56.000Z</time>
      </trkpt>
      <trkpt lat="47.26794" lon="-2.30817">
        <ele>27</ele>
        <time>2020-07-02T07:27:03.000Z</time>
      </trkpt>
      <trkpt lat="47.26808" lon="-2.30802">
        <ele>27</ele>
        <time>2020-07-02T07:27:07.000Z</time>
      </trkpt>
      <trkpt lat="47.26816" lon="-2.30796">
        <ele>27</ele>
        <time>2020-07-02T07:27:09.000Z</time>
      </trkpt>
      <trkpt lat="47.26831" lon="-2.30784">
        <ele>27</ele>
        <time>2020-07-02T07:27:13.000Z</time>
      </trkpt>
      <trkpt lat="47.26834" lon="-2.30779">
        <ele>27</ele>
        <time>2020-07-02T07:27:14.000Z</time>
      </trkpt>
      <trkpt lat="47.26841" lon="-2.30759">
        <ele>27</ele>
        <time>2020-07-02T07:27:17.000Z</time>
      </trkpt>
      <trkpt lat="47.26845" lon="-2.30746">
        <ele>27</ele>
        <time>2020-07-02T07:27:19.000Z</time>
      </trkpt>
      <trkpt lat="47.26869" lon="-2.30693">
        <ele>27</ele>
        <time>2020-07-02T07:27:27.000Z</time>
      </trkpt>
      <trkpt lat="47.26884" lon="-2.30669">
        <ele>27</ele>
        <time>2020-07-02T07:27:31.000Z</time>
      </trkpt>
      <trkpt lat="47.26895" lon="-2.30656">
        <ele>27</ele>
        <time>2020-07-02T07:27:34.000Z</time>
      </trkpt>
      <trkpt lat="47.26899" lon="-2.30652">
        <ele>27</ele>
        <time>2020-07-02T07:27:35.000Z</time>
      </trkpt>
      <trkpt lat="47.26914" lon="-2.30642">
        <ele>27</ele>
        <time>2020-07-02T07:27:39.000Z</time>
      </trkpt>
      <trkpt lat="47.26925" lon="-2.30636">
        <ele>27</ele>
        <time>2020-07-02T07:27:42.000Z</time>
      </trkpt>
      <trkpt lat="47.26933" lon="-2.30634">
        <ele>27</ele>
        <time>2020-07-02T07:27:44.000Z</time>
      </trkpt>
      <trkpt lat="47.26938" lon="-2.30633">
        <ele>27</ele>
        <time>2020-07-02T07:27:45.000Z</time>
      </trkpt>
      <trkpt lat="47.26952" lon="-2.30626">
        <ele>27</ele>
        <time>2020-07-02T07:27:48.000Z</time>
      </trkpt>
      <trkpt lat="47.26973" lon="-2.30616">
        <ele>27</ele>
        <time>2020-07-02T07:27:52.000Z</time>
      </trkpt>
      <trkpt lat="47.26978" lon="-2.30613">
        <ele>27</ele>
        <time>2020-07-02T07:27:53.000Z</time>
      </trkpt>
      <trkpt lat="47.27005" lon="-2.30594">
        <ele>27</ele>
        <time>2020-07-02T07:27:58.000Z</time>
      </trkpt>
      <trkpt lat="47.27014" lon="-2.30572">
        <ele>27</ele>
        <time>2020-07-02T07:28:01.000Z</time>
      </trkpt>
      <trkpt lat="47.27016" lon="-2.30564">
        <ele>27</ele>
        <time>2020-07-02T07:28:02.000Z</time>
      </trkpt>
      <trkpt lat="47.27024" lon="-2.30532">
        <ele>27</ele>
        <time>2020-07-02T07:28:06.000Z</time>
      </trkpt>
      <trkpt lat="47.27027" lon="-2.30524">
        <ele>27</ele>
        <time>2020-07-02T07:28:07.000Z</time>
      </trkpt>
      <trkpt lat="47.27033" lon="-2.30502">
        <ele>27</ele>
        <time>2020-07-02T07:28:10.000Z</time>
      </trkpt>
      <trkpt lat="47.27038" lon="-2.30479">
        <ele>26.39999961853</ele>
        <time>2020-07-02T07:28:15.000Z</time>
      </trkpt>
      <trkpt lat="47.27039" lon="-2.30477">
        <ele>26</ele>
        <time>2020-07-02T07:28:16.000Z</time>
      </trkpt>
      <trkpt lat="47.27039" lon="-2.30475">
        <ele>25.60000038147</ele>
        <time>2020-07-02T07:28:17.000Z</time>
      </trkpt>
      <trkpt lat="47.2704" lon="-2.30474">
        <ele>25.200000762939</ele>
        <time>2020-07-02T07:28:18.000Z</time>
      </trkpt>
      <trkpt lat="47.27041" lon="-2.30472">
        <ele>24.799999237061</ele>
        <time>2020-07-02T07:28:19.000Z</time>
      </trkpt>
      <trkpt lat="47.27044" lon="-2.30471">
        <ele>24.799999237061</ele>
        <time>2020-07-02T07:28:21.000Z</time>
      </trkpt>
      <trkpt lat="47.27055" lon="-2.30476">
        <ele>24.799999237061</ele>
        <time>2020-07-02T07:28:27.000Z</time>
      </trkpt>
      <trkpt lat="47.27059" lon="-2.30476">
        <ele>24.799999237061</ele>
        <time>2020-07-02T07:28:28.000Z</time>
      </trkpt>
      <trkpt lat="47.27078" lon="-2.30481">
        <ele>24.799999237061</ele>
        <time>2020-07-02T07:28:33.000Z</time>
      </trkpt>
      <trkpt lat="47.27092" lon="-2.30484">
        <ele>24.799999237061</ele>
        <time>2020-07-02T07:28:36.000Z</time>
      </trkpt>
      <trkpt lat="47.27101" lon="-2.30486">
        <ele>24.39999961853</ele>
        <time>2020-07-02T07:28:38.000Z</time>
      </trkpt>
      <trkpt lat="47.27105" lon="-2.30488">
        <ele>24</ele>
        <time>2020-07-02T07:28:39.000Z</time>
      </trkpt>
      <trkpt lat="47.2711" lon="-2.30491">
        <ele>23</ele>
        <time>2020-07-02T07:28:40.000Z</time>
      </trkpt>
      <trkpt lat="47.27115" lon="-2.30492">
        <ele>22.60000038147</ele>
        <time>2020-07-02T07:28:41.000Z</time>
      </trkpt>
      <trkpt lat="47.27125" lon="-2.30496">
        <ele>22.60000038147</ele>
        <time>2020-07-02T07:28:43.000Z</time>
      </trkpt>
      <trkpt lat="47.27134" lon="-2.30501">
        <ele>22.60000038147</ele>
        <time>2020-07-02T07:28:45.000Z</time>
      </trkpt>
      <trkpt lat="47.27145" lon="-2.30512">
        <ele>22.60000038147</ele>
        <time>2020-07-02T07:28:48.000Z</time>
      </trkpt>
      <trkpt lat="47.27149" lon="-2.30516">
        <ele>22.200000762939</ele>
        <time>2020-07-02T07:28:49.000Z</time>
      </trkpt>
      <trkpt lat="47.27152" lon="-2.3052">
        <ele>21.799999237061</ele>
        <time>2020-07-02T07:28:50.000Z</time>
      </trkpt>
      <trkpt lat="47.27156" lon="-2.30523">
        <ele>21.39999961853</ele>
        <time>2020-07-02T07:28:51.000Z</time>
      </trkpt>
      <trkpt lat="47.27159" lon="-2.30526">
        <ele>21</ele>
        <time>2020-07-02T07:28:52.000Z</time>
      </trkpt>
      <trkpt lat="47.27163" lon="-2.30528">
        <ele>20.60000038147</ele>
        <time>2020-07-02T07:28:53.000Z</time>
      </trkpt>
      <trkpt lat="47.27167" lon="-2.30529">
        <ele>20.60000038147</ele>
        <time>2020-07-02T07:28:54.000Z</time>
      </trkpt>
      <trkpt lat="47.27183" lon="-2.30536">
        <ele>20.60000038147</ele>
        <time>2020-07-02T07:28:59.000Z</time>
      </trkpt>
      <trkpt lat="47.27202" lon="-2.30542">
        <ele>20.60000038147</ele>
        <time>2020-07-02T07:29:06.000Z</time>
      </trkpt>
      <trkpt lat="47.27207" lon="-2.30543">
        <ele>20.200000762939</ele>
        <time>2020-07-02T07:29:08.000Z</time>
      </trkpt>
      <trkpt lat="47.27209" lon="-2.30543">
        <ele>19.799999237061</ele>
        <time>2020-07-02T07:29:09.000Z</time>
      </trkpt>
      <trkpt lat="47.27211" lon="-2.30542">
        <ele>19.39999961853</ele>
        <time>2020-07-02T07:29:10.000Z</time>
      </trkpt>
      <trkpt lat="47.27213" lon="-2.30542">
        <ele>19</ele>
        <time>2020-07-02T07:29:11.000Z</time>
      </trkpt>
      <trkpt lat="47.27215" lon="-2.30542">
        <ele>18.60000038147</ele>
        <time>2020-07-02T07:29:12.000Z</time>
      </trkpt>
      <trkpt lat="47.27224" lon="-2.30542">
        <ele>18.60000038147</ele>
        <time>2020-07-02T07:29:16.000Z</time>
      </trkpt>
      <trkpt lat="47.27242" lon="-2.30544">
        <ele>18.60000038147</ele>
        <time>2020-07-02T07:29:23.000Z</time>
      </trkpt>
      <trkpt lat="47.27258" lon="-2.30545">
        <ele>18.60000038147</ele>
        <time>2020-07-02T07:29:28.000Z</time>
      </trkpt>
      <trkpt lat="47.27264" lon="-2.30545">
        <ele>18.60000038147</ele>
        <time>2020-07-02T07:29:30.000Z</time>
      </trkpt>
      <trkpt lat="47.2727" lon="-2.30541">
        <ele>18.60000038147</ele>
        <time>2020-07-02T07:29:32.000Z</time>
      </trkpt>
      <trkpt lat="47.27281" lon="-2.30535">
        <ele>18.60000038147</ele>
        <time>2020-07-02T07:29:35.000Z</time>
      </trkpt>
      <trkpt lat="47.2729" lon="-2.30531">
        <ele>18.60000038147</ele>
        <time>2020-07-02T07:29:37.000Z</time>
      </trkpt>
      <trkpt lat="47.27302" lon="-2.30525">
        <ele>18.200000762939</ele>
        <time>2020-07-02T07:29:41.000Z</time>
      </trkpt>
      <trkpt lat="47.27305" lon="-2.30523">
        <ele>17.799999237061</ele>
        <time>2020-07-02T07:29:42.000Z</time>
      </trkpt>
      <trkpt lat="47.27308" lon="-2.30522">
        <ele>17.39999961853</ele>
        <time>2020-07-02T07:29:43.000Z</time>
      </trkpt>
      <trkpt lat="47.27312" lon="-2.30521">
        <ele>17</ele>
        <time>2020-07-02T07:29:44.000Z</time>
      </trkpt>
      <trkpt lat="47.27315" lon="-2.3052">
        <ele>16.60000038147</ele>
        <time>2020-07-02T07:29:45.000Z</time>
      </trkpt>
      <trkpt lat="47.27327" lon="-2.30518">
        <ele>16.60000038147</ele>
        <time>2020-07-02T07:29:48.000Z</time>
      </trkpt>
      <trkpt lat="47.27343" lon="-2.30514">
        <ele>16.60000038147</ele>
        <time>2020-07-02T07:29:54.000Z</time>
      </trkpt>
      <trkpt lat="47.27353" lon="-2.30509">
        <ele>16.60000038147</ele>
        <time>2020-07-02T07:29:59.000Z</time>
      </trkpt>
      <trkpt lat="47.27355" lon="-2.30507">
        <ele>16.60000038147</ele>
        <time>2020-07-02T07:30:00.000Z</time>
      </trkpt>
      <trkpt lat="47.27366" lon="-2.305">
        <ele>16.60000038147</ele>
        <time>2020-07-02T07:30:05.000Z</time>
      </trkpt>
      <trkpt lat="47.27381" lon="-2.30488">
        <ele>16.60000038147</ele>
        <time>2020-07-02T07:30:10.000Z</time>
      </trkpt>
      <trkpt lat="47.27393" lon="-2.30475">
        <ele>16.60000038147</ele>
        <time>2020-07-02T07:30:14.000Z</time>
      </trkpt>
      <trkpt lat="47.27401" lon="-2.30467">
        <ele>16.60000038147</ele>
        <time>2020-07-02T07:30:18.000Z</time>
      </trkpt>
      <trkpt lat="47.27411" lon="-2.30464">
        <ele>16.60000038147</ele>
        <time>2020-07-02T07:30:23.000Z</time>
      </trkpt>
      <trkpt lat="47.27415" lon="-2.3046">
        <ele>16.60000038147</ele>
        <time>2020-07-02T07:30:25.000Z</time>
      </trkpt>
      <trkpt lat="47.27418" lon="-2.30456">
        <ele>17</ele>
        <time>2020-07-02T07:30:27.000Z</time>
      </trkpt>
      <trkpt lat="47.27421" lon="-2.30453">
        <ele>17.39999961853</ele>
        <time>2020-07-02T07:30:28.000Z</time>
      </trkpt>
      <trkpt lat="47.27425" lon="-2.30453">
        <ele>17.799999237061</ele>
        <time>2020-07-02T07:30:29.000Z</time>
      </trkpt>
      <trkpt lat="47.27428" lon="-2.30453">
        <ele>18.200000762939</ele>
        <time>2020-07-02T07:30:30.000Z</time>
      </trkpt>
      <trkpt lat="47.27432" lon="-2.30453">
        <ele>18.60000038147</ele>
        <time>2020-07-02T07:30:31.000Z</time>
      </trkpt>
      <trkpt lat="47.27437" lon="-2.30452">
        <ele>18.60000038147</ele>
        <time>2020-07-02T07:30:32.000Z</time>
      </trkpt>
      <trkpt lat="47.27442" lon="-2.30451">
        <ele>18.60000038147</ele>
        <time>2020-07-02T07:30:33.000Z</time>
      </trkpt>
      <trkpt lat="47.27466" lon="-2.30446">
        <ele>18.60000038147</ele>
        <time>2020-07-02T07:30:38.000Z</time>
      </trkpt>
      <trkpt lat="47.27497" lon="-2.30435">
        <ele>18.60000038147</ele>
        <time>2020-07-02T07:30:44.000Z</time>
      </trkpt>
      <trkpt lat="47.275" lon="-2.30432">
        <ele>18.60000038147</ele>
        <time>2020-07-02T07:30:45.000Z</time>
      </trkpt>
      <trkpt lat="47.27502" lon="-2.3042">
        <ele>18.60000038147</ele>
        <time>2020-07-02T07:30:47.000Z</time>
      </trkpt>
      <trkpt lat="47.275" lon="-2.30402">
        <ele>18.60000038147</ele>
        <time>2020-07-02T07:30:50.000Z</time>
      </trkpt>
      <trkpt lat="47.27498" lon="-2.30389">
        <ele>18.60000038147</ele>
        <time>2020-07-02T07:30:52.000Z</time>
      </trkpt>
      <trkpt lat="47.27496" lon="-2.30375">
        <ele>18.60000038147</ele>
        <time>2020-07-02T07:30:54.000Z</time>
      </trkpt>
      <trkpt lat="47.27491" lon="-2.30349">
        <ele>18.60000038147</ele>
        <time>2020-07-02T07:30:58.000Z</time>
      </trkpt>
      <trkpt lat="47.27487" lon="-2.3033">
        <ele>19</ele>
        <time>2020-07-02T07:31:01.000Z</time>
      </trkpt>
      <trkpt lat="47.27486" lon="-2.30323">
        <ele>19.39999961853</ele>
        <time>2020-07-02T07:31:02.000Z</time>
      </trkpt>
      <trkpt lat="47.27485" lon="-2.30316">
        <ele>19.799999237061</ele>
        <time>2020-07-02T07:31:03.000Z</time>
      </trkpt>
      <trkpt lat="47.27485" lon="-2.3031">
        <ele>20.39999961853</ele>
        <time>2020-07-02T07:31:04.000Z</time>
      </trkpt>
      <trkpt lat="47.27484" lon="-2.30304">
        <ele>20.799999237061</ele>
        <time>2020-07-02T07:31:05.000Z</time>
      </trkpt>
      <trkpt lat="47.27477" lon="-2.30273">
        <ele>20.799999237061</ele>
        <time>2020-07-02T07:31:10.000Z</time>
      </trkpt>
      <trkpt lat="47.27476" lon="-2.30267">
        <ele>21.200000762939</ele>
        <time>2020-07-02T07:31:11.000Z</time>
      </trkpt>
      <trkpt lat="47.27476" lon="-2.30262">
        <ele>21.60000038147</ele>
        <time>2020-07-02T07:31:12.000Z</time>
      </trkpt>
      <trkpt lat="47.27475" lon="-2.30257">
        <ele>22</ele>
        <time>2020-07-02T07:31:13.000Z</time>
      </trkpt>
      <trkpt lat="47.27474" lon="-2.30251">
        <ele>22.39999961853</ele>
        <time>2020-07-02T07:31:14.000Z</time>
      </trkpt>
      <trkpt lat="47.27473" lon="-2.30246">
        <ele>22.799999237061</ele>
        <time>2020-07-02T07:31:15.000Z</time>
      </trkpt>
      <trkpt lat="47.27472" lon="-2.3024">
        <ele>22.799999237061</ele>
        <time>2020-07-02T07:31:16.000Z</time>
      </trkpt>
      <trkpt lat="47.27466" lon="-2.30224">
        <ele>22.799999237061</ele>
        <time>2020-07-02T07:31:21.000Z</time>
      </trkpt>
      <trkpt lat="47.27461" lon="-2.30218">
        <ele>22.799999237061</ele>
        <time>2020-07-02T07:31:26.000Z</time>
      </trkpt>
      <trkpt lat="47.27456" lon="-2.30219">
        <ele>22.799999237061</ele>
        <time>2020-07-02T07:31:28.000Z</time>
      </trkpt>
      <trkpt lat="47.27451" lon="-2.3022">
        <ele>22.799999237061</ele>
        <time>2020-07-02T07:31:30.000Z</time>
      </trkpt>
      <trkpt lat="47.2744" lon="-2.30225">
        <ele>23.200000762939</ele>
        <time>2020-07-02T07:31:33.000Z</time>
      </trkpt>
      <trkpt lat="47.27437" lon="-2.30226">
        <ele>23.60000038147</ele>
        <time>2020-07-02T07:31:34.000Z</time>
      </trkpt>
      <trkpt lat="47.27432" lon="-2.30229">
        <ele>24.200000762939</ele>
        <time>2020-07-02T07:31:35.000Z</time>
      </trkpt>
      <trkpt lat="47.27428" lon="-2.30231">
        <ele>24.60000038147</ele>
        <time>2020-07-02T07:31:36.000Z</time>
      </trkpt>
      <trkpt lat="47.27423" lon="-2.30233">
        <ele>25</ele>
        <time>2020-07-02T07:31:37.000Z</time>
      </trkpt>
      <trkpt lat="47.27414" lon="-2.30238">
        <ele>25</ele>
        <time>2020-07-02T07:31:39.000Z</time>
      </trkpt>
      <trkpt lat="47.27381" lon="-2.30255">
        <ele>25</ele>
        <time>2020-07-02T07:31:46.000Z</time>
      </trkpt>
      <trkpt lat="47.27376" lon="-2.30256">
        <ele>25</ele>
        <time>2020-07-02T07:31:47.000Z</time>
      </trkpt>
      <trkpt lat="47.27353" lon="-2.3026">
        <ele>25</ele>
        <time>2020-07-02T07:31:51.000Z</time>
      </trkpt>
      <trkpt lat="47.27318" lon="-2.30265">
        <ele>25</ele>
        <time>2020-07-02T07:31:57.000Z</time>
      </trkpt>
      <trkpt lat="47.27278" lon="-2.30268">
        <ele>25</ele>
        <time>2020-07-02T07:32:03.000Z</time>
      </trkpt>
      <trkpt lat="47.27258" lon="-2.30273">
        <ele>25</ele>
        <time>2020-07-02T07:32:06.000Z</time>
      </trkpt>
      <trkpt lat="47.27248" lon="-2.30272">
        <ele>25</ele>
        <time>2020-07-02T07:32:08.000Z</time>
      </trkpt>
      <trkpt lat="47.27244" lon="-2.3027">
        <ele>24.60000038147</ele>
        <time>2020-07-02T07:32:09.000Z</time>
      </trkpt>
      <trkpt lat="47.2724" lon="-2.30269">
        <ele>24.200000762939</ele>
        <time>2020-07-02T07:32:10.000Z</time>
      </trkpt>
      <trkpt lat="47.27237" lon="-2.30268">
        <ele>23.60000038147</ele>
        <time>2020-07-02T07:32:11.000Z</time>
      </trkpt>
      <trkpt lat="47.27233" lon="-2.30267">
        <ele>23.200000762939</ele>
        <time>2020-07-02T07:32:12.000Z</time>
      </trkpt>
      <trkpt lat="47.27229" lon="-2.30265">
        <ele>22.799999237061</ele>
        <time>2020-07-02T07:32:13.000Z</time>
      </trkpt>
      <trkpt lat="47.27226" lon="-2.30264">
        <ele>22.799999237061</ele>
        <time>2020-07-02T07:32:14.000Z</time>
      </trkpt>
      <trkpt lat="47.27222" lon="-2.30262">
        <ele>22.799999237061</ele>
        <time>2020-07-02T07:32:15.000Z</time>
      </trkpt>
      <trkpt lat="47.27218" lon="-2.30261">
        <ele>22.799999237061</ele>
        <time>2020-07-02T07:32:16.000Z</time>
      </trkpt>
      <trkpt lat="47.27209" lon="-2.30263">
        <ele>22.799999237061</ele>
        <time>2020-07-02T07:32:18.000Z</time>
      </trkpt>
      <trkpt lat="47.27191" lon="-2.30268">
        <ele>22.799999237061</ele>
        <time>2020-07-02T07:32:23.000Z</time>
      </trkpt>
      <trkpt lat="47.27179" lon="-2.30256">
        <ele>22.799999237061</ele>
        <time>2020-07-02T07:32:27.000Z</time>
      </trkpt>
      <trkpt lat="47.2717" lon="-2.30245">
        <ele>22.799999237061</ele>
        <time>2020-07-02T07:32:31.000Z</time>
      </trkpt>
      <trkpt lat="47.2717" lon="-2.3024">
        <ele>22.799999237061</ele>
        <time>2020-07-02T07:32:32.000Z</time>
      </trkpt>
      <trkpt lat="47.2717" lon="-2.30224">
        <ele>22.799999237061</ele>
        <time>2020-07-02T07:32:35.000Z</time>
      </trkpt>
      <trkpt lat="47.27169" lon="-2.30206">
        <ele>22.799999237061</ele>
        <time>2020-07-02T07:32:38.000Z</time>
      </trkpt>
      <trkpt lat="47.27167" lon="-2.30174">
        <ele>23.200000762939</ele>
        <time>2020-07-02T07:32:43.000Z</time>
      </trkpt>
      <trkpt lat="47.27167" lon="-2.30168">
        <ele>23.60000038147</ele>
        <time>2020-07-02T07:32:44.000Z</time>
      </trkpt>
      <trkpt lat="47.27166" lon="-2.30162">
        <ele>24</ele>
        <time>2020-07-02T07:32:45.000Z</time>
      </trkpt>
      <trkpt lat="47.27166" lon="-2.30156">
        <ele>24.60000038147</ele>
        <time>2020-07-02T07:32:46.000Z</time>
      </trkpt>
      <trkpt lat="47.27165" lon="-2.30151">
        <ele>25</ele>
        <time>2020-07-02T07:32:47.000Z</time>
      </trkpt>
      <trkpt lat="47.27164" lon="-2.30139">
        <ele>25.39999961853</ele>
        <time>2020-07-02T07:32:49.000Z</time>
      </trkpt>
      <trkpt lat="47.27162" lon="-2.30135">
        <ele>25.799999237061</ele>
        <time>2020-07-02T07:32:50.000Z</time>
      </trkpt>
      <trkpt lat="47.27159" lon="-2.30132">
        <ele>26.200000762939</ele>
        <time>2020-07-02T07:32:51.000Z</time>
      </trkpt>
      <trkpt lat="47.27156" lon="-2.3013">
        <ele>26.60000038147</ele>
        <time>2020-07-02T07:32:52.000Z</time>
      </trkpt>
      <trkpt lat="47.27152" lon="-2.30129">
        <ele>27.200000762939</ele>
        <time>2020-07-02T07:32:53.000Z</time>
      </trkpt>
      <trkpt lat="47.27127" lon="-2.30121">
        <ele>27.200000762939</ele>
        <time>2020-07-02T07:32:59.000Z</time>
      </trkpt>
      <trkpt lat="47.27106" lon="-2.30104">
        <ele>27.200000762939</ele>
        <time>2020-07-02T07:33:04.000Z</time>
      </trkpt>
      <trkpt lat="47.27091" lon="-2.30087">
        <ele>27.60000038147</ele>
        <time>2020-07-02T07:33:08.000Z</time>
      </trkpt>
      <trkpt lat="47.27086" lon="-2.30082">
        <ele>28</ele>
        <time>2020-07-02T07:33:09.000Z</time>
      </trkpt>
      <trkpt lat="47.27082" lon="-2.30078">
        <ele>28.39999961853</ele>
        <time>2020-07-02T07:33:10.000Z</time>
      </trkpt>
      <trkpt lat="47.27076" lon="-2.30075">
        <ele>28.799999237061</ele>
        <time>2020-07-02T07:33:11.000Z</time>
      </trkpt>
      <trkpt lat="47.27069" lon="-2.30072">
        <ele>29.200000762939</ele>
        <time>2020-07-02T07:33:12.000Z</time>
      </trkpt>
      <trkpt lat="47.27053" lon="-2.30066">
        <ele>29.200000762939</ele>
        <time>2020-07-02T07:33:15.000Z</time>
      </trkpt>
      <trkpt lat="47.27024" lon="-2.30063">
        <ele>29.200000762939</ele>
        <time>2020-07-02T07:33:22.000Z</time>
      </trkpt>
      <trkpt lat="47.27015" lon="-2.30062">
        <ele>29.200000762939</ele>
        <time>2020-07-02T07:33:25.000Z</time>
      </trkpt>
      <trkpt lat="47.27012" lon="-2.30055">
        <ele>29.200000762939</ele>
        <time>2020-07-02T07:33:27.000Z</time>
      </trkpt>
      <trkpt lat="47.27013" lon="-2.30039">
        <ele>29.60000038147</ele>
        <time>2020-07-02T07:33:30.000Z</time>
      </trkpt>
      <trkpt lat="47.27015" lon="-2.30034">
        <ele>30</ele>
        <time>2020-07-02T07:33:31.000Z</time>
      </trkpt>
      <trkpt lat="47.27016" lon="-2.30029">
        <ele>30.39999961853</ele>
        <time>2020-07-02T07:33:32.000Z</time>
      </trkpt>
      <trkpt lat="47.27017" lon="-2.30024">
        <ele>30.799999237061</ele>
        <time>2020-07-02T07:33:33.000Z</time>
      </trkpt>
      <trkpt lat="47.27019" lon="-2.30018">
        <ele>31.200000762939</ele>
        <time>2020-07-02T07:33:34.000Z</time>
      </trkpt>
      <trkpt lat="47.27026" lon="-2.29998">
        <ele>31.200000762939</ele>
        <time>2020-07-02T07:33:37.000Z</time>
      </trkpt>
      <trkpt lat="47.27042" lon="-2.29959">
        <ele>31.200000762939</ele>
        <time>2020-07-02T07:33:43.000Z</time>
      </trkpt>
      <trkpt lat="47.27045" lon="-2.29952">
        <ele>31.200000762939</ele>
        <time>2020-07-02T07:33:44.000Z</time>
      </trkpt>
      <trkpt lat="47.27056" lon="-2.29932">
        <ele>31.200000762939</ele>
        <time>2020-07-02T07:33:47.000Z</time>
      </trkpt>
      <trkpt lat="47.27069" lon="-2.29918">
        <ele>31.200000762939</ele>
        <time>2020-07-02T07:33:49.000Z</time>
      </trkpt>
      <trkpt lat="47.27086" lon="-2.299">
        <ele>31.200000762939</ele>
        <time>2020-07-02T07:33:52.000Z</time>
      </trkpt>
      <trkpt lat="47.27094" lon="-2.29886">
        <ele>31.200000762939</ele>
        <time>2020-07-02T07:33:54.000Z</time>
      </trkpt>
      <trkpt lat="47.27106" lon="-2.2985">
        <ele>31.200000762939</ele>
        <time>2020-07-02T07:33:59.000Z</time>
      </trkpt>
      <trkpt lat="47.27112" lon="-2.29824">
        <ele>31.200000762939</ele>
        <time>2020-07-02T07:34:03.000Z</time>
      </trkpt>
      <trkpt lat="47.27112" lon="-2.29817">
        <ele>31.200000762939</ele>
        <time>2020-07-02T07:34:04.000Z</time>
      </trkpt>
      <trkpt lat="47.27114" lon="-2.29787">
        <ele>31.200000762939</ele>
        <time>2020-07-02T07:34:08.000Z</time>
      </trkpt>
      <trkpt lat="47.27114" lon="-2.29771">
        <ele>31.200000762939</ele>
        <time>2020-07-02T07:34:10.000Z</time>
      </trkpt>
      <trkpt lat="47.27116" lon="-2.29722">
        <ele>31.200000762939</ele>
        <time>2020-07-02T07:34:16.000Z</time>
      </trkpt>
      <trkpt lat="47.27116" lon="-2.29705">
        <ele>31.60000038147</ele>
        <time>2020-07-02T07:34:18.000Z</time>
      </trkpt>
      <trkpt lat="47.27116" lon="-2.29698">
        <ele>32</ele>
        <time>2020-07-02T07:34:19.000Z</time>
      </trkpt>
      <trkpt lat="47.27116" lon="-2.2969">
        <ele>32.400001525879</ele>
        <time>2020-07-02T07:34:20.000Z</time>
      </trkpt>
      <trkpt lat="47.27116" lon="-2.29683">
        <ele>32.799999237061</ele>
        <time>2020-07-02T07:34:21.000Z</time>
      </trkpt>
      <trkpt lat="47.27116" lon="-2.29677">
        <ele>33.400001525879</ele>
        <time>2020-07-02T07:34:22.000Z</time>
      </trkpt>
      <trkpt lat="47.2712" lon="-2.29651">
        <ele>33.400001525879</ele>
        <time>2020-07-02T07:34:27.000Z</time>
      </trkpt>
      <trkpt lat="47.27126" lon="-2.29644">
        <ele>33.400001525879</ele>
        <time>2020-07-02T07:34:29.000Z</time>
      </trkpt>
      <trkpt lat="47.2713" lon="-2.29643">
        <ele>33.400001525879</ele>
        <time>2020-07-02T07:34:30.000Z</time>
      </trkpt>
      <trkpt lat="47.27151" lon="-2.29641">
        <ele>33.400001525879</ele>
        <time>2020-07-02T07:34:35.000Z</time>
      </trkpt>
      <trkpt lat="47.2716" lon="-2.29637">
        <ele>33.400001525879</ele>
        <time>2020-07-02T07:34:37.000Z</time>
      </trkpt>
      <trkpt lat="47.27164" lon="-2.29634">
        <ele>33.400001525879</ele>
        <time>2020-07-02T07:34:38.000Z</time>
      </trkpt>
      <trkpt lat="47.2718" lon="-2.29622">
        <ele>33.400001525879</ele>
        <time>2020-07-02T07:34:42.000Z</time>
      </trkpt>
      <trkpt lat="47.27196" lon="-2.29611">
        <ele>32.799999237061</ele>
        <time>2020-07-02T07:34:47.000Z</time>
      </trkpt>
      <trkpt lat="47.27198" lon="-2.29609">
        <ele>32.400001525879</ele>
        <time>2020-07-02T07:34:48.000Z</time>
      </trkpt>
      <trkpt lat="47.27201" lon="-2.29606">
        <ele>32</ele>
        <time>2020-07-02T07:34:49.000Z</time>
      </trkpt>
      <trkpt lat="47.27204" lon="-2.29604">
        <ele>31.60000038147</ele>
        <time>2020-07-02T07:34:50.000Z</time>
      </trkpt>
      <trkpt lat="47.27206" lon="-2.29602">
        <ele>31.200000762939</ele>
        <time>2020-07-02T07:34:51.000Z</time>
      </trkpt>
      <trkpt lat="47.27218" lon="-2.29592">
        <ele>31.200000762939</ele>
        <time>2020-07-02T07:34:55.000Z</time>
      </trkpt>
      <trkpt lat="47.2723" lon="-2.29584">
        <ele>31.200000762939</ele>
        <time>2020-07-02T07:34:59.000Z</time>
      </trkpt>
      <trkpt lat="47.27237" lon="-2.29569">
        <ele>31.200000762939</ele>
        <time>2020-07-02T07:35:02.000Z</time>
      </trkpt>
      <trkpt lat="47.27239" lon="-2.29537">
        <ele>31.200000762939</ele>
        <time>2020-07-02T07:35:07.000Z</time>
      </trkpt>
      <trkpt lat="47.27237" lon="-2.29523">
        <ele>31.200000762939</ele>
        <time>2020-07-02T07:35:09.000Z</time>
      </trkpt>
      <trkpt lat="47.27231" lon="-2.29504">
        <ele>31.200000762939</ele>
        <time>2020-07-02T07:35:12.000Z</time>
      </trkpt>
      <trkpt lat="47.27228" lon="-2.29491">
        <ele>31.200000762939</ele>
        <time>2020-07-02T07:35:14.000Z</time>
      </trkpt>
      <trkpt lat="47.27216" lon="-2.29453">
        <ele>31.200000762939</ele>
        <time>2020-07-02T07:35:19.000Z</time>
      </trkpt>
      <trkpt lat="47.27202" lon="-2.2941">
        <ele>31.200000762939</ele>
        <time>2020-07-02T07:35:25.000Z</time>
      </trkpt>
      <trkpt lat="47.27189" lon="-2.29373">
        <ele>31.200000762939</ele>
        <time>2020-07-02T07:35:30.000Z</time>
      </trkpt>
      <trkpt lat="47.27175" lon="-2.29351">
        <ele>31.200000762939</ele>
        <time>2020-07-02T07:35:34.000Z</time>
      </trkpt>
      <trkpt lat="47.27172" lon="-2.29346">
        <ele>31.200000762939</ele>
        <time>2020-07-02T07:35:35.000Z</time>
      </trkpt>
      <trkpt lat="47.27161" lon="-2.29334">
        <ele>31.200000762939</ele>
        <time>2020-07-02T07:35:38.000Z</time>
      </trkpt>
      <trkpt lat="47.27155" lon="-2.29324">
        <ele>31.200000762939</ele>
        <time>2020-07-02T07:35:40.000Z</time>
      </trkpt>
      <trkpt lat="47.2715" lon="-2.29314">
        <ele>31.200000762939</ele>
        <time>2020-07-02T07:35:42.000Z</time>
      </trkpt>
      <trkpt lat="47.27146" lon="-2.2931">
        <ele>31.200000762939</ele>
        <time>2020-07-02T07:35:43.000Z</time>
      </trkpt>
      <trkpt lat="47.27139" lon="-2.29302">
        <ele>31.200000762939</ele>
        <time>2020-07-02T07:35:45.000Z</time>
      </trkpt>
      <trkpt lat="47.27117" lon="-2.29289">
        <ele>31.200000762939</ele>
        <time>2020-07-02T07:35:50.000Z</time>
      </trkpt>
      <trkpt lat="47.27103" lon="-2.29276">
        <ele>31.200000762939</ele>
        <time>2020-07-02T07:35:54.000Z</time>
      </trkpt>
      <trkpt lat="47.27095" lon="-2.29252">
        <ele>31.200000762939</ele>
        <time>2020-07-02T07:35:58.000Z</time>
      </trkpt>
      <trkpt lat="47.27094" lon="-2.29246">
        <ele>31.200000762939</ele>
        <time>2020-07-02T07:35:59.000Z</time>
      </trkpt>
      <trkpt lat="47.27088" lon="-2.29206">
        <ele>31.200000762939</ele>
        <time>2020-07-02T07:36:04.000Z</time>
      </trkpt>
      <trkpt lat="47.27074" lon="-2.29129">
        <ele>31.200000762939</ele>
        <time>2020-07-02T07:36:12.000Z</time>
      </trkpt>
      <trkpt lat="47.27061" lon="-2.29082">
        <ele>31.200000762939</ele>
        <time>2020-07-02T07:36:18.000Z</time>
      </trkpt>
      <trkpt lat="47.27042" lon="-2.29022">
        <ele>31.200000762939</ele>
        <time>2020-07-02T07:36:26.000Z</time>
      </trkpt>
      <trkpt lat="47.27038" lon="-2.29017">
        <ele>31.200000762939</ele>
        <time>2020-07-02T07:36:27.000Z</time>
      </trkpt>
      <trkpt lat="47.27016" lon="-2.29007">
        <ele>31.200000762939</ele>
        <time>2020-07-02T07:36:31.000Z</time>
      </trkpt>
      <trkpt lat="47.27004" lon="-2.29003">
        <ele>31.200000762939</ele>
        <time>2020-07-02T07:36:33.000Z</time>
      </trkpt>
      <trkpt lat="47.26983" lon="-2.28998">
        <ele>31.200000762939</ele>
        <time>2020-07-02T07:36:36.000Z</time>
      </trkpt>
      <trkpt lat="47.26936" lon="-2.28985">
        <ele>31.200000762939</ele>
        <time>2020-07-02T07:36:43.000Z</time>
      </trkpt>
      <trkpt lat="47.26905" lon="-2.2897">
        <ele>31.200000762939</ele>
        <time>2020-07-02T07:36:48.000Z</time>
      </trkpt>
      <trkpt lat="47.26899" lon="-2.28968">
        <ele>31.200000762939</ele>
        <time>2020-07-02T07:36:49.000Z</time>
      </trkpt>
      <trkpt lat="47.26871" lon="-2.28956">
        <ele>31.200000762939</ele>
        <time>2020-07-02T07:36:54.000Z</time>
      </trkpt>
      <trkpt lat="47.26866" lon="-2.28953">
        <ele>31.200000762939</ele>
        <time>2020-07-02T07:36:55.000Z</time>
      </trkpt>
      <trkpt lat="47.26838" lon="-2.28937">
        <ele>31.200000762939</ele>
        <time>2020-07-02T07:37:01.000Z</time>
      </trkpt>
      <trkpt lat="47.26804" lon="-2.28918">
        <ele>31.200000762939</ele>
        <time>2020-07-02T07:37:08.000Z</time>
      </trkpt>
      <trkpt lat="47.26799" lon="-2.28915">
        <ele>31.200000762939</ele>
        <time>2020-07-02T07:37:09.000Z</time>
      </trkpt>
      <trkpt lat="47.26785" lon="-2.28908">
        <ele>31.200000762939</ele>
        <time>2020-07-02T07:37:12.000Z</time>
      </trkpt>
      <trkpt lat="47.2678" lon="-2.28905">
        <ele>31.200000762939</ele>
        <time>2020-07-02T07:37:13.000Z</time>
      </trkpt>
      <trkpt lat="47.26766" lon="-2.28893">
        <ele>31.60000038147</ele>
        <time>2020-07-02T07:37:16.000Z</time>
      </trkpt>
      <trkpt lat="47.26761" lon="-2.28889">
        <ele>32</ele>
        <time>2020-07-02T07:37:17.000Z</time>
      </trkpt>
      <trkpt lat="47.26757" lon="-2.28885">
        <ele>32.400001525879</ele>
        <time>2020-07-02T07:37:18.000Z</time>
      </trkpt>
      <trkpt lat="47.26752" lon="-2.28881">
        <ele>32.799999237061</ele>
        <time>2020-07-02T07:37:19.000Z</time>
      </trkpt>
      <trkpt lat="47.26747" lon="-2.28877">
        <ele>33.200000762939</ele>
        <time>2020-07-02T07:37:20.000Z</time>
      </trkpt>
      <trkpt lat="47.26727" lon="-2.2886">
        <ele>33.200000762939</ele>
        <time>2020-07-02T07:37:24.000Z</time>
      </trkpt>
      <trkpt lat="47.26717" lon="-2.28851">
        <ele>33.200000762939</ele>
        <time>2020-07-02T07:37:26.000Z</time>
      </trkpt>
      <trkpt lat="47.26702" lon="-2.28838">
        <ele>33.200000762939</ele>
        <time>2020-07-02T07:37:29.000Z</time>
      </trkpt>
      <trkpt lat="47.26679" lon="-2.28814">
        <ele>33.200000762939</ele>
        <time>2020-07-02T07:37:34.000Z</time>
      </trkpt>
      <trkpt lat="47.26662" lon="-2.28794">
        <ele>33.200000762939</ele>
        <time>2020-07-02T07:37:39.000Z</time>
      </trkpt>
      <trkpt lat="47.26656" lon="-2.28785">
        <ele>33.200000762939</ele>
        <time>2020-07-02T07:37:41.000Z</time>
      </trkpt>
      <trkpt lat="47.26645" lon="-2.28773">
        <ele>33.200000762939</ele>
        <time>2020-07-02T07:37:44.000Z</time>
      </trkpt>
      <trkpt lat="47.26641" lon="-2.2877">
        <ele>33.599998474121</ele>
        <time>2020-07-02T07:37:45.000Z</time>
      </trkpt>
      <trkpt lat="47.26637" lon="-2.28766">
        <ele>34</ele>
        <time>2020-07-02T07:37:46.000Z</time>
      </trkpt>
      <trkpt lat="47.26633" lon="-2.28762">
        <ele>34.400001525879</ele>
        <time>2020-07-02T07:37:47.000Z</time>
      </trkpt>
      <trkpt lat="47.26629" lon="-2.28758">
        <ele>34.799999237061</ele>
        <time>2020-07-02T07:37:48.000Z</time>
      </trkpt>
      <trkpt lat="47.26627" lon="-2.28754">
        <ele>35.200000762939</ele>
        <time>2020-07-02T07:37:49.000Z</time>
      </trkpt>
      <trkpt lat="47.26612" lon="-2.28733">
        <ele>35.200000762939</ele>
        <time>2020-07-02T07:37:54.000Z</time>
      </trkpt>
      <trkpt lat="47.26598" lon="-2.28718">
        <ele>35.200000762939</ele>
        <time>2020-07-02T07:37:57.000Z</time>
      </trkpt>
      <trkpt lat="47.26589" lon="-2.28709">
        <ele>35.200000762939</ele>
        <time>2020-07-02T07:37:59.000Z</time>
      </trkpt>
      <trkpt lat="47.26581" lon="-2.287">
        <ele>35.200000762939</ele>
        <time>2020-07-02T07:38:01.000Z</time>
      </trkpt>
      <trkpt lat="47.26566" lon="-2.28686">
        <ele>35.599998474121</ele>
        <time>2020-07-02T07:38:04.000Z</time>
      </trkpt>
      <trkpt lat="47.26562" lon="-2.28683">
        <ele>36.200000762939</ele>
        <time>2020-07-02T07:38:05.000Z</time>
      </trkpt>
      <trkpt lat="47.26557" lon="-2.28679">
        <ele>36.599998474121</ele>
        <time>2020-07-02T07:38:06.000Z</time>
      </trkpt>
      <trkpt lat="47.26553" lon="-2.28675">
        <ele>37</ele>
        <time>2020-07-02T07:38:07.000Z</time>
      </trkpt>
      <trkpt lat="47.26549" lon="-2.28671">
        <ele>37.400001525879</ele>
        <time>2020-07-02T07:38:08.000Z</time>
      </trkpt>
      <trkpt lat="47.26536" lon="-2.28652">
        <ele>37.799999237061</ele>
        <time>2020-07-02T07:38:11.000Z</time>
      </trkpt>
      <trkpt lat="47.26532" lon="-2.28647">
        <ele>38.200000762939</ele>
        <time>2020-07-02T07:38:12.000Z</time>
      </trkpt>
      <trkpt lat="47.26528" lon="-2.28643">
        <ele>38.599998474121</ele>
        <time>2020-07-02T07:38:13.000Z</time>
      </trkpt>
      <trkpt lat="47.26524" lon="-2.28639">
        <ele>39</ele>
        <time>2020-07-02T07:38:14.000Z</time>
      </trkpt>
      <trkpt lat="47.26519" lon="-2.28634">
        <ele>39.400001525879</ele>
        <time>2020-07-02T07:38:15.000Z</time>
      </trkpt>
      <trkpt lat="47.26515" lon="-2.28629">
        <ele>39.400001525879</ele>
        <time>2020-07-02T07:38:16.000Z</time>
      </trkpt>
      <trkpt lat="47.2651" lon="-2.28606">
        <ele>39.400001525879</ele>
        <time>2020-07-02T07:38:19.000Z</time>
      </trkpt>
      <trkpt lat="47.26508" lon="-2.28596">
        <ele>39.400001525879</ele>
        <time>2020-07-02T07:38:20.000Z</time>
      </trkpt>
      <trkpt lat="47.26507" lon="-2.28588">
        <ele>39.400001525879</ele>
        <time>2020-07-02T07:38:21.000Z</time>
      </trkpt>
      <trkpt lat="47.26501" lon="-2.28567">
        <ele>39.400001525879</ele>
        <time>2020-07-02T07:38:24.000Z</time>
      </trkpt>
      <trkpt lat="47.26482" lon="-2.28518">
        <ele>39.400001525879</ele>
        <time>2020-07-02T07:38:31.000Z</time>
      </trkpt>
      <trkpt lat="47.26472" lon="-2.28497">
        <ele>39.799999237061</ele>
        <time>2020-07-02T07:38:34.000Z</time>
      </trkpt>
      <trkpt lat="47.26468" lon="-2.28491">
        <ele>40.200000762939</ele>
        <time>2020-07-02T07:38:35.000Z</time>
      </trkpt>
      <trkpt lat="47.26464" lon="-2.28484">
        <ele>40.599998474121</ele>
        <time>2020-07-02T07:38:36.000Z</time>
      </trkpt>
      <trkpt lat="47.2646" lon="-2.28477">
        <ele>41</ele>
        <time>2020-07-02T07:38:37.000Z</time>
      </trkpt>
      <trkpt lat="47.26456" lon="-2.2847">
        <ele>41.400001525879</ele>
        <time>2020-07-02T07:38:38.000Z</time>
      </trkpt>
      <trkpt lat="47.26427" lon="-2.28416">
        <ele>41.400001525879</ele>
        <time>2020-07-02T07:38:46.000Z</time>
      </trkpt>
      <trkpt lat="47.26397" lon="-2.28354">
        <ele>41.400001525879</ele>
        <time>2020-07-02T07:38:55.000Z</time>
      </trkpt>
      <trkpt lat="47.26384" lon="-2.28326">
        <ele>42.400001525879</ele>
        <time>2020-07-02T07:38:59.000Z</time>
      </trkpt>
      <trkpt lat="47.26381" lon="-2.28319">
        <ele>42.799999237061</ele>
        <time>2020-07-02T07:39:00.000Z</time>
      </trkpt>
      <trkpt lat="47.26378" lon="-2.28311">
        <ele>43.200000762939</ele>
        <time>2020-07-02T07:39:01.000Z</time>
      </trkpt>
      <trkpt lat="47.26375" lon="-2.28304">
        <ele>43.599998474121</ele>
        <time>2020-07-02T07:39:02.000Z</time>
      </trkpt>
      <trkpt lat="47.26373" lon="-2.28297">
        <ele>43.599998474121</ele>
        <time>2020-07-02T07:39:03.000Z</time>
      </trkpt>
      <trkpt lat="47.26371" lon="-2.28289">
        <ele>43.599998474121</ele>
        <time>2020-07-02T07:39:04.000Z</time>
      </trkpt>
      <trkpt lat="47.26362" lon="-2.28256">
        <ele>43.599998474121</ele>
        <time>2020-07-02T07:39:08.000Z</time>
      </trkpt>
      <trkpt lat="47.26347" lon="-2.28192">
        <ele>43.599998474121</ele>
        <time>2020-07-02T07:39:15.000Z</time>
      </trkpt>
      <trkpt lat="47.26335" lon="-2.28123">
        <ele>43.599998474121</ele>
        <time>2020-07-02T07:39:22.000Z</time>
      </trkpt>
      <trkpt lat="47.26321" lon="-2.28048">
        <ele>43.599998474121</ele>
        <time>2020-07-02T07:39:29.000Z</time>
      </trkpt>
      <trkpt lat="47.26317" lon="-2.28037">
        <ele>43.599998474121</ele>
        <time>2020-07-02T07:39:30.000Z</time>
      </trkpt>
      <trkpt lat="47.2631" lon="-2.28017">
        <ele>43.200000762939</ele>
        <time>2020-07-02T07:39:32.000Z</time>
      </trkpt>
      <trkpt lat="47.26307" lon="-2.28007">
        <ele>42.799999237061</ele>
        <time>2020-07-02T07:39:33.000Z</time>
      </trkpt>
      <trkpt lat="47.26303" lon="-2.27997">
        <ele>42.400001525879</ele>
        <time>2020-07-02T07:39:34.000Z</time>
      </trkpt>
      <trkpt lat="47.26299" lon="-2.27987">
        <ele>42</ele>
        <time>2020-07-02T07:39:35.000Z</time>
      </trkpt>
      <trkpt lat="47.26295" lon="-2.27979">
        <ele>41.400001525879</ele>
        <time>2020-07-02T07:39:36.000Z</time>
      </trkpt>
      <trkpt lat="47.26292" lon="-2.27974">
        <ele>41.400001525879</ele>
        <time>2020-07-02T07:39:37.000Z</time>
      </trkpt>
      <trkpt lat="47.26289" lon="-2.27971">
        <ele>41.400001525879</ele>
        <time>2020-07-02T07:39:38.000Z</time>
      </trkpt>
      <trkpt lat="47.26281" lon="-2.2796">
        <ele>41</ele>
        <time>2020-07-02T07:39:41.000Z</time>
      </trkpt>
      <trkpt lat="47.26278" lon="-2.27956">
        <ele>40.599998474121</ele>
        <time>2020-07-02T07:39:42.000Z</time>
      </trkpt>
      <trkpt lat="47.26274" lon="-2.2795">
        <ele>40.200000762939</ele>
        <time>2020-07-02T07:39:43.000Z</time>
      </trkpt>
      <trkpt lat="47.26271" lon="-2.27944">
        <ele>39.799999237061</ele>
        <time>2020-07-02T07:39:44.000Z</time>
      </trkpt>
      <trkpt lat="47.26267" lon="-2.27937">
        <ele>39.400001525879</ele>
        <time>2020-07-02T07:39:45.000Z</time>
      </trkpt>
      <trkpt lat="47.26257" lon="-2.27917">
        <ele>39.400001525879</ele>
        <time>2020-07-02T07:39:48.000Z</time>
      </trkpt>
      <trkpt lat="47.26226" lon="-2.27861">
        <ele>39.400001525879</ele>
        <time>2020-07-02T07:39:56.000Z</time>
      </trkpt>
      <trkpt lat="47.26205" lon="-2.27819">
        <ele>39.400001525879</ele>
        <time>2020-07-02T07:40:02.000Z</time>
      </trkpt>
      <trkpt lat="47.26198" lon="-2.27806">
        <ele>39.400001525879</ele>
        <time>2020-07-02T07:40:04.000Z</time>
      </trkpt>
      <trkpt lat="47.26189" lon="-2.27787">
        <ele>39.799999237061</ele>
        <time>2020-07-02T07:40:07.000Z</time>
      </trkpt>
      <trkpt lat="47.26187" lon="-2.27781">
        <ele>40.200000762939</ele>
        <time>2020-07-02T07:40:08.000Z</time>
      </trkpt>
      <trkpt lat="47.26185" lon="-2.27775">
        <ele>40.599998474121</ele>
        <time>2020-07-02T07:40:09.000Z</time>
      </trkpt>
      <trkpt lat="47.26183" lon="-2.27768">
        <ele>41</ele>
        <time>2020-07-02T07:40:10.000Z</time>
      </trkpt>
      <trkpt lat="47.26181" lon="-2.27762">
        <ele>41.400001525879</ele>
        <time>2020-07-02T07:40:11.000Z</time>
      </trkpt>
      <trkpt lat="47.26178" lon="-2.27751">
        <ele>41.400001525879</ele>
        <time>2020-07-02T07:40:13.000Z</time>
      </trkpt>
      <trkpt lat="47.26166" lon="-2.27711">
        <ele>41.400001525879</ele>
        <time>2020-07-02T07:40:21.000Z</time>
      </trkpt>
      <trkpt lat="47.26153" lon="-2.27664">
        <ele>41.400001525879</ele>
        <time>2020-07-02T07:40:30.000Z</time>
      </trkpt>
      <trkpt lat="47.26144" lon="-2.27625">
        <ele>41.400001525879</ele>
        <time>2020-07-02T07:40:38.000Z</time>
      </trkpt>
      <trkpt lat="47.2614" lon="-2.27595">
        <ele>41.400001525879</ele>
        <time>2020-07-02T07:40:45.000Z</time>
      </trkpt>
      <trkpt lat="47.26134" lon="-2.27586">
        <ele>41.400001525879</ele>
        <time>2020-07-02T07:40:48.000Z</time>
      </trkpt>
      <trkpt lat="47.26132" lon="-2.27585">
        <ele>41.400001525879</ele>
        <time>2020-07-02T07:40:49.000Z</time>
      </trkpt>
      <trkpt lat="47.26118" lon="-2.27587">
        <ele>41.400001525879</ele>
        <time>2020-07-02T07:40:53.000Z</time>
      </trkpt>
      <trkpt lat="47.26112" lon="-2.2759">
        <ele>41.400001525879</ele>
        <time>2020-07-02T07:40:55.000Z</time>
      </trkpt>
      <trkpt lat="47.26098" lon="-2.27598">
        <ele>41.400001525879</ele>
        <time>2020-07-02T07:40:59.000Z</time>
      </trkpt>
      <trkpt lat="47.2608" lon="-2.27608">
        <ele>41.400001525879</ele>
        <time>2020-07-02T07:41:05.000Z</time>
      </trkpt>
      <trkpt lat="47.26061" lon="-2.27619">
        <ele>41.400001525879</ele>
        <time>2020-07-02T07:41:12.000Z</time>
      </trkpt>
      <trkpt lat="47.26042" lon="-2.27626">
        <ele>41.400001525879</ele>
        <time>2020-07-02T07:41:19.000Z</time>
      </trkpt>
      <trkpt lat="47.26038" lon="-2.27626">
        <ele>41.400001525879</ele>
        <time>2020-07-02T07:41:22.000Z</time>
      </trkpt>
      <trkpt lat="47.26037" lon="-2.27631">
        <ele>41.400001525879</ele>
        <time>2020-07-02T07:41:24.000Z</time>
      </trkpt>
      <trkpt lat="47.2604" lon="-2.27626">
        <ele>41.400001525879</ele>
        <time>2020-07-02T07:41:27.000Z</time>
      </trkpt>
      <trkpt lat="47.26039" lon="-2.27615">
        <ele>41.400001525879</ele>
        <time>2020-07-02T07:41:30.000Z</time>
      </trkpt>
      <trkpt lat="47.26038" lon="-2.27611">
        <ele>41.400001525879</ele>
        <time>2020-07-02T07:41:31.000Z</time>
      </trkpt>
      <trkpt lat="47.26034" lon="-2.27589">
        <ele>41.400001525879</ele>
        <time>2020-07-02T07:41:37.000Z</time>
      </trkpt>
      <trkpt lat="47.2603" lon="-2.27564">
        <ele>41.400001525879</ele>
        <time>2020-07-02T07:41:43.000Z</time>
      </trkpt>
      <trkpt lat="47.26028" lon="-2.27553">
        <ele>41.400001525879</ele>
        <time>2020-07-02T07:41:45.000Z</time>
      </trkpt>
      <trkpt lat="47.26025" lon="-2.27535">
        <ele>41.400001525879</ele>
        <time>2020-07-02T07:41:48.000Z</time>
      </trkpt>
      <trkpt lat="47.26025" lon="-2.27504">
        <ele>41.400001525879</ele>
        <time>2020-07-02T07:41:53.000Z</time>
      </trkpt>
      <trkpt lat="47.26033" lon="-2.27455">
        <ele>41.400001525879</ele>
        <time>2020-07-02T07:42:00.000Z</time>
      </trkpt>
      <trkpt lat="47.26039" lon="-2.27443">
        <ele>41.400001525879</ele>
        <time>2020-07-02T07:42:02.000Z</time>
      </trkpt>
      <trkpt lat="47.26044" lon="-2.27431">
        <ele>41.400001525879</ele>
        <time>2020-07-02T07:42:04.000Z</time>
      </trkpt>
      <trkpt lat="47.26048" lon="-2.27423">
        <ele>41.400001525879</ele>
        <time>2020-07-02T07:42:06.000Z</time>
      </trkpt>
      <trkpt lat="47.26064" lon="-2.27395">
        <ele>41.400001525879</ele>
        <time>2020-07-02T07:42:12.000Z</time>
      </trkpt>
      <trkpt lat="47.26089" lon="-2.27365">
        <ele>41.400001525879</ele>
        <time>2020-07-02T07:42:18.000Z</time>
      </trkpt>
      <trkpt lat="47.26115" lon="-2.27339">
        <ele>41.400001525879</ele>
        <time>2020-07-02T07:42:23.000Z</time>
      </trkpt>
      <trkpt lat="47.2612" lon="-2.27334">
        <ele>41.400001525879</ele>
        <time>2020-07-02T07:42:24.000Z</time>
      </trkpt>
      <trkpt lat="47.26129" lon="-2.27325">
        <ele>41.400001525879</ele>
        <time>2020-07-02T07:42:26.000Z</time>
      </trkpt>
      <trkpt lat="47.26138" lon="-2.27319">
        <ele>41.400001525879</ele>
        <time>2020-07-02T07:42:28.000Z</time>
      </trkpt>
      <trkpt lat="47.26143" lon="-2.27319">
        <ele>41.400001525879</ele>
        <time>2020-07-02T07:42:29.000Z</time>
      </trkpt>
      <trkpt lat="47.26158" lon="-2.27321">
        <ele>41.400001525879</ele>
        <time>2020-07-02T07:42:32.000Z</time>
      </trkpt>
      <trkpt lat="47.26164" lon="-2.27321">
        <ele>41.400001525879</ele>
        <time>2020-07-02T07:42:33.000Z</time>
      </trkpt>
      <trkpt lat="47.26201" lon="-2.27314">
        <ele>41.400001525879</ele>
        <time>2020-07-02T07:42:40.000Z</time>
      </trkpt>
      <trkpt lat="47.26228" lon="-2.27318">
        <ele>41.400001525879</ele>
        <time>2020-07-02T07:42:45.000Z</time>
      </trkpt>
      <trkpt lat="47.26252" lon="-2.27322">
        <ele>41.400001525879</ele>
        <time>2020-07-02T07:42:49.000Z</time>
      </trkpt>
      <trkpt lat="47.26259" lon="-2.27322">
        <ele>41.400001525879</ele>
        <time>2020-07-02T07:42:50.000Z</time>
      </trkpt>
      <trkpt lat="47.2631" lon="-2.27327">
        <ele>41.400001525879</ele>
        <time>2020-07-02T07:42:57.000Z</time>
      </trkpt>
      <trkpt lat="47.26316" lon="-2.27328">
        <ele>41.400001525879</ele>
        <time>2020-07-02T07:42:58.000Z</time>
      </trkpt>
      <trkpt lat="47.26341" lon="-2.2733">
        <ele>41.400001525879</ele>
        <time>2020-07-02T07:43:02.000Z</time>
      </trkpt>
      <trkpt lat="47.26373" lon="-2.27331">
        <ele>40.599998474121</ele>
        <time>2020-07-02T07:43:07.000Z</time>
      </trkpt>
      <trkpt lat="47.26379" lon="-2.27331">
        <ele>40.200000762939</ele>
        <time>2020-07-02T07:43:08.000Z</time>
      </trkpt>
      <trkpt lat="47.26386" lon="-2.27331">
        <ele>39.799999237061</ele>
        <time>2020-07-02T07:43:09.000Z</time>
      </trkpt>
      <trkpt lat="47.26393" lon="-2.27331">
        <ele>39.400001525879</ele>
        <time>2020-07-02T07:43:10.000Z</time>
      </trkpt>
      <trkpt lat="47.26406" lon="-2.27333">
        <ele>39.400001525879</ele>
        <time>2020-07-02T07:43:12.000Z</time>
      </trkpt>
      <trkpt lat="47.26422" lon="-2.27339">
        <ele>39.400001525879</ele>
        <time>2020-07-02T07:43:15.000Z</time>
      </trkpt>
      <trkpt lat="47.26427" lon="-2.27343">
        <ele>39.400001525879</ele>
        <time>2020-07-02T07:43:16.000Z</time>
      </trkpt>
      <trkpt lat="47.26434" lon="-2.27351">
        <ele>39.400001525879</ele>
        <time>2020-07-02T07:43:18.000Z</time>
      </trkpt>
      <trkpt lat="47.26437" lon="-2.27359">
        <ele>39</ele>
        <time>2020-07-02T07:43:19.000Z</time>
      </trkpt>
      <trkpt lat="47.2644" lon="-2.27367">
        <ele>38.599998474121</ele>
        <time>2020-07-02T07:43:20.000Z</time>
      </trkpt>
      <trkpt lat="47.26443" lon="-2.27375">
        <ele>38.200000762939</ele>
        <time>2020-07-02T07:43:21.000Z</time>
      </trkpt>
      <trkpt lat="47.26446" lon="-2.27383">
        <ele>37.799999237061</ele>
        <time>2020-07-02T07:43:22.000Z</time>
      </trkpt>
      <trkpt lat="47.26448" lon="-2.27392">
        <ele>37.200000762939</ele>
        <time>2020-07-02T07:43:23.000Z</time>
      </trkpt>
      <trkpt lat="47.26456" lon="-2.27418">
        <ele>37.200000762939</ele>
        <time>2020-07-02T07:43:26.000Z</time>
      </trkpt>
      <trkpt lat="47.26472" lon="-2.27476">
        <ele>36.799999237061</ele>
        <time>2020-07-02T07:43:32.000Z</time>
      </trkpt>
      <trkpt lat="47.26475" lon="-2.27485">
        <ele>36.400001525879</ele>
        <time>2020-07-02T07:43:33.000Z</time>
      </trkpt>
      <trkpt lat="47.26477" lon="-2.27494">
        <ele>36</ele>
        <time>2020-07-02T07:43:34.000Z</time>
      </trkpt>
      <trkpt lat="47.2648" lon="-2.27503">
        <ele>35.599998474121</ele>
        <time>2020-07-02T07:43:35.000Z</time>
      </trkpt>
      <trkpt lat="47.26482" lon="-2.27512">
        <ele>35.200000762939</ele>
        <time>2020-07-02T07:43:36.000Z</time>
      </trkpt>
      <trkpt lat="47.26487" lon="-2.27542">
        <ele>35.200000762939</ele>
        <time>2020-07-02T07:43:39.000Z</time>
      </trkpt>
      <trkpt lat="47.26493" lon="-2.27569">
        <ele>35.200000762939</ele>
        <time>2020-07-02T07:43:42.000Z</time>
      </trkpt>
      <trkpt lat="47.26496" lon="-2.27573">
        <ele>34.799999237061</ele>
        <time>2020-07-02T07:43:43.000Z</time>
      </trkpt>
      <trkpt lat="47.26502" lon="-2.27575">
        <ele>34.400001525879</ele>
        <time>2020-07-02T07:43:44.000Z</time>
      </trkpt>
      <trkpt lat="47.26507" lon="-2.27577">
        <ele>33.799999237061</ele>
        <time>2020-07-02T07:43:45.000Z</time>
      </trkpt>
      <trkpt lat="47.26512" lon="-2.27577">
        <ele>33.400001525879</ele>
        <time>2020-07-02T07:43:46.000Z</time>
      </trkpt>
      <trkpt lat="47.26518" lon="-2.27577">
        <ele>33</ele>
        <time>2020-07-02T07:43:47.000Z</time>
      </trkpt>
      <trkpt lat="47.26535" lon="-2.27581">
        <ele>33</ele>
        <time>2020-07-02T07:43:50.000Z</time>
      </trkpt>
      <trkpt lat="47.2657" lon="-2.27582">
        <ele>33</ele>
        <time>2020-07-02T07:43:56.000Z</time>
      </trkpt>
      <trkpt lat="47.26582" lon="-2.27585">
        <ele>33</ele>
        <time>2020-07-02T07:43:58.000Z</time>
      </trkpt>
      <trkpt lat="47.26599" lon="-2.27592">
        <ele>33</ele>
        <time>2020-07-02T07:44:01.000Z</time>
      </trkpt>
      <trkpt lat="47.26619" lon="-2.27603">
        <ele>33</ele>
        <time>2020-07-02T07:44:05.000Z</time>
      </trkpt>
      <trkpt lat="47.26629" lon="-2.27608">
        <ele>33</ele>
        <time>2020-07-02T07:44:07.000Z</time>
      </trkpt>
      <trkpt lat="47.26664" lon="-2.27624">
        <ele>33</ele>
        <time>2020-07-02T07:44:14.000Z</time>
      </trkpt>
      <trkpt lat="47.26698" lon="-2.27637">
        <ele>33</ele>
        <time>2020-07-02T07:44:20.000Z</time>
      </trkpt>
      <trkpt lat="47.26714" lon="-2.27644">
        <ele>33</ele>
        <time>2020-07-02T07:44:23.000Z</time>
      </trkpt>
      <trkpt lat="47.26725" lon="-2.27646">
        <ele>33</ele>
        <time>2020-07-02T07:44:25.000Z</time>
      </trkpt>
      <trkpt lat="47.2675" lon="-2.27654">
        <ele>33</ele>
        <time>2020-07-02T07:44:30.000Z</time>
      </trkpt>
      <trkpt lat="47.26755" lon="-2.27652">
        <ele>33</ele>
        <time>2020-07-02T07:44:31.000Z</time>
      </trkpt>
      <trkpt lat="47.26764" lon="-2.27637">
        <ele>33</ele>
        <time>2020-07-02T07:44:34.000Z</time>
      </trkpt>
      <trkpt lat="47.26762" lon="-2.27609">
        <ele>33</ele>
        <time>2020-07-02T07:44:38.000Z</time>
      </trkpt>
      <trkpt lat="47.26751" lon="-2.27547">
        <ele>33</ele>
        <time>2020-07-02T07:44:46.000Z</time>
      </trkpt>
      <trkpt lat="47.26751" lon="-2.27489">
        <ele>33</ele>
        <time>2020-07-02T07:44:53.000Z</time>
      </trkpt>
      <trkpt lat="47.26752" lon="-2.27429">
        <ele>33</ele>
        <time>2020-07-02T07:45:00.000Z</time>
      </trkpt>
      <trkpt lat="47.26753" lon="-2.27421">
        <ele>33</ele>
        <time>2020-07-02T07:45:01.000Z</time>
      </trkpt>
      <trkpt lat="47.26758" lon="-2.27413">
        <ele>33</ele>
        <time>2020-07-02T07:45:03.000Z</time>
      </trkpt>
      <trkpt lat="47.26773" lon="-2.27412">
        <ele>33</ele>
        <time>2020-07-02T07:45:06.000Z</time>
      </trkpt>
      <trkpt lat="47.26803" lon="-2.27411">
        <ele>33</ele>
        <time>2020-07-02T07:45:12.000Z</time>
      </trkpt>
      <trkpt lat="47.26828" lon="-2.27409">
        <ele>33</ele>
        <time>2020-07-02T07:45:17.000Z</time>
      </trkpt>
      <trkpt lat="47.2686" lon="-2.27397">
        <ele>33</ele>
        <time>2020-07-02T07:45:23.000Z</time>
      </trkpt>
      <trkpt lat="47.26866" lon="-2.27395">
        <ele>32.400001525879</ele>
        <time>2020-07-02T07:45:24.000Z</time>
      </trkpt>
      <trkpt lat="47.26871" lon="-2.27393">
        <ele>32</ele>
        <time>2020-07-02T07:45:25.000Z</time>
      </trkpt>
      <trkpt lat="47.26877" lon="-2.2739">
        <ele>31.60000038147</ele>
        <time>2020-07-02T07:45:26.000Z</time>
      </trkpt>
      <trkpt lat="47.26882" lon="-2.27388">
        <ele>31.200000762939</ele>
        <time>2020-07-02T07:45:27.000Z</time>
      </trkpt>
      <trkpt lat="47.26886" lon="-2.27386">
        <ele>30.799999237061</ele>
        <time>2020-07-02T07:45:28.000Z</time>
      </trkpt>
      <trkpt lat="47.26891" lon="-2.27383">
        <ele>30.799999237061</ele>
        <time>2020-07-02T07:45:29.000Z</time>
      </trkpt>
      <trkpt lat="47.26895" lon="-2.27381">
        <ele>30.39999961853</ele>
        <time>2020-07-02T07:45:30.000Z</time>
      </trkpt>
      <trkpt lat="47.26899" lon="-2.27379">
        <ele>30</ele>
        <time>2020-07-02T07:45:31.000Z</time>
      </trkpt>
      <trkpt lat="47.26902" lon="-2.27376">
        <ele>29.60000038147</ele>
        <time>2020-07-02T07:45:32.000Z</time>
      </trkpt>
      <trkpt lat="47.26904" lon="-2.27373">
        <ele>29.200000762939</ele>
        <time>2020-07-02T07:45:33.000Z</time>
      </trkpt>
      <trkpt lat="47.26906" lon="-2.2737">
        <ele>28.60000038147</ele>
        <time>2020-07-02T07:45:34.000Z</time>
      </trkpt>
      <trkpt lat="47.26911" lon="-2.27363">
        <ele>28.60000038147</ele>
        <time>2020-07-02T07:45:38.000Z</time>
      </trkpt>
      <trkpt lat="47.26914" lon="-2.27351">
        <ele>28.60000038147</ele>
        <time>2020-07-02T07:45:44.000Z</time>
      </trkpt>
      <trkpt lat="47.26916" lon="-2.27338">
        <ele>28.60000038147</ele>
        <time>2020-07-02T07:45:50.000Z</time>
      </trkpt>
      <trkpt lat="47.26918" lon="-2.27322">
        <ele>28.60000038147</ele>
        <time>2020-07-02T07:45:57.000Z</time>
      </trkpt>
      <trkpt lat="47.26918" lon="-2.27304">
        <ele>28.60000038147</ele>
        <time>2020-07-02T07:46:04.000Z</time>
      </trkpt>
      <trkpt lat="47.26921" lon="-2.27284">
        <ele>28.60000038147</ele>
        <time>2020-07-02T07:46:10.000Z</time>
      </trkpt>
      <trkpt lat="47.26929" lon="-2.27269">
        <ele>28.60000038147</ele>
        <time>2020-07-02T07:46:15.000Z</time>
      </trkpt>
      <trkpt lat="47.26934" lon="-2.27267">
        <ele>28.60000038147</ele>
        <time>2020-07-02T07:46:17.000Z</time>
      </trkpt>
      <trkpt lat="47.26939" lon="-2.27264">
        <ele>28.200000762939</ele>
        <time>2020-07-02T07:46:19.000Z</time>
      </trkpt>
      <trkpt lat="47.2694" lon="-2.27262">
        <ele>27.799999237061</ele>
        <time>2020-07-02T07:46:20.000Z</time>
      </trkpt>
      <trkpt lat="47.26942" lon="-2.27259">
        <ele>27.39999961853</ele>
        <time>2020-07-02T07:46:21.000Z</time>
      </trkpt>
      <trkpt lat="47.26944" lon="-2.27255">
        <ele>27</ele>
        <time>2020-07-02T07:46:22.000Z</time>
      </trkpt>
      <trkpt lat="47.26945" lon="-2.27251">
        <ele>26.60000038147</ele>
        <time>2020-07-02T07:46:23.000Z</time>
      </trkpt>
      <trkpt lat="47.26946" lon="-2.27245">
        <ele>26.60000038147</ele>
        <time>2020-07-02T07:46:25.000Z</time>
      </trkpt>
      <trkpt lat="47.26947" lon="-2.2724">
        <ele>26.60000038147</ele>
        <time>2020-07-02T07:46:27.000Z</time>
      </trkpt>
      <trkpt lat="47.26947" lon="-2.27222">
        <ele>26.60000038147</ele>
        <time>2020-07-02T07:46:32.000Z</time>
      </trkpt>
      <trkpt lat="47.2695" lon="-2.27214">
        <ele>26.60000038147</ele>
        <time>2020-07-02T07:46:36.000Z</time>
      </trkpt>
      <trkpt lat="47.26952" lon="-2.27212">
        <ele>26.60000038147</ele>
        <time>2020-07-02T07:46:37.000Z</time>
      </trkpt>
      <trkpt lat="47.26958" lon="-2.27198">
        <ele>26.60000038147</ele>
        <time>2020-07-02T07:46:42.000Z</time>
      </trkpt>
      <trkpt lat="47.26961" lon="-2.27194">
        <ele>27</ele>
        <time>2020-07-02T07:46:44.000Z</time>
      </trkpt>
      <trkpt lat="47.26962" lon="-2.27194">
        <ele>27.39999961853</ele>
        <time>2020-07-02T07:46:45.000Z</time>
      </trkpt>
      <trkpt lat="47.26964" lon="-2.27194">
        <ele>27.799999237061</ele>
        <time>2020-07-02T07:46:46.000Z</time>
      </trkpt>
      <trkpt lat="47.26966" lon="-2.27194">
        <ele>28.200000762939</ele>
        <time>2020-07-02T07:46:47.000Z</time>
      </trkpt>
      <trkpt lat="47.26968" lon="-2.27195">
        <ele>28.60000038147</ele>
        <time>2020-07-02T07:46:48.000Z</time>
      </trkpt>
      <trkpt lat="47.26969" lon="-2.27194">
        <ele>28.60000038147</ele>
        <time>2020-07-02T07:46:49.000Z</time>
      </trkpt>
      <trkpt lat="47.26971" lon="-2.2719">
        <ele>28.60000038147</ele>
        <time>2020-07-02T07:46:51.000Z</time>
      </trkpt>
      <trkpt lat="47.26983" lon="-2.27178">
        <ele>28.60000038147</ele>
        <time>2020-07-02T07:46:57.000Z</time>
      </trkpt>
      <trkpt lat="47.26987" lon="-2.27177">
        <ele>28.60000038147</ele>
        <time>2020-07-02T07:46:59.000Z</time>
      </trkpt>
      <trkpt lat="47.2699" lon="-2.27179">
        <ele>28.200000762939</ele>
        <time>2020-07-02T07:47:01.000Z</time>
      </trkpt>
      <trkpt lat="47.26992" lon="-2.2718">
        <ele>27.799999237061</ele>
        <time>2020-07-02T07:47:02.000Z</time>
      </trkpt>
      <trkpt lat="47.26993" lon="-2.2718">
        <ele>27.39999961853</ele>
        <time>2020-07-02T07:47:03.000Z</time>
      </trkpt>
      <trkpt lat="47.26995" lon="-2.27181">
        <ele>26.799999237061</ele>
        <time>2020-07-02T07:47:04.000Z</time>
      </trkpt>
      <trkpt lat="47.26999" lon="-2.27179">
        <ele>26.39999961853</ele>
        <time>2020-07-02T07:47:05.000Z</time>
      </trkpt>
      <trkpt lat="47.27003" lon="-2.27176">
        <ele>26.39999961853</ele>
        <time>2020-07-02T07:47:08.000Z</time>
      </trkpt>
      <trkpt lat="47.27006" lon="-2.27173">
        <ele>26.39999961853</ele>
        <time>2020-07-02T07:47:10.000Z</time>
      </trkpt>
      <trkpt lat="47.27009" lon="-2.27163">
        <ele>26.39999961853</ele>
        <time>2020-07-02T07:47:14.000Z</time>
      </trkpt>
      <trkpt lat="47.27012" lon="-2.2716">
        <ele>26.39999961853</ele>
        <time>2020-07-02T07:47:16.000Z</time>
      </trkpt>
      <trkpt lat="47.27013" lon="-2.27158">
        <ele>26</ele>
        <time>2020-07-02T07:47:17.000Z</time>
      </trkpt>
      <trkpt lat="47.27017" lon="-2.27154">
        <ele>25.60000038147</ele>
        <time>2020-07-02T07:47:18.000Z</time>
      </trkpt>
      <trkpt lat="47.27019" lon="-2.2715">
        <ele>25</ele>
        <time>2020-07-02T07:47:19.000Z</time>
      </trkpt>
      <trkpt lat="47.2702" lon="-2.27146">
        <ele>24.60000038147</ele>
        <time>2020-07-02T07:47:20.000Z</time>
      </trkpt>
      <trkpt lat="47.27021" lon="-2.27142">
        <ele>24.200000762939</ele>
        <time>2020-07-02T07:47:21.000Z</time>
      </trkpt>
      <trkpt lat="47.27021" lon="-2.27129">
        <ele>24.200000762939</ele>
        <time>2020-07-02T07:47:24.000Z</time>
      </trkpt>
      <trkpt lat="47.27019" lon="-2.27124">
        <ele>24.200000762939</ele>
        <time>2020-07-02T07:47:25.000Z</time>
      </trkpt>
      <trkpt lat="47.27012" lon="-2.27108">
        <ele>24.60000038147</ele>
        <time>2020-07-02T07:47:28.000Z</time>
      </trkpt>
      <trkpt lat="47.2701" lon="-2.27101">
        <ele>25</ele>
        <time>2020-07-02T07:47:29.000Z</time>
      </trkpt>
      <trkpt lat="47.27008" lon="-2.27093">
        <ele>25.39999961853</ele>
        <time>2020-07-02T07:47:30.000Z</time>
      </trkpt>
      <trkpt lat="47.27007" lon="-2.27085">
        <ele>26</ele>
        <time>2020-07-02T07:47:31.000Z</time>
      </trkpt>
      <trkpt lat="47.27006" lon="-2.27077">
        <ele>26.39999961853</ele>
        <time>2020-07-02T07:47:32.000Z</time>
      </trkpt>
      <trkpt lat="47.27002" lon="-2.27063">
        <ele>26.39999961853</ele>
        <time>2020-07-02T07:47:34.000Z</time>
      </trkpt>
      <trkpt lat="47.26996" lon="-2.2705">
        <ele>26.39999961853</ele>
        <time>2020-07-02T07:47:36.000Z</time>
      </trkpt>
      <trkpt lat="47.26989" lon="-2.27039">
        <ele>26.39999961853</ele>
        <time>2020-07-02T07:47:38.000Z</time>
      </trkpt>
      <trkpt lat="47.2698" lon="-2.27027">
        <ele>26.39999961853</ele>
        <time>2020-07-02T07:47:40.000Z</time>
      </trkpt>
      <trkpt lat="47.26958" lon="-2.26988">
        <ele>26.39999961853</ele>
        <time>2020-07-02T07:47:45.000Z</time>
      </trkpt>
      <trkpt lat="47.26955" lon="-2.2695">
        <ele>26.39999961853</ele>
        <time>2020-07-02T07:47:49.000Z</time>
      </trkpt>
      <trkpt lat="47.26959" lon="-2.26928">
        <ele>26.39999961853</ele>
        <time>2020-07-02T07:47:51.000Z</time>
      </trkpt>
      <trkpt lat="47.26962" lon="-2.26893">
        <ele>26.39999961853</ele>
        <time>2020-07-02T07:47:54.000Z</time>
      </trkpt>
      <trkpt lat="47.26961" lon="-2.26872">
        <ele>26.39999961853</ele>
        <time>2020-07-02T07:47:56.000Z</time>
      </trkpt>
      <trkpt lat="47.26958" lon="-2.26851">
        <ele>26.39999961853</ele>
        <time>2020-07-02T07:47:58.000Z</time>
      </trkpt>
      <trkpt lat="47.26951" lon="-2.26822">
        <ele>26</ele>
        <time>2020-07-02T07:48:01.000Z</time>
      </trkpt>
      <trkpt lat="47.26948" lon="-2.26813">
        <ele>25.60000038147</ele>
        <time>2020-07-02T07:48:02.000Z</time>
      </trkpt>
      <trkpt lat="47.26945" lon="-2.26804">
        <ele>24.799999237061</ele>
        <time>2020-07-02T07:48:03.000Z</time>
      </trkpt>
      <trkpt lat="47.26941" lon="-2.26795">
        <ele>24.39999961853</ele>
        <time>2020-07-02T07:48:04.000Z</time>
      </trkpt>
      <trkpt lat="47.26922" lon="-2.26742">
        <ele>24.39999961853</ele>
        <time>2020-07-02T07:48:10.000Z</time>
      </trkpt>
      <trkpt lat="47.26906" lon="-2.26693">
        <ele>24.799999237061</ele>
        <time>2020-07-02T07:48:17.000Z</time>
      </trkpt>
      <trkpt lat="47.26903" lon="-2.26687">
        <ele>25.200000762939</ele>
        <time>2020-07-02T07:48:18.000Z</time>
      </trkpt>
      <trkpt lat="47.269" lon="-2.2668">
        <ele>25.60000038147</ele>
        <time>2020-07-02T07:48:19.000Z</time>
      </trkpt>
      <trkpt lat="47.26898" lon="-2.26673">
        <ele>26</ele>
        <time>2020-07-02T07:48:20.000Z</time>
      </trkpt>
      <trkpt lat="47.26896" lon="-2.26664">
        <ele>26.39999961853</ele>
        <time>2020-07-02T07:48:21.000Z</time>
      </trkpt>
      <trkpt lat="47.2689" lon="-2.26648">
        <ele>26.39999961853</ele>
        <time>2020-07-02T07:48:23.000Z</time>
      </trkpt>
      <trkpt lat="47.26876" lon="-2.26593">
        <ele>26.39999961853</ele>
        <time>2020-07-02T07:48:30.000Z</time>
      </trkpt>
      <trkpt lat="47.26864" lon="-2.26563">
        <ele>26.39999961853</ele>
        <time>2020-07-02T07:48:35.000Z</time>
      </trkpt>
      <trkpt lat="47.26862" lon="-2.26558">
        <ele>26.39999961853</ele>
        <time>2020-07-02T07:48:38.000Z</time>
      </trkpt>
      <trkpt lat="47.26862" lon="-2.26556">
        <ele>26.39999961853</ele>
        <time>2020-07-02T07:48:39.000Z</time>
      </trkpt>
      <trkpt lat="47.26868" lon="-2.26547">
        <ele>26.39999961853</ele>
        <time>2020-07-02T07:48:43.000Z</time>
      </trkpt>
      <trkpt lat="47.26874" lon="-2.26543">
        <ele>26.39999961853</ele>
        <time>2020-07-02T07:48:45.000Z</time>
      </trkpt>
      <trkpt lat="47.26885" lon="-2.26537">
        <ele>26.39999961853</ele>
        <time>2020-07-02T07:48:48.000Z</time>
      </trkpt>
      <trkpt lat="47.26912" lon="-2.26527">
        <ele>26.39999961853</ele>
        <time>2020-07-02T07:48:53.000Z</time>
      </trkpt>
      <trkpt lat="47.26945" lon="-2.26513">
        <ele>26.39999961853</ele>
        <time>2020-07-02T07:48:59.000Z</time>
      </trkpt>
      <trkpt lat="47.26977" lon="-2.2649">
        <ele>26.39999961853</ele>
        <time>2020-07-02T07:49:05.000Z</time>
      </trkpt>
      <trkpt lat="47.27" lon="-2.26463">
        <ele>26.39999961853</ele>
        <time>2020-07-02T07:49:10.000Z</time>
      </trkpt>
      <trkpt lat="47.2702" lon="-2.26431">
        <ele>26.39999961853</ele>
        <time>2020-07-02T07:49:16.000Z</time>
      </trkpt>
      <trkpt lat="47.27036" lon="-2.26408">
        <ele>26.39999961853</ele>
        <time>2020-07-02T07:49:22.000Z</time>
      </trkpt>
      <trkpt lat="47.27058" lon="-2.26371">
        <ele>26.39999961853</ele>
        <time>2020-07-02T07:49:30.000Z</time>
      </trkpt>
      <trkpt lat="47.27078" lon="-2.26338">
        <ele>26.39999961853</ele>
        <time>2020-07-02T07:49:36.000Z</time>
      </trkpt>
      <trkpt lat="47.27112" lon="-2.26295">
        <ele>26.39999961853</ele>
        <time>2020-07-02T07:49:43.000Z</time>
      </trkpt>
      <trkpt lat="47.27145" lon="-2.26247">
        <ele>26.39999961853</ele>
        <time>2020-07-02T07:49:50.000Z</time>
      </trkpt>
      <trkpt lat="47.27183" lon="-2.26205">
        <ele>26.39999961853</ele>
        <time>2020-07-02T07:49:56.000Z</time>
      </trkpt>
      <trkpt lat="47.27235" lon="-2.26166">
        <ele>26</ele>
        <time>2020-07-02T07:50:03.000Z</time>
      </trkpt>
      <trkpt lat="47.27243" lon="-2.26163">
        <ele>25.60000038147</ele>
        <time>2020-07-02T07:50:04.000Z</time>
      </trkpt>
      <trkpt lat="47.2725" lon="-2.26159">
        <ele>25.200000762939</ele>
        <time>2020-07-02T07:50:05.000Z</time>
      </trkpt>
      <trkpt lat="47.27257" lon="-2.26155">
        <ele>24.200000762939</ele>
        <time>2020-07-02T07:50:06.000Z</time>
      </trkpt>
      <trkpt lat="47.27278" lon="-2.26145">
        <ele>24.200000762939</ele>
        <time>2020-07-02T07:50:09.000Z</time>
      </trkpt>
      <trkpt lat="47.27312" lon="-2.26136">
        <ele>24.200000762939</ele>
        <time>2020-07-02T07:50:14.000Z</time>
      </trkpt>
      <trkpt lat="47.2735" lon="-2.26122">
        <ele>24.200000762939</ele>
        <time>2020-07-02T07:50:21.000Z</time>
      </trkpt>
      <trkpt lat="47.27356" lon="-2.26124">
        <ele>24.200000762939</ele>
        <time>2020-07-02T07:50:22.000Z</time>
      </trkpt>
      <trkpt lat="47.27369" lon="-2.26139">
        <ele>24.200000762939</ele>
        <time>2020-07-02T07:50:25.000Z</time>
      </trkpt>
      <trkpt lat="47.27377" lon="-2.26154">
        <ele>23.799999237061</ele>
        <time>2020-07-02T07:50:27.000Z</time>
      </trkpt>
      <trkpt lat="47.27381" lon="-2.26162">
        <ele>23.39999961853</ele>
        <time>2020-07-02T07:50:28.000Z</time>
      </trkpt>
      <trkpt lat="47.27386" lon="-2.2617">
        <ele>23</ele>
        <time>2020-07-02T07:50:29.000Z</time>
      </trkpt>
      <trkpt lat="47.27391" lon="-2.26177">
        <ele>22.60000038147</ele>
        <time>2020-07-02T07:50:30.000Z</time>
      </trkpt>
      <trkpt lat="47.27395" lon="-2.26184">
        <ele>22.200000762939</ele>
        <time>2020-07-02T07:50:31.000Z</time>
      </trkpt>
      <trkpt lat="47.27427" lon="-2.26236">
        <ele>22.200000762939</ele>
        <time>2020-07-02T07:50:38.000Z</time>
      </trkpt>
      <trkpt lat="47.27454" lon="-2.26267">
        <ele>22.200000762939</ele>
        <time>2020-07-02T07:50:43.000Z</time>
      </trkpt>
      <trkpt lat="47.27483" lon="-2.26284">
        <ele>21.799999237061</ele>
        <time>2020-07-02T07:50:47.000Z</time>
      </trkpt>
      <trkpt lat="47.27491" lon="-2.26285">
        <ele>21.39999961853</ele>
        <time>2020-07-02T07:50:48.000Z</time>
      </trkpt>
      <trkpt lat="47.275" lon="-2.26286">
        <ele>21</ele>
        <time>2020-07-02T07:50:49.000Z</time>
      </trkpt>
      <trkpt lat="47.27508" lon="-2.26287">
        <ele>20.60000038147</ele>
        <time>2020-07-02T07:50:50.000Z</time>
      </trkpt>
      <trkpt lat="47.27517" lon="-2.26286">
        <ele>20</ele>
        <time>2020-07-02T07:50:51.000Z</time>
      </trkpt>
      <trkpt lat="47.27574" lon="-2.26286">
        <ele>20</ele>
        <time>2020-07-02T07:50:58.000Z</time>
      </trkpt>
      <trkpt lat="47.27611" lon="-2.26293">
        <ele>20</ele>
        <time>2020-07-02T07:51:03.000Z</time>
      </trkpt>
      <trkpt lat="47.27636" lon="-2.2631">
        <ele>19.60000038147</ele>
        <time>2020-07-02T07:51:07.000Z</time>
      </trkpt>
      <trkpt lat="47.27641" lon="-2.26315">
        <ele>19.200000762939</ele>
        <time>2020-07-02T07:51:08.000Z</time>
      </trkpt>
      <trkpt lat="47.27647" lon="-2.26321">
        <ele>18.799999237061</ele>
        <time>2020-07-02T07:51:09.000Z</time>
      </trkpt>
      <trkpt lat="47.27652" lon="-2.26326">
        <ele>18.39999961853</ele>
        <time>2020-07-02T07:51:10.000Z</time>
      </trkpt>
      <trkpt lat="47.27657" lon="-2.26331">
        <ele>18</ele>
        <time>2020-07-02T07:51:11.000Z</time>
      </trkpt>
      <trkpt lat="47.27663" lon="-2.26337">
        <ele>18</ele>
        <time>2020-07-02T07:51:13.000Z</time>
      </trkpt>
      <trkpt lat="47.27665" lon="-2.26337">
        <ele>18</ele>
        <time>2020-07-02T07:51:14.000Z</time>
      </trkpt>
      <trkpt lat="47.27667" lon="-2.26328">
        <ele>18</ele>
        <time>2020-07-02T07:51:16.000Z</time>
      </trkpt>
      <trkpt lat="47.27665" lon="-2.26309">
        <ele>18</ele>
        <time>2020-07-02T07:51:20.000Z</time>
      </trkpt>
      <trkpt lat="47.27664" lon="-2.26299">
        <ele>18</ele>
        <time>2020-07-02T07:51:22.000Z</time>
      </trkpt>
      <trkpt lat="47.27658" lon="-2.26271">
        <ele>18</ele>
        <time>2020-07-02T07:51:27.000Z</time>
      </trkpt>
      <trkpt lat="47.27647" lon="-2.26242">
        <ele>18</ele>
        <time>2020-07-02T07:51:34.000Z</time>
      </trkpt>
      <trkpt lat="47.27637" lon="-2.26218">
        <ele>18</ele>
        <time>2020-07-02T07:51:39.000Z</time>
      </trkpt>
      <trkpt lat="47.27635" lon="-2.26211">
        <ele>18</ele>
        <time>2020-07-02T07:51:40.000Z</time>
      </trkpt>
      <trkpt lat="47.27633" lon="-2.26195">
        <ele>18</ele>
        <time>2020-07-02T07:51:43.000Z</time>
      </trkpt>
      <trkpt lat="47.27629" lon="-2.26188">
        <ele>18</ele>
        <time>2020-07-02T07:51:45.000Z</time>
      </trkpt>
      <trkpt lat="47.27628" lon="-2.26181">
        <ele>18</ele>
        <time>2020-07-02T07:51:47.000Z</time>
      </trkpt>
      <trkpt lat="47.27631" lon="-2.26177">
        <ele>18</ele>
        <time>2020-07-02T07:51:50.000Z</time>
      </trkpt>
      <trkpt lat="47.27639" lon="-2.26166">
        <ele>18</ele>
        <time>2020-07-02T07:51:54.000Z</time>
      </trkpt>
      <trkpt lat="47.27647" lon="-2.26158">
        <ele>18</ele>
        <time>2020-07-02T07:51:56.000Z</time>
      </trkpt>
      <trkpt lat="47.2766" lon="-2.26145">
        <ele>18</ele>
        <time>2020-07-02T07:51:59.000Z</time>
      </trkpt>
      <trkpt lat="47.2768" lon="-2.26119">
        <ele>18</ele>
        <time>2020-07-02T07:52:05.000Z</time>
      </trkpt>
      <trkpt lat="47.27694" lon="-2.2611">
        <ele>18</ele>
        <time>2020-07-02T07:52:08.000Z</time>
      </trkpt>
      <trkpt lat="47.27698" lon="-2.26105">
        <ele>18</ele>
        <time>2020-07-02T07:52:09.000Z</time>
      </trkpt>
      <trkpt lat="47.27715" lon="-2.26089">
        <ele>18</ele>
        <time>2020-07-02T07:52:14.000Z</time>
      </trkpt>
      <trkpt lat="47.27718" lon="-2.26084">
        <ele>18</ele>
        <time>2020-07-02T07:52:15.000Z</time>
      </trkpt>
      <trkpt lat="47.27723" lon="-2.26075">
        <ele>18</ele>
        <time>2020-07-02T07:52:17.000Z</time>
      </trkpt>
      <trkpt lat="47.27733" lon="-2.26048">
        <ele>18</ele>
        <time>2020-07-02T07:52:22.000Z</time>
      </trkpt>
      <trkpt lat="47.27747" lon="-2.26014">
        <ele>18</ele>
        <time>2020-07-02T07:52:28.000Z</time>
      </trkpt>
      <trkpt lat="47.27757" lon="-2.26005">
        <ele>18</ele>
        <time>2020-07-02T07:52:32.000Z</time>
      </trkpt>
      <trkpt lat="47.27771" lon="-2.2599">
        <ele>18</ele>
        <time>2020-07-02T07:52:38.000Z</time>
      </trkpt>
      <trkpt lat="47.27776" lon="-2.25974">
        <ele>18</ele>
        <time>2020-07-02T07:52:44.000Z</time>
      </trkpt>
      <trkpt lat="47.27777" lon="-2.25953">
        <ele>18</ele>
        <time>2020-07-02T07:52:48.000Z</time>
      </trkpt>
      <trkpt lat="47.27777" lon="-2.25937">
        <ele>18</ele>
        <time>2020-07-02T07:52:50.000Z</time>
      </trkpt>
      <trkpt lat="47.27777" lon="-2.25921">
        <ele>18</ele>
        <time>2020-07-02T07:52:52.000Z</time>
      </trkpt>
      <trkpt lat="47.27764" lon="-2.25899">
        <ele>18</ele>
        <time>2020-07-02T07:52:56.000Z</time>
      </trkpt>
      <trkpt lat="47.27757" lon="-2.25876">
        <ele>18</ele>
        <time>2020-07-02T07:52:59.000Z</time>
      </trkpt>
      <trkpt lat="47.27754" lon="-2.25869">
        <ele>18</ele>
        <time>2020-07-02T07:53:00.000Z</time>
      </trkpt>
      <trkpt lat="47.27748" lon="-2.25856">
        <ele>18</ele>
        <time>2020-07-02T07:53:02.000Z</time>
      </trkpt>
      <trkpt lat="47.27742" lon="-2.25854">
        <ele>18</ele>
        <time>2020-07-02T07:53:03.000Z</time>
      </trkpt>
      <trkpt lat="47.27723" lon="-2.25853">
        <ele>18</ele>
        <time>2020-07-02T07:53:06.000Z</time>
      </trkpt>
      <trkpt lat="47.27718" lon="-2.25852">
        <ele>18</ele>
        <time>2020-07-02T07:53:07.000Z</time>
      </trkpt>
      <trkpt lat="47.27707" lon="-2.25847">
        <ele>18</ele>
        <time>2020-07-02T07:53:09.000Z</time>
      </trkpt>
      <trkpt lat="47.27702" lon="-2.25843">
        <ele>18</ele>
        <time>2020-07-02T07:53:10.000Z</time>
      </trkpt>
      <trkpt lat="47.27686" lon="-2.25833">
        <ele>18</ele>
        <time>2020-07-02T07:53:15.000Z</time>
      </trkpt>
      <trkpt lat="47.2768" lon="-2.25832">
        <ele>18</ele>
        <time>2020-07-02T07:53:20.000Z</time>
      </trkpt>
      <trkpt lat="47.27673" lon="-2.2583">
        <ele>18</ele>
        <time>2020-07-02T07:53:24.000Z</time>
      </trkpt>
      <trkpt lat="47.2767" lon="-2.25825">
        <ele>18</ele>
        <time>2020-07-02T07:53:26.000Z</time>
      </trkpt>
      <trkpt lat="47.27661" lon="-2.25803">
        <ele>18</ele>
        <time>2020-07-02T07:53:31.000Z</time>
      </trkpt>
      <trkpt lat="47.27658" lon="-2.25786">
        <ele>18</ele>
        <time>2020-07-02T07:53:34.000Z</time>
      </trkpt>
      <trkpt lat="47.27658" lon="-2.25775">
        <ele>18</ele>
        <time>2020-07-02T07:53:36.000Z</time>
      </trkpt>
      <trkpt lat="47.27654" lon="-2.25754">
        <ele>18</ele>
        <time>2020-07-02T07:53:41.000Z</time>
      </trkpt>
      <trkpt lat="47.27648" lon="-2.25737">
        <ele>18</ele>
        <time>2020-07-02T07:53:46.000Z</time>
      </trkpt>
      <trkpt lat="47.27646" lon="-2.25737">
        <ele>18</ele>
        <time>2020-07-02T07:53:47.000Z</time>
      </trkpt>
      <trkpt lat="47.27634" lon="-2.25738">
        <ele>18</ele>
        <time>2020-07-02T07:53:52.000Z</time>
      </trkpt>
      <trkpt lat="47.27631" lon="-2.25738">
        <ele>18</ele>
        <time>2020-07-02T07:53:53.000Z</time>
      </trkpt>
      <trkpt lat="47.27615" lon="-2.25733">
        <ele>18</ele>
        <time>2020-07-02T07:53:58.000Z</time>
      </trkpt>
      <trkpt lat="47.27606" lon="-2.25718">
        <ele>18</ele>
        <time>2020-07-02T07:54:02.000Z</time>
      </trkpt>
      <trkpt lat="47.27591" lon="-2.2568">
        <ele>18</ele>
        <time>2020-07-02T07:54:09.000Z</time>
      </trkpt>
      <trkpt lat="47.27581" lon="-2.25649">
        <ele>18</ele>
        <time>2020-07-02T07:54:15.000Z</time>
      </trkpt>
      <trkpt lat="47.27578" lon="-2.25629">
        <ele>18</ele>
        <time>2020-07-02T07:54:20.000Z</time>
      </trkpt>
      <trkpt lat="47.27582" lon="-2.25614">
        <ele>18</ele>
        <time>2020-07-02T07:54:25.000Z</time>
      </trkpt>
      <trkpt lat="47.27583" lon="-2.25612">
        <ele>18</ele>
        <time>2020-07-02T07:54:26.000Z</time>
      </trkpt>
      <trkpt lat="47.27585" lon="-2.25609">
        <ele>18</ele>
        <time>2020-07-02T07:54:28.000Z</time>
      </trkpt>
      <trkpt lat="47.27588" lon="-2.25613">
        <ele>18</ele>
        <time>2020-07-02T07:54:30.000Z</time>
      </trkpt>
      <trkpt lat="47.27588" lon="-2.25621">
        <ele>18</ele>
        <time>2020-07-02T07:54:34.000Z</time>
      </trkpt>
      <trkpt lat="47.27589" lon="-2.25623">
        <ele>18</ele>
        <time>2020-07-02T07:54:35.000Z</time>
      </trkpt>
      <trkpt lat="47.27596" lon="-2.25636">
        <ele>18</ele>
        <time>2020-07-02T07:54:42.000Z</time>
      </trkpt>
      <trkpt lat="47.27594" lon="-2.25641">
        <ele>18</ele>
        <time>2020-07-02T07:54:48.000Z</time>
      </trkpt>
      <trkpt lat="47.2759" lon="-2.25641">
        <ele>18</ele>
        <time>2020-07-02T07:54:51.000Z</time>
      </trkpt>
      <trkpt lat="47.27588" lon="-2.25644">
        <ele>18</ele>
        <time>2020-07-02T07:54:53.000Z</time>
      </trkpt>
      <trkpt lat="47.27578" lon="-2.25651">
        <ele>18</ele>
        <time>2020-07-02T07:54:58.000Z</time>
      </trkpt>
      <trkpt lat="47.27576" lon="-2.25641">
        <ele>18</ele>
        <time>2020-07-02T07:55:01.000Z</time>
      </trkpt>
      <trkpt lat="47.27578" lon="-2.2563">
        <ele>18</ele>
        <time>2020-07-02T07:55:03.000Z</time>
      </trkpt>
      <trkpt lat="47.27579" lon="-2.25611">
        <ele>18</ele>
        <time>2020-07-02T07:55:06.000Z</time>
      </trkpt>
      <trkpt lat="47.27576" lon="-2.25577">
        <ele>18</ele>
        <time>2020-07-02T07:55:11.000Z</time>
      </trkpt>
      <trkpt lat="47.27572" lon="-2.25561">
        <ele>18</ele>
        <time>2020-07-02T07:55:13.000Z</time>
      </trkpt>
      <trkpt lat="47.27562" lon="-2.25529">
        <ele>18</ele>
        <time>2020-07-02T07:55:17.000Z</time>
      </trkpt>
      <trkpt lat="47.27553" lon="-2.25513">
        <ele>18</ele>
        <time>2020-07-02T07:55:19.000Z</time>
      </trkpt>
      <trkpt lat="47.27541" lon="-2.25495">
        <ele>18</ele>
        <time>2020-07-02T07:55:21.000Z</time>
      </trkpt>
      <trkpt lat="47.27523" lon="-2.25477">
        <ele>18</ele>
        <time>2020-07-02T07:55:24.000Z</time>
      </trkpt>
      <trkpt lat="47.27493" lon="-2.25459">
        <ele>18</ele>
        <time>2020-07-02T07:55:29.000Z</time>
      </trkpt>
      <trkpt lat="47.27475" lon="-2.25458">
        <ele>18</ele>
        <time>2020-07-02T07:55:32.000Z</time>
      </trkpt>
      <trkpt lat="47.27469" lon="-2.25457">
        <ele>18</ele>
        <time>2020-07-02T07:55:33.000Z</time>
      </trkpt>
      <trkpt lat="47.27463" lon="-2.25456">
        <ele>18</ele>
        <time>2020-07-02T07:55:34.000Z</time>
      </trkpt>
      <trkpt lat="47.27447" lon="-2.2545">
        <ele>18</ele>
        <time>2020-07-02T07:55:37.000Z</time>
      </trkpt>
      <trkpt lat="47.27433" lon="-2.25437">
        <ele>18</ele>
        <time>2020-07-02T07:55:40.000Z</time>
      </trkpt>
      <trkpt lat="47.27428" lon="-2.25432">
        <ele>18</ele>
        <time>2020-07-02T07:55:41.000Z</time>
      </trkpt>
      <trkpt lat="47.27409" lon="-2.25408">
        <ele>18</ele>
        <time>2020-07-02T07:55:46.000Z</time>
      </trkpt>
      <trkpt lat="47.27401" lon="-2.25394">
        <ele>18</ele>
        <time>2020-07-02T07:55:50.000Z</time>
      </trkpt>
      <trkpt lat="47.27399" lon="-2.25385">
        <ele>18</ele>
        <time>2020-07-02T07:55:53.000Z</time>
      </trkpt>
      <trkpt lat="47.27399" lon="-2.25381">
        <ele>18</ele>
        <time>2020-07-02T07:55:54.000Z</time>
      </trkpt>
      <trkpt lat="47.27398" lon="-2.25363">
        <ele>18</ele>
        <time>2020-07-02T07:55:59.000Z</time>
      </trkpt>
      <trkpt lat="47.27402" lon="-2.25365">
        <ele>18</ele>
        <time>2020-07-02T07:56:03.000Z</time>
      </trkpt>
      <trkpt lat="47.27403" lon="-2.25367">
        <ele>18</ele>
        <time>2020-07-02T07:56:04.000Z</time>
      </trkpt>
      <trkpt lat="47.27409" lon="-2.25377">
        <ele>18</ele>
        <time>2020-07-02T07:56:09.000Z</time>
      </trkpt>
      <trkpt lat="47.27415" lon="-2.25388">
        <ele>18</ele>
        <time>2020-07-02T07:56:15.000Z</time>
      </trkpt>
      <trkpt lat="47.27415" lon="-2.25387">
        <ele>18</ele>
        <time>2020-07-02T07:56:16.000Z</time>
      </trkpt>
      <trkpt lat="47.27415" lon="-2.25377">
        <ele>18</ele>
        <time>2020-07-02T07:56:19.000Z</time>
      </trkpt>
      <trkpt lat="47.2741" lon="-2.25369">
        <ele>18</ele>
        <time>2020-07-02T07:56:22.000Z</time>
      </trkpt>
      <trkpt lat="47.27409" lon="-2.25366">
        <ele>18</ele>
        <time>2020-07-02T07:56:23.000Z</time>
      </trkpt>
      <trkpt lat="47.27409" lon="-2.25362">
        <ele>18</ele>
        <time>2020-07-02T07:56:27.000Z</time>
      </trkpt>
      <trkpt lat="47.27406" lon="-2.25357">
        <ele>18</ele>
        <time>2020-07-02T07:58:06.000Z</time>
      </trkpt>
      <trkpt lat="47.27402" lon="-2.25353">
        <ele>18</ele>
        <time>2020-07-02T07:58:09.000Z</time>
      </trkpt>
      <trkpt lat="47.27403" lon="-2.25348">
        <ele>18</ele>
        <time>2020-07-02T07:58:11.000Z</time>
      </trkpt>
      <trkpt lat="47.27399" lon="-2.25326">
        <ele>18</ele>
        <time>2020-07-02T07:58:18.000Z</time>
      </trkpt>
      <trkpt lat="47.27396" lon="-2.25312">
        <ele>18</ele>
        <time>2020-07-02T07:58:22.000Z</time>
      </trkpt>
      <trkpt lat="47.27396" lon="-2.25308">
        <ele>18</ele>
        <time>2020-07-02T07:58:23.000Z</time>
      </trkpt>
      <trkpt lat="47.274" lon="-2.25298">
        <ele>18</ele>
        <time>2020-07-02T07:58:26.000Z</time>
      </trkpt>
      <trkpt lat="47.27402" lon="-2.25298">
        <ele>18</ele>
        <time>2020-07-02T07:58:27.000Z</time>
      </trkpt>
      <trkpt lat="47.27405" lon="-2.25299">
        <ele>18</ele>
        <time>2020-07-02T07:58:29.000Z</time>
      </trkpt>
      <trkpt lat="47.27407" lon="-2.25304">
        <ele>18</ele>
        <time>2020-07-02T07:58:31.000Z</time>
      </trkpt>
      <trkpt lat="47.27414" lon="-2.25313">
        <ele>18</ele>
        <time>2020-07-02T07:58:35.000Z</time>
      </trkpt>
      <trkpt lat="47.27417" lon="-2.25317">
        <ele>18</ele>
        <time>2020-07-02T07:58:38.000Z</time>
      </trkpt>
      <trkpt lat="47.2742" lon="-2.25323">
        <ele>18</ele>
        <time>2020-07-02T07:58:41.000Z</time>
      </trkpt>
      <trkpt lat="47.27422" lon="-2.25322">
        <ele>18</ele>
        <time>2020-07-02T07:58:43.000Z</time>
      </trkpt>
      <trkpt lat="47.27426" lon="-2.25322">
        <ele>18</ele>
        <time>2020-07-02T07:58:45.000Z</time>
      </trkpt>
      <trkpt lat="47.27428" lon="-2.25327">
        <ele>18</ele>
        <time>2020-07-02T07:58:47.000Z</time>
      </trkpt>
      <trkpt lat="47.27429" lon="-2.25336">
        <ele>18</ele>
        <time>2020-07-02T07:58:49.000Z</time>
      </trkpt>
      <trkpt lat="47.27429" lon="-2.25355">
        <ele>18</ele>
        <time>2020-07-02T07:58:54.000Z</time>
      </trkpt>
      <trkpt lat="47.27429" lon="-2.25374">
        <ele>18</ele>
        <time>2020-07-02T07:58:59.000Z</time>
      </trkpt>
      <trkpt lat="47.27429" lon="-2.25379">
        <ele>18</ele>
        <time>2020-07-02T07:59:03.000Z</time>
      </trkpt>
      <trkpt lat="47.27428" lon="-2.25376">
        <ele>18</ele>
        <time>2020-07-02T07:59:05.000Z</time>
      </trkpt>
      <trkpt lat="47.27426" lon="-2.25367">
        <ele>18</ele>
        <time>2020-07-02T07:59:08.000Z</time>
      </trkpt>
      <trkpt lat="47.27422" lon="-2.25339">
        <ele>18</ele>
        <time>2020-07-02T07:59:14.000Z</time>
      </trkpt>
      <trkpt lat="47.27415" lon="-2.25309">
        <ele>18</ele>
        <time>2020-07-02T07:59:20.000Z</time>
      </trkpt>
      <trkpt lat="47.27406" lon="-2.25288">
        <ele>18</ele>
        <time>2020-07-02T07:59:25.000Z</time>
      </trkpt>
      <trkpt lat="47.27394" lon="-2.25265">
        <ele>18</ele>
        <time>2020-07-02T07:59:31.000Z</time>
      </trkpt>
      <trkpt lat="47.27386" lon="-2.25237">
        <ele>18</ele>
        <time>2020-07-02T07:59:36.000Z</time>
      </trkpt>
      <trkpt lat="47.27388" lon="-2.25225">
        <ele>18</ele>
        <time>2020-07-02T07:59:37.000Z</time>
      </trkpt>
      <trkpt lat="47.27389" lon="-2.25212">
        <ele>18</ele>
        <time>2020-07-02T07:59:39.000Z</time>
      </trkpt>
      <trkpt lat="47.27388" lon="-2.25204">
        <ele>18</ele>
        <time>2020-07-02T07:59:40.000Z</time>
      </trkpt>
      <trkpt lat="47.27379" lon="-2.25161">
        <ele>18</ele>
        <time>2020-07-02T07:59:45.000Z</time>
      </trkpt>
      <trkpt lat="47.27357" lon="-2.25098">
        <ele>18</ele>
        <time>2020-07-02T07:59:53.000Z</time>
      </trkpt>
      <trkpt lat="47.27352" lon="-2.25084">
        <ele>18.39999961853</ele>
        <time>2020-07-02T07:59:55.000Z</time>
      </trkpt>
      <trkpt lat="47.27349" lon="-2.25077">
        <ele>18.799999237061</ele>
        <time>2020-07-02T07:59:56.000Z</time>
      </trkpt>
      <trkpt lat="47.27347" lon="-2.25067">
        <ele>19.60000038147</ele>
        <time>2020-07-02T07:59:57.000Z</time>
      </trkpt>
      <trkpt lat="47.27346" lon="-2.25052">
        <ele>20</ele>
        <time>2020-07-02T07:59:59.000Z</time>
      </trkpt>
      <trkpt lat="47.27354" lon="-2.25019">
        <ele>20</ele>
        <time>2020-07-02T08:00:03.000Z</time>
      </trkpt>
      <trkpt lat="47.27359" lon="-2.25008">
        <ele>20</ele>
        <time>2020-07-02T08:00:05.000Z</time>
      </trkpt>
      <trkpt lat="47.27373" lon="-2.24985">
        <ele>20</ele>
        <time>2020-07-02T08:00:10.000Z</time>
      </trkpt>
      <trkpt lat="47.27388" lon="-2.24971">
        <ele>20</ele>
        <time>2020-07-02T08:00:16.000Z</time>
      </trkpt>
      <trkpt lat="47.27406" lon="-2.24963">
        <ele>20</ele>
        <time>2020-07-02T08:00:21.000Z</time>
      </trkpt>
      <trkpt lat="47.27427" lon="-2.2495">
        <ele>20</ele>
        <time>2020-07-02T08:00:26.000Z</time>
      </trkpt>
      <trkpt lat="47.27445" lon="-2.24957">
        <ele>20</ele>
        <time>2020-07-02T08:00:30.000Z</time>
      </trkpt>
      <trkpt lat="47.27464" lon="-2.24968">
        <ele>20</ele>
        <time>2020-07-02T08:00:36.000Z</time>
      </trkpt>
      <trkpt lat="47.27478" lon="-2.24978">
        <ele>20</ele>
        <time>2020-07-02T08:00:41.000Z</time>
      </trkpt>
      <trkpt lat="47.27494" lon="-2.24993">
        <ele>20</ele>
        <time>2020-07-02T08:00:48.000Z</time>
      </trkpt>
      <trkpt lat="47.27506" lon="-2.25003">
        <ele>20</ele>
        <time>2020-07-02T08:00:54.000Z</time>
      </trkpt>
      <trkpt lat="47.27519" lon="-2.25015">
        <ele>20</ele>
        <time>2020-07-02T08:01:00.000Z</time>
      </trkpt>
      <trkpt lat="47.27527" lon="-2.25027">
        <ele>20</ele>
        <time>2020-07-02T08:01:07.000Z</time>
      </trkpt>
      <trkpt lat="47.27527" lon="-2.25027">
        <ele>20</ele>
        <time>2020-07-02T08:01:17.000Z</time>
      </trkpt>
      <trkpt lat="47.2753" lon="-2.25032">
        <ele>20</ele>
        <time>2020-07-02T08:01:19.000Z</time>
      </trkpt>
      <trkpt lat="47.27545" lon="-2.25047">
        <ele>20</ele>
        <time>2020-07-02T08:01:24.000Z</time>
      </trkpt>
      <trkpt lat="47.2755" lon="-2.25052">
        <ele>20</ele>
        <time>2020-07-02T08:01:25.000Z</time>
      </trkpt>
      <trkpt lat="47.27564" lon="-2.25061">
        <ele>20</ele>
        <time>2020-07-02T08:01:28.000Z</time>
      </trkpt>
      <trkpt lat="47.27599" lon="-2.25078">
        <ele>20</ele>
        <time>2020-07-02T08:01:35.000Z</time>
      </trkpt>
      <trkpt lat="47.27623" lon="-2.25091">
        <ele>20</ele>
        <time>2020-07-02T08:01:40.000Z</time>
      </trkpt>
      <trkpt lat="47.27628" lon="-2.25092">
        <ele>20</ele>
        <time>2020-07-02T08:01:41.000Z</time>
      </trkpt>
      <trkpt lat="47.27645" lon="-2.25091">
        <ele>20</ele>
        <time>2020-07-02T08:01:44.000Z</time>
      </trkpt>
      <trkpt lat="47.27655" lon="-2.25088">
        <ele>20</ele>
        <time>2020-07-02T08:01:46.000Z</time>
      </trkpt>
      <trkpt lat="47.2766" lon="-2.25085">
        <ele>20</ele>
        <time>2020-07-02T08:01:47.000Z</time>
      </trkpt>
      <trkpt lat="47.27671" lon="-2.2508">
        <ele>20</ele>
        <time>2020-07-02T08:01:49.000Z</time>
      </trkpt>
      <trkpt lat="47.27684" lon="-2.25077">
        <ele>20</ele>
        <time>2020-07-02T08:01:51.000Z</time>
      </trkpt>
      <trkpt lat="47.27702" lon="-2.25066">
        <ele>20</ele>
        <time>2020-07-02T08:01:54.000Z</time>
      </trkpt>
      <trkpt lat="47.27707" lon="-2.25062">
        <ele>20</ele>
        <time>2020-07-02T08:01:55.000Z</time>
      </trkpt>
      <trkpt lat="47.27742" lon="-2.25033">
        <ele>20</ele>
        <time>2020-07-02T08:02:02.000Z</time>
      </trkpt>
      <trkpt lat="47.27765" lon="-2.25021">
        <ele>20</ele>
        <time>2020-07-02T08:02:06.000Z</time>
      </trkpt>
      <trkpt lat="47.27773" lon="-2.2502">
        <ele>20</ele>
        <time>2020-07-02T08:02:07.000Z</time>
      </trkpt>
      <trkpt lat="47.27792" lon="-2.2502">
        <ele>20</ele>
        <time>2020-07-02T08:02:10.000Z</time>
      </trkpt>
      <trkpt lat="47.27798" lon="-2.25022">
        <ele>20</ele>
        <time>2020-07-02T08:02:11.000Z</time>
      </trkpt>
      <trkpt lat="47.27803" lon="-2.25025">
        <ele>20</ele>
        <time>2020-07-02T08:02:12.000Z</time>
      </trkpt>
      <trkpt lat="47.27832" lon="-2.25044">
        <ele>20</ele>
        <time>2020-07-02T08:02:17.000Z</time>
      </trkpt>
      <trkpt lat="47.27838" lon="-2.25047">
        <ele>20</ele>
        <time>2020-07-02T08:02:18.000Z</time>
      </trkpt>
      <trkpt lat="47.27875" lon="-2.25063">
        <ele>20</ele>
        <time>2020-07-02T08:02:24.000Z</time>
      </trkpt>
      <trkpt lat="47.27893" lon="-2.25076">
        <ele>20</ele>
        <time>2020-07-02T08:02:27.000Z</time>
      </trkpt>
      <trkpt lat="47.27899" lon="-2.25079">
        <ele>20</ele>
        <time>2020-07-02T08:02:28.000Z</time>
      </trkpt>
      <trkpt lat="47.27918" lon="-2.25074">
        <ele>20</ele>
        <time>2020-07-02T08:02:31.000Z</time>
      </trkpt>
      <trkpt lat="47.27923" lon="-2.25072">
        <ele>20</ele>
        <time>2020-07-02T08:02:32.000Z</time>
      </trkpt>
      <trkpt lat="47.27929" lon="-2.2507">
        <ele>20</ele>
        <time>2020-07-02T08:02:33.000Z</time>
      </trkpt>
      <trkpt lat="47.27947" lon="-2.25067">
        <ele>20</ele>
        <time>2020-07-02T08:02:36.000Z</time>
      </trkpt>
      <trkpt lat="47.27976" lon="-2.25064">
        <ele>20</ele>
        <time>2020-07-02T08:02:41.000Z</time>
      </trkpt>
      <trkpt lat="47.2798" lon="-2.25064">
        <ele>20</ele>
        <time>2020-07-02T08:02:42.000Z</time>
      </trkpt>
      <trkpt lat="47.27991" lon="-2.25072">
        <ele>20</ele>
        <time>2020-07-02T08:02:46.000Z</time>
      </trkpt>
      <trkpt lat="47.28012" lon="-2.25091">
        <ele>20</ele>
        <time>2020-07-02T08:02:54.000Z</time>
      </trkpt>
      <trkpt lat="47.28031" lon="-2.25105">
        <ele>20</ele>
        <time>2020-07-02T08:02:59.000Z</time>
      </trkpt>
      <trkpt lat="47.28064" lon="-2.25134">
        <ele>20</ele>
        <time>2020-07-02T08:03:06.000Z</time>
      </trkpt>
      <trkpt lat="47.28087" lon="-2.25157">
        <ele>20</ele>
        <time>2020-07-02T08:03:11.000Z</time>
      </trkpt>
      <trkpt lat="47.2809" lon="-2.25162">
        <ele>20</ele>
        <time>2020-07-02T08:03:12.000Z</time>
      </trkpt>
      <trkpt lat="47.281" lon="-2.25193">
        <ele>20</ele>
        <time>2020-07-02T08:03:17.000Z</time>
      </trkpt>
      <trkpt lat="47.28099" lon="-2.25208">
        <ele>20</ele>
        <time>2020-07-02T08:03:19.000Z</time>
      </trkpt>
      <trkpt lat="47.28098" lon="-2.25223">
        <ele>20</ele>
        <time>2020-07-02T08:03:21.000Z</time>
      </trkpt>
      <trkpt lat="47.28096" lon="-2.2523">
        <ele>20</ele>
        <time>2020-07-02T08:03:22.000Z</time>
      </trkpt>
      <trkpt lat="47.28089" lon="-2.25253">
        <ele>20</ele>
        <time>2020-07-02T08:03:25.000Z</time>
      </trkpt>
      <trkpt lat="47.28085" lon="-2.2527">
        <ele>20</ele>
        <time>2020-07-02T08:03:27.000Z</time>
      </trkpt>
      <trkpt lat="47.28083" lon="-2.25297">
        <ele>20</ele>
        <time>2020-07-02T08:03:30.000Z</time>
      </trkpt>
      <trkpt lat="47.28084" lon="-2.25351">
        <ele>20</ele>
        <time>2020-07-02T08:03:36.000Z</time>
      </trkpt>
      <trkpt lat="47.28086" lon="-2.25413">
        <ele>20</ele>
        <time>2020-07-02T08:03:43.000Z</time>
      </trkpt>
      <trkpt lat="47.28087" lon="-2.2543">
        <ele>20</ele>
        <time>2020-07-02T08:03:45.000Z</time>
      </trkpt>
      <trkpt lat="47.2809" lon="-2.25452">
        <ele>20</ele>
        <time>2020-07-02T08:03:48.000Z</time>
      </trkpt>
      <trkpt lat="47.28093" lon="-2.25465">
        <ele>20</ele>
        <time>2020-07-02T08:03:50.000Z</time>
      </trkpt>
      <trkpt lat="47.28097" lon="-2.25473">
        <ele>20</ele>
        <time>2020-07-02T08:03:52.000Z</time>
      </trkpt>
      <trkpt lat="47.28102" lon="-2.25473">
        <ele>20</ele>
        <time>2020-07-02T08:03:54.000Z</time>
      </trkpt>
      <trkpt lat="47.28107" lon="-2.25473">
        <ele>20</ele>
        <time>2020-07-02T08:03:56.000Z</time>
      </trkpt>
      <trkpt lat="47.28119" lon="-2.25463">
        <ele>20</ele>
        <time>2020-07-02T08:04:01.000Z</time>
      </trkpt>
      <trkpt lat="47.28137" lon="-2.25455">
        <ele>20</ele>
        <time>2020-07-02T08:04:07.000Z</time>
      </trkpt>
      <trkpt lat="47.28147" lon="-2.25445">
        <ele>20.60000038147</ele>
        <time>2020-07-02T08:04:13.000Z</time>
      </trkpt>
      <trkpt lat="47.28148" lon="-2.25444">
        <ele>21</ele>
        <time>2020-07-02T08:04:14.000Z</time>
      </trkpt>
      <trkpt lat="47.2815" lon="-2.25442">
        <ele>21.39999961853</ele>
        <time>2020-07-02T08:04:15.000Z</time>
      </trkpt>
      <trkpt lat="47.28153" lon="-2.25441">
        <ele>21.799999237061</ele>
        <time>2020-07-02T08:04:16.000Z</time>
      </trkpt>
      <trkpt lat="47.28155" lon="-2.2544">
        <ele>22.200000762939</ele>
        <time>2020-07-02T08:04:17.000Z</time>
      </trkpt>
      <trkpt lat="47.28158" lon="-2.25439">
        <ele>22.200000762939</ele>
        <time>2020-07-02T08:04:18.000Z</time>
      </trkpt>
      <trkpt lat="47.28173" lon="-2.25427">
        <ele>22.200000762939</ele>
        <time>2020-07-02T08:04:23.000Z</time>
      </trkpt>
      <trkpt lat="47.28196" lon="-2.25407">
        <ele>22.60000038147</ele>
        <time>2020-07-02T08:04:30.000Z</time>
      </trkpt>
      <trkpt lat="47.28199" lon="-2.25406">
        <ele>23</ele>
        <time>2020-07-02T08:04:31.000Z</time>
      </trkpt>
      <trkpt lat="47.28202" lon="-2.25404">
        <ele>23.60000038147</ele>
        <time>2020-07-02T08:04:32.000Z</time>
      </trkpt>
      <trkpt lat="47.28205" lon="-2.25402">
        <ele>24</ele>
        <time>2020-07-02T08:04:33.000Z</time>
      </trkpt>
      <trkpt lat="47.28208" lon="-2.25399">
        <ele>24.39999961853</ele>
        <time>2020-07-02T08:04:34.000Z</time>
      </trkpt>
      <trkpt lat="47.2821" lon="-2.25396">
        <ele>24.39999961853</ele>
        <time>2020-07-02T08:04:35.000Z</time>
      </trkpt>
      <trkpt lat="47.28224" lon="-2.25386">
        <ele>24.799999237061</ele>
        <time>2020-07-02T08:04:40.000Z</time>
      </trkpt>
      <trkpt lat="47.28227" lon="-2.25383">
        <ele>25.200000762939</ele>
        <time>2020-07-02T08:04:41.000Z</time>
      </trkpt>
      <trkpt lat="47.28229" lon="-2.25381">
        <ele>25.799999237061</ele>
        <time>2020-07-02T08:04:42.000Z</time>
      </trkpt>
      <trkpt lat="47.28232" lon="-2.25378">
        <ele>26.200000762939</ele>
        <time>2020-07-02T08:04:43.000Z</time>
      </trkpt>
      <trkpt lat="47.28234" lon="-2.25376">
        <ele>26.60000038147</ele>
        <time>2020-07-02T08:04:44.000Z</time>
      </trkpt>
      <trkpt lat="47.28243" lon="-2.2537">
        <ele>26.60000038147</ele>
        <time>2020-07-02T08:04:47.000Z</time>
      </trkpt>
      <trkpt lat="47.28253" lon="-2.25364">
        <ele>27</ele>
        <time>2020-07-02T08:04:50.000Z</time>
      </trkpt>
      <trkpt lat="47.28256" lon="-2.25363">
        <ele>27.39999961853</ele>
        <time>2020-07-02T08:04:51.000Z</time>
      </trkpt>
      <trkpt lat="47.2826" lon="-2.25362">
        <ele>27.799999237061</ele>
        <time>2020-07-02T08:04:52.000Z</time>
      </trkpt>
      <trkpt lat="47.28263" lon="-2.25362">
        <ele>28.200000762939</ele>
        <time>2020-07-02T08:04:53.000Z</time>
      </trkpt>
      <trkpt lat="47.28267" lon="-2.25362">
        <ele>28.60000038147</ele>
        <time>2020-07-02T08:04:54.000Z</time>
      </trkpt>
      <trkpt lat="47.28284" lon="-2.25358">
        <ele>28.60000038147</ele>
        <time>2020-07-02T08:04:59.000Z</time>
      </trkpt>
      <trkpt lat="47.2829" lon="-2.25355">
        <ele>29</ele>
        <time>2020-07-02T08:05:01.000Z</time>
      </trkpt>
      <trkpt lat="47.28292" lon="-2.25355">
        <ele>29.39999961853</ele>
        <time>2020-07-02T08:05:02.000Z</time>
      </trkpt>
      <trkpt lat="47.28294" lon="-2.25353">
        <ele>30</ele>
        <time>2020-07-02T08:05:03.000Z</time>
      </trkpt>
      <trkpt lat="47.28296" lon="-2.25352">
        <ele>30.39999961853</ele>
        <time>2020-07-02T08:05:04.000Z</time>
      </trkpt>
      <trkpt lat="47.28298" lon="-2.25351">
        <ele>30.799999237061</ele>
        <time>2020-07-02T08:05:05.000Z</time>
      </trkpt>
      <trkpt lat="47.28308" lon="-2.25341">
        <ele>30.799999237061</ele>
        <time>2020-07-02T08:05:09.000Z</time>
      </trkpt>
      <trkpt lat="47.28321" lon="-2.25331">
        <ele>30.799999237061</ele>
        <time>2020-07-02T08:05:14.000Z</time>
      </trkpt>
      <trkpt lat="47.28339" lon="-2.25318">
        <ele>30.799999237061</ele>
        <time>2020-07-02T08:05:19.000Z</time>
      </trkpt>
      <trkpt lat="47.28349" lon="-2.25315">
        <ele>30.799999237061</ele>
        <time>2020-07-02T08:05:24.000Z</time>
      </trkpt>
      <trkpt lat="47.28352" lon="-2.25311">
        <ele>30.799999237061</ele>
        <time>2020-07-02T08:05:34.000Z</time>
      </trkpt>
      <trkpt lat="47.28359" lon="-2.25305">
        <ele>30.799999237061</ele>
        <time>2020-07-02T08:05:37.000Z</time>
      </trkpt>
      <trkpt lat="47.28362" lon="-2.253">
        <ele>30.799999237061</ele>
        <time>2020-07-02T08:05:39.000Z</time>
      </trkpt>
      <trkpt lat="47.28371" lon="-2.25286">
        <ele>30.799999237061</ele>
        <time>2020-07-02T08:05:44.000Z</time>
      </trkpt>
      <trkpt lat="47.28382" lon="-2.2528">
        <ele>30.799999237061</ele>
        <time>2020-07-02T08:05:48.000Z</time>
      </trkpt>
      <trkpt lat="47.28392" lon="-2.25261">
        <ele>30.799999237061</ele>
        <time>2020-07-02T08:05:52.000Z</time>
      </trkpt>
      <trkpt lat="47.28396" lon="-2.2525">
        <ele>30.799999237061</ele>
        <time>2020-07-02T08:05:54.000Z</time>
      </trkpt>
      <trkpt lat="47.28401" lon="-2.25221">
        <ele>30.799999237061</ele>
        <time>2020-07-02T08:05:58.000Z</time>
      </trkpt>
      <trkpt lat="47.28408" lon="-2.25188">
        <ele>30.200000762939</ele>
        <time>2020-07-02T08:06:01.000Z</time>
      </trkpt>
      <trkpt lat="47.2841" lon="-2.25177">
        <ele>29.799999237061</ele>
        <time>2020-07-02T08:06:02.000Z</time>
      </trkpt>
      <trkpt lat="47.28411" lon="-2.25166">
        <ele>29.39999961853</ele>
        <time>2020-07-02T08:06:03.000Z</time>
      </trkpt>
      <trkpt lat="47.28413" lon="-2.25155">
        <ele>29</ele>
        <time>2020-07-02T08:06:04.000Z</time>
      </trkpt>
      <trkpt lat="47.28414" lon="-2.25143">
        <ele>28.60000038147</ele>
        <time>2020-07-02T08:06:05.000Z</time>
      </trkpt>
      <trkpt lat="47.28416" lon="-2.25133">
        <ele>28.200000762939</ele>
        <time>2020-07-02T08:06:06.000Z</time>
      </trkpt>
      <trkpt lat="47.28418" lon="-2.25124">
        <ele>27.60000038147</ele>
        <time>2020-07-02T08:06:07.000Z</time>
      </trkpt>
      <trkpt lat="47.28419" lon="-2.25115">
        <ele>27.200000762939</ele>
        <time>2020-07-02T08:06:08.000Z</time>
      </trkpt>
      <trkpt lat="47.28421" lon="-2.25108">
        <ele>26</ele>
        <time>2020-07-02T08:06:09.000Z</time>
      </trkpt>
      <trkpt lat="47.28422" lon="-2.25101">
        <ele>25.39999961853</ele>
        <time>2020-07-02T08:06:10.000Z</time>
      </trkpt>
      <trkpt lat="47.28422" lon="-2.25095">
        <ele>24.799999237061</ele>
        <time>2020-07-02T08:06:11.000Z</time>
      </trkpt>
      <trkpt lat="47.28422" lon="-2.25091">
        <ele>24.200000762939</ele>
        <time>2020-07-02T08:06:12.000Z</time>
      </trkpt>
      <trkpt lat="47.2842" lon="-2.25089">
        <ele>23.60000038147</ele>
        <time>2020-07-02T08:06:13.000Z</time>
      </trkpt>
      <trkpt lat="47.28418" lon="-2.25087">
        <ele>23</ele>
        <time>2020-07-02T08:06:14.000Z</time>
      </trkpt>
      <trkpt lat="47.28416" lon="-2.25086">
        <ele>22.39999961853</ele>
        <time>2020-07-02T08:06:15.000Z</time>
      </trkpt>
      <trkpt lat="47.28414" lon="-2.25086">
        <ele>21.799999237061</ele>
        <time>2020-07-02T08:06:16.000Z</time>
      </trkpt>
      <trkpt lat="47.28402" lon="-2.25085">
        <ele>21.799999237061</ele>
        <time>2020-07-02T08:06:21.000Z</time>
      </trkpt>
      <trkpt lat="47.284" lon="-2.25083">
        <ele>21.39999961853</ele>
        <time>2020-07-02T08:06:22.000Z</time>
      </trkpt>
      <trkpt lat="47.28399" lon="-2.25081">
        <ele>21</ele>
        <time>2020-07-02T08:06:23.000Z</time>
      </trkpt>
      <trkpt lat="47.28398" lon="-2.25078">
        <ele>20.39999961853</ele>
        <time>2020-07-02T08:06:24.000Z</time>
      </trkpt>
      <trkpt lat="47.28397" lon="-2.25074">
        <ele>20</ele>
        <time>2020-07-02T08:06:25.000Z</time>
      </trkpt>
      <trkpt lat="47.28397" lon="-2.25069">
        <ele>19.60000038147</ele>
        <time>2020-07-02T08:06:26.000Z</time>
      </trkpt>
      <trkpt lat="47.28393" lon="-2.25043">
        <ele>19.60000038147</ele>
        <time>2020-07-02T08:06:30.000Z</time>
      </trkpt>
      <trkpt lat="47.28388" lon="-2.25005">
        <ele>18.799999237061</ele>
        <time>2020-07-02T08:06:34.000Z</time>
      </trkpt>
      <trkpt lat="47.28387" lon="-2.24994">
        <ele>18.39999961853</ele>
        <time>2020-07-02T08:06:35.000Z</time>
      </trkpt>
      <trkpt lat="47.28386" lon="-2.24982">
        <ele>18</ele>
        <time>2020-07-02T08:06:36.000Z</time>
      </trkpt>
      <trkpt lat="47.28385" lon="-2.2497">
        <ele>17.60000038147</ele>
        <time>2020-07-02T08:06:37.000Z</time>
      </trkpt>
      <trkpt lat="47.28384" lon="-2.24946">
        <ele>17.200000762939</ele>
        <time>2020-07-02T08:06:39.000Z</time>
      </trkpt>
      <trkpt lat="47.28383" lon="-2.24934">
        <ele>16.60000038147</ele>
        <time>2020-07-02T08:06:40.000Z</time>
      </trkpt>
      <trkpt lat="47.28382" lon="-2.24922">
        <ele>16.200000762939</ele>
        <time>2020-07-02T08:06:41.000Z</time>
      </trkpt>
      <trkpt lat="47.28382" lon="-2.24911">
        <ele>15.800000190735</ele>
        <time>2020-07-02T08:06:42.000Z</time>
      </trkpt>
      <trkpt lat="47.28381" lon="-2.249">
        <ele>15.39999961853</ele>
        <time>2020-07-02T08:06:43.000Z</time>
      </trkpt>
      <trkpt lat="47.2838" lon="-2.2488">
        <ele>15.39999961853</ele>
        <time>2020-07-02T08:06:45.000Z</time>
      </trkpt>
      <trkpt lat="47.28379" lon="-2.24861">
        <ele>14.800000190735</ele>
        <time>2020-07-02T08:06:47.000Z</time>
      </trkpt>
      <trkpt lat="47.28379" lon="-2.24852">
        <ele>14.39999961853</ele>
        <time>2020-07-02T08:06:48.000Z</time>
      </trkpt>
      <trkpt lat="47.28379" lon="-2.24845">
        <ele>14</ele>
        <time>2020-07-02T08:06:49.000Z</time>
      </trkpt>
      <trkpt lat="47.2838" lon="-2.24839">
        <ele>13.60000038147</ele>
        <time>2020-07-02T08:06:50.000Z</time>
      </trkpt>
      <trkpt lat="47.28382" lon="-2.24835">
        <ele>13.199999809265</ele>
        <time>2020-07-02T08:06:51.000Z</time>
      </trkpt>
      <trkpt lat="47.28387" lon="-2.24831">
        <ele>13.199999809265</ele>
        <time>2020-07-02T08:06:53.000Z</time>
      </trkpt>
      <trkpt lat="47.28395" lon="-2.24828">
        <ele>13.199999809265</ele>
        <time>2020-07-02T08:06:56.000Z</time>
      </trkpt>
      <trkpt lat="47.28399" lon="-2.24825">
        <ele>13.199999809265</ele>
        <time>2020-07-02T08:06:57.000Z</time>
      </trkpt>
      <trkpt lat="47.28403" lon="-2.24822">
        <ele>13.199999809265</ele>
        <time>2020-07-02T08:06:58.000Z</time>
      </trkpt>
      <trkpt lat="47.28419" lon="-2.24812">
        <ele>13.199999809265</ele>
        <time>2020-07-02T08:07:02.000Z</time>
      </trkpt>
      <trkpt lat="47.28446" lon="-2.24794">
        <ele>13.199999809265</ele>
        <time>2020-07-02T08:07:09.000Z</time>
      </trkpt>
      <trkpt lat="47.28467" lon="-2.24785">
        <ele>13.199999809265</ele>
        <time>2020-07-02T08:07:13.000Z</time>
      </trkpt>
      <trkpt lat="47.28473" lon="-2.24782">
        <ele>13.199999809265</ele>
        <time>2020-07-02T08:07:14.000Z</time>
      </trkpt>
      <trkpt lat="47.28508" lon="-2.2476">
        <ele>13.199999809265</ele>
        <time>2020-07-02T08:07:20.000Z</time>
      </trkpt>
      <trkpt lat="47.28514" lon="-2.24757">
        <ele>13.199999809265</ele>
        <time>2020-07-02T08:07:21.000Z</time>
      </trkpt>
      <trkpt lat="47.28536" lon="-2.24747">
        <ele>13.199999809265</ele>
        <time>2020-07-02T08:07:25.000Z</time>
      </trkpt>
      <trkpt lat="47.28553" lon="-2.2474">
        <ele>13.199999809265</ele>
        <time>2020-07-02T08:07:28.000Z</time>
      </trkpt>
      <trkpt lat="47.28569" lon="-2.24736">
        <ele>13.199999809265</ele>
        <time>2020-07-02T08:07:31.000Z</time>
      </trkpt>
      <trkpt lat="47.28596" lon="-2.24729">
        <ele>13.199999809265</ele>
        <time>2020-07-02T08:07:37.000Z</time>
      </trkpt>
      <trkpt lat="47.28622" lon="-2.2472">
        <ele>13.199999809265</ele>
        <time>2020-07-02T08:07:43.000Z</time>
      </trkpt>
      <trkpt lat="47.28633" lon="-2.24713">
        <ele>13.199999809265</ele>
        <time>2020-07-02T08:07:48.000Z</time>
      </trkpt>
      <trkpt lat="47.28642" lon="-2.24709">
        <ele>13.199999809265</ele>
        <time>2020-07-02T08:07:54.000Z</time>
      </trkpt>
      <trkpt lat="47.28645" lon="-2.24709">
        <ele>13.199999809265</ele>
        <time>2020-07-02T08:07:55.000Z</time>
      </trkpt>
      <trkpt lat="47.28656" lon="-2.24709">
        <ele>13.199999809265</ele>
        <time>2020-07-02T08:07:59.000Z</time>
      </trkpt>
      <trkpt lat="47.28661" lon="-2.24697">
        <ele>13.199999809265</ele>
        <time>2020-07-02T08:08:02.000Z</time>
      </trkpt>
      <trkpt lat="47.2867" lon="-2.24678">
        <ele>13.199999809265</ele>
        <time>2020-07-02T08:08:06.000Z</time>
      </trkpt>
      <trkpt lat="47.28674" lon="-2.24675">
        <ele>13.199999809265</ele>
        <time>2020-07-02T08:08:07.000Z</time>
      </trkpt>
      <trkpt lat="47.28677" lon="-2.2467">
        <ele>13.199999809265</ele>
        <time>2020-07-02T08:08:08.000Z</time>
      </trkpt>
      <trkpt lat="47.28688" lon="-2.24656">
        <ele>13.199999809265</ele>
        <time>2020-07-02T08:08:11.000Z</time>
      </trkpt>
      <trkpt lat="47.28692" lon="-2.24652">
        <ele>13.199999809265</ele>
        <time>2020-07-02T08:08:12.000Z</time>
      </trkpt>
      <trkpt lat="47.28708" lon="-2.24637">
        <ele>13.199999809265</ele>
        <time>2020-07-02T08:08:16.000Z</time>
      </trkpt>
      <trkpt lat="47.28715" lon="-2.2463">
        <ele>13.199999809265</ele>
        <time>2020-07-02T08:08:18.000Z</time>
      </trkpt>
      <trkpt lat="47.28721" lon="-2.24619">
        <ele>13.199999809265</ele>
        <time>2020-07-02T08:08:20.000Z</time>
      </trkpt>
      <trkpt lat="47.28736" lon="-2.24581">
        <ele>13.199999809265</ele>
        <time>2020-07-02T08:08:26.000Z</time>
      </trkpt>
      <trkpt lat="47.2875" lon="-2.24545">
        <ele>13.199999809265</ele>
        <time>2020-07-02T08:08:32.000Z</time>
      </trkpt>
      <trkpt lat="47.28753" lon="-2.24531">
        <ele>13.199999809265</ele>
        <time>2020-07-02T08:08:34.000Z</time>
      </trkpt>
      <trkpt lat="47.28751" lon="-2.24504">
        <ele>13.199999809265</ele>
        <time>2020-07-02T08:08:38.000Z</time>
      </trkpt>
      <trkpt lat="47.28751" lon="-2.24496">
        <ele>13.199999809265</ele>
        <time>2020-07-02T08:08:39.000Z</time>
      </trkpt>
      <trkpt lat="47.2875" lon="-2.24461">
        <ele>13.199999809265</ele>
        <time>2020-07-02T08:08:43.000Z</time>
      </trkpt>
      <trkpt lat="47.28761" lon="-2.24421">
        <ele>13.199999809265</ele>
        <time>2020-07-02T08:08:47.000Z</time>
      </trkpt>
      <trkpt lat="47.28773" lon="-2.24369">
        <ele>13.199999809265</ele>
        <time>2020-07-02T08:08:53.000Z</time>
      </trkpt>
      <trkpt lat="47.28784" lon="-2.24331">
        <ele>13.199999809265</ele>
        <time>2020-07-02T08:08:59.000Z</time>
      </trkpt>
      <trkpt lat="47.28788" lon="-2.24297">
        <ele>13.199999809265</ele>
        <time>2020-07-02T08:09:06.000Z</time>
      </trkpt>
      <trkpt lat="47.2879" lon="-2.24258">
        <ele>13.199999809265</ele>
        <time>2020-07-02T08:09:11.000Z</time>
      </trkpt>
      <trkpt lat="47.28791" lon="-2.24195">
        <ele>13.199999809265</ele>
        <time>2020-07-02T08:09:18.000Z</time>
      </trkpt>
      <trkpt lat="47.28792" lon="-2.24142">
        <ele>13.199999809265</ele>
        <time>2020-07-02T08:09:24.000Z</time>
      </trkpt>
      <trkpt lat="47.28792" lon="-2.24081">
        <ele>13.199999809265</ele>
        <time>2020-07-02T08:09:30.000Z</time>
      </trkpt>
      <trkpt lat="47.28796" lon="-2.24018">
        <ele>13.199999809265</ele>
        <time>2020-07-02T08:09:37.000Z</time>
      </trkpt>
      <trkpt lat="47.28799" lon="-2.23973">
        <ele>13.199999809265</ele>
        <time>2020-07-02T08:09:42.000Z</time>
      </trkpt>
      <trkpt lat="47.288" lon="-2.23965">
        <ele>13.199999809265</ele>
        <time>2020-07-02T08:09:43.000Z</time>
      </trkpt>
      <trkpt lat="47.28802" lon="-2.23947">
        <ele>13.199999809265</ele>
        <time>2020-07-02T08:09:45.000Z</time>
      </trkpt>
      <trkpt lat="47.28806" lon="-2.23912">
        <ele>13.199999809265</ele>
        <time>2020-07-02T08:09:49.000Z</time>
      </trkpt>
      <trkpt lat="47.28809" lon="-2.23859">
        <ele>13.199999809265</ele>
        <time>2020-07-02T08:09:55.000Z</time>
      </trkpt>
      <trkpt lat="47.28808" lon="-2.23851">
        <ele>13.199999809265</ele>
        <time>2020-07-02T08:09:56.000Z</time>
      </trkpt>
      <trkpt lat="47.28798" lon="-2.23828">
        <ele>13.199999809265</ele>
        <time>2020-07-02T08:09:59.000Z</time>
      </trkpt>
      <trkpt lat="47.28789" lon="-2.23815">
        <ele>13.199999809265</ele>
        <time>2020-07-02T08:10:01.000Z</time>
      </trkpt>
      <trkpt lat="47.28781" lon="-2.23803">
        <ele>12.800000190735</ele>
        <time>2020-07-02T08:10:03.000Z</time>
      </trkpt>
      <trkpt lat="47.28777" lon="-2.23797">
        <ele>12.39999961853</ele>
        <time>2020-07-02T08:10:04.000Z</time>
      </trkpt>
      <trkpt lat="47.28773" lon="-2.2379">
        <ele>12</ele>
        <time>2020-07-02T08:10:05.000Z</time>
      </trkpt>
      <trkpt lat="47.28769" lon="-2.23783">
        <ele>11.60000038147</ele>
        <time>2020-07-02T08:10:06.000Z</time>
      </trkpt>
      <trkpt lat="47.28764" lon="-2.23775">
        <ele>11.199999809265</ele>
        <time>2020-07-02T08:10:07.000Z</time>
      </trkpt>
      <trkpt lat="47.28748" lon="-2.23746">
        <ele>11.199999809265</ele>
        <time>2020-07-02T08:10:11.000Z</time>
      </trkpt>
      <trkpt lat="47.2872" lon="-2.23698">
        <ele>11.199999809265</ele>
        <time>2020-07-02T08:10:18.000Z</time>
      </trkpt>
      <trkpt lat="47.28698" lon="-2.23657">
        <ele>11.199999809265</ele>
        <time>2020-07-02T08:10:24.000Z</time>
      </trkpt>
      <trkpt lat="47.28676" lon="-2.23618">
        <ele>11.199999809265</ele>
        <time>2020-07-02T08:10:30.000Z</time>
      </trkpt>
      <trkpt lat="47.28667" lon="-2.23604">
        <ele>11.199999809265</ele>
        <time>2020-07-02T08:10:34.000Z</time>
      </trkpt>
      <trkpt lat="47.28664" lon="-2.23601">
        <ele>11.199999809265</ele>
        <time>2020-07-02T08:10:35.000Z</time>
      </trkpt>
      <trkpt lat="47.28657" lon="-2.23589">
        <ele>11.199999809265</ele>
        <time>2020-07-02T08:10:38.000Z</time>
      </trkpt>
      <trkpt lat="47.28642" lon="-2.23576">
        <ele>11.199999809265</ele>
        <time>2020-07-02T08:10:43.000Z</time>
      </trkpt>
      <trkpt lat="47.28639" lon="-2.23571">
        <ele>11.199999809265</ele>
        <time>2020-07-02T08:10:45.000Z</time>
      </trkpt>
      <trkpt lat="47.2864" lon="-2.23565">
        <ele>11.199999809265</ele>
        <time>2020-07-02T08:10:47.000Z</time>
      </trkpt>
      <trkpt lat="47.28647" lon="-2.23559">
        <ele>11.199999809265</ele>
        <time>2020-07-02T08:10:51.000Z</time>
      </trkpt>
      <trkpt lat="47.28649" lon="-2.23545">
        <ele>11.199999809265</ele>
        <time>2020-07-02T08:10:54.000Z</time>
      </trkpt>
      <trkpt lat="47.28649" lon="-2.2354">
        <ele>11.199999809265</ele>
        <time>2020-07-02T08:10:55.000Z</time>
      </trkpt>
      <trkpt lat="47.28651" lon="-2.23501">
        <ele>11.199999809265</ele>
        <time>2020-07-02T08:11:01.000Z</time>
      </trkpt>
      <trkpt lat="47.28654" lon="-2.23465">
        <ele>11.199999809265</ele>
        <time>2020-07-02T08:11:06.000Z</time>
      </trkpt>
      <trkpt lat="47.28654" lon="-2.23441">
        <ele>11.199999809265</ele>
        <time>2020-07-02T08:11:09.000Z</time>
      </trkpt>
      <trkpt lat="47.28652" lon="-2.23425">
        <ele>11.199999809265</ele>
        <time>2020-07-02T08:11:11.000Z</time>
      </trkpt>
      <trkpt lat="47.28649" lon="-2.23378">
        <ele>11.199999809265</ele>
        <time>2020-07-02T08:11:16.000Z</time>
      </trkpt>
      <trkpt lat="47.28652" lon="-2.23364">
        <ele>11.199999809265</ele>
        <time>2020-07-02T08:11:19.000Z</time>
      </trkpt>
      <trkpt lat="47.28656" lon="-2.23347">
        <ele>11.199999809265</ele>
        <time>2020-07-02T08:11:25.000Z</time>
      </trkpt>
      <trkpt lat="47.28659" lon="-2.23324">
        <ele>11.199999809265</ele>
        <time>2020-07-02T08:11:29.000Z</time>
      </trkpt>
      <trkpt lat="47.28661" lon="-2.23314">
        <ele>11.199999809265</ele>
        <time>2020-07-02T08:11:31.000Z</time>
      </trkpt>
      <trkpt lat="47.28662" lon="-2.23312">
        <ele>11.199999809265</ele>
        <time>2020-07-02T08:11:32.000Z</time>
      </trkpt>
      <trkpt lat="47.28663" lon="-2.2331">
        <ele>11.60000038147</ele>
        <time>2020-07-02T08:11:33.000Z</time>
      </trkpt>
      <trkpt lat="47.28663" lon="-2.2331">
        <ele>12.199999809265</ele>
        <time>2020-07-02T08:11:34.000Z</time>
      </trkpt>
      <trkpt lat="47.28664" lon="-2.23309">
        <ele>12.60000038147</ele>
        <time>2020-07-02T08:11:35.000Z</time>
      </trkpt>
      <trkpt lat="47.28664" lon="-2.23308">
        <ele>13.199999809265</ele>
        <time>2020-07-02T08:11:36.000Z</time>
      </trkpt>
      <trkpt lat="47.28668" lon="-2.23305">
        <ele>13.60000038147</ele>
        <time>2020-07-02T08:12:33.000Z</time>
      </trkpt>
      <trkpt lat="47.28669" lon="-2.2329">
        <ele>13.60000038147</ele>
        <time>2020-07-02T08:12:36.000Z</time>
      </trkpt>
      <trkpt lat="47.28672" lon="-2.23278">
        <ele>13.60000038147</ele>
        <time>2020-07-02T08:12:40.000Z</time>
      </trkpt>
      <trkpt lat="47.28674" lon="-2.23274">
        <ele>13.60000038147</ele>
        <time>2020-07-02T08:12:43.000Z</time>
      </trkpt>
      <trkpt lat="47.28675" lon="-2.23271">
        <ele>13.60000038147</ele>
        <time>2020-07-02T08:13:06.000Z</time>
      </trkpt>
      <trkpt lat="47.28675" lon="-2.23268">
        <ele>13.60000038147</ele>
        <time>2020-07-02T08:13:07.000Z</time>
      </trkpt>
      <trkpt lat="47.28676" lon="-2.23247">
        <ele>13.60000038147</ele>
        <time>2020-07-02T08:13:12.000Z</time>
      </trkpt>
      <trkpt lat="47.28674" lon="-2.23226">
        <ele>13.60000038147</ele>
        <time>2020-07-02T08:13:16.000Z</time>
      </trkpt>
      <trkpt lat="47.28674" lon="-2.23221">
        <ele>13.199999809265</ele>
        <time>2020-07-02T08:13:17.000Z</time>
      </trkpt>
      <trkpt lat="47.28673" lon="-2.23216">
        <ele>12.800000190735</ele>
        <time>2020-07-02T08:13:18.000Z</time>
      </trkpt>
      <trkpt lat="47.28671" lon="-2.23211">
        <ele>12.39999961853</ele>
        <time>2020-07-02T08:13:19.000Z</time>
      </trkpt>
      <trkpt lat="47.28669" lon="-2.23207">
        <ele>12</ele>
        <time>2020-07-02T08:13:20.000Z</time>
      </trkpt>
      <trkpt lat="47.28666" lon="-2.23203">
        <ele>11.60000038147</ele>
        <time>2020-07-02T08:13:21.000Z</time>
      </trkpt>
      <trkpt lat="47.28645" lon="-2.23189">
        <ele>11.60000038147</ele>
        <time>2020-07-02T08:13:27.000Z</time>
      </trkpt>
      <trkpt lat="47.28633" lon="-2.23194">
        <ele>11.60000038147</ele>
        <time>2020-07-02T08:13:30.000Z</time>
      </trkpt>
      <trkpt lat="47.28624" lon="-2.23198">
        <ele>11.60000038147</ele>
        <time>2020-07-02T08:13:32.000Z</time>
      </trkpt>
      <trkpt lat="47.28615" lon="-2.23203">
        <ele>11.60000038147</ele>
        <time>2020-07-02T08:13:34.000Z</time>
      </trkpt>
      <trkpt lat="47.28606" lon="-2.23211">
        <ele>11.60000038147</ele>
        <time>2020-07-02T08:13:37.000Z</time>
      </trkpt>
      <trkpt lat="47.28599" lon="-2.23222">
        <ele>11.60000038147</ele>
        <time>2020-07-02T08:13:40.000Z</time>
      </trkpt>
      <trkpt lat="47.28596" lon="-2.23234">
        <ele>11.60000038147</ele>
        <time>2020-07-02T08:13:42.000Z</time>
      </trkpt>
      <trkpt lat="47.28592" lon="-2.23257">
        <ele>11.60000038147</ele>
        <time>2020-07-02T08:13:45.000Z</time>
      </trkpt>
      <trkpt lat="47.28591" lon="-2.23272">
        <ele>11.60000038147</ele>
        <time>2020-07-02T08:13:47.000Z</time>
      </trkpt>
      <trkpt lat="47.28599" lon="-2.23294">
        <ele>11.60000038147</ele>
        <time>2020-07-02T08:13:51.000Z</time>
      </trkpt>
      <trkpt lat="47.28616" lon="-2.233">
        <ele>11.60000038147</ele>
        <time>2020-07-02T08:13:54.000Z</time>
      </trkpt>
      <trkpt lat="47.28622" lon="-2.23301">
        <ele>11.60000038147</ele>
        <time>2020-07-02T08:13:55.000Z</time>
      </trkpt>
      <trkpt lat="47.28637" lon="-2.23299">
        <ele>11.60000038147</ele>
        <time>2020-07-02T08:13:58.000Z</time>
      </trkpt>
      <trkpt lat="47.28658" lon="-2.23302">
        <ele>11.60000038147</ele>
        <time>2020-07-02T08:14:03.000Z</time>
      </trkpt>
      <trkpt lat="47.2867" lon="-2.23299">
        <ele>11.60000038147</ele>
        <time>2020-07-02T08:14:07.000Z</time>
      </trkpt>
      <trkpt lat="47.28671" lon="-2.23301">
        <ele>12</ele>
        <time>2020-07-02T08:14:08.000Z</time>
      </trkpt>
      <trkpt lat="47.28672" lon="-2.23303">
        <ele>12.39999961853</ele>
        <time>2020-07-02T08:14:09.000Z</time>
      </trkpt>
      <trkpt lat="47.28673" lon="-2.23307">
        <ele>12.800000190735</ele>
        <time>2020-07-02T08:14:10.000Z</time>
      </trkpt>
      <trkpt lat="47.28674" lon="-2.23312">
        <ele>13.199999809265</ele>
        <time>2020-07-02T08:14:11.000Z</time>
      </trkpt>
      <trkpt lat="47.28674" lon="-2.23317">
        <ele>13.800000190735</ele>
        <time>2020-07-02T08:14:12.000Z</time>
      </trkpt>
      <trkpt lat="47.28674" lon="-2.23335">
        <ele>13.800000190735</ele>
        <time>2020-07-02T08:14:15.000Z</time>
      </trkpt>
      <trkpt lat="47.2867" lon="-2.23357">
        <ele>13.800000190735</ele>
        <time>2020-07-02T08:14:20.000Z</time>
      </trkpt>
      <trkpt lat="47.28661" lon="-2.23354">
        <ele>13.800000190735</ele>
        <time>2020-07-02T08:14:23.000Z</time>
      </trkpt>
      <trkpt lat="47.28655" lon="-2.23357">
        <ele>13.199999809265</ele>
        <time>2020-07-02T08:14:25.000Z</time>
      </trkpt>
      <trkpt lat="47.28652" lon="-2.23361">
        <ele>12.800000190735</ele>
        <time>2020-07-02T08:14:26.000Z</time>
      </trkpt>
      <trkpt lat="47.2865" lon="-2.23366">
        <ele>12.199999809265</ele>
        <time>2020-07-02T08:14:27.000Z</time>
      </trkpt>
      <trkpt lat="47.28648" lon="-2.23371">
        <ele>11.800000190735</ele>
        <time>2020-07-02T08:14:28.000Z</time>
      </trkpt>
      <trkpt lat="47.28646" lon="-2.23377">
        <ele>11.39999961853</ele>
        <time>2020-07-02T08:14:29.000Z</time>
      </trkpt>
      <trkpt lat="47.28644" lon="-2.23385">
        <ele>11.39999961853</ele>
        <time>2020-07-02T08:14:30.000Z</time>
      </trkpt>
      <trkpt lat="47.28646" lon="-2.23414">
        <ele>11.39999961853</ele>
        <time>2020-07-02T08:14:34.000Z</time>
      </trkpt>
      <trkpt lat="47.28652" lon="-2.23433">
        <ele>11.39999961853</ele>
        <time>2020-07-02T08:14:37.000Z</time>
      </trkpt>
      <trkpt lat="47.28654" lon="-2.23439">
        <ele>11.39999961853</ele>
        <time>2020-07-02T08:14:38.000Z</time>
      </trkpt>
      <trkpt lat="47.28655" lon="-2.23445">
        <ele>11.39999961853</ele>
        <time>2020-07-02T08:14:39.000Z</time>
      </trkpt>
      <trkpt lat="47.28657" lon="-2.23464">
        <ele>11.800000190735</ele>
        <time>2020-07-02T08:14:42.000Z</time>
      </trkpt>
      <trkpt lat="47.28657" lon="-2.23471">
        <ele>12.199999809265</ele>
        <time>2020-07-02T08:14:43.000Z</time>
      </trkpt>
      <trkpt lat="47.28657" lon="-2.23477">
        <ele>12.60000038147</ele>
        <time>2020-07-02T08:14:44.000Z</time>
      </trkpt>
      <trkpt lat="47.28657" lon="-2.23484">
        <ele>13</ele>
        <time>2020-07-02T08:14:45.000Z</time>
      </trkpt>
      <trkpt lat="47.28656" lon="-2.23492">
        <ele>13.39999961853</ele>
        <time>2020-07-02T08:14:46.000Z</time>
      </trkpt>
      <trkpt lat="47.28654" lon="-2.23515">
        <ele>13.39999961853</ele>
        <time>2020-07-02T08:14:49.000Z</time>
      </trkpt>
      <trkpt lat="47.28656" lon="-2.23551">
        <ele>13.39999961853</ele>
        <time>2020-07-02T08:14:54.000Z</time>
      </trkpt>
      <trkpt lat="47.28666" lon="-2.23558">
        <ele>13.39999961853</ele>
        <time>2020-07-02T08:14:57.000Z</time>
      </trkpt>
      <trkpt lat="47.28674" lon="-2.23566">
        <ele>13.39999961853</ele>
        <time>2020-07-02T08:14:59.000Z</time>
      </trkpt>
      <trkpt lat="47.28681" lon="-2.23576">
        <ele>13.39999961853</ele>
        <time>2020-07-02T08:15:01.000Z</time>
      </trkpt>
      <trkpt lat="47.28692" lon="-2.2359">
        <ele>13.39999961853</ele>
        <time>2020-07-02T08:15:04.000Z</time>
      </trkpt>
      <trkpt lat="47.28696" lon="-2.2359">
        <ele>13.39999961853</ele>
        <time>2020-07-02T08:15:05.000Z</time>
      </trkpt>
      <trkpt lat="47.28705" lon="-2.23588">
        <ele>13.39999961853</ele>
        <time>2020-07-02T08:15:07.000Z</time>
      </trkpt>
      <trkpt lat="47.28715" lon="-2.23581">
        <ele>13.39999961853</ele>
        <time>2020-07-02T08:15:10.000Z</time>
      </trkpt>
      <trkpt lat="47.28717" lon="-2.23576">
        <ele>13.39999961853</ele>
        <time>2020-07-02T08:15:11.000Z</time>
      </trkpt>
      <trkpt lat="47.28725" lon="-2.23558">
        <ele>13.39999961853</ele>
        <time>2020-07-02T08:15:14.000Z</time>
      </trkpt>
      <trkpt lat="47.28741" lon="-2.23534">
        <ele>13.39999961853</ele>
        <time>2020-07-02T08:15:20.000Z</time>
      </trkpt>
      <trkpt lat="47.28766" lon="-2.23517">
        <ele>13.800000190735</ele>
        <time>2020-07-02T08:15:27.000Z</time>
      </trkpt>
      <trkpt lat="47.2877" lon="-2.23515">
        <ele>14.199999809265</ele>
        <time>2020-07-02T08:15:28.000Z</time>
      </trkpt>
      <trkpt lat="47.28775" lon="-2.23513">
        <ele>14.60000038147</ele>
        <time>2020-07-02T08:15:29.000Z</time>
      </trkpt>
      <trkpt lat="47.28779" lon="-2.23511">
        <ele>15</ele>
        <time>2020-07-02T08:15:30.000Z</time>
      </trkpt>
      <trkpt lat="47.28784" lon="-2.2351">
        <ele>15.39999961853</ele>
        <time>2020-07-02T08:15:31.000Z</time>
      </trkpt>
      <trkpt lat="47.28794" lon="-2.23508">
        <ele>15.39999961853</ele>
        <time>2020-07-02T08:15:33.000Z</time>
      </trkpt>
      <trkpt lat="47.28804" lon="-2.23507">
        <ele>15.39999961853</ele>
        <time>2020-07-02T08:15:35.000Z</time>
      </trkpt>
      <trkpt lat="47.28813" lon="-2.23507">
        <ele>15.800000190735</ele>
        <time>2020-07-02T08:15:37.000Z</time>
      </trkpt>
      <trkpt lat="47.28818" lon="-2.23506">
        <ele>16.39999961853</ele>
        <time>2020-07-02T08:15:38.000Z</time>
      </trkpt>
      <trkpt lat="47.28823" lon="-2.23505">
        <ele>16.799999237061</ele>
        <time>2020-07-02T08:15:39.000Z</time>
      </trkpt>
      <trkpt lat="47.28829" lon="-2.23505">
        <ele>17.200000762939</ele>
        <time>2020-07-02T08:15:40.000Z</time>
      </trkpt>
      <trkpt lat="47.28833" lon="-2.23505">
        <ele>17.60000038147</ele>
        <time>2020-07-02T08:15:41.000Z</time>
      </trkpt>
      <trkpt lat="47.28855" lon="-2.23504">
        <ele>17.60000038147</ele>
        <time>2020-07-02T08:15:46.000Z</time>
      </trkpt>
      <trkpt lat="47.28875" lon="-2.23503">
        <ele>18</ele>
        <time>2020-07-02T08:15:51.000Z</time>
      </trkpt>
      <trkpt lat="47.2888" lon="-2.23503">
        <ele>18.39999961853</ele>
        <time>2020-07-02T08:15:52.000Z</time>
      </trkpt>
      <trkpt lat="47.28885" lon="-2.23503">
        <ele>18.799999237061</ele>
        <time>2020-07-02T08:15:53.000Z</time>
      </trkpt>
      <trkpt lat="47.2889" lon="-2.23503">
        <ele>19.200000762939</ele>
        <time>2020-07-02T08:15:54.000Z</time>
      </trkpt>
      <trkpt lat="47.28895" lon="-2.23502">
        <ele>19.60000038147</ele>
        <time>2020-07-02T08:15:55.000Z</time>
      </trkpt>
      <trkpt lat="47.28904" lon="-2.235">
        <ele>19.60000038147</ele>
        <time>2020-07-02T08:15:57.000Z</time>
      </trkpt>
      <trkpt lat="47.28928" lon="-2.23491">
        <ele>19.60000038147</ele>
        <time>2020-07-02T08:16:02.000Z</time>
      </trkpt>
      <trkpt lat="47.28953" lon="-2.23481">
        <ele>19.60000038147</ele>
        <time>2020-07-02T08:16:08.000Z</time>
      </trkpt>
      <trkpt lat="47.28956" lon="-2.23462">
        <ele>19.60000038147</ele>
        <time>2020-07-02T08:16:11.000Z</time>
      </trkpt>
      <trkpt lat="47.28961" lon="-2.23411">
        <ele>19.60000038147</ele>
        <time>2020-07-02T08:16:18.000Z</time>
      </trkpt>
      <trkpt lat="47.28969" lon="-2.23345">
        <ele>19.60000038147</ele>
        <time>2020-07-02T08:16:26.000Z</time>
      </trkpt>
      <trkpt lat="47.28977" lon="-2.23263">
        <ele>19.60000038147</ele>
        <time>2020-07-02T08:16:34.000Z</time>
      </trkpt>
      <trkpt lat="47.28986" lon="-2.23183">
        <ele>19.60000038147</ele>
        <time>2020-07-02T08:16:41.000Z</time>
      </trkpt>
      <trkpt lat="47.28987" lon="-2.23171">
        <ele>19.200000762939</ele>
        <time>2020-07-02T08:16:42.000Z</time>
      </trkpt>
      <trkpt lat="47.28989" lon="-2.23159">
        <ele>18.60000038147</ele>
        <time>2020-07-02T08:16:43.000Z</time>
      </trkpt>
      <trkpt lat="47.2899" lon="-2.23147">
        <ele>18.200000762939</ele>
        <time>2020-07-02T08:16:44.000Z</time>
      </trkpt>
      <trkpt lat="47.28992" lon="-2.23135">
        <ele>17.799999237061</ele>
        <time>2020-07-02T08:16:45.000Z</time>
      </trkpt>
      <trkpt lat="47.28994" lon="-2.23123">
        <ele>17.200000762939</ele>
        <time>2020-07-02T08:16:46.000Z</time>
      </trkpt>
      <trkpt lat="47.29001" lon="-2.23073">
        <ele>16.799999237061</ele>
        <time>2020-07-02T08:16:50.000Z</time>
      </trkpt>
      <trkpt lat="47.29004" lon="-2.23062">
        <ele>15.800000190735</ele>
        <time>2020-07-02T08:16:51.000Z</time>
      </trkpt>
      <trkpt lat="47.29007" lon="-2.23051">
        <ele>15.39999961853</ele>
        <time>2020-07-02T08:16:52.000Z</time>
      </trkpt>
      <trkpt lat="47.2901" lon="-2.2304">
        <ele>15</ele>
        <time>2020-07-02T08:16:53.000Z</time>
      </trkpt>
      <trkpt lat="47.29019" lon="-2.23008">
        <ele>14.39999961853</ele>
        <time>2020-07-02T08:16:56.000Z</time>
      </trkpt>
      <trkpt lat="47.29022" lon="-2.23">
        <ele>14</ele>
        <time>2020-07-02T08:16:57.000Z</time>
      </trkpt>
      <trkpt lat="47.29024" lon="-2.22994">
        <ele>13.39999961853</ele>
        <time>2020-07-02T08:16:58.000Z</time>
      </trkpt>
      <trkpt lat="47.29026" lon="-2.22988">
        <ele>13</ele>
        <time>2020-07-02T08:16:59.000Z</time>
      </trkpt>
      <trkpt lat="47.29026" lon="-2.22982">
        <ele>12.39999961853</ele>
        <time>2020-07-02T08:17:00.000Z</time>
      </trkpt>
      <trkpt lat="47.29034" lon="-2.22972">
        <ele>12.39999961853</ele>
        <time>2020-07-02T08:17:03.000Z</time>
      </trkpt>
      <trkpt lat="47.29043" lon="-2.22986">
        <ele>12.39999961853</ele>
        <time>2020-07-02T08:17:06.000Z</time>
      </trkpt>
      <trkpt lat="47.29063" lon="-2.2301">
        <ele>12.39999961853</ele>
        <time>2020-07-02T08:17:11.000Z</time>
      </trkpt>
      <trkpt lat="47.29096" lon="-2.23052">
        <ele>12.39999961853</ele>
        <time>2020-07-02T08:17:19.000Z</time>
      </trkpt>
      <trkpt lat="47.29122" lon="-2.23085">
        <ele>12.39999961853</ele>
        <time>2020-07-02T08:17:25.000Z</time>
      </trkpt>
      <trkpt lat="47.29154" lon="-2.23125">
        <ele>12.39999961853</ele>
        <time>2020-07-02T08:17:32.000Z</time>
      </trkpt>
      <trkpt lat="47.29184" lon="-2.23165">
        <ele>12.39999961853</ele>
        <time>2020-07-02T08:17:39.000Z</time>
      </trkpt>
      <trkpt lat="47.29199" lon="-2.23193">
        <ele>12.39999961853</ele>
        <time>2020-07-02T08:17:43.000Z</time>
      </trkpt>
      <trkpt lat="47.29201" lon="-2.232">
        <ele>12.39999961853</ele>
        <time>2020-07-02T08:17:44.000Z</time>
      </trkpt>
      <trkpt lat="47.29207" lon="-2.23227">
        <ele>12.39999961853</ele>
        <time>2020-07-02T08:17:47.000Z</time>
      </trkpt>
      <trkpt lat="47.2921" lon="-2.23235">
        <ele>12.39999961853</ele>
        <time>2020-07-02T08:17:48.000Z</time>
      </trkpt>
      <trkpt lat="47.29235" lon="-2.2327">
        <ele>12.39999961853</ele>
        <time>2020-07-02T08:17:53.000Z</time>
      </trkpt>
      <trkpt lat="47.29263" lon="-2.23323">
        <ele>12.39999961853</ele>
        <time>2020-07-02T08:18:00.000Z</time>
      </trkpt>
      <trkpt lat="47.29266" lon="-2.23333">
        <ele>12.39999961853</ele>
        <time>2020-07-02T08:18:01.000Z</time>
      </trkpt>
      <trkpt lat="47.29273" lon="-2.23363">
        <ele>12.39999961853</ele>
        <time>2020-07-02T08:18:04.000Z</time>
      </trkpt>
      <trkpt lat="47.29279" lon="-2.23394">
        <ele>12.39999961853</ele>
        <time>2020-07-02T08:18:07.000Z</time>
      </trkpt>
      <trkpt lat="47.29284" lon="-2.23414">
        <ele>12.39999961853</ele>
        <time>2020-07-02T08:18:09.000Z</time>
      </trkpt>
      <trkpt lat="47.29291" lon="-2.23444">
        <ele>12.39999961853</ele>
        <time>2020-07-02T08:18:12.000Z</time>
      </trkpt>
      <trkpt lat="47.29295" lon="-2.23464">
        <ele>12.39999961853</ele>
        <time>2020-07-02T08:18:14.000Z</time>
      </trkpt>
      <trkpt lat="47.29307" lon="-2.23541">
        <ele>12.39999961853</ele>
        <time>2020-07-02T08:18:22.000Z</time>
      </trkpt>
      <trkpt lat="47.29313" lon="-2.23605">
        <ele>12.39999961853</ele>
        <time>2020-07-02T08:18:29.000Z</time>
      </trkpt>
      <trkpt lat="47.29314" lon="-2.23678">
        <ele>12.39999961853</ele>
        <time>2020-07-02T08:18:37.000Z</time>
      </trkpt>
      <trkpt lat="47.29315" lon="-2.23767">
        <ele>12.39999961853</ele>
        <time>2020-07-02T08:18:47.000Z</time>
      </trkpt>
      <trkpt lat="47.29317" lon="-2.23837">
        <ele>12.39999961853</ele>
        <time>2020-07-02T08:18:54.000Z</time>
      </trkpt>
      <trkpt lat="47.29325" lon="-2.23887">
        <ele>12.39999961853</ele>
        <time>2020-07-02T08:18:59.000Z</time>
      </trkpt>
      <trkpt lat="47.29341" lon="-2.2393">
        <ele>12.39999961853</ele>
        <time>2020-07-02T08:19:04.000Z</time>
      </trkpt>
      <trkpt lat="47.29361" lon="-2.23963">
        <ele>12.39999961853</ele>
        <time>2020-07-02T08:19:09.000Z</time>
      </trkpt>
      <trkpt lat="47.29362" lon="-2.23971">
        <ele>12.39999961853</ele>
        <time>2020-07-02T08:19:10.000Z</time>
      </trkpt>
      <trkpt lat="47.29357" lon="-2.23979">
        <ele>12.39999961853</ele>
        <time>2020-07-02T08:19:12.000Z</time>
      </trkpt>
      <trkpt lat="47.29342" lon="-2.2398">
        <ele>12.39999961853</ele>
        <time>2020-07-02T08:19:15.000Z</time>
      </trkpt>
      <trkpt lat="47.29336" lon="-2.2398">
        <ele>12.39999961853</ele>
        <time>2020-07-02T08:19:16.000Z</time>
      </trkpt>
      <trkpt lat="47.29313" lon="-2.23978">
        <ele>12.39999961853</ele>
        <time>2020-07-02T08:19:20.000Z</time>
      </trkpt>
      <trkpt lat="47.29283" lon="-2.23973">
        <ele>12.39999961853</ele>
        <time>2020-07-02T08:19:25.000Z</time>
      </trkpt>
      <trkpt lat="47.2927" lon="-2.23975">
        <ele>12.39999961853</ele>
        <time>2020-07-02T08:19:27.000Z</time>
      </trkpt>
      <trkpt lat="47.29251" lon="-2.23984">
        <ele>12.39999961853</ele>
        <time>2020-07-02T08:19:30.000Z</time>
      </trkpt>
      <trkpt lat="47.29239" lon="-2.23994">
        <ele>12.39999961853</ele>
        <time>2020-07-02T08:19:32.000Z</time>
      </trkpt>
      <trkpt lat="47.29217" lon="-2.24017">
        <ele>12.39999961853</ele>
        <time>2020-07-02T08:19:37.000Z</time>
      </trkpt>
      <trkpt lat="47.29194" lon="-2.24039">
        <ele>12.39999961853</ele>
        <time>2020-07-02T08:19:42.000Z</time>
      </trkpt>
      <trkpt lat="47.29184" lon="-2.24046">
        <ele>12.39999961853</ele>
        <time>2020-07-02T08:19:44.000Z</time>
      </trkpt>
      <trkpt lat="47.2918" lon="-2.24048">
        <ele>12.800000190735</ele>
        <time>2020-07-02T08:19:45.000Z</time>
      </trkpt>
      <trkpt lat="47.29175" lon="-2.24051">
        <ele>13.199999809265</ele>
        <time>2020-07-02T08:19:46.000Z</time>
      </trkpt>
      <trkpt lat="47.29169" lon="-2.24054">
        <ele>13.800000190735</ele>
        <time>2020-07-02T08:19:47.000Z</time>
      </trkpt>
      <trkpt lat="47.29165" lon="-2.24057">
        <ele>14.199999809265</ele>
        <time>2020-07-02T08:19:48.000Z</time>
      </trkpt>
      <trkpt lat="47.2916" lon="-2.24061">
        <ele>14.60000038147</ele>
        <time>2020-07-02T08:19:49.000Z</time>
      </trkpt>
      <trkpt lat="47.29154" lon="-2.24063">
        <ele>14.60000038147</ele>
        <time>2020-07-02T08:19:50.000Z</time>
      </trkpt>
      <trkpt lat="47.29139" lon="-2.24072">
        <ele>15</ele>
        <time>2020-07-02T08:19:53.000Z</time>
      </trkpt>
      <trkpt lat="47.29136" lon="-2.24077">
        <ele>15.39999961853</ele>
        <time>2020-07-02T08:19:54.000Z</time>
      </trkpt>
      <trkpt lat="47.29134" lon="-2.24083">
        <ele>15.800000190735</ele>
        <time>2020-07-02T08:19:55.000Z</time>
      </trkpt>
      <trkpt lat="47.29132" lon="-2.24088">
        <ele>16.200000762939</ele>
        <time>2020-07-02T08:19:56.000Z</time>
      </trkpt>
      <trkpt lat="47.29131" lon="-2.24094">
        <ele>16.60000038147</ele>
        <time>2020-07-02T08:19:57.000Z</time>
      </trkpt>
      <trkpt lat="47.2913" lon="-2.24104">
        <ele>16.60000038147</ele>
        <time>2020-07-02T08:19:59.000Z</time>
      </trkpt>
      <trkpt lat="47.29132" lon="-2.24118">
        <ele>16.60000038147</ele>
        <time>2020-07-02T08:20:01.000Z</time>
      </trkpt>
      <trkpt lat="47.29133" lon="-2.24125">
        <ele>16.60000038147</ele>
        <time>2020-07-02T08:20:02.000Z</time>
      </trkpt>
      <trkpt lat="47.29138" lon="-2.24157">
        <ele>17</ele>
        <time>2020-07-02T08:20:06.000Z</time>
      </trkpt>
      <trkpt lat="47.2914" lon="-2.24166">
        <ele>17.39999961853</ele>
        <time>2020-07-02T08:20:07.000Z</time>
      </trkpt>
      <trkpt lat="47.29142" lon="-2.24174">
        <ele>17.799999237061</ele>
        <time>2020-07-02T08:20:08.000Z</time>
      </trkpt>
      <trkpt lat="47.29143" lon="-2.24181">
        <ele>18.60000038147</ele>
        <time>2020-07-02T08:20:09.000Z</time>
      </trkpt>
      <trkpt lat="47.29145" lon="-2.24189">
        <ele>18.60000038147</ele>
        <time>2020-07-02T08:20:10.000Z</time>
      </trkpt>
      <trkpt lat="47.29154" lon="-2.24218">
        <ele>18.60000038147</ele>
        <time>2020-07-02T08:20:14.000Z</time>
      </trkpt>
      <trkpt lat="47.29167" lon="-2.24263">
        <ele>18.60000038147</ele>
        <time>2020-07-02T08:20:20.000Z</time>
      </trkpt>
      <trkpt lat="47.29179" lon="-2.24301">
        <ele>18.60000038147</ele>
        <time>2020-07-02T08:20:25.000Z</time>
      </trkpt>
      <trkpt lat="47.29185" lon="-2.24315">
        <ele>18.60000038147</ele>
        <time>2020-07-02T08:20:27.000Z</time>
      </trkpt>
      <trkpt lat="47.29201" lon="-2.24351">
        <ele>18.60000038147</ele>
        <time>2020-07-02T08:20:32.000Z</time>
      </trkpt>
      <trkpt lat="47.29208" lon="-2.24364">
        <ele>18.60000038147</ele>
        <time>2020-07-02T08:20:34.000Z</time>
      </trkpt>
      <trkpt lat="47.29213" lon="-2.24378">
        <ele>18.60000038147</ele>
        <time>2020-07-02T08:20:36.000Z</time>
      </trkpt>
      <trkpt lat="47.29219" lon="-2.24398">
        <ele>18.60000038147</ele>
        <time>2020-07-02T08:20:39.000Z</time>
      </trkpt>
      <trkpt lat="47.29221" lon="-2.24405">
        <ele>18.60000038147</ele>
        <time>2020-07-02T08:20:40.000Z</time>
      </trkpt>
      <trkpt lat="47.29231" lon="-2.24451">
        <ele>18.60000038147</ele>
        <time>2020-07-02T08:20:47.000Z</time>
      </trkpt>
      <trkpt lat="47.29239" lon="-2.24468">
        <ele>18.60000038147</ele>
        <time>2020-07-02T08:20:52.000Z</time>
      </trkpt>
      <trkpt lat="47.29246" lon="-2.24469">
        <ele>18.60000038147</ele>
        <time>2020-07-02T08:20:57.000Z</time>
      </trkpt>
      <trkpt lat="47.29248" lon="-2.24468">
        <ele>18.60000038147</ele>
        <time>2020-07-02T08:20:58.000Z</time>
      </trkpt>
      <trkpt lat="47.29266" lon="-2.2446">
        <ele>18.60000038147</ele>
        <time>2020-07-02T08:21:05.000Z</time>
      </trkpt>
      <trkpt lat="47.29284" lon="-2.24452">
        <ele>18.60000038147</ele>
        <time>2020-07-02T08:21:11.000Z</time>
      </trkpt>
      <trkpt lat="47.29288" lon="-2.24451">
        <ele>18.60000038147</ele>
        <time>2020-07-02T08:21:13.000Z</time>
      </trkpt>
      <trkpt lat="47.2929" lon="-2.24456">
        <ele>18.60000038147</ele>
        <time>2020-07-02T08:21:15.000Z</time>
      </trkpt>
      <trkpt lat="47.2929" lon="-2.24458">
        <ele>18.60000038147</ele>
        <time>2020-07-02T08:21:18.000Z</time>
      </trkpt>
      <trkpt lat="47.29294" lon="-2.24462">
        <ele>18.60000038147</ele>
        <time>2020-07-02T08:26:39.000Z</time>
      </trkpt>
      <trkpt lat="47.29296" lon="-2.24483">
        <ele>18.60000038147</ele>
        <time>2020-07-02T08:26:45.000Z</time>
      </trkpt>
      <trkpt lat="47.29299" lon="-2.24515">
        <ele>18.60000038147</ele>
        <time>2020-07-02T08:26:51.000Z</time>
      </trkpt>
      <trkpt lat="47.293" lon="-2.24538">
        <ele>18.60000038147</ele>
        <time>2020-07-02T08:26:54.000Z</time>
      </trkpt>
      <trkpt lat="47.29302" lon="-2.24556">
        <ele>18.60000038147</ele>
        <time>2020-07-02T08:26:56.000Z</time>
      </trkpt>
      <trkpt lat="47.29305" lon="-2.2461">
        <ele>18.60000038147</ele>
        <time>2020-07-02T08:27:02.000Z</time>
      </trkpt>
      <trkpt lat="47.29301" lon="-2.24653">
        <ele>18.60000038147</ele>
        <time>2020-07-02T08:27:08.000Z</time>
      </trkpt>
      <trkpt lat="47.29302" lon="-2.24667">
        <ele>19.200000762939</ele>
        <time>2020-07-02T08:27:10.000Z</time>
      </trkpt>
      <trkpt lat="47.29303" lon="-2.24673">
        <ele>19.60000038147</ele>
        <time>2020-07-02T08:27:11.000Z</time>
      </trkpt>
      <trkpt lat="47.29304" lon="-2.2468">
        <ele>20</ele>
        <time>2020-07-02T08:27:12.000Z</time>
      </trkpt>
      <trkpt lat="47.29305" lon="-2.24685">
        <ele>20.39999961853</ele>
        <time>2020-07-02T08:27:13.000Z</time>
      </trkpt>
      <trkpt lat="47.29307" lon="-2.24691">
        <ele>20.799999237061</ele>
        <time>2020-07-02T08:27:14.000Z</time>
      </trkpt>
      <trkpt lat="47.29314" lon="-2.24728">
        <ele>20.799999237061</ele>
        <time>2020-07-02T08:27:20.000Z</time>
      </trkpt>
      <trkpt lat="47.29319" lon="-2.24757">
        <ele>20.799999237061</ele>
        <time>2020-07-02T08:27:25.000Z</time>
      </trkpt>
      <trkpt lat="47.29322" lon="-2.24765">
        <ele>20.799999237061</ele>
        <time>2020-07-02T08:27:29.000Z</time>
      </trkpt>
      <trkpt lat="47.29327" lon="-2.24779">
        <ele>22.799999237061</ele>
        <time>2020-07-02T08:31:11.000Z</time>
      </trkpt>
      <trkpt lat="47.2933" lon="-2.24786">
        <ele>22.799999237061</ele>
        <time>2020-07-02T08:31:14.000Z</time>
      </trkpt>
      <trkpt lat="47.29339" lon="-2.24807">
        <ele>22.799999237061</ele>
        <time>2020-07-02T08:31:20.000Z</time>
      </trkpt>
      <trkpt lat="47.29339" lon="-2.24833">
        <ele>23.200000762939</ele>
        <time>2020-07-02T08:31:24.000Z</time>
      </trkpt>
      <trkpt lat="47.29339" lon="-2.24841">
        <ele>23.60000038147</ele>
        <time>2020-07-02T08:31:25.000Z</time>
      </trkpt>
      <trkpt lat="47.29339" lon="-2.24848">
        <ele>24</ele>
        <time>2020-07-02T08:31:26.000Z</time>
      </trkpt>
      <trkpt lat="47.29339" lon="-2.24855">
        <ele>24.39999961853</ele>
        <time>2020-07-02T08:31:27.000Z</time>
      </trkpt>
      <trkpt lat="47.29339" lon="-2.24864">
        <ele>24.799999237061</ele>
        <time>2020-07-02T08:31:28.000Z</time>
      </trkpt>
      <trkpt lat="47.29338" lon="-2.24888">
        <ele>24.799999237061</ele>
        <time>2020-07-02T08:31:32.000Z</time>
      </trkpt>
      <trkpt lat="47.29331" lon="-2.24904">
        <ele>24.799999237061</ele>
        <time>2020-07-02T08:31:36.000Z</time>
      </trkpt>
      <trkpt lat="47.29328" lon="-2.24906">
        <ele>24.799999237061</ele>
        <time>2020-07-02T08:31:37.000Z</time>
      </trkpt>
      <trkpt lat="47.29311" lon="-2.24909">
        <ele>24.799999237061</ele>
        <time>2020-07-02T08:31:41.000Z</time>
      </trkpt>
      <trkpt lat="47.29306" lon="-2.2491">
        <ele>24.799999237061</ele>
        <time>2020-07-02T08:31:42.000Z</time>
      </trkpt>
      <trkpt lat="47.29279" lon="-2.24918">
        <ele>24.799999237061</ele>
        <time>2020-07-02T08:31:48.000Z</time>
      </trkpt>
      <trkpt lat="47.29257" lon="-2.2493">
        <ele>24.799999237061</ele>
        <time>2020-07-02T08:31:54.000Z</time>
      </trkpt>
      <trkpt lat="47.29257" lon="-2.2495">
        <ele>24.799999237061</ele>
        <time>2020-07-02T08:31:57.000Z</time>
      </trkpt>
      <trkpt lat="47.2926" lon="-2.24963">
        <ele>24.799999237061</ele>
        <time>2020-07-02T08:31:59.000Z</time>
      </trkpt>
      <trkpt lat="47.29265" lon="-2.24984">
        <ele>24.799999237061</ele>
        <time>2020-07-02T08:32:02.000Z</time>
      </trkpt>
      <trkpt lat="47.2928" lon="-2.25035">
        <ele>24.799999237061</ele>
        <time>2020-07-02T08:32:09.000Z</time>
      </trkpt>
      <trkpt lat="47.29296" lon="-2.25098">
        <ele>24.799999237061</ele>
        <time>2020-07-02T08:32:17.000Z</time>
      </trkpt>
      <trkpt lat="47.29307" lon="-2.25164">
        <ele>24.799999237061</ele>
        <time>2020-07-02T08:32:24.000Z</time>
      </trkpt>
      <trkpt lat="47.2931" lon="-2.25181">
        <ele>24.200000762939</ele>
        <time>2020-07-02T08:32:26.000Z</time>
      </trkpt>
      <trkpt lat="47.29311" lon="-2.25187">
        <ele>23.799999237061</ele>
        <time>2020-07-02T08:32:27.000Z</time>
      </trkpt>
      <trkpt lat="47.29313" lon="-2.25191">
        <ele>23.200000762939</ele>
        <time>2020-07-02T08:32:28.000Z</time>
      </trkpt>
      <trkpt lat="47.29316" lon="-2.25193">
        <ele>22.200000762939</ele>
        <time>2020-07-02T08:32:29.000Z</time>
      </trkpt>
      <trkpt lat="47.29321" lon="-2.25191">
        <ele>22.200000762939</ele>
        <time>2020-07-02T08:32:30.000Z</time>
      </trkpt>
      <trkpt lat="47.29335" lon="-2.25192">
        <ele>22.200000762939</ele>
        <time>2020-07-02T08:32:33.000Z</time>
      </trkpt>
      <trkpt lat="47.29351" lon="-2.25195">
        <ele>22.200000762939</ele>
        <time>2020-07-02T08:32:36.000Z</time>
      </trkpt>
      <trkpt lat="47.29387" lon="-2.25204">
        <ele>22.200000762939</ele>
        <time>2020-07-02T08:32:42.000Z</time>
      </trkpt>
      <trkpt lat="47.29421" lon="-2.25208">
        <ele>22.200000762939</ele>
        <time>2020-07-02T08:32:47.000Z</time>
      </trkpt>
      <trkpt lat="47.29427" lon="-2.25206">
        <ele>22.200000762939</ele>
        <time>2020-07-02T08:32:48.000Z</time>
      </trkpt>
      <trkpt lat="47.2945" lon="-2.252">
        <ele>22.200000762939</ele>
        <time>2020-07-02T08:32:52.000Z</time>
      </trkpt>
      <trkpt lat="47.2946" lon="-2.25198">
        <ele>22.60000038147</ele>
        <time>2020-07-02T08:32:54.000Z</time>
      </trkpt>
      <trkpt lat="47.29465" lon="-2.25197">
        <ele>23</ele>
        <time>2020-07-02T08:32:55.000Z</time>
      </trkpt>
      <trkpt lat="47.2947" lon="-2.25196">
        <ele>23.39999961853</ele>
        <time>2020-07-02T08:32:56.000Z</time>
      </trkpt>
      <trkpt lat="47.29476" lon="-2.25194">
        <ele>23.799999237061</ele>
        <time>2020-07-02T08:32:57.000Z</time>
      </trkpt>
      <trkpt lat="47.29481" lon="-2.25193">
        <ele>24.200000762939</ele>
        <time>2020-07-02T08:32:58.000Z</time>
      </trkpt>
      <trkpt lat="47.29504" lon="-2.25187">
        <ele>24.200000762939</ele>
        <time>2020-07-02T08:33:02.000Z</time>
      </trkpt>
      <trkpt lat="47.29539" lon="-2.25181">
        <ele>24.200000762939</ele>
        <time>2020-07-02T08:33:09.000Z</time>
      </trkpt>
      <trkpt lat="47.29543" lon="-2.25186">
        <ele>24.200000762939</ele>
        <time>2020-07-02T08:33:10.000Z</time>
      </trkpt>
      <trkpt lat="47.29545" lon="-2.25192">
        <ele>24.60000038147</ele>
        <time>2020-07-02T08:33:11.000Z</time>
      </trkpt>
      <trkpt lat="47.29546" lon="-2.25199">
        <ele>25</ele>
        <time>2020-07-02T08:33:12.000Z</time>
      </trkpt>
      <trkpt lat="47.29545" lon="-2.25205">
        <ele>25.39999961853</ele>
        <time>2020-07-02T08:33:13.000Z</time>
      </trkpt>
      <trkpt lat="47.29544" lon="-2.25213">
        <ele>25.799999237061</ele>
        <time>2020-07-02T08:33:14.000Z</time>
      </trkpt>
      <trkpt lat="47.29542" lon="-2.25222">
        <ele>26.200000762939</ele>
        <time>2020-07-02T08:33:15.000Z</time>
      </trkpt>
      <trkpt lat="47.29538" lon="-2.25263">
        <ele>26.200000762939</ele>
        <time>2020-07-02T08:33:20.000Z</time>
      </trkpt>
      <trkpt lat="47.29538" lon="-2.25271">
        <ele>26.200000762939</ele>
        <time>2020-07-02T08:33:21.000Z</time>
      </trkpt>
      <trkpt lat="47.2954" lon="-2.25289">
        <ele>26.200000762939</ele>
        <time>2020-07-02T08:33:23.000Z</time>
      </trkpt>
      <trkpt lat="47.29545" lon="-2.25306">
        <ele>26.200000762939</ele>
        <time>2020-07-02T08:33:25.000Z</time>
      </trkpt>
      <trkpt lat="47.29551" lon="-2.25321">
        <ele>26.200000762939</ele>
        <time>2020-07-02T08:33:27.000Z</time>
      </trkpt>
      <trkpt lat="47.29564" lon="-2.2535">
        <ele>26.60000038147</ele>
        <time>2020-07-02T08:33:31.000Z</time>
      </trkpt>
      <trkpt lat="47.29567" lon="-2.25357">
        <ele>27</ele>
        <time>2020-07-02T08:33:32.000Z</time>
      </trkpt>
      <trkpt lat="47.2957" lon="-2.25365">
        <ele>27.39999961853</ele>
        <time>2020-07-02T08:33:33.000Z</time>
      </trkpt>
      <trkpt lat="47.29573" lon="-2.25372">
        <ele>27.799999237061</ele>
        <time>2020-07-02T08:33:34.000Z</time>
      </trkpt>
      <trkpt lat="47.29575" lon="-2.2538">
        <ele>28.200000762939</ele>
        <time>2020-07-02T08:33:35.000Z</time>
      </trkpt>
      <trkpt lat="47.29579" lon="-2.25396">
        <ele>28.200000762939</ele>
        <time>2020-07-02T08:33:37.000Z</time>
      </trkpt>
      <trkpt lat="47.29586" lon="-2.25438">
        <ele>28.799999237061</ele>
        <time>2020-07-02T08:33:42.000Z</time>
      </trkpt>
      <trkpt lat="47.29587" lon="-2.25446">
        <ele>29.200000762939</ele>
        <time>2020-07-02T08:33:43.000Z</time>
      </trkpt>
      <trkpt lat="47.29587" lon="-2.25454">
        <ele>30</ele>
        <time>2020-07-02T08:33:44.000Z</time>
      </trkpt>
      <trkpt lat="47.29588" lon="-2.25461">
        <ele>30.39999961853</ele>
        <time>2020-07-02T08:33:45.000Z</time>
      </trkpt>
      <trkpt lat="47.29589" lon="-2.25494">
        <ele>30.39999961853</ele>
        <time>2020-07-02T08:33:49.000Z</time>
      </trkpt>
      <trkpt lat="47.29588" lon="-2.25501">
        <ele>30.39999961853</ele>
        <time>2020-07-02T08:33:50.000Z</time>
      </trkpt>
      <trkpt lat="47.2958" lon="-2.25523">
        <ele>30.39999961853</ele>
        <time>2020-07-02T08:33:53.000Z</time>
      </trkpt>
      <trkpt lat="47.29562" lon="-2.25545">
        <ele>30.39999961853</ele>
        <time>2020-07-02T08:33:57.000Z</time>
      </trkpt>
      <trkpt lat="47.29546" lon="-2.25556">
        <ele>30.39999961853</ele>
        <time>2020-07-02T08:34:00.000Z</time>
      </trkpt>
      <trkpt lat="47.2953" lon="-2.25566">
        <ele>30.39999961853</ele>
        <time>2020-07-02T08:34:03.000Z</time>
      </trkpt>
      <trkpt lat="47.29515" lon="-2.25575">
        <ele>31</ele>
        <time>2020-07-02T08:34:06.000Z</time>
      </trkpt>
      <trkpt lat="47.2951" lon="-2.25579">
        <ele>31.39999961853</ele>
        <time>2020-07-02T08:34:07.000Z</time>
      </trkpt>
      <trkpt lat="47.29505" lon="-2.25583">
        <ele>32.200000762939</ele>
        <time>2020-07-02T08:34:08.000Z</time>
      </trkpt>
      <trkpt lat="47.295" lon="-2.25586">
        <ele>32.599998474121</ele>
        <time>2020-07-02T08:34:09.000Z</time>
      </trkpt>
      <trkpt lat="47.29489" lon="-2.25592">
        <ele>32.599998474121</ele>
        <time>2020-07-02T08:34:11.000Z</time>
      </trkpt>
      <trkpt lat="47.29449" lon="-2.25611">
        <ele>32.599998474121</ele>
        <time>2020-07-02T08:34:19.000Z</time>
      </trkpt>
      <trkpt lat="47.29433" lon="-2.25618">
        <ele>33</ele>
        <time>2020-07-02T08:34:22.000Z</time>
      </trkpt>
      <trkpt lat="47.29427" lon="-2.2562">
        <ele>33.400001525879</ele>
        <time>2020-07-02T08:34:23.000Z</time>
      </trkpt>
      <trkpt lat="47.29421" lon="-2.25622">
        <ele>33.799999237061</ele>
        <time>2020-07-02T08:34:24.000Z</time>
      </trkpt>
      <trkpt lat="47.29416" lon="-2.25624">
        <ele>34.200000762939</ele>
        <time>2020-07-02T08:34:25.000Z</time>
      </trkpt>
      <trkpt lat="47.29411" lon="-2.25626">
        <ele>34.599998474121</ele>
        <time>2020-07-02T08:34:26.000Z</time>
      </trkpt>
      <trkpt lat="47.29405" lon="-2.25629">
        <ele>34.599998474121</ele>
        <time>2020-07-02T08:34:27.000Z</time>
      </trkpt>
      <trkpt lat="47.29392" lon="-2.25642">
        <ele>34.599998474121</ele>
        <time>2020-07-02T08:34:30.000Z</time>
      </trkpt>
      <trkpt lat="47.29389" lon="-2.2565">
        <ele>34.599998474121</ele>
        <time>2020-07-02T08:34:31.000Z</time>
      </trkpt>
      <trkpt lat="47.29382" lon="-2.25688">
        <ele>34.599998474121</ele>
        <time>2020-07-02T08:34:35.000Z</time>
      </trkpt>
      <trkpt lat="47.29367" lon="-2.25748">
        <ele>34.599998474121</ele>
        <time>2020-07-02T08:34:42.000Z</time>
      </trkpt>
      <trkpt lat="47.29364" lon="-2.25755">
        <ele>34.599998474121</ele>
        <time>2020-07-02T08:34:43.000Z</time>
      </trkpt>
      <trkpt lat="47.29354" lon="-2.25772">
        <ele>34.599998474121</ele>
        <time>2020-07-02T08:34:46.000Z</time>
      </trkpt>
      <trkpt lat="47.29336" lon="-2.25794">
        <ele>34.599998474121</ele>
        <time>2020-07-02T08:34:52.000Z</time>
      </trkpt>
      <trkpt lat="47.29335" lon="-2.25797">
        <ele>34.599998474121</ele>
        <time>2020-07-02T08:34:53.000Z</time>
      </trkpt>
      <trkpt lat="47.29336" lon="-2.25805">
        <ele>34.599998474121</ele>
        <time>2020-07-02T08:34:56.000Z</time>
      </trkpt>
      <trkpt lat="47.29341" lon="-2.25811">
        <ele>34.200000762939</ele>
        <time>2020-07-02T08:34:59.000Z</time>
      </trkpt>
      <trkpt lat="47.29343" lon="-2.25811">
        <ele>33.799999237061</ele>
        <time>2020-07-02T08:35:00.000Z</time>
      </trkpt>
      <trkpt lat="47.29346" lon="-2.2581">
        <ele>33.400001525879</ele>
        <time>2020-07-02T08:35:01.000Z</time>
      </trkpt>
      <trkpt lat="47.29349" lon="-2.25809">
        <ele>33</ele>
        <time>2020-07-02T08:35:02.000Z</time>
      </trkpt>
      <trkpt lat="47.29351" lon="-2.25808">
        <ele>32.599998474121</ele>
        <time>2020-07-02T08:35:03.000Z</time>
      </trkpt>
      <trkpt lat="47.29354" lon="-2.25803">
        <ele>32.599998474121</ele>
        <time>2020-07-02T08:35:06.000Z</time>
      </trkpt>
      <trkpt lat="47.29355" lon="-2.258">
        <ele>32.599998474121</ele>
        <time>2020-07-02T08:35:07.000Z</time>
      </trkpt>
      <trkpt lat="47.2936" lon="-2.25779">
        <ele>32.599998474121</ele>
        <time>2020-07-02T08:35:13.000Z</time>
      </trkpt>
      <trkpt lat="47.29367" lon="-2.25771">
        <ele>32.599998474121</ele>
        <time>2020-07-02T08:35:18.000Z</time>
      </trkpt>
      <trkpt lat="47.29376" lon="-2.25761">
        <ele>32.599998474121</ele>
        <time>2020-07-02T08:35:23.000Z</time>
      </trkpt>
      <trkpt lat="47.29379" lon="-2.2576">
        <ele>32.599998474121</ele>
        <time>2020-07-02T08:35:24.000Z</time>
      </trkpt>
      <trkpt lat="47.2938" lon="-2.25761">
        <ele>32.200000762939</ele>
        <time>2020-07-02T08:35:25.000Z</time>
      </trkpt>
      <trkpt lat="47.29382" lon="-2.25762">
        <ele>31.799999237061</ele>
        <time>2020-07-02T08:35:26.000Z</time>
      </trkpt>
      <trkpt lat="47.29385" lon="-2.25763">
        <ele>31.39999961853</ele>
        <time>2020-07-02T08:35:27.000Z</time>
      </trkpt>
      <trkpt lat="47.29388" lon="-2.25764">
        <ele>31</ele>
        <time>2020-07-02T08:35:28.000Z</time>
      </trkpt>
      <trkpt lat="47.2939" lon="-2.25765">
        <ele>30.60000038147</ele>
        <time>2020-07-02T08:35:29.000Z</time>
      </trkpt>
      <trkpt lat="47.29404" lon="-2.25773">
        <ele>30.60000038147</ele>
        <time>2020-07-02T08:35:34.000Z</time>
      </trkpt>
      <trkpt lat="47.29414" lon="-2.25785">
        <ele>30</ele>
        <time>2020-07-02T08:35:38.000Z</time>
      </trkpt>
      <trkpt lat="47.29414" lon="-2.25789">
        <ele>29.60000038147</ele>
        <time>2020-07-02T08:35:39.000Z</time>
      </trkpt>
      <trkpt lat="47.29414" lon="-2.25792">
        <ele>29.200000762939</ele>
        <time>2020-07-02T08:35:40.000Z</time>
      </trkpt>
      <trkpt lat="47.29413" lon="-2.25794">
        <ele>28.799999237061</ele>
        <time>2020-07-02T08:35:41.000Z</time>
      </trkpt>
      <trkpt lat="47.29413" lon="-2.25797">
        <ele>28.200000762939</ele>
        <time>2020-07-02T08:35:42.000Z</time>
      </trkpt>
      <trkpt lat="47.29417" lon="-2.25808">
        <ele>28.200000762939</ele>
        <time>2020-07-02T08:35:45.000Z</time>
      </trkpt>
      <trkpt lat="47.29423" lon="-2.2584">
        <ele>28.200000762939</ele>
        <time>2020-07-02T08:35:49.000Z</time>
      </trkpt>
      <trkpt lat="47.29427" lon="-2.25863">
        <ele>28.200000762939</ele>
        <time>2020-07-02T08:35:53.000Z</time>
      </trkpt>
      <trkpt lat="47.29433" lon="-2.25881">
        <ele>28.200000762939</ele>
        <time>2020-07-02T08:35:55.000Z</time>
      </trkpt>
      <trkpt lat="47.29439" lon="-2.25893">
        <ele>28.200000762939</ele>
        <time>2020-07-02T08:35:57.000Z</time>
      </trkpt>
      <trkpt lat="47.29441" lon="-2.25901">
        <ele>28.200000762939</ele>
        <time>2020-07-02T08:35:58.000Z</time>
      </trkpt>
      <trkpt lat="47.29446" lon="-2.25917">
        <ele>28.200000762939</ele>
        <time>2020-07-02T08:36:01.000Z</time>
      </trkpt>
      <trkpt lat="47.29446" lon="-2.25923">
        <ele>28.200000762939</ele>
        <time>2020-07-02T08:36:02.000Z</time>
      </trkpt>
      <trkpt lat="47.29441" lon="-2.25932">
        <ele>28.200000762939</ele>
        <time>2020-07-02T08:36:05.000Z</time>
      </trkpt>
      <trkpt lat="47.29426" lon="-2.25946">
        <ele>28.200000762939</ele>
        <time>2020-07-02T08:36:11.000Z</time>
      </trkpt>
      <trkpt lat="47.29412" lon="-2.25953">
        <ele>28.200000762939</ele>
        <time>2020-07-02T08:36:15.000Z</time>
      </trkpt>
      <trkpt lat="47.29405" lon="-2.25951">
        <ele>28.200000762939</ele>
        <time>2020-07-02T08:36:17.000Z</time>
      </trkpt>
      <trkpt lat="47.29401" lon="-2.2596">
        <ele>28.200000762939</ele>
        <time>2020-07-02T08:36:20.000Z</time>
      </trkpt>
      <trkpt lat="47.29401" lon="-2.25963">
        <ele>28.200000762939</ele>
        <time>2020-07-02T08:36:21.000Z</time>
      </trkpt>
      <trkpt lat="47.29401" lon="-2.2598">
        <ele>28.200000762939</ele>
        <time>2020-07-02T08:36:24.000Z</time>
      </trkpt>
      <trkpt lat="47.294" lon="-2.25986">
        <ele>28.200000762939</ele>
        <time>2020-07-02T08:36:25.000Z</time>
      </trkpt>
      <trkpt lat="47.29395" lon="-2.26031">
        <ele>28.200000762939</ele>
        <time>2020-07-02T08:36:31.000Z</time>
      </trkpt>
      <trkpt lat="47.29399" lon="-2.26044">
        <ele>28.200000762939</ele>
        <time>2020-07-02T08:36:33.000Z</time>
      </trkpt>
      <trkpt lat="47.29401" lon="-2.26051">
        <ele>28.200000762939</ele>
        <time>2020-07-02T08:36:34.000Z</time>
      </trkpt>
      <trkpt lat="47.2941" lon="-2.26081">
        <ele>28.200000762939</ele>
        <time>2020-07-02T08:36:39.000Z</time>
      </trkpt>
      <trkpt lat="47.29412" lon="-2.2609">
        <ele>28.200000762939</ele>
        <time>2020-07-02T08:36:40.000Z</time>
      </trkpt>
      <trkpt lat="47.29416" lon="-2.26116">
        <ele>28.200000762939</ele>
        <time>2020-07-02T08:36:44.000Z</time>
      </trkpt>
      <trkpt lat="47.2941" lon="-2.26143">
        <ele>28.200000762939</ele>
        <time>2020-07-02T08:36:49.000Z</time>
      </trkpt>
      <trkpt lat="47.29404" lon="-2.26157">
        <ele>28.200000762939</ele>
        <time>2020-07-02T08:36:52.000Z</time>
      </trkpt>
      <trkpt lat="47.29401" lon="-2.2616">
        <ele>28.60000038147</ele>
        <time>2020-07-02T08:36:53.000Z</time>
      </trkpt>
      <trkpt lat="47.29398" lon="-2.26162">
        <ele>29.200000762939</ele>
        <time>2020-07-02T08:36:54.000Z</time>
      </trkpt>
      <trkpt lat="47.29393" lon="-2.26163">
        <ele>29.60000038147</ele>
        <time>2020-07-02T08:36:55.000Z</time>
      </trkpt>
      <trkpt lat="47.2939" lon="-2.26162">
        <ele>30</ele>
        <time>2020-07-02T08:36:56.000Z</time>
      </trkpt>
      <trkpt lat="47.29387" lon="-2.26161">
        <ele>30.39999961853</ele>
        <time>2020-07-02T08:36:57.000Z</time>
      </trkpt>
      <trkpt lat="47.29366" lon="-2.26147">
        <ele>30.39999961853</ele>
        <time>2020-07-02T08:37:03.000Z</time>
      </trkpt>
      <trkpt lat="47.29354" lon="-2.2613">
        <ele>30.39999961853</ele>
        <time>2020-07-02T08:37:08.000Z</time>
      </trkpt>
      <trkpt lat="47.29343" lon="-2.2611">
        <ele>30.39999961853</ele>
        <time>2020-07-02T08:37:14.000Z</time>
      </trkpt>
      <trkpt lat="47.29338" lon="-2.261">
        <ele>30.799999237061</ele>
        <time>2020-07-02T08:37:16.000Z</time>
      </trkpt>
      <trkpt lat="47.29335" lon="-2.26094">
        <ele>31.200000762939</ele>
        <time>2020-07-02T08:37:17.000Z</time>
      </trkpt>
      <trkpt lat="47.29333" lon="-2.26089">
        <ele>31.60000038147</ele>
        <time>2020-07-02T08:37:18.000Z</time>
      </trkpt>
      <trkpt lat="47.29331" lon="-2.26084">
        <ele>32</ele>
        <time>2020-07-02T08:37:19.000Z</time>
      </trkpt>
      <trkpt lat="47.29328" lon="-2.26079">
        <ele>32.400001525879</ele>
        <time>2020-07-02T08:37:20.000Z</time>
      </trkpt>
      <trkpt lat="47.29326" lon="-2.26073">
        <ele>32.400001525879</ele>
        <time>2020-07-02T08:37:21.000Z</time>
      </trkpt>
      <trkpt lat="47.29316" lon="-2.2604">
        <ele>32.400001525879</ele>
        <time>2020-07-02T08:37:25.000Z</time>
      </trkpt>
      <trkpt lat="47.29313" lon="-2.26033">
        <ele>32.400001525879</ele>
        <time>2020-07-02T08:37:26.000Z</time>
      </trkpt>
      <trkpt lat="47.29307" lon="-2.26011">
        <ele>32.400001525879</ele>
        <time>2020-07-02T08:37:29.000Z</time>
      </trkpt>
      <trkpt lat="47.29303" lon="-2.25993">
        <ele>32.400001525879</ele>
        <time>2020-07-02T08:37:32.000Z</time>
      </trkpt>
      <trkpt lat="47.29304" lon="-2.25983">
        <ele>32.400001525879</ele>
        <time>2020-07-02T08:37:34.000Z</time>
      </trkpt>
      <trkpt lat="47.29305" lon="-2.25978">
        <ele>32.400001525879</ele>
        <time>2020-07-02T08:37:35.000Z</time>
      </trkpt>
      <trkpt lat="47.29312" lon="-2.25971">
        <ele>32.400001525879</ele>
        <time>2020-07-02T08:37:37.000Z</time>
      </trkpt>
      <trkpt lat="47.29327" lon="-2.25973">
        <ele>32.400001525879</ele>
        <time>2020-07-02T08:37:40.000Z</time>
      </trkpt>
      <trkpt lat="47.29332" lon="-2.25976">
        <ele>32.400001525879</ele>
        <time>2020-07-02T08:37:41.000Z</time>
      </trkpt>
      <trkpt lat="47.29352" lon="-2.25975">
        <ele>32.400001525879</ele>
        <time>2020-07-02T08:37:45.000Z</time>
      </trkpt>
      <trkpt lat="47.29364" lon="-2.25961">
        <ele>32.400001525879</ele>
        <time>2020-07-02T08:37:49.000Z</time>
      </trkpt>
      <trkpt lat="47.29375" lon="-2.25947">
        <ele>32.400001525879</ele>
        <time>2020-07-02T08:37:53.000Z</time>
      </trkpt>
      <trkpt lat="47.29379" lon="-2.25937">
        <ele>32.400001525879</ele>
        <time>2020-07-02T08:37:55.000Z</time>
      </trkpt>
      <trkpt lat="47.29379" lon="-2.25916">
        <ele>32.400001525879</ele>
        <time>2020-07-02T08:37:59.000Z</time>
      </trkpt>
      <trkpt lat="47.29378" lon="-2.25883">
        <ele>32.400001525879</ele>
        <time>2020-07-02T08:38:05.000Z</time>
      </trkpt>
      <trkpt lat="47.29365" lon="-2.25873">
        <ele>32.400001525879</ele>
        <time>2020-07-02T08:38:10.000Z</time>
      </trkpt>
      <trkpt lat="47.29355" lon="-2.25879">
        <ele>32.400001525879</ele>
        <time>2020-07-02T08:38:13.000Z</time>
      </trkpt>
      <trkpt lat="47.29343" lon="-2.25884">
        <ele>32.400001525879</ele>
        <time>2020-07-02T08:38:16.000Z</time>
      </trkpt>
      <trkpt lat="47.29339" lon="-2.25884">
        <ele>32.400001525879</ele>
        <time>2020-07-02T08:38:17.000Z</time>
      </trkpt>
      <trkpt lat="47.29335" lon="-2.25879">
        <ele>32.400001525879</ele>
        <time>2020-07-02T08:38:19.000Z</time>
      </trkpt>
      <trkpt lat="47.29332" lon="-2.25873">
        <ele>32.400001525879</ele>
        <time>2020-07-02T08:38:21.000Z</time>
      </trkpt>
      <trkpt lat="47.2933" lon="-2.25862">
        <ele>32.400001525879</ele>
        <time>2020-07-02T08:38:26.000Z</time>
      </trkpt>
      <trkpt lat="47.29329" lon="-2.25859">
        <ele>32.400001525879</ele>
        <time>2020-07-02T08:38:28.000Z</time>
      </trkpt>
      <trkpt lat="47.29326" lon="-2.25856">
        <ele>32.400001525879</ele>
        <time>2020-07-02T08:38:30.000Z</time>
      </trkpt>
      <trkpt lat="47.29323" lon="-2.25853">
        <ele>32.400001525879</ele>
        <time>2020-07-02T08:38:32.000Z</time>
      </trkpt>
      <trkpt lat="47.29315" lon="-2.25853">
        <ele>32.400001525879</ele>
        <time>2020-07-02T08:38:35.000Z</time>
      </trkpt>
      <trkpt lat="47.29312" lon="-2.25856">
        <ele>32.400001525879</ele>
        <time>2020-07-02T08:38:37.000Z</time>
      </trkpt>
      <trkpt lat="47.29315" lon="-2.25868">
        <ele>32.400001525879</ele>
        <time>2020-07-02T08:38:40.000Z</time>
      </trkpt>
      <trkpt lat="47.29318" lon="-2.25873">
        <ele>32.400001525879</ele>
        <time>2020-07-02T08:38:41.000Z</time>
      </trkpt>
      <trkpt lat="47.29323" lon="-2.2589">
        <ele>32.400001525879</ele>
        <time>2020-07-02T08:38:45.000Z</time>
      </trkpt>
      <trkpt lat="47.29318" lon="-2.25909">
        <ele>32.400001525879</ele>
        <time>2020-07-02T08:38:50.000Z</time>
      </trkpt>
      <trkpt lat="47.29314" lon="-2.25915">
        <ele>32.400001525879</ele>
        <time>2020-07-02T08:38:53.000Z</time>
      </trkpt>
      <trkpt lat="47.29306" lon="-2.2592">
        <ele>32.400001525879</ele>
        <time>2020-07-02T08:38:56.000Z</time>
      </trkpt>
      <trkpt lat="47.29291" lon="-2.25933">
        <ele>32.400001525879</ele>
        <time>2020-07-02T08:39:01.000Z</time>
      </trkpt>
      <trkpt lat="47.29269" lon="-2.25943">
        <ele>32.400001525879</ele>
        <time>2020-07-02T08:39:07.000Z</time>
      </trkpt>
      <trkpt lat="47.29235" lon="-2.25959">
        <ele>32.400001525879</ele>
        <time>2020-07-02T08:39:14.000Z</time>
      </trkpt>
      <trkpt lat="47.292" lon="-2.25973">
        <ele>32.400001525879</ele>
        <time>2020-07-02T08:39:20.000Z</time>
      </trkpt>
      <trkpt lat="47.29175" lon="-2.25983">
        <ele>32.400001525879</ele>
        <time>2020-07-02T08:39:26.000Z</time>
      </trkpt>
      <trkpt lat="47.29173" lon="-2.25999">
        <ele>32.400001525879</ele>
        <time>2020-07-02T08:39:29.000Z</time>
      </trkpt>
      <trkpt lat="47.29183" lon="-2.26024">
        <ele>32.400001525879</ele>
        <time>2020-07-02T08:39:34.000Z</time>
      </trkpt>
      <trkpt lat="47.2919" lon="-2.26033">
        <ele>32.400001525879</ele>
        <time>2020-07-02T08:39:36.000Z</time>
      </trkpt>
      <trkpt lat="47.29194" lon="-2.26037">
        <ele>32.400001525879</ele>
        <time>2020-07-02T08:39:37.000Z</time>
      </trkpt>
      <trkpt lat="47.29197" lon="-2.26041">
        <ele>32.799999237061</ele>
        <time>2020-07-02T08:39:38.000Z</time>
      </trkpt>
      <trkpt lat="47.29201" lon="-2.26045">
        <ele>33.200000762939</ele>
        <time>2020-07-02T08:39:39.000Z</time>
      </trkpt>
      <trkpt lat="47.29205" lon="-2.2605">
        <ele>33.599998474121</ele>
        <time>2020-07-02T08:39:40.000Z</time>
      </trkpt>
      <trkpt lat="47.29209" lon="-2.26054">
        <ele>34</ele>
        <time>2020-07-02T08:39:41.000Z</time>
      </trkpt>
      <trkpt lat="47.29212" lon="-2.26059">
        <ele>34.400001525879</ele>
        <time>2020-07-02T08:39:42.000Z</time>
      </trkpt>
      <trkpt lat="47.29222" lon="-2.26075">
        <ele>34.400001525879</ele>
        <time>2020-07-02T08:39:45.000Z</time>
      </trkpt>
      <trkpt lat="47.29225" lon="-2.2608">
        <ele>34.400001525879</ele>
        <time>2020-07-02T08:39:46.000Z</time>
      </trkpt>
      <trkpt lat="47.29235" lon="-2.26101">
        <ele>34.400001525879</ele>
        <time>2020-07-02T08:39:50.000Z</time>
      </trkpt>
      <trkpt lat="47.29244" lon="-2.26118">
        <ele>34.400001525879</ele>
        <time>2020-07-02T08:39:53.000Z</time>
      </trkpt>
      <trkpt lat="47.29255" lon="-2.26144">
        <ele>34.400001525879</ele>
        <time>2020-07-02T08:39:57.000Z</time>
      </trkpt>
      <trkpt lat="47.29262" lon="-2.26165">
        <ele>34.400001525879</ele>
        <time>2020-07-02T08:40:00.000Z</time>
      </trkpt>
      <trkpt lat="47.29264" lon="-2.26177">
        <ele>34.400001525879</ele>
        <time>2020-07-02T08:40:02.000Z</time>
      </trkpt>
      <trkpt lat="47.29264" lon="-2.26187">
        <ele>34.400001525879</ele>
        <time>2020-07-02T08:40:04.000Z</time>
      </trkpt>
      <trkpt lat="47.29261" lon="-2.26193">
        <ele>34.400001525879</ele>
        <time>2020-07-02T08:40:06.000Z</time>
      </trkpt>
      <trkpt lat="47.29243" lon="-2.26203">
        <ele>34.400001525879</ele>
        <time>2020-07-02T08:40:10.000Z</time>
      </trkpt>
      <trkpt lat="47.29238" lon="-2.26203">
        <ele>34.400001525879</ele>
        <time>2020-07-02T08:40:11.000Z</time>
      </trkpt>
      <trkpt lat="47.29211" lon="-2.26206">
        <ele>34.400001525879</ele>
        <time>2020-07-02T08:40:16.000Z</time>
      </trkpt>
      <trkpt lat="47.29195" lon="-2.26212">
        <ele>34.400001525879</ele>
        <time>2020-07-02T08:40:19.000Z</time>
      </trkpt>
      <trkpt lat="47.29174" lon="-2.26222">
        <ele>34.400001525879</ele>
        <time>2020-07-02T08:40:23.000Z</time>
      </trkpt>
      <trkpt lat="47.29139" lon="-2.26238">
        <ele>34.400001525879</ele>
        <time>2020-07-02T08:40:31.000Z</time>
      </trkpt>
      <trkpt lat="47.29136" lon="-2.26245">
        <ele>34.400001525879</ele>
        <time>2020-07-02T08:40:33.000Z</time>
      </trkpt>
      <trkpt lat="47.29136" lon="-2.26249">
        <ele>34.400001525879</ele>
        <time>2020-07-02T08:40:34.000Z</time>
      </trkpt>
      <trkpt lat="47.29138" lon="-2.2626">
        <ele>34.400001525879</ele>
        <time>2020-07-02T08:40:36.000Z</time>
      </trkpt>
      <trkpt lat="47.29142" lon="-2.26279">
        <ele>34.400001525879</ele>
        <time>2020-07-02T08:40:39.000Z</time>
      </trkpt>
      <trkpt lat="47.29147" lon="-2.26306">
        <ele>34.400001525879</ele>
        <time>2020-07-02T08:40:43.000Z</time>
      </trkpt>
      <trkpt lat="47.2915" lon="-2.26328">
        <ele>34.400001525879</ele>
        <time>2020-07-02T08:40:46.000Z</time>
      </trkpt>
      <trkpt lat="47.29161" lon="-2.26395">
        <ele>34.400001525879</ele>
        <time>2020-07-02T08:40:54.000Z</time>
      </trkpt>
      <trkpt lat="47.29163" lon="-2.26414">
        <ele>34</ele>
        <time>2020-07-02T08:40:56.000Z</time>
      </trkpt>
      <trkpt lat="47.29164" lon="-2.26423">
        <ele>33.599998474121</ele>
        <time>2020-07-02T08:40:57.000Z</time>
      </trkpt>
      <trkpt lat="47.29164" lon="-2.26433">
        <ele>33</ele>
        <time>2020-07-02T08:40:58.000Z</time>
      </trkpt>
      <trkpt lat="47.29165" lon="-2.26443">
        <ele>32.599998474121</ele>
        <time>2020-07-02T08:40:59.000Z</time>
      </trkpt>
      <trkpt lat="47.29164" lon="-2.26454">
        <ele>32.200000762939</ele>
        <time>2020-07-02T08:41:00.000Z</time>
      </trkpt>
      <trkpt lat="47.29163" lon="-2.26484">
        <ele>31.799999237061</ele>
        <time>2020-07-02T08:41:03.000Z</time>
      </trkpt>
      <trkpt lat="47.29163" lon="-2.26495">
        <ele>31.39999961853</ele>
        <time>2020-07-02T08:41:04.000Z</time>
      </trkpt>
      <trkpt lat="47.29162" lon="-2.26506">
        <ele>31</ele>
        <time>2020-07-02T08:41:05.000Z</time>
      </trkpt>
      <trkpt lat="47.29161" lon="-2.26517">
        <ele>30.60000038147</ele>
        <time>2020-07-02T08:41:06.000Z</time>
      </trkpt>
      <trkpt lat="47.2916" lon="-2.26528">
        <ele>30</ele>
        <time>2020-07-02T08:41:07.000Z</time>
      </trkpt>
      <trkpt lat="47.29159" lon="-2.26545">
        <ele>29.200000762939</ele>
        <time>2020-07-02T08:41:09.000Z</time>
      </trkpt>
      <trkpt lat="47.29159" lon="-2.26553">
        <ele>28.799999237061</ele>
        <time>2020-07-02T08:41:10.000Z</time>
      </trkpt>
      <trkpt lat="47.29159" lon="-2.2656">
        <ele>28.200000762939</ele>
        <time>2020-07-02T08:41:11.000Z</time>
      </trkpt>
      <trkpt lat="47.29161" lon="-2.26567">
        <ele>27.799999237061</ele>
        <time>2020-07-02T08:41:12.000Z</time>
      </trkpt>
      <trkpt lat="47.29164" lon="-2.26584">
        <ele>27.799999237061</ele>
        <time>2020-07-02T08:41:14.000Z</time>
      </trkpt>
      <trkpt lat="47.2918" lon="-2.26631">
        <ele>27.799999237061</ele>
        <time>2020-07-02T08:41:19.000Z</time>
      </trkpt>
      <trkpt lat="47.29201" lon="-2.267">
        <ele>27.799999237061</ele>
        <time>2020-07-02T08:41:26.000Z</time>
      </trkpt>
      <trkpt lat="47.29215" lon="-2.26764">
        <ele>27.799999237061</ele>
        <time>2020-07-02T08:41:32.000Z</time>
      </trkpt>
      <trkpt lat="47.29228" lon="-2.26844">
        <ele>27.799999237061</ele>
        <time>2020-07-02T08:41:39.000Z</time>
      </trkpt>
      <trkpt lat="47.29236" lon="-2.26893">
        <ele>27.799999237061</ele>
        <time>2020-07-02T08:41:44.000Z</time>
      </trkpt>
      <trkpt lat="47.2924" lon="-2.26917">
        <ele>27.799999237061</ele>
        <time>2020-07-02T08:41:48.000Z</time>
      </trkpt>
      <trkpt lat="47.29241" lon="-2.2692">
        <ele>27.39999961853</ele>
        <time>2020-07-02T08:41:49.000Z</time>
      </trkpt>
      <trkpt lat="47.29241" lon="-2.26923">
        <ele>27</ele>
        <time>2020-07-02T08:41:50.000Z</time>
      </trkpt>
      <trkpt lat="47.29241" lon="-2.26925">
        <ele>26.60000038147</ele>
        <time>2020-07-02T08:41:51.000Z</time>
      </trkpt>
      <trkpt lat="47.29241" lon="-2.26928">
        <ele>26.200000762939</ele>
        <time>2020-07-02T08:41:52.000Z</time>
      </trkpt>
      <trkpt lat="47.29241" lon="-2.2693">
        <ele>25.799999237061</ele>
        <time>2020-07-02T08:41:53.000Z</time>
      </trkpt>
      <trkpt lat="47.29241" lon="-2.26932">
        <ele>25.799999237061</ele>
        <time>2020-07-02T08:41:54.000Z</time>
      </trkpt>
      <trkpt lat="47.2924" lon="-2.26936">
        <ele>25.799999237061</ele>
        <time>2020-07-02T08:41:56.000Z</time>
      </trkpt>
      <trkpt lat="47.29235" lon="-2.26938">
        <ele>25.799999237061</ele>
        <time>2020-07-02T08:41:58.000Z</time>
      </trkpt>
      <trkpt lat="47.29224" lon="-2.26941">
        <ele>25.799999237061</ele>
        <time>2020-07-02T08:42:03.000Z</time>
      </trkpt>
      <trkpt lat="47.29224" lon="-2.26941">
        <ele>25.799999237061</ele>
        <time>2020-07-02T08:42:04.000Z</time>
      </trkpt>
      <trkpt lat="47.29224" lon="-2.26943">
        <ele>25.799999237061</ele>
        <time>2020-07-02T08:42:08.000Z</time>
      </trkpt>
      <trkpt lat="47.29224" lon="-2.26948">
        <ele>25.799999237061</ele>
        <time>2020-07-02T08:42:10.000Z</time>
      </trkpt>
      <trkpt lat="47.29225" lon="-2.2697">
        <ele>25.799999237061</ele>
        <time>2020-07-02T08:42:14.000Z</time>
      </trkpt>
      <trkpt lat="47.29226" lon="-2.27003">
        <ele>25.799999237061</ele>
        <time>2020-07-02T08:42:19.000Z</time>
      </trkpt>
      <trkpt lat="47.29227" lon="-2.27017">
        <ele>25.799999237061</ele>
        <time>2020-07-02T08:42:21.000Z</time>
      </trkpt>
      <trkpt lat="47.2923" lon="-2.27032">
        <ele>25.799999237061</ele>
        <time>2020-07-02T08:42:23.000Z</time>
      </trkpt>
      <trkpt lat="47.29233" lon="-2.27054">
        <ele>25.799999237061</ele>
        <time>2020-07-02T08:42:26.000Z</time>
      </trkpt>
      <trkpt lat="47.29235" lon="-2.27073">
        <ele>25.799999237061</ele>
        <time>2020-07-02T08:42:29.000Z</time>
      </trkpt>
      <trkpt lat="47.29238" lon="-2.27087">
        <ele>25.799999237061</ele>
        <time>2020-07-02T08:42:31.000Z</time>
      </trkpt>
      <trkpt lat="47.29236" lon="-2.27113">
        <ele>25.799999237061</ele>
        <time>2020-07-02T08:42:35.000Z</time>
      </trkpt>
      <trkpt lat="47.29234" lon="-2.27119">
        <ele>25.799999237061</ele>
        <time>2020-07-02T08:42:36.000Z</time>
      </trkpt>
      <trkpt lat="47.29225" lon="-2.27142">
        <ele>25.799999237061</ele>
        <time>2020-07-02T08:42:40.000Z</time>
      </trkpt>
      <trkpt lat="47.29222" lon="-2.27147">
        <ele>25.799999237061</ele>
        <time>2020-07-02T08:42:41.000Z</time>
      </trkpt>
      <trkpt lat="47.29209" lon="-2.2716">
        <ele>25.799999237061</ele>
        <time>2020-07-02T08:42:44.000Z</time>
      </trkpt>
      <trkpt lat="47.29198" lon="-2.27166">
        <ele>25.799999237061</ele>
        <time>2020-07-02T08:42:46.000Z</time>
      </trkpt>
      <trkpt lat="47.29178" lon="-2.27178">
        <ele>25.799999237061</ele>
        <time>2020-07-02T08:42:50.000Z</time>
      </trkpt>
      <trkpt lat="47.29175" lon="-2.27179">
        <ele>25.799999237061</ele>
        <time>2020-07-02T08:42:51.000Z</time>
      </trkpt>
      <trkpt lat="47.29163" lon="-2.27183">
        <ele>25.799999237061</ele>
        <time>2020-07-02T08:42:56.000Z</time>
      </trkpt>
      <trkpt lat="47.29157" lon="-2.27186">
        <ele>25.799999237061</ele>
        <time>2020-07-02T08:43:00.000Z</time>
      </trkpt>
      <trkpt lat="47.29147" lon="-2.27187">
        <ele>25.799999237061</ele>
        <time>2020-07-02T08:43:05.000Z</time>
      </trkpt>
      <trkpt lat="47.29138" lon="-2.2719">
        <ele>25.799999237061</ele>
        <time>2020-07-02T08:43:09.000Z</time>
      </trkpt>
      <trkpt lat="47.29137" lon="-2.27193">
        <ele>25.799999237061</ele>
        <time>2020-07-02T08:43:10.000Z</time>
      </trkpt>
      <trkpt lat="47.29136" lon="-2.27199">
        <ele>25.799999237061</ele>
        <time>2020-07-02T08:43:15.000Z</time>
      </trkpt>
      <trkpt lat="47.29135" lon="-2.27203">
        <ele>25.799999237061</ele>
        <time>2020-07-02T08:43:24.000Z</time>
      </trkpt>
      <trkpt lat="47.29133" lon="-2.27213">
        <ele>25.799999237061</ele>
        <time>2020-07-02T08:43:27.000Z</time>
      </trkpt>
      <trkpt lat="47.29128" lon="-2.27242">
        <ele>25.799999237061</ele>
        <time>2020-07-02T08:43:33.000Z</time>
      </trkpt>
      <trkpt lat="47.29124" lon="-2.27268">
        <ele>25.799999237061</ele>
        <time>2020-07-02T08:43:39.000Z</time>
      </trkpt>
      <trkpt lat="47.29118" lon="-2.27285">
        <ele>25.799999237061</ele>
        <time>2020-07-02T08:43:45.000Z</time>
      </trkpt>
      <trkpt lat="47.29117" lon="-2.27293">
        <ele>25.799999237061</ele>
        <time>2020-07-02T08:43:49.000Z</time>
      </trkpt>
      <trkpt lat="47.29102" lon="-2.27336">
        <ele>25.799999237061</ele>
        <time>2020-07-02T08:45:45.000Z</time>
      </trkpt>
      <trkpt lat="47.29101" lon="-2.27342">
        <ele>25.799999237061</ele>
        <time>2020-07-02T08:45:50.000Z</time>
      </trkpt>
      <trkpt lat="47.29099" lon="-2.27347">
        <ele>25.799999237061</ele>
        <time>2020-07-02T08:45:55.000Z</time>
      </trkpt>
      <trkpt lat="47.29099" lon="-2.27355">
        <ele>27.799999237061</ele>
        <time>2020-07-02T08:55:33.000Z</time>
      </trkpt>
      <trkpt lat="47.29099" lon="-2.27358">
        <ele>27.799999237061</ele>
        <time>2020-07-02T08:55:34.000Z</time>
      </trkpt>
      <trkpt lat="47.29104" lon="-2.27384">
        <ele>27.799999237061</ele>
        <time>2020-07-02T08:55:40.000Z</time>
      </trkpt>
      <trkpt lat="47.29107" lon="-2.27408">
        <ele>28.200000762939</ele>
        <time>2020-07-02T08:55:44.000Z</time>
      </trkpt>
      <trkpt lat="47.29108" lon="-2.27414">
        <ele>28.60000038147</ele>
        <time>2020-07-02T08:55:45.000Z</time>
      </trkpt>
      <trkpt lat="47.29108" lon="-2.2742">
        <ele>29</ele>
        <time>2020-07-02T08:55:46.000Z</time>
      </trkpt>
      <trkpt lat="47.29108" lon="-2.27426">
        <ele>29.39999961853</ele>
        <time>2020-07-02T08:55:47.000Z</time>
      </trkpt>
      <trkpt lat="47.29107" lon="-2.27433">
        <ele>29.799999237061</ele>
        <time>2020-07-02T08:55:48.000Z</time>
      </trkpt>
      <trkpt lat="47.29106" lon="-2.27451">
        <ele>29.799999237061</ele>
        <time>2020-07-02T08:55:51.000Z</time>
      </trkpt>
      <trkpt lat="47.29106" lon="-2.27496">
        <ele>29.799999237061</ele>
        <time>2020-07-02T08:55:59.000Z</time>
      </trkpt>
      <trkpt lat="47.29106" lon="-2.27514">
        <ele>29.799999237061</ele>
        <time>2020-07-02T08:56:04.000Z</time>
      </trkpt>
      <trkpt lat="47.29113" lon="-2.27522">
        <ele>29.799999237061</ele>
        <time>2020-07-02T08:56:07.000Z</time>
      </trkpt>
      <trkpt lat="47.29116" lon="-2.27524">
        <ele>29.799999237061</ele>
        <time>2020-07-02T08:56:08.000Z</time>
      </trkpt>
      <trkpt lat="47.2914" lon="-2.27527">
        <ele>29.799999237061</ele>
        <time>2020-07-02T08:56:16.000Z</time>
      </trkpt>
      <trkpt lat="47.29169" lon="-2.27528">
        <ele>29.799999237061</ele>
        <time>2020-07-02T08:56:24.000Z</time>
      </trkpt>
      <trkpt lat="47.29203" lon="-2.27529">
        <ele>29.799999237061</ele>
        <time>2020-07-02T08:56:32.000Z</time>
      </trkpt>
      <trkpt lat="47.29226" lon="-2.27528">
        <ele>29.799999237061</ele>
        <time>2020-07-02T08:56:38.000Z</time>
      </trkpt>
      <trkpt lat="47.29257" lon="-2.27525">
        <ele>29.799999237061</ele>
        <time>2020-07-02T08:56:46.000Z</time>
      </trkpt>
      <trkpt lat="47.29264" lon="-2.2752">
        <ele>30.200000762939</ele>
        <time>2020-07-02T08:56:48.000Z</time>
      </trkpt>
      <trkpt lat="47.29268" lon="-2.27518">
        <ele>30.799999237061</ele>
        <time>2020-07-02T08:56:49.000Z</time>
      </trkpt>
      <trkpt lat="47.29272" lon="-2.27518">
        <ele>31.200000762939</ele>
        <time>2020-07-02T08:56:50.000Z</time>
      </trkpt>
      <trkpt lat="47.29276" lon="-2.27519">
        <ele>31.60000038147</ele>
        <time>2020-07-02T08:56:51.000Z</time>
      </trkpt>
      <trkpt lat="47.29279" lon="-2.27521">
        <ele>32</ele>
        <time>2020-07-02T08:56:52.000Z</time>
      </trkpt>
      <trkpt lat="47.29283" lon="-2.27524">
        <ele>32</ele>
        <time>2020-07-02T08:56:53.000Z</time>
      </trkpt>
      <trkpt lat="47.29291" lon="-2.27529">
        <ele>32</ele>
        <time>2020-07-02T08:56:55.000Z</time>
      </trkpt>
      <trkpt lat="47.2931" lon="-2.27532">
        <ele>32</ele>
        <time>2020-07-02T08:56:59.000Z</time>
      </trkpt>
      <trkpt lat="47.29315" lon="-2.27532">
        <ele>32</ele>
        <time>2020-07-02T08:57:00.000Z</time>
      </trkpt>
      <trkpt lat="47.29355" lon="-2.27528">
        <ele>32</ele>
        <time>2020-07-02T08:57:08.000Z</time>
      </trkpt>
      <trkpt lat="47.29399" lon="-2.27516">
        <ele>32</ele>
        <time>2020-07-02T08:57:17.000Z</time>
      </trkpt>
      <trkpt lat="47.29441" lon="-2.27512">
        <ele>32</ele>
        <time>2020-07-02T08:57:25.000Z</time>
      </trkpt>
      <trkpt lat="47.29482" lon="-2.2752">
        <ele>32</ele>
        <time>2020-07-02T08:57:32.000Z</time>
      </trkpt>
      <trkpt lat="47.29534" lon="-2.27537">
        <ele>32</ele>
        <time>2020-07-02T08:57:40.000Z</time>
      </trkpt>
      <trkpt lat="47.29586" lon="-2.27559">
        <ele>32</ele>
        <time>2020-07-02T08:57:48.000Z</time>
      </trkpt>
      <trkpt lat="47.29616" lon="-2.27577">
        <ele>32</ele>
        <time>2020-07-02T08:57:53.000Z</time>
      </trkpt>
      <trkpt lat="47.29622" lon="-2.27581">
        <ele>31.60000038147</ele>
        <time>2020-07-02T08:57:54.000Z</time>
      </trkpt>
      <trkpt lat="47.29629" lon="-2.27586">
        <ele>31.200000762939</ele>
        <time>2020-07-02T08:57:55.000Z</time>
      </trkpt>
      <trkpt lat="47.29636" lon="-2.2759">
        <ele>30.799999237061</ele>
        <time>2020-07-02T08:57:56.000Z</time>
      </trkpt>
      <trkpt lat="47.29644" lon="-2.27595">
        <ele>30.39999961853</ele>
        <time>2020-07-02T08:57:57.000Z</time>
      </trkpt>
      <trkpt lat="47.29652" lon="-2.27599">
        <ele>30</ele>
        <time>2020-07-02T08:57:58.000Z</time>
      </trkpt>
      <trkpt lat="47.29686" lon="-2.2761">
        <ele>30</ele>
        <time>2020-07-02T08:58:02.000Z</time>
      </trkpt>
      <trkpt lat="47.29713" lon="-2.2761">
        <ele>30</ele>
        <time>2020-07-02T08:58:05.000Z</time>
      </trkpt>
      <trkpt lat="47.29723" lon="-2.27608">
        <ele>30</ele>
        <time>2020-07-02T08:58:06.000Z</time>
      </trkpt>
      <trkpt lat="47.29765" lon="-2.27592">
        <ele>30</ele>
        <time>2020-07-02T08:58:11.000Z</time>
      </trkpt>
      <trkpt lat="47.29782" lon="-2.27589">
        <ele>30</ele>
        <time>2020-07-02T08:58:13.000Z</time>
      </trkpt>
      <trkpt lat="47.29791" lon="-2.2759">
        <ele>29.60000038147</ele>
        <time>2020-07-02T08:58:14.000Z</time>
      </trkpt>
      <trkpt lat="47.29799" lon="-2.27591">
        <ele>29</ele>
        <time>2020-07-02T08:58:15.000Z</time>
      </trkpt>
      <trkpt lat="47.29806" lon="-2.27594">
        <ele>28.60000038147</ele>
        <time>2020-07-02T08:58:16.000Z</time>
      </trkpt>
      <trkpt lat="47.29814" lon="-2.27599">
        <ele>28.200000762939</ele>
        <time>2020-07-02T08:58:17.000Z</time>
      </trkpt>
      <trkpt lat="47.29821" lon="-2.27604">
        <ele>27.799999237061</ele>
        <time>2020-07-02T08:58:18.000Z</time>
      </trkpt>
      <trkpt lat="47.2985" lon="-2.2762">
        <ele>27.799999237061</ele>
        <time>2020-07-02T08:58:22.000Z</time>
      </trkpt>
      <trkpt lat="47.29859" lon="-2.27621">
        <ele>27.799999237061</ele>
        <time>2020-07-02T08:58:23.000Z</time>
      </trkpt>
      <trkpt lat="47.2989" lon="-2.2761">
        <ele>27.799999237061</ele>
        <time>2020-07-02T08:58:27.000Z</time>
      </trkpt>
      <trkpt lat="47.29897" lon="-2.27606">
        <ele>27.799999237061</ele>
        <time>2020-07-02T08:58:28.000Z</time>
      </trkpt>
      <trkpt lat="47.29924" lon="-2.27595">
        <ele>27.799999237061</ele>
        <time>2020-07-02T08:58:32.000Z</time>
      </trkpt>
      <trkpt lat="47.2993" lon="-2.27595">
        <ele>27.799999237061</ele>
        <time>2020-07-02T08:58:33.000Z</time>
      </trkpt>
      <trkpt lat="47.29942" lon="-2.27597">
        <ele>27.799999237061</ele>
        <time>2020-07-02T08:58:35.000Z</time>
      </trkpt>
      <trkpt lat="47.29947" lon="-2.27599">
        <ele>27.799999237061</ele>
        <time>2020-07-02T08:58:36.000Z</time>
      </trkpt>
      <trkpt lat="47.29958" lon="-2.27612">
        <ele>27.799999237061</ele>
        <time>2020-07-02T08:58:39.000Z</time>
      </trkpt>
      <trkpt lat="47.29962" lon="-2.27636">
        <ele>27.799999237061</ele>
        <time>2020-07-02T08:58:43.000Z</time>
      </trkpt>
      <trkpt lat="47.29962" lon="-2.2765">
        <ele>27.799999237061</ele>
        <time>2020-07-02T08:58:45.000Z</time>
      </trkpt>
      <trkpt lat="47.29961" lon="-2.27665">
        <ele>27.39999961853</ele>
        <time>2020-07-02T08:58:47.000Z</time>
      </trkpt>
      <trkpt lat="47.2996" lon="-2.27672">
        <ele>27</ele>
        <time>2020-07-02T08:58:48.000Z</time>
      </trkpt>
      <trkpt lat="47.29959" lon="-2.2768">
        <ele>26.60000038147</ele>
        <time>2020-07-02T08:58:49.000Z</time>
      </trkpt>
      <trkpt lat="47.29958" lon="-2.27687">
        <ele>26.200000762939</ele>
        <time>2020-07-02T08:58:50.000Z</time>
      </trkpt>
      <trkpt lat="47.29957" lon="-2.27695">
        <ele>25.799999237061</ele>
        <time>2020-07-02T08:58:51.000Z</time>
      </trkpt>
      <trkpt lat="47.29953" lon="-2.27752">
        <ele>25.799999237061</ele>
        <time>2020-07-02T08:58:58.000Z</time>
      </trkpt>
      <trkpt lat="47.29948" lon="-2.27805">
        <ele>25.799999237061</ele>
        <time>2020-07-02T08:59:05.000Z</time>
      </trkpt>
      <trkpt lat="47.29945" lon="-2.27842">
        <ele>26.200000762939</ele>
        <time>2020-07-02T08:59:10.000Z</time>
      </trkpt>
      <trkpt lat="47.29944" lon="-2.2785">
        <ele>26.60000038147</ele>
        <time>2020-07-02T08:59:11.000Z</time>
      </trkpt>
      <trkpt lat="47.29943" lon="-2.27857">
        <ele>27</ele>
        <time>2020-07-02T08:59:12.000Z</time>
      </trkpt>
      <trkpt lat="47.29943" lon="-2.27865">
        <ele>27.39999961853</ele>
        <time>2020-07-02T08:59:13.000Z</time>
      </trkpt>
      <trkpt lat="47.29942" lon="-2.27872">
        <ele>27.799999237061</ele>
        <time>2020-07-02T08:59:14.000Z</time>
      </trkpt>
      <trkpt lat="47.29938" lon="-2.27928">
        <ele>27.799999237061</ele>
        <time>2020-07-02T08:59:21.000Z</time>
      </trkpt>
      <trkpt lat="47.29935" lon="-2.27974">
        <ele>27.799999237061</ele>
        <time>2020-07-02T08:59:27.000Z</time>
      </trkpt>
      <trkpt lat="47.29937" lon="-2.28006">
        <ele>27.799999237061</ele>
        <time>2020-07-02T08:59:31.000Z</time>
      </trkpt>
      <trkpt lat="47.29939" lon="-2.28014">
        <ele>27.799999237061</ele>
        <time>2020-07-02T08:59:32.000Z</time>
      </trkpt>
      <trkpt lat="47.29943" lon="-2.28028">
        <ele>27.799999237061</ele>
        <time>2020-07-02T08:59:34.000Z</time>
      </trkpt>
      <trkpt lat="47.29948" lon="-2.28039">
        <ele>27.799999237061</ele>
        <time>2020-07-02T08:59:36.000Z</time>
      </trkpt>
      <trkpt lat="47.2995" lon="-2.28043">
        <ele>27.799999237061</ele>
        <time>2020-07-02T08:59:37.000Z</time>
      </trkpt>
      <trkpt lat="47.29963" lon="-2.28045">
        <ele>27.799999237061</ele>
        <time>2020-07-02T08:59:40.000Z</time>
      </trkpt>
      <trkpt lat="47.2997" lon="-2.28043">
        <ele>27.799999237061</ele>
        <time>2020-07-02T08:59:42.000Z</time>
      </trkpt>
      <trkpt lat="47.29983" lon="-2.28036">
        <ele>27.799999237061</ele>
        <time>2020-07-02T08:59:46.000Z</time>
      </trkpt>
      <trkpt lat="47.29991" lon="-2.28034">
        <ele>27.799999237061</ele>
        <time>2020-07-02T08:59:49.000Z</time>
      </trkpt>
      <trkpt lat="47.29992" lon="-2.28035">
        <ele>27.799999237061</ele>
        <time>2020-07-02T08:59:50.000Z</time>
      </trkpt>
      <trkpt lat="47.2999" lon="-2.28049">
        <ele>27.799999237061</ele>
        <time>2020-07-02T08:59:54.000Z</time>
      </trkpt>
      <trkpt lat="47.29988" lon="-2.28054">
        <ele>27.799999237061</ele>
        <time>2020-07-02T08:59:55.000Z</time>
      </trkpt>
      <trkpt lat="47.2998" lon="-2.28078">
        <ele>27.799999237061</ele>
        <time>2020-07-02T08:59:59.000Z</time>
      </trkpt>
      <trkpt lat="47.29972" lon="-2.2811">
        <ele>27.799999237061</ele>
        <time>2020-07-02T09:00:04.000Z</time>
      </trkpt>
      <trkpt lat="47.29957" lon="-2.28162">
        <ele>27.799999237061</ele>
        <time>2020-07-02T09:00:12.000Z</time>
      </trkpt>
      <trkpt lat="47.2995" lon="-2.28191">
        <ele>27.799999237061</ele>
        <time>2020-07-02T09:00:17.000Z</time>
      </trkpt>
      <trkpt lat="47.29952" lon="-2.28223">
        <ele>27.799999237061</ele>
        <time>2020-07-02T09:00:21.000Z</time>
      </trkpt>
      <trkpt lat="47.29952" lon="-2.28231">
        <ele>27.799999237061</ele>
        <time>2020-07-02T09:00:22.000Z</time>
      </trkpt>
      <trkpt lat="47.29955" lon="-2.28276">
        <ele>27.799999237061</ele>
        <time>2020-07-02T09:00:27.000Z</time>
      </trkpt>
      <trkpt lat="47.29954" lon="-2.28287">
        <ele>27.799999237061</ele>
        <time>2020-07-02T09:00:28.000Z</time>
      </trkpt>
      <trkpt lat="47.29956" lon="-2.28323">
        <ele>27.799999237061</ele>
        <time>2020-07-02T09:00:32.000Z</time>
      </trkpt>
      <trkpt lat="47.29953" lon="-2.2836">
        <ele>27.799999237061</ele>
        <time>2020-07-02T09:00:36.000Z</time>
      </trkpt>
      <trkpt lat="47.29953" lon="-2.28378">
        <ele>27.799999237061</ele>
        <time>2020-07-02T09:00:38.000Z</time>
      </trkpt>
      <trkpt lat="47.29953" lon="-2.28398">
        <ele>27.799999237061</ele>
        <time>2020-07-02T09:00:40.000Z</time>
      </trkpt>
      <trkpt lat="47.29951" lon="-2.28406">
        <ele>27.799999237061</ele>
        <time>2020-07-02T09:00:41.000Z</time>
      </trkpt>
      <trkpt lat="47.29944" lon="-2.28417">
        <ele>27.799999237061</ele>
        <time>2020-07-02T09:00:43.000Z</time>
      </trkpt>
      <trkpt lat="47.29939" lon="-2.28445">
        <ele>27.799999237061</ele>
        <time>2020-07-02T09:00:47.000Z</time>
      </trkpt>
      <trkpt lat="47.29939" lon="-2.28454">
        <ele>27.799999237061</ele>
        <time>2020-07-02T09:00:48.000Z</time>
      </trkpt>
      <trkpt lat="47.2994" lon="-2.2847">
        <ele>27.799999237061</ele>
        <time>2020-07-02T09:00:50.000Z</time>
      </trkpt>
      <trkpt lat="47.2994" lon="-2.28485">
        <ele>27.799999237061</ele>
        <time>2020-07-02T09:00:52.000Z</time>
      </trkpt>
      <trkpt lat="47.29934" lon="-2.28507">
        <ele>27.799999237061</ele>
        <time>2020-07-02T09:00:55.000Z</time>
      </trkpt>
      <trkpt lat="47.2993" lon="-2.28533">
        <ele>27.799999237061</ele>
        <time>2020-07-02T09:00:58.000Z</time>
      </trkpt>
      <trkpt lat="47.29932" lon="-2.28542">
        <ele>27.799999237061</ele>
        <time>2020-07-02T09:00:59.000Z</time>
      </trkpt>
      <trkpt lat="47.29943" lon="-2.28559">
        <ele>27.799999237061</ele>
        <time>2020-07-02T09:01:02.000Z</time>
      </trkpt>
      <trkpt lat="47.29945" lon="-2.28579">
        <ele>27.799999237061</ele>
        <time>2020-07-02T09:01:05.000Z</time>
      </trkpt>
      <trkpt lat="47.29941" lon="-2.28601">
        <ele>27.799999237061</ele>
        <time>2020-07-02T09:01:08.000Z</time>
      </trkpt>
      <trkpt lat="47.2994" lon="-2.28609">
        <ele>27.799999237061</ele>
        <time>2020-07-02T09:01:09.000Z</time>
      </trkpt>
      <trkpt lat="47.29939" lon="-2.28618">
        <ele>27.799999237061</ele>
        <time>2020-07-02T09:01:10.000Z</time>
      </trkpt>
      <trkpt lat="47.29935" lon="-2.28634">
        <ele>27.39999961853</ele>
        <time>2020-07-02T09:01:12.000Z</time>
      </trkpt>
      <trkpt lat="47.29933" lon="-2.28642">
        <ele>27</ele>
        <time>2020-07-02T09:01:13.000Z</time>
      </trkpt>
      <trkpt lat="47.2993" lon="-2.2865">
        <ele>26.39999961853</ele>
        <time>2020-07-02T09:01:14.000Z</time>
      </trkpt>
      <trkpt lat="47.29928" lon="-2.28657">
        <ele>26</ele>
        <time>2020-07-02T09:01:15.000Z</time>
      </trkpt>
      <trkpt lat="47.29926" lon="-2.28665">
        <ele>25.60000038147</ele>
        <time>2020-07-02T09:01:16.000Z</time>
      </trkpt>
      <trkpt lat="47.29916" lon="-2.28702">
        <ele>25.60000038147</ele>
        <time>2020-07-02T09:01:21.000Z</time>
      </trkpt>
      <trkpt lat="47.29903" lon="-2.28758">
        <ele>25.60000038147</ele>
        <time>2020-07-02T09:01:27.000Z</time>
      </trkpt>
      <trkpt lat="47.29902" lon="-2.28767">
        <ele>25.60000038147</ele>
        <time>2020-07-02T09:01:28.000Z</time>
      </trkpt>
      <trkpt lat="47.29897" lon="-2.288">
        <ele>25.60000038147</ele>
        <time>2020-07-02T09:01:32.000Z</time>
      </trkpt>
      <trkpt lat="47.2989" lon="-2.28843">
        <ele>25.60000038147</ele>
        <time>2020-07-02T09:01:37.000Z</time>
      </trkpt>
      <trkpt lat="47.29887" lon="-2.28861">
        <ele>25.60000038147</ele>
        <time>2020-07-02T09:01:39.000Z</time>
      </trkpt>
      <trkpt lat="47.29884" lon="-2.28878">
        <ele>25.60000038147</ele>
        <time>2020-07-02T09:01:41.000Z</time>
      </trkpt>
      <trkpt lat="47.29877" lon="-2.28892">
        <ele>25.60000038147</ele>
        <time>2020-07-02T09:01:43.000Z</time>
      </trkpt>
      <trkpt lat="47.29876" lon="-2.28918">
        <ele>25.60000038147</ele>
        <time>2020-07-02T09:01:46.000Z</time>
      </trkpt>
      <trkpt lat="47.29887" lon="-2.28942">
        <ele>25.60000038147</ele>
        <time>2020-07-02T09:01:50.000Z</time>
      </trkpt>
      <trkpt lat="47.29898" lon="-2.28944">
        <ele>25.60000038147</ele>
        <time>2020-07-02T09:01:52.000Z</time>
      </trkpt>
      <trkpt lat="47.29904" lon="-2.28945">
        <ele>25.200000762939</ele>
        <time>2020-07-02T09:01:53.000Z</time>
      </trkpt>
      <trkpt lat="47.29909" lon="-2.28946">
        <ele>24.799999237061</ele>
        <time>2020-07-02T09:01:54.000Z</time>
      </trkpt>
      <trkpt lat="47.29914" lon="-2.28947">
        <ele>24.39999961853</ele>
        <time>2020-07-02T09:01:55.000Z</time>
      </trkpt>
      <trkpt lat="47.29919" lon="-2.28948">
        <ele>24</ele>
        <time>2020-07-02T09:01:56.000Z</time>
      </trkpt>
      <trkpt lat="47.29923" lon="-2.28951">
        <ele>23.60000038147</ele>
        <time>2020-07-02T09:01:57.000Z</time>
      </trkpt>
      <trkpt lat="47.29926" lon="-2.28957">
        <ele>23.60000038147</ele>
        <time>2020-07-02T09:01:58.000Z</time>
      </trkpt>
      <trkpt lat="47.29938" lon="-2.28978">
        <ele>23.60000038147</ele>
        <time>2020-07-02T09:02:02.000Z</time>
      </trkpt>
      <trkpt lat="47.29941" lon="-2.28984">
        <ele>23.60000038147</ele>
        <time>2020-07-02T09:02:03.000Z</time>
      </trkpt>
      <trkpt lat="47.29945" lon="-2.28991">
        <ele>23.60000038147</ele>
        <time>2020-07-02T09:02:04.000Z</time>
      </trkpt>
      <trkpt lat="47.29951" lon="-2.29002">
        <ele>23.60000038147</ele>
        <time>2020-07-02T09:02:06.000Z</time>
      </trkpt>
      <trkpt lat="47.29954" lon="-2.29009">
        <ele>23.60000038147</ele>
        <time>2020-07-02T09:02:07.000Z</time>
      </trkpt>
      <trkpt lat="47.29979" lon="-2.29051">
        <ele>23.60000038147</ele>
        <time>2020-07-02T09:02:13.000Z</time>
      </trkpt>
      <trkpt lat="47.2999" lon="-2.2907">
        <ele>23.60000038147</ele>
        <time>2020-07-02T09:02:16.000Z</time>
      </trkpt>
      <trkpt lat="47.30001" lon="-2.29081">
        <ele>23.60000038147</ele>
        <time>2020-07-02T09:02:18.000Z</time>
      </trkpt>
      <trkpt lat="47.30035" lon="-2.29112">
        <ele>23.60000038147</ele>
        <time>2020-07-02T09:02:24.000Z</time>
      </trkpt>
      <trkpt lat="47.30056" lon="-2.29129">
        <ele>23.60000038147</ele>
        <time>2020-07-02T09:02:28.000Z</time>
      </trkpt>
      <trkpt lat="47.30062" lon="-2.29137">
        <ele>23.60000038147</ele>
        <time>2020-07-02T09:02:29.000Z</time>
      </trkpt>
      <trkpt lat="47.30088" lon="-2.29179">
        <ele>23.60000038147</ele>
        <time>2020-07-02T09:02:34.000Z</time>
      </trkpt>
      <trkpt lat="47.30128" lon="-2.29243">
        <ele>23.60000038147</ele>
        <time>2020-07-02T09:02:41.000Z</time>
      </trkpt>
      <trkpt lat="47.30134" lon="-2.29253">
        <ele>23.200000762939</ele>
        <time>2020-07-02T09:02:42.000Z</time>
      </trkpt>
      <trkpt lat="47.3014" lon="-2.29261">
        <ele>22.799999237061</ele>
        <time>2020-07-02T09:02:43.000Z</time>
      </trkpt>
      <trkpt lat="47.30145" lon="-2.2927">
        <ele>22.39999961853</ele>
        <time>2020-07-02T09:02:44.000Z</time>
      </trkpt>
      <trkpt lat="47.30151" lon="-2.2928">
        <ele>22</ele>
        <time>2020-07-02T09:02:45.000Z</time>
      </trkpt>
      <trkpt lat="47.30156" lon="-2.29289">
        <ele>21.60000038147</ele>
        <time>2020-07-02T09:02:46.000Z</time>
      </trkpt>
      <trkpt lat="47.30167" lon="-2.29306">
        <ele>21.60000038147</ele>
        <time>2020-07-02T09:02:48.000Z</time>
      </trkpt>
      <trkpt lat="47.30199" lon="-2.29355">
        <ele>21.60000038147</ele>
        <time>2020-07-02T09:02:54.000Z</time>
      </trkpt>
      <trkpt lat="47.30203" lon="-2.29364">
        <ele>21.60000038147</ele>
        <time>2020-07-02T09:02:55.000Z</time>
      </trkpt>
      <trkpt lat="47.30216" lon="-2.29403">
        <ele>21.200000762939</ele>
        <time>2020-07-02T09:02:59.000Z</time>
      </trkpt>
      <trkpt lat="47.30218" lon="-2.29411">
        <ele>20.799999237061</ele>
        <time>2020-07-02T09:03:00.000Z</time>
      </trkpt>
      <trkpt lat="47.30218" lon="-2.29418">
        <ele>20.39999961853</ele>
        <time>2020-07-02T09:03:01.000Z</time>
      </trkpt>
      <trkpt lat="47.30217" lon="-2.29425">
        <ele>20</ele>
        <time>2020-07-02T09:03:02.000Z</time>
      </trkpt>
      <trkpt lat="47.30215" lon="-2.29431">
        <ele>19.60000038147</ele>
        <time>2020-07-02T09:03:03.000Z</time>
      </trkpt>
      <trkpt lat="47.30208" lon="-2.29442">
        <ele>19.60000038147</ele>
        <time>2020-07-02T09:03:05.000Z</time>
      </trkpt>
      <trkpt lat="47.30182" lon="-2.29487">
        <ele>19.60000038147</ele>
        <time>2020-07-02T09:03:11.000Z</time>
      </trkpt>
      <trkpt lat="47.30155" lon="-2.2954">
        <ele>19.60000038147</ele>
        <time>2020-07-02T09:03:18.000Z</time>
      </trkpt>
      <trkpt lat="47.30141" lon="-2.29572">
        <ele>19.60000038147</ele>
        <time>2020-07-02T09:03:22.000Z</time>
      </trkpt>
      <trkpt lat="47.30141" lon="-2.29582">
        <ele>19.60000038147</ele>
        <time>2020-07-02T09:03:23.000Z</time>
      </trkpt>
      <trkpt lat="47.30141" lon="-2.29621">
        <ele>19.60000038147</ele>
        <time>2020-07-02T09:03:28.000Z</time>
      </trkpt>
      <trkpt lat="47.30141" lon="-2.2964">
        <ele>19.60000038147</ele>
        <time>2020-07-02T09:03:31.000Z</time>
      </trkpt>
      <trkpt lat="47.30144" lon="-2.29649">
        <ele>19.60000038147</ele>
        <time>2020-07-02T09:03:33.000Z</time>
      </trkpt>
      <trkpt lat="47.3016" lon="-2.29661">
        <ele>19.60000038147</ele>
        <time>2020-07-02T09:03:37.000Z</time>
      </trkpt>
      <trkpt lat="47.30165" lon="-2.29663">
        <ele>19.60000038147</ele>
        <time>2020-07-02T09:03:38.000Z</time>
      </trkpt>
      <trkpt lat="47.30169" lon="-2.29665">
        <ele>19.60000038147</ele>
        <time>2020-07-02T09:03:39.000Z</time>
      </trkpt>
      <trkpt lat="47.3018" lon="-2.2967">
        <ele>19.60000038147</ele>
        <time>2020-07-02T09:03:41.000Z</time>
      </trkpt>
      <trkpt lat="47.30185" lon="-2.29672">
        <ele>19.60000038147</ele>
        <time>2020-07-02T09:03:42.000Z</time>
      </trkpt>
      <trkpt lat="47.30214" lon="-2.29689">
        <ele>19.60000038147</ele>
        <time>2020-07-02T09:03:47.000Z</time>
      </trkpt>
      <trkpt lat="47.30254" lon="-2.29709">
        <ele>19.60000038147</ele>
        <time>2020-07-02T09:03:53.000Z</time>
      </trkpt>
      <trkpt lat="47.30275" lon="-2.29709">
        <ele>19.60000038147</ele>
        <time>2020-07-02T09:03:56.000Z</time>
      </trkpt>
      <trkpt lat="47.30283" lon="-2.29708">
        <ele>19.60000038147</ele>
        <time>2020-07-02T09:03:57.000Z</time>
      </trkpt>
      <trkpt lat="47.30321" lon="-2.29695">
        <ele>19.60000038147</ele>
        <time>2020-07-02T09:04:03.000Z</time>
      </trkpt>
      <trkpt lat="47.30364" lon="-2.29682">
        <ele>19.60000038147</ele>
        <time>2020-07-02T09:04:09.000Z</time>
      </trkpt>
      <trkpt lat="47.30414" lon="-2.29666">
        <ele>19.60000038147</ele>
        <time>2020-07-02T09:04:16.000Z</time>
      </trkpt>
      <trkpt lat="47.3047" lon="-2.29649">
        <ele>19.60000038147</ele>
        <time>2020-07-02T09:04:24.000Z</time>
      </trkpt>
      <trkpt lat="47.3052" lon="-2.29634">
        <ele>19.60000038147</ele>
        <time>2020-07-02T09:04:31.000Z</time>
      </trkpt>
      <trkpt lat="47.30577" lon="-2.29616">
        <ele>19.60000038147</ele>
        <time>2020-07-02T09:04:39.000Z</time>
      </trkpt>
      <trkpt lat="47.30622" lon="-2.29602">
        <ele>19.60000038147</ele>
        <time>2020-07-02T09:04:45.000Z</time>
      </trkpt>
      <trkpt lat="47.30673" lon="-2.29585">
        <ele>19.60000038147</ele>
        <time>2020-07-02T09:04:52.000Z</time>
      </trkpt>
      <trkpt lat="47.30708" lon="-2.29575">
        <ele>19.60000038147</ele>
        <time>2020-07-02T09:04:57.000Z</time>
      </trkpt>
      <trkpt lat="47.30752" lon="-2.2956">
        <ele>19.60000038147</ele>
        <time>2020-07-02T09:05:04.000Z</time>
      </trkpt>
      <trkpt lat="47.3077" lon="-2.29553">
        <ele>20</ele>
        <time>2020-07-02T09:05:07.000Z</time>
      </trkpt>
      <trkpt lat="47.30776" lon="-2.29552">
        <ele>20.39999961853</ele>
        <time>2020-07-02T09:05:08.000Z</time>
      </trkpt>
      <trkpt lat="47.30782" lon="-2.2955">
        <ele>20.799999237061</ele>
        <time>2020-07-02T09:05:09.000Z</time>
      </trkpt>
      <trkpt lat="47.30788" lon="-2.29548">
        <ele>21.200000762939</ele>
        <time>2020-07-02T09:05:10.000Z</time>
      </trkpt>
      <trkpt lat="47.30794" lon="-2.29546">
        <ele>21.60000038147</ele>
        <time>2020-07-02T09:05:11.000Z</time>
      </trkpt>
      <trkpt lat="47.30826" lon="-2.2954">
        <ele>21.60000038147</ele>
        <time>2020-07-02T09:05:16.000Z</time>
      </trkpt>
      <trkpt lat="47.30845" lon="-2.29541">
        <ele>21.60000038147</ele>
        <time>2020-07-02T09:05:19.000Z</time>
      </trkpt>
      <trkpt lat="47.30865" lon="-2.29545">
        <ele>21.60000038147</ele>
        <time>2020-07-02T09:05:22.000Z</time>
      </trkpt>
      <trkpt lat="47.30899" lon="-2.29557">
        <ele>22</ele>
        <time>2020-07-02T09:05:27.000Z</time>
      </trkpt>
      <trkpt lat="47.30906" lon="-2.2956">
        <ele>22.39999961853</ele>
        <time>2020-07-02T09:05:28.000Z</time>
      </trkpt>
      <trkpt lat="47.30913" lon="-2.29562">
        <ele>22.799999237061</ele>
        <time>2020-07-02T09:05:29.000Z</time>
      </trkpt>
      <trkpt lat="47.3092" lon="-2.29563">
        <ele>23.200000762939</ele>
        <time>2020-07-02T09:05:30.000Z</time>
      </trkpt>
      <trkpt lat="47.30926" lon="-2.29565">
        <ele>23.60000038147</ele>
        <time>2020-07-02T09:05:31.000Z</time>
      </trkpt>
      <trkpt lat="47.30953" lon="-2.29575">
        <ele>23.60000038147</ele>
        <time>2020-07-02T09:05:35.000Z</time>
      </trkpt>
      <trkpt lat="47.30996" lon="-2.29595">
        <ele>23.60000038147</ele>
        <time>2020-07-02T09:05:41.000Z</time>
      </trkpt>
      <trkpt lat="47.31008" lon="-2.29606">
        <ele>23.60000038147</ele>
        <time>2020-07-02T09:05:43.000Z</time>
      </trkpt>
      <trkpt lat="47.31018" lon="-2.2962">
        <ele>23.60000038147</ele>
        <time>2020-07-02T09:05:45.000Z</time>
      </trkpt>
      <trkpt lat="47.31029" lon="-2.29647">
        <ele>23.60000038147</ele>
        <time>2020-07-02T09:05:48.000Z</time>
      </trkpt>
      <trkpt lat="47.31032" lon="-2.29656">
        <ele>23.60000038147</ele>
        <time>2020-07-02T09:05:49.000Z</time>
      </trkpt>
      <trkpt lat="47.31041" lon="-2.29684">
        <ele>23.60000038147</ele>
        <time>2020-07-02T09:05:52.000Z</time>
      </trkpt>
      <trkpt lat="47.31051" lon="-2.29695">
        <ele>23.60000038147</ele>
        <time>2020-07-02T09:05:54.000Z</time>
      </trkpt>
      <trkpt lat="47.31057" lon="-2.29695">
        <ele>23.60000038147</ele>
        <time>2020-07-02T09:05:56.000Z</time>
      </trkpt>
      <trkpt lat="47.3106" lon="-2.29693">
        <ele>23.60000038147</ele>
        <time>2020-07-02T09:05:57.000Z</time>
      </trkpt>
      <trkpt lat="47.31072" lon="-2.29681">
        <ele>23.60000038147</ele>
        <time>2020-07-02T09:06:00.000Z</time>
      </trkpt>
      <trkpt lat="47.3108" lon="-2.29673">
        <ele>23.60000038147</ele>
        <time>2020-07-02T09:06:02.000Z</time>
      </trkpt>
      <trkpt lat="47.31106" lon="-2.2964">
        <ele>23.60000038147</ele>
        <time>2020-07-02T09:06:09.000Z</time>
      </trkpt>
      <trkpt lat="47.31134" lon="-2.2961">
        <ele>23.60000038147</ele>
        <time>2020-07-02T09:06:16.000Z</time>
      </trkpt>
      <trkpt lat="47.31164" lon="-2.29584">
        <ele>23.60000038147</ele>
        <time>2020-07-02T09:06:23.000Z</time>
      </trkpt>
      <trkpt lat="47.31167" lon="-2.29579">
        <ele>23.60000038147</ele>
        <time>2020-07-02T09:06:24.000Z</time>
      </trkpt>
      <trkpt lat="47.31169" lon="-2.29572">
        <ele>23.200000762939</ele>
        <time>2020-07-02T09:06:25.000Z</time>
      </trkpt>
      <trkpt lat="47.31171" lon="-2.29567">
        <ele>22.799999237061</ele>
        <time>2020-07-02T09:06:26.000Z</time>
      </trkpt>
      <trkpt lat="47.31171" lon="-2.29563">
        <ele>22.39999961853</ele>
        <time>2020-07-02T09:06:27.000Z</time>
      </trkpt>
      <trkpt lat="47.31171" lon="-2.29558">
        <ele>22</ele>
        <time>2020-07-02T09:06:28.000Z</time>
      </trkpt>
      <trkpt lat="47.3117" lon="-2.29552">
        <ele>21.60000038147</ele>
        <time>2020-07-02T09:06:29.000Z</time>
      </trkpt>
      <trkpt lat="47.31166" lon="-2.29539">
        <ele>21.60000038147</ele>
        <time>2020-07-02T09:06:31.000Z</time>
      </trkpt>
      <trkpt lat="47.31156" lon="-2.29506">
        <ele>21.60000038147</ele>
        <time>2020-07-02T09:06:36.000Z</time>
      </trkpt>
      <trkpt lat="47.31149" lon="-2.29475">
        <ele>21.60000038147</ele>
        <time>2020-07-02T09:06:40.000Z</time>
      </trkpt>
      <trkpt lat="47.31152" lon="-2.29469">
        <ele>21.60000038147</ele>
        <time>2020-07-02T09:06:41.000Z</time>
      </trkpt>
      <trkpt lat="47.31163" lon="-2.29456">
        <ele>21.60000038147</ele>
        <time>2020-07-02T09:06:44.000Z</time>
      </trkpt>
      <trkpt lat="47.31167" lon="-2.29452">
        <ele>21.60000038147</ele>
        <time>2020-07-02T09:06:45.000Z</time>
      </trkpt>
      <trkpt lat="47.31191" lon="-2.29431">
        <ele>21.60000038147</ele>
        <time>2020-07-02T09:06:51.000Z</time>
      </trkpt>
      <trkpt lat="47.31212" lon="-2.29414">
        <ele>21.60000038147</ele>
        <time>2020-07-02T09:06:57.000Z</time>
      </trkpt>
      <trkpt lat="47.31217" lon="-2.2941">
        <ele>22</ele>
        <time>2020-07-02T09:06:58.000Z</time>
      </trkpt>
      <trkpt lat="47.31221" lon="-2.29407">
        <ele>22.39999961853</ele>
        <time>2020-07-02T09:06:59.000Z</time>
      </trkpt>
      <trkpt lat="47.31225" lon="-2.29404">
        <ele>22.799999237061</ele>
        <time>2020-07-02T09:07:00.000Z</time>
      </trkpt>
      <trkpt lat="47.3123" lon="-2.294">
        <ele>23.200000762939</ele>
        <time>2020-07-02T09:07:01.000Z</time>
      </trkpt>
      <trkpt lat="47.31234" lon="-2.29396">
        <ele>23.799999237061</ele>
        <time>2020-07-02T09:07:02.000Z</time>
      </trkpt>
      <trkpt lat="47.31238" lon="-2.29393">
        <ele>23.799999237061</ele>
        <time>2020-07-02T09:07:03.000Z</time>
      </trkpt>
      <trkpt lat="47.31258" lon="-2.29372">
        <ele>23.799999237061</ele>
        <time>2020-07-02T09:07:09.000Z</time>
      </trkpt>
      <trkpt lat="47.31266" lon="-2.29358">
        <ele>23.799999237061</ele>
        <time>2020-07-02T09:07:14.000Z</time>
      </trkpt>
      <trkpt lat="47.31271" lon="-2.29342">
        <ele>23.799999237061</ele>
        <time>2020-07-02T09:07:20.000Z</time>
      </trkpt>
      <trkpt lat="47.31284" lon="-2.29318">
        <ele>23.799999237061</ele>
        <time>2020-07-02T09:07:27.000Z</time>
      </trkpt>
      <trkpt lat="47.31304" lon="-2.29297">
        <ele>23.799999237061</ele>
        <time>2020-07-02T09:07:33.000Z</time>
      </trkpt>
      <trkpt lat="47.31308" lon="-2.29296">
        <ele>23.799999237061</ele>
        <time>2020-07-02T09:07:34.000Z</time>
      </trkpt>
      <trkpt lat="47.31318" lon="-2.29293">
        <ele>23.799999237061</ele>
        <time>2020-07-02T09:07:36.000Z</time>
      </trkpt>
      <trkpt lat="47.31322" lon="-2.29293">
        <ele>23.799999237061</ele>
        <time>2020-07-02T09:07:37.000Z</time>
      </trkpt>
      <trkpt lat="47.31339" lon="-2.29296">
        <ele>24.200000762939</ele>
        <time>2020-07-02T09:07:40.000Z</time>
      </trkpt>
      <trkpt lat="47.31344" lon="-2.29297">
        <ele>24.60000038147</ele>
        <time>2020-07-02T09:07:41.000Z</time>
      </trkpt>
      <trkpt lat="47.3135" lon="-2.29298">
        <ele>25</ele>
        <time>2020-07-02T09:07:42.000Z</time>
      </trkpt>
      <trkpt lat="47.31355" lon="-2.29301">
        <ele>25.39999961853</ele>
        <time>2020-07-02T09:07:43.000Z</time>
      </trkpt>
      <trkpt lat="47.31361" lon="-2.29303">
        <ele>25.799999237061</ele>
        <time>2020-07-02T09:07:44.000Z</time>
      </trkpt>
      <trkpt lat="47.31375" lon="-2.29309">
        <ele>25.799999237061</ele>
        <time>2020-07-02T09:07:47.000Z</time>
      </trkpt>
      <trkpt lat="47.31383" lon="-2.29313">
        <ele>25.799999237061</ele>
        <time>2020-07-02T09:07:49.000Z</time>
      </trkpt>
      <trkpt lat="47.31403" lon="-2.29329">
        <ele>25.799999237061</ele>
        <time>2020-07-02T09:07:56.000Z</time>
      </trkpt>
      <trkpt lat="47.31422" lon="-2.29347">
        <ele>25.799999237061</ele>
        <time>2020-07-02T09:08:04.000Z</time>
      </trkpt>
      <trkpt lat="47.31431" lon="-2.29362">
        <ele>25.799999237061</ele>
        <time>2020-07-02T09:08:09.000Z</time>
      </trkpt>
      <trkpt lat="47.31432" lon="-2.29364">
        <ele>25.799999237061</ele>
        <time>2020-07-02T09:08:10.000Z</time>
      </trkpt>
      <trkpt lat="47.31445" lon="-2.29381">
        <ele>25.799999237061</ele>
        <time>2020-07-02T09:08:15.000Z</time>
      </trkpt>
      <trkpt lat="47.31459" lon="-2.29389">
        <ele>25.799999237061</ele>
        <time>2020-07-02T09:08:19.000Z</time>
      </trkpt>
      <trkpt lat="47.31477" lon="-2.29385">
        <ele>25.799999237061</ele>
        <time>2020-07-02T09:08:25.000Z</time>
      </trkpt>
      <trkpt lat="47.3149" lon="-2.29384">
        <ele>26.200000762939</ele>
        <time>2020-07-02T09:08:30.000Z</time>
      </trkpt>
      <trkpt lat="47.31492" lon="-2.29385">
        <ele>26.60000038147</ele>
        <time>2020-07-02T09:08:31.000Z</time>
      </trkpt>
      <trkpt lat="47.31495" lon="-2.29387">
        <ele>27.39999961853</ele>
        <time>2020-07-02T09:08:32.000Z</time>
      </trkpt>
      <trkpt lat="47.31498" lon="-2.2939">
        <ele>27.799999237061</ele>
        <time>2020-07-02T09:08:33.000Z</time>
      </trkpt>
      <trkpt lat="47.31502" lon="-2.29397">
        <ele>27.799999237061</ele>
        <time>2020-07-02T09:08:35.000Z</time>
      </trkpt>
      <trkpt lat="47.31515" lon="-2.2942">
        <ele>27.799999237061</ele>
        <time>2020-07-02T09:08:41.000Z</time>
      </trkpt>
      <trkpt lat="47.31528" lon="-2.29452">
        <ele>27.799999237061</ele>
        <time>2020-07-02T09:08:48.000Z</time>
      </trkpt>
      <trkpt lat="47.31531" lon="-2.29461">
        <ele>28.200000762939</ele>
        <time>2020-07-02T09:08:50.000Z</time>
      </trkpt>
      <trkpt lat="47.31533" lon="-2.29466">
        <ele>28.60000038147</ele>
        <time>2020-07-02T09:08:51.000Z</time>
      </trkpt>
      <trkpt lat="47.31535" lon="-2.29471">
        <ele>29</ele>
        <time>2020-07-02T09:08:52.000Z</time>
      </trkpt>
      <trkpt lat="47.31536" lon="-2.29477">
        <ele>29.39999961853</ele>
        <time>2020-07-02T09:08:53.000Z</time>
      </trkpt>
      <trkpt lat="47.31537" lon="-2.29482">
        <ele>29.799999237061</ele>
        <time>2020-07-02T09:08:54.000Z</time>
      </trkpt>
      <trkpt lat="47.31539" lon="-2.29488">
        <ele>29.799999237061</ele>
        <time>2020-07-02T09:08:55.000Z</time>
      </trkpt>
      <trkpt lat="47.31546" lon="-2.2952">
        <ele>29.799999237061</ele>
        <time>2020-07-02T09:09:01.000Z</time>
      </trkpt>
      <trkpt lat="47.31557" lon="-2.29539">
        <ele>29.799999237061</ele>
        <time>2020-07-02T09:09:06.000Z</time>
      </trkpt>
      <trkpt lat="47.31572" lon="-2.2956">
        <ele>29.799999237061</ele>
        <time>2020-07-02T09:09:12.000Z</time>
      </trkpt>
      <trkpt lat="47.31585" lon="-2.29577">
        <ele>29.799999237061</ele>
        <time>2020-07-02T09:09:17.000Z</time>
      </trkpt>
      <trkpt lat="47.31604" lon="-2.29593">
        <ele>30.200000762939</ele>
        <time>2020-07-02T09:09:23.000Z</time>
      </trkpt>
      <trkpt lat="47.31607" lon="-2.29598">
        <ele>30.60000038147</ele>
        <time>2020-07-02T09:09:24.000Z</time>
      </trkpt>
      <trkpt lat="47.3161" lon="-2.29602">
        <ele>31</ele>
        <time>2020-07-02T09:09:25.000Z</time>
      </trkpt>
      <trkpt lat="47.31613" lon="-2.29608">
        <ele>31.39999961853</ele>
        <time>2020-07-02T09:09:26.000Z</time>
      </trkpt>
      <trkpt lat="47.31615" lon="-2.29613">
        <ele>31.799999237061</ele>
        <time>2020-07-02T09:09:27.000Z</time>
      </trkpt>
      <trkpt lat="47.31621" lon="-2.29624">
        <ele>31.799999237061</ele>
        <time>2020-07-02T09:09:29.000Z</time>
      </trkpt>
      <trkpt lat="47.31633" lon="-2.29656">
        <ele>31.799999237061</ele>
        <time>2020-07-02T09:09:35.000Z</time>
      </trkpt>
      <trkpt lat="47.31639" lon="-2.29674">
        <ele>31.799999237061</ele>
        <time>2020-07-02T09:09:38.000Z</time>
      </trkpt>
      <trkpt lat="47.31645" lon="-2.29691">
        <ele>31.799999237061</ele>
        <time>2020-07-02T09:09:41.000Z</time>
      </trkpt>
      <trkpt lat="47.31647" lon="-2.29697">
        <ele>31.799999237061</ele>
        <time>2020-07-02T09:09:42.000Z</time>
      </trkpt>
      <trkpt lat="47.31657" lon="-2.29716">
        <ele>31.799999237061</ele>
        <time>2020-07-02T09:09:46.000Z</time>
      </trkpt>
      <trkpt lat="47.31676" lon="-2.29722">
        <ele>31.799999237061</ele>
        <time>2020-07-02T09:09:50.000Z</time>
      </trkpt>
      <trkpt lat="47.3168" lon="-2.29722">
        <ele>31.799999237061</ele>
        <time>2020-07-02T09:09:51.000Z</time>
      </trkpt>
      <trkpt lat="47.31693" lon="-2.29719">
        <ele>31.799999237061</ele>
        <time>2020-07-02T09:09:54.000Z</time>
      </trkpt>
      <trkpt lat="47.31699" lon="-2.29717">
        <ele>31.799999237061</ele>
        <time>2020-07-02T09:09:55.000Z</time>
      </trkpt>
      <trkpt lat="47.31708" lon="-2.2971">
        <ele>31.799999237061</ele>
        <time>2020-07-02T09:09:57.000Z</time>
      </trkpt>
      <trkpt lat="47.31723" lon="-2.29698">
        <ele>31.799999237061</ele>
        <time>2020-07-02T09:10:00.000Z</time>
      </trkpt>
      <trkpt lat="47.31764" lon="-2.29668">
        <ele>31.799999237061</ele>
        <time>2020-07-02T09:10:07.000Z</time>
      </trkpt>
      <trkpt lat="47.31803" lon="-2.29642">
        <ele>31.799999237061</ele>
        <time>2020-07-02T09:10:14.000Z</time>
      </trkpt>
      <trkpt lat="47.31846" lon="-2.29619">
        <ele>31.799999237061</ele>
        <time>2020-07-02T09:10:22.000Z</time>
      </trkpt>
      <trkpt lat="47.31857" lon="-2.2961">
        <ele>31.799999237061</ele>
        <time>2020-07-02T09:10:24.000Z</time>
      </trkpt>
      <trkpt lat="47.31866" lon="-2.29597">
        <ele>31.799999237061</ele>
        <time>2020-07-02T09:10:26.000Z</time>
      </trkpt>
      <trkpt lat="47.3187" lon="-2.2959">
        <ele>31.799999237061</ele>
        <time>2020-07-02T09:10:27.000Z</time>
      </trkpt>
      <trkpt lat="47.31873" lon="-2.29573">
        <ele>31.799999237061</ele>
        <time>2020-07-02T09:10:29.000Z</time>
      </trkpt>
      <trkpt lat="47.31869" lon="-2.2955">
        <ele>31.799999237061</ele>
        <time>2020-07-02T09:10:32.000Z</time>
      </trkpt>
      <trkpt lat="47.31853" lon="-2.29505">
        <ele>31.799999237061</ele>
        <time>2020-07-02T09:10:38.000Z</time>
      </trkpt>
      <trkpt lat="47.3185" lon="-2.29491">
        <ele>31.799999237061</ele>
        <time>2020-07-02T09:10:40.000Z</time>
      </trkpt>
      <trkpt lat="47.31849" lon="-2.29477">
        <ele>31.799999237061</ele>
        <time>2020-07-02T09:10:42.000Z</time>
      </trkpt>
      <trkpt lat="47.31851" lon="-2.29447">
        <ele>31.799999237061</ele>
        <time>2020-07-02T09:10:46.000Z</time>
      </trkpt>
      <trkpt lat="47.31853" lon="-2.29431">
        <ele>31.799999237061</ele>
        <time>2020-07-02T09:10:48.000Z</time>
      </trkpt>
      <trkpt lat="47.31852" lon="-2.29398">
        <ele>31.799999237061</ele>
        <time>2020-07-02T09:10:52.000Z</time>
      </trkpt>
      <trkpt lat="47.31849" lon="-2.29382">
        <ele>31.799999237061</ele>
        <time>2020-07-02T09:10:54.000Z</time>
      </trkpt>
      <trkpt lat="47.31843" lon="-2.29357">
        <ele>31.799999237061</ele>
        <time>2020-07-02T09:10:57.000Z</time>
      </trkpt>
      <trkpt lat="47.31835" lon="-2.29301">
        <ele>31.799999237061</ele>
        <time>2020-07-02T09:11:03.000Z</time>
      </trkpt>
      <trkpt lat="47.31831" lon="-2.29256">
        <ele>31.200000762939</ele>
        <time>2020-07-02T09:11:07.000Z</time>
      </trkpt>
      <trkpt lat="47.31829" lon="-2.29244">
        <ele>30.799999237061</ele>
        <time>2020-07-02T09:11:08.000Z</time>
      </trkpt>
      <trkpt lat="47.31828" lon="-2.29234">
        <ele>30.39999961853</ele>
        <time>2020-07-02T09:11:09.000Z</time>
      </trkpt>
      <trkpt lat="47.31826" lon="-2.29222">
        <ele>29.799999237061</ele>
        <time>2020-07-02T09:11:10.000Z</time>
      </trkpt>
      <trkpt lat="47.31826" lon="-2.29209">
        <ele>29.39999961853</ele>
        <time>2020-07-02T09:11:11.000Z</time>
      </trkpt>
      <trkpt lat="47.31827" lon="-2.29183">
        <ele>29.39999961853</ele>
        <time>2020-07-02T09:11:13.000Z</time>
      </trkpt>
      <trkpt lat="47.31834" lon="-2.29128">
        <ele>29</ele>
        <time>2020-07-02T09:11:17.000Z</time>
      </trkpt>
      <trkpt lat="47.31837" lon="-2.29115">
        <ele>28.60000038147</ele>
        <time>2020-07-02T09:11:18.000Z</time>
      </trkpt>
      <trkpt lat="47.31839" lon="-2.29102">
        <ele>28</ele>
        <time>2020-07-02T09:11:19.000Z</time>
      </trkpt>
      <trkpt lat="47.31841" lon="-2.29089">
        <ele>27.60000038147</ele>
        <time>2020-07-02T09:11:20.000Z</time>
      </trkpt>
      <trkpt lat="47.31843" lon="-2.29077">
        <ele>27.200000762939</ele>
        <time>2020-07-02T09:11:21.000Z</time>
      </trkpt>
      <trkpt lat="47.31847" lon="-2.29052">
        <ele>26.799999237061</ele>
        <time>2020-07-02T09:11:23.000Z</time>
      </trkpt>
      <trkpt lat="47.31849" lon="-2.2904">
        <ele>26.39999961853</ele>
        <time>2020-07-02T09:11:24.000Z</time>
      </trkpt>
      <trkpt lat="47.31852" lon="-2.29029">
        <ele>26</ele>
        <time>2020-07-02T09:11:25.000Z</time>
      </trkpt>
      <trkpt lat="47.31854" lon="-2.2902">
        <ele>25.60000038147</ele>
        <time>2020-07-02T09:11:26.000Z</time>
      </trkpt>
      <trkpt lat="47.31856" lon="-2.29009">
        <ele>25.200000762939</ele>
        <time>2020-07-02T09:11:27.000Z</time>
      </trkpt>
      <trkpt lat="47.31857" lon="-2.28999">
        <ele>25.200000762939</ele>
        <time>2020-07-02T09:11:28.000Z</time>
      </trkpt>
      <trkpt lat="47.31863" lon="-2.28952">
        <ele>25.200000762939</ele>
        <time>2020-07-02T09:11:33.000Z</time>
      </trkpt>
      <trkpt lat="47.31863" lon="-2.28945">
        <ele>24.60000038147</ele>
        <time>2020-07-02T09:11:34.000Z</time>
      </trkpt>
      <trkpt lat="47.31865" lon="-2.28938">
        <ele>24.200000762939</ele>
        <time>2020-07-02T09:11:35.000Z</time>
      </trkpt>
      <trkpt lat="47.31868" lon="-2.28936">
        <ele>23.799999237061</ele>
        <time>2020-07-02T09:11:36.000Z</time>
      </trkpt>
      <trkpt lat="47.31872" lon="-2.28935">
        <ele>23.200000762939</ele>
        <time>2020-07-02T09:11:37.000Z</time>
      </trkpt>
      <trkpt lat="47.31876" lon="-2.28935">
        <ele>22.799999237061</ele>
        <time>2020-07-02T09:11:38.000Z</time>
      </trkpt>
      <trkpt lat="47.31881" lon="-2.28935">
        <ele>22.799999237061</ele>
        <time>2020-07-02T09:11:39.000Z</time>
      </trkpt>
      <trkpt lat="47.31885" lon="-2.28935">
        <ele>22.799999237061</ele>
        <time>2020-07-02T09:11:40.000Z</time>
      </trkpt>
      <trkpt lat="47.31896" lon="-2.28933">
        <ele>22.799999237061</ele>
        <time>2020-07-02T09:11:42.000Z</time>
      </trkpt>
      <trkpt lat="47.31911" lon="-2.28924">
        <ele>22.799999237061</ele>
        <time>2020-07-02T09:11:45.000Z</time>
      </trkpt>
      <trkpt lat="47.31916" lon="-2.2892">
        <ele>22.799999237061</ele>
        <time>2020-07-02T09:11:46.000Z</time>
      </trkpt>
      <trkpt lat="47.31938" lon="-2.28899">
        <ele>22.799999237061</ele>
        <time>2020-07-02T09:11:51.000Z</time>
      </trkpt>
      <trkpt lat="47.31951" lon="-2.28891">
        <ele>22.799999237061</ele>
        <time>2020-07-02T09:11:54.000Z</time>
      </trkpt>
      <trkpt lat="47.31961" lon="-2.28888">
        <ele>22.39999961853</ele>
        <time>2020-07-02T09:11:56.000Z</time>
      </trkpt>
      <trkpt lat="47.31967" lon="-2.28886">
        <ele>22</ele>
        <time>2020-07-02T09:11:57.000Z</time>
      </trkpt>
      <trkpt lat="47.31972" lon="-2.28885">
        <ele>21.60000038147</ele>
        <time>2020-07-02T09:11:58.000Z</time>
      </trkpt>
      <trkpt lat="47.31977" lon="-2.28883">
        <ele>21.200000762939</ele>
        <time>2020-07-02T09:11:59.000Z</time>
      </trkpt>
      <trkpt lat="47.31981" lon="-2.28882">
        <ele>20.799999237061</ele>
        <time>2020-07-02T09:12:00.000Z</time>
      </trkpt>
      <trkpt lat="47.32" lon="-2.28878">
        <ele>20.799999237061</ele>
        <time>2020-07-02T09:12:04.000Z</time>
      </trkpt>
      <trkpt lat="47.32014" lon="-2.28872">
        <ele>20.799999237061</ele>
        <time>2020-07-02T09:12:07.000Z</time>
      </trkpt>
      <trkpt lat="47.32023" lon="-2.28866">
        <ele>20.799999237061</ele>
        <time>2020-07-02T09:12:09.000Z</time>
      </trkpt>
      <trkpt lat="47.32026" lon="-2.28863">
        <ele>20.799999237061</ele>
        <time>2020-07-02T09:12:10.000Z</time>
      </trkpt>
      <trkpt lat="47.32034" lon="-2.28863">
        <ele>20.799999237061</ele>
        <time>2020-07-02T09:12:12.000Z</time>
      </trkpt>
      <trkpt lat="47.32036" lon="-2.28868">
        <ele>20.799999237061</ele>
        <time>2020-07-02T09:12:13.000Z</time>
      </trkpt>
      <trkpt lat="47.32042" lon="-2.28893">
        <ele>20.799999237061</ele>
        <time>2020-07-02T09:12:17.000Z</time>
      </trkpt>
      <trkpt lat="47.32043" lon="-2.289">
        <ele>20.799999237061</ele>
        <time>2020-07-02T09:12:18.000Z</time>
      </trkpt>
      <trkpt lat="47.32046" lon="-2.28923">
        <ele>20.799999237061</ele>
        <time>2020-07-02T09:12:21.000Z</time>
      </trkpt>
      <trkpt lat="47.32048" lon="-2.2893">
        <ele>20.799999237061</ele>
        <time>2020-07-02T09:12:22.000Z</time>
      </trkpt>
      <trkpt lat="47.32056" lon="-2.2894">
        <ele>20.799999237061</ele>
        <time>2020-07-02T09:12:24.000Z</time>
      </trkpt>
      <trkpt lat="47.32065" lon="-2.28947">
        <ele>20.799999237061</ele>
        <time>2020-07-02T09:12:26.000Z</time>
      </trkpt>
      <trkpt lat="47.32075" lon="-2.28952">
        <ele>20.799999237061</ele>
        <time>2020-07-02T09:12:28.000Z</time>
      </trkpt>
      <trkpt lat="47.32095" lon="-2.28962">
        <ele>20.799999237061</ele>
        <time>2020-07-02T09:12:32.000Z</time>
      </trkpt>
      <trkpt lat="47.32099" lon="-2.28966">
        <ele>20.799999237061</ele>
        <time>2020-07-02T09:12:33.000Z</time>
      </trkpt>
      <trkpt lat="47.3211" lon="-2.28986">
        <ele>20.799999237061</ele>
        <time>2020-07-02T09:12:36.000Z</time>
      </trkpt>
      <trkpt lat="47.32113" lon="-2.28992">
        <ele>21.60000038147</ele>
        <time>2020-07-02T09:12:37.000Z</time>
      </trkpt>
      <trkpt lat="47.32116" lon="-2.28998">
        <ele>22</ele>
        <time>2020-07-02T09:12:38.000Z</time>
      </trkpt>
      <trkpt lat="47.32119" lon="-2.29004">
        <ele>22.39999961853</ele>
        <time>2020-07-02T09:12:39.000Z</time>
      </trkpt>
      <trkpt lat="47.32122" lon="-2.2901">
        <ele>22.799999237061</ele>
        <time>2020-07-02T09:12:40.000Z</time>
      </trkpt>
      <trkpt lat="47.32124" lon="-2.29017">
        <ele>22.799999237061</ele>
        <time>2020-07-02T09:12:41.000Z</time>
      </trkpt>
      <trkpt lat="47.32136" lon="-2.29054">
        <ele>22.799999237061</ele>
        <time>2020-07-02T09:12:46.000Z</time>
      </trkpt>
      <trkpt lat="47.32141" lon="-2.29067">
        <ele>22.799999237061</ele>
        <time>2020-07-02T09:12:48.000Z</time>
      </trkpt>
      <trkpt lat="47.32152" lon="-2.29087">
        <ele>23.39999961853</ele>
        <time>2020-07-02T09:12:51.000Z</time>
      </trkpt>
      <trkpt lat="47.32157" lon="-2.29094">
        <ele>23.799999237061</ele>
        <time>2020-07-02T09:12:52.000Z</time>
      </trkpt>
      <trkpt lat="47.32162" lon="-2.291">
        <ele>24.200000762939</ele>
        <time>2020-07-02T09:12:53.000Z</time>
      </trkpt>
      <trkpt lat="47.32168" lon="-2.29105">
        <ele>24.60000038147</ele>
        <time>2020-07-02T09:12:54.000Z</time>
      </trkpt>
      <trkpt lat="47.32173" lon="-2.29111">
        <ele>25</ele>
        <time>2020-07-02T09:12:55.000Z</time>
      </trkpt>
      <trkpt lat="47.32212" lon="-2.29155">
        <ele>25</ele>
        <time>2020-07-02T09:13:02.000Z</time>
      </trkpt>
      <trkpt lat="47.32222" lon="-2.2917">
        <ele>25</ele>
        <time>2020-07-02T09:13:04.000Z</time>
      </trkpt>
      <trkpt lat="47.32231" lon="-2.29186">
        <ele>25</ele>
        <time>2020-07-02T09:13:06.000Z</time>
      </trkpt>
      <trkpt lat="47.32235" lon="-2.29194">
        <ele>25</ele>
        <time>2020-07-02T09:13:07.000Z</time>
      </trkpt>
      <trkpt lat="47.3224" lon="-2.29208">
        <ele>25</ele>
        <time>2020-07-02T09:13:09.000Z</time>
      </trkpt>
      <trkpt lat="47.32246" lon="-2.29216">
        <ele>25</ele>
        <time>2020-07-02T09:13:11.000Z</time>
      </trkpt>
      <trkpt lat="47.32249" lon="-2.29217">
        <ele>24.60000038147</ele>
        <time>2020-07-02T09:13:12.000Z</time>
      </trkpt>
      <trkpt lat="47.32252" lon="-2.29217">
        <ele>24</ele>
        <time>2020-07-02T09:13:13.000Z</time>
      </trkpt>
      <trkpt lat="47.32256" lon="-2.29216">
        <ele>23.60000038147</ele>
        <time>2020-07-02T09:13:14.000Z</time>
      </trkpt>
      <trkpt lat="47.3226" lon="-2.29215">
        <ele>23.200000762939</ele>
        <time>2020-07-02T09:13:15.000Z</time>
      </trkpt>
      <trkpt lat="47.32263" lon="-2.29213">
        <ele>22.60000038147</ele>
        <time>2020-07-02T09:13:16.000Z</time>
      </trkpt>
      <trkpt lat="47.32282" lon="-2.29209">
        <ele>22.60000038147</ele>
        <time>2020-07-02T09:13:21.000Z</time>
      </trkpt>
      <trkpt lat="47.32303" lon="-2.2921">
        <ele>22.60000038147</ele>
        <time>2020-07-02T09:13:26.000Z</time>
      </trkpt>
      <trkpt lat="47.32324" lon="-2.29219">
        <ele>22.60000038147</ele>
        <time>2020-07-02T09:13:31.000Z</time>
      </trkpt>
      <trkpt lat="47.32348" lon="-2.29233">
        <ele>22.60000038147</ele>
        <time>2020-07-02T09:13:37.000Z</time>
      </trkpt>
      <trkpt lat="47.32377" lon="-2.29249">
        <ele>22.60000038147</ele>
        <time>2020-07-02T09:13:44.000Z</time>
      </trkpt>
      <trkpt lat="47.32401" lon="-2.29263">
        <ele>22.60000038147</ele>
        <time>2020-07-02T09:13:50.000Z</time>
      </trkpt>
      <trkpt lat="47.32407" lon="-2.29271">
        <ele>22.60000038147</ele>
        <time>2020-07-02T09:13:52.000Z</time>
      </trkpt>
      <trkpt lat="47.32413" lon="-2.29294">
        <ele>22.60000038147</ele>
        <time>2020-07-02T09:13:56.000Z</time>
      </trkpt>
      <trkpt lat="47.32414" lon="-2.293">
        <ele>22.60000038147</ele>
        <time>2020-07-02T09:13:57.000Z</time>
      </trkpt>
      <trkpt lat="47.32421" lon="-2.29338">
        <ele>22.60000038147</ele>
        <time>2020-07-02T09:14:03.000Z</time>
      </trkpt>
      <trkpt lat="47.32422" lon="-2.29344">
        <ele>22.60000038147</ele>
        <time>2020-07-02T09:14:04.000Z</time>
      </trkpt>
      <trkpt lat="47.32425" lon="-2.29373">
        <ele>22.60000038147</ele>
        <time>2020-07-02T09:14:08.000Z</time>
      </trkpt>
      <trkpt lat="47.32426" lon="-2.29381">
        <ele>22.60000038147</ele>
        <time>2020-07-02T09:14:09.000Z</time>
      </trkpt>
      <trkpt lat="47.32434" lon="-2.29414">
        <ele>22.60000038147</ele>
        <time>2020-07-02T09:14:14.000Z</time>
      </trkpt>
      <trkpt lat="47.32435" lon="-2.2942">
        <ele>22.60000038147</ele>
        <time>2020-07-02T09:14:15.000Z</time>
      </trkpt>
      <trkpt lat="47.32437" lon="-2.29433">
        <ele>23.200000762939</ele>
        <time>2020-07-02T09:14:17.000Z</time>
      </trkpt>
      <trkpt lat="47.32437" lon="-2.29439">
        <ele>23.60000038147</ele>
        <time>2020-07-02T09:14:18.000Z</time>
      </trkpt>
      <trkpt lat="47.32438" lon="-2.29445">
        <ele>24</ele>
        <time>2020-07-02T09:14:19.000Z</time>
      </trkpt>
      <trkpt lat="47.32438" lon="-2.29452">
        <ele>24.60000038147</ele>
        <time>2020-07-02T09:14:20.000Z</time>
      </trkpt>
      <trkpt lat="47.32439" lon="-2.29459">
        <ele>25</ele>
        <time>2020-07-02T09:14:21.000Z</time>
      </trkpt>
      <trkpt lat="47.32451" lon="-2.29501">
        <ele>25</ele>
        <time>2020-07-02T09:14:27.000Z</time>
      </trkpt>
      <trkpt lat="47.32457" lon="-2.29521">
        <ele>25.39999961853</ele>
        <time>2020-07-02T09:14:30.000Z</time>
      </trkpt>
      <trkpt lat="47.32459" lon="-2.29528">
        <ele>25.799999237061</ele>
        <time>2020-07-02T09:14:31.000Z</time>
      </trkpt>
      <trkpt lat="47.32461" lon="-2.29535">
        <ele>26.200000762939</ele>
        <time>2020-07-02T09:14:32.000Z</time>
      </trkpt>
      <trkpt lat="47.32462" lon="-2.29541">
        <ele>26.60000038147</ele>
        <time>2020-07-02T09:14:33.000Z</time>
      </trkpt>
      <trkpt lat="47.32464" lon="-2.29548">
        <ele>27.200000762939</ele>
        <time>2020-07-02T09:14:34.000Z</time>
      </trkpt>
      <trkpt lat="47.3247" lon="-2.29565">
        <ele>27.60000038147</ele>
        <time>2020-07-02T09:14:37.000Z</time>
      </trkpt>
      <trkpt lat="47.32472" lon="-2.29571">
        <ele>28</ele>
        <time>2020-07-02T09:14:38.000Z</time>
      </trkpt>
      <trkpt lat="47.32474" lon="-2.29577">
        <ele>28.39999961853</ele>
        <time>2020-07-02T09:14:39.000Z</time>
      </trkpt>
      <trkpt lat="47.32476" lon="-2.29582">
        <ele>28.799999237061</ele>
        <time>2020-07-02T09:14:40.000Z</time>
      </trkpt>
      <trkpt lat="47.32478" lon="-2.29588">
        <ele>29.200000762939</ele>
        <time>2020-07-02T09:14:41.000Z</time>
      </trkpt>
      <trkpt lat="47.32483" lon="-2.29606">
        <ele>29.200000762939</ele>
        <time>2020-07-02T09:14:44.000Z</time>
      </trkpt>
      <trkpt lat="47.32487" lon="-2.29618">
        <ele>29.60000038147</ele>
        <time>2020-07-02T09:14:46.000Z</time>
      </trkpt>
      <trkpt lat="47.32488" lon="-2.29623">
        <ele>30</ele>
        <time>2020-07-02T09:14:47.000Z</time>
      </trkpt>
      <trkpt lat="47.32489" lon="-2.2963">
        <ele>30.39999961853</ele>
        <time>2020-07-02T09:14:48.000Z</time>
      </trkpt>
      <trkpt lat="47.32491" lon="-2.29636">
        <ele>30.799999237061</ele>
        <time>2020-07-02T09:14:49.000Z</time>
      </trkpt>
      <trkpt lat="47.32492" lon="-2.29642">
        <ele>31.200000762939</ele>
        <time>2020-07-02T09:14:50.000Z</time>
      </trkpt>
      <trkpt lat="47.32496" lon="-2.29656">
        <ele>31.200000762939</ele>
        <time>2020-07-02T09:14:52.000Z</time>
      </trkpt>
      <trkpt lat="47.32502" lon="-2.29676">
        <ele>31.799999237061</ele>
        <time>2020-07-02T09:14:55.000Z</time>
      </trkpt>
      <trkpt lat="47.32503" lon="-2.29683">
        <ele>32.200000762939</ele>
        <time>2020-07-02T09:14:56.000Z</time>
      </trkpt>
      <trkpt lat="47.32505" lon="-2.29689">
        <ele>32.599998474121</ele>
        <time>2020-07-02T09:14:57.000Z</time>
      </trkpt>
      <trkpt lat="47.32507" lon="-2.29697">
        <ele>33</ele>
        <time>2020-07-02T09:14:58.000Z</time>
      </trkpt>
      <trkpt lat="47.32508" lon="-2.29703">
        <ele>33.400001525879</ele>
        <time>2020-07-02T09:14:59.000Z</time>
      </trkpt>
      <trkpt lat="47.3251" lon="-2.2971">
        <ele>33.400001525879</ele>
        <time>2020-07-02T09:15:00.000Z</time>
      </trkpt>
      <trkpt lat="47.32518" lon="-2.29748">
        <ele>33.799999237061</ele>
        <time>2020-07-02T09:15:06.000Z</time>
      </trkpt>
      <trkpt lat="47.3252" lon="-2.29752">
        <ele>34.200000762939</ele>
        <time>2020-07-02T09:15:07.000Z</time>
      </trkpt>
      <trkpt lat="47.32522" lon="-2.29757">
        <ele>34.599998474121</ele>
        <time>2020-07-02T09:15:08.000Z</time>
      </trkpt>
      <trkpt lat="47.32523" lon="-2.29761">
        <ele>35</ele>
        <time>2020-07-02T09:15:09.000Z</time>
      </trkpt>
      <trkpt lat="47.32524" lon="-2.29764">
        <ele>35.400001525879</ele>
        <time>2020-07-02T09:15:10.000Z</time>
      </trkpt>
      <trkpt lat="47.32528" lon="-2.29776">
        <ele>35.400001525879</ele>
        <time>2020-07-02T09:15:13.000Z</time>
      </trkpt>
      <trkpt lat="47.32528" lon="-2.29784">
        <ele>35.400001525879</ele>
        <time>2020-07-02T09:15:15.000Z</time>
      </trkpt>
      <trkpt lat="47.32525" lon="-2.29789">
        <ele>35.400001525879</ele>
        <time>2020-07-02T09:15:17.000Z</time>
      </trkpt>
      <trkpt lat="47.3252" lon="-2.29795">
        <ele>35.400001525879</ele>
        <time>2020-07-02T09:15:19.000Z</time>
      </trkpt>
      <trkpt lat="47.32509" lon="-2.29805">
        <ele>35.400001525879</ele>
        <time>2020-07-02T09:15:22.000Z</time>
      </trkpt>
      <trkpt lat="47.32485" lon="-2.29827">
        <ele>35.400001525879</ele>
        <time>2020-07-02T09:15:28.000Z</time>
      </trkpt>
      <trkpt lat="47.32458" lon="-2.29851">
        <ele>35.400001525879</ele>
        <time>2020-07-02T09:15:34.000Z</time>
      </trkpt>
      <trkpt lat="47.32447" lon="-2.29877">
        <ele>35.400001525879</ele>
        <time>2020-07-02T09:15:38.000Z</time>
      </trkpt>
      <trkpt lat="47.3245" lon="-2.29909">
        <ele>35.400001525879</ele>
        <time>2020-07-02T09:15:42.000Z</time>
      </trkpt>
      <trkpt lat="47.32451" lon="-2.29916">
        <ele>35.400001525879</ele>
        <time>2020-07-02T09:15:43.000Z</time>
      </trkpt>
      <trkpt lat="47.3245" lon="-2.29938">
        <ele>35.400001525879</ele>
        <time>2020-07-02T09:15:47.000Z</time>
      </trkpt>
      <trkpt lat="47.32448" lon="-2.29958">
        <ele>35.400001525879</ele>
        <time>2020-07-02T09:15:51.000Z</time>
      </trkpt>
      <trkpt lat="47.3246" lon="-2.29976">
        <ele>35.400001525879</ele>
        <time>2020-07-02T09:15:55.000Z</time>
      </trkpt>
      <trkpt lat="47.32477" lon="-2.30007">
        <ele>35.400001525879</ele>
        <time>2020-07-02T09:16:00.000Z</time>
      </trkpt>
      <trkpt lat="47.3248" lon="-2.30014">
        <ele>35.400001525879</ele>
        <time>2020-07-02T09:16:01.000Z</time>
      </trkpt>
      <trkpt lat="47.32487" lon="-2.30039">
        <ele>35.400001525879</ele>
        <time>2020-07-02T09:16:04.000Z</time>
      </trkpt>
      <trkpt lat="47.32489" lon="-2.30047">
        <ele>35.400001525879</ele>
        <time>2020-07-02T09:16:05.000Z</time>
      </trkpt>
      <trkpt lat="47.32495" lon="-2.30081">
        <ele>35.400001525879</ele>
        <time>2020-07-02T09:16:09.000Z</time>
      </trkpt>
      <trkpt lat="47.32496" lon="-2.30098">
        <ele>35.400001525879</ele>
        <time>2020-07-02T09:16:11.000Z</time>
      </trkpt>
      <trkpt lat="47.32498" lon="-2.30107">
        <ele>35.400001525879</ele>
        <time>2020-07-02T09:16:12.000Z</time>
      </trkpt>
      <trkpt lat="47.32504" lon="-2.30152">
        <ele>35.400001525879</ele>
        <time>2020-07-02T09:16:17.000Z</time>
      </trkpt>
      <trkpt lat="47.32508" lon="-2.30179">
        <ele>35.400001525879</ele>
        <time>2020-07-02T09:16:20.000Z</time>
      </trkpt>
      <trkpt lat="47.3251" lon="-2.30196">
        <ele>35.400001525879</ele>
        <time>2020-07-02T09:16:22.000Z</time>
      </trkpt>
      <trkpt lat="47.3252" lon="-2.30266">
        <ele>35.400001525879</ele>
        <time>2020-07-02T09:16:30.000Z</time>
      </trkpt>
      <trkpt lat="47.32532" lon="-2.30327">
        <ele>35.400001525879</ele>
        <time>2020-07-02T09:16:37.000Z</time>
      </trkpt>
      <trkpt lat="47.32532" lon="-2.30336">
        <ele>35.400001525879</ele>
        <time>2020-07-02T09:16:38.000Z</time>
      </trkpt>
      <trkpt lat="47.32537" lon="-2.3036">
        <ele>35</ele>
        <time>2020-07-02T09:16:41.000Z</time>
      </trkpt>
      <trkpt lat="47.32539" lon="-2.30369">
        <ele>34.599998474121</ele>
        <time>2020-07-02T09:16:42.000Z</time>
      </trkpt>
      <trkpt lat="47.32541" lon="-2.30377">
        <ele>33.599998474121</ele>
        <time>2020-07-02T09:16:43.000Z</time>
      </trkpt>
      <trkpt lat="47.32542" lon="-2.30385">
        <ele>33.200000762939</ele>
        <time>2020-07-02T09:16:44.000Z</time>
      </trkpt>
      <trkpt lat="47.32542" lon="-2.30393">
        <ele>33.200000762939</ele>
        <time>2020-07-02T09:16:45.000Z</time>
      </trkpt>
      <trkpt lat="47.32539" lon="-2.30399">
        <ele>33.200000762939</ele>
        <time>2020-07-02T09:16:46.000Z</time>
      </trkpt>
      <trkpt lat="47.32525" lon="-2.30408">
        <ele>33.200000762939</ele>
        <time>2020-07-02T09:16:49.000Z</time>
      </trkpt>
      <trkpt lat="47.32519" lon="-2.3041">
        <ele>33.200000762939</ele>
        <time>2020-07-02T09:16:50.000Z</time>
      </trkpt>
      <trkpt lat="47.325" lon="-2.30422">
        <ele>33.200000762939</ele>
        <time>2020-07-02T09:16:54.000Z</time>
      </trkpt>
      <trkpt lat="47.32498" lon="-2.30429">
        <ele>33.200000762939</ele>
        <time>2020-07-02T09:16:55.000Z</time>
      </trkpt>
      <trkpt lat="47.32503" lon="-2.30451">
        <ele>33.200000762939</ele>
        <time>2020-07-02T09:16:58.000Z</time>
      </trkpt>
      <trkpt lat="47.32517" lon="-2.30511">
        <ele>33.200000762939</ele>
        <time>2020-07-02T09:17:05.000Z</time>
      </trkpt>
      <trkpt lat="47.32526" lon="-2.30568">
        <ele>33.200000762939</ele>
        <time>2020-07-02T09:17:11.000Z</time>
      </trkpt>
      <trkpt lat="47.32533" lon="-2.30612">
        <ele>32.799999237061</ele>
        <time>2020-07-02T09:17:16.000Z</time>
      </trkpt>
      <trkpt lat="47.32534" lon="-2.3062">
        <ele>32.400001525879</ele>
        <time>2020-07-02T09:17:17.000Z</time>
      </trkpt>
      <trkpt lat="47.32536" lon="-2.30629">
        <ele>32</ele>
        <time>2020-07-02T09:17:18.000Z</time>
      </trkpt>
      <trkpt lat="47.32538" lon="-2.30638">
        <ele>31.60000038147</ele>
        <time>2020-07-02T09:17:19.000Z</time>
      </trkpt>
      <trkpt lat="47.3254" lon="-2.30646">
        <ele>31.200000762939</ele>
        <time>2020-07-02T09:17:20.000Z</time>
      </trkpt>
      <trkpt lat="47.32541" lon="-2.30655">
        <ele>31.200000762939</ele>
        <time>2020-07-02T09:17:21.000Z</time>
      </trkpt>
      <trkpt lat="47.32544" lon="-2.30671">
        <ele>31.200000762939</ele>
        <time>2020-07-02T09:17:23.000Z</time>
      </trkpt>
      <trkpt lat="47.32551" lon="-2.30721">
        <ele>31.200000762939</ele>
        <time>2020-07-02T09:17:29.000Z</time>
      </trkpt>
      <trkpt lat="47.32553" lon="-2.30729">
        <ele>31.200000762939</ele>
        <time>2020-07-02T09:17:30.000Z</time>
      </trkpt>
      <trkpt lat="47.32562" lon="-2.30779">
        <ele>31.200000762939</ele>
        <time>2020-07-02T09:17:36.000Z</time>
      </trkpt>
      <trkpt lat="47.32563" lon="-2.30796">
        <ele>31.200000762939</ele>
        <time>2020-07-02T09:17:38.000Z</time>
      </trkpt>
      <trkpt lat="47.32565" lon="-2.30831">
        <ele>31.200000762939</ele>
        <time>2020-07-02T09:17:42.000Z</time>
      </trkpt>
      <trkpt lat="47.32567" lon="-2.30891">
        <ele>31.200000762939</ele>
        <time>2020-07-02T09:17:48.000Z</time>
      </trkpt>
      <trkpt lat="47.32566" lon="-2.30901">
        <ele>31.200000762939</ele>
        <time>2020-07-02T09:17:49.000Z</time>
      </trkpt>
      <trkpt lat="47.32566" lon="-2.3092">
        <ele>31.200000762939</ele>
        <time>2020-07-02T09:17:51.000Z</time>
      </trkpt>
      <trkpt lat="47.32566" lon="-2.30928">
        <ele>31.200000762939</ele>
        <time>2020-07-02T09:17:52.000Z</time>
      </trkpt>
      <trkpt lat="47.32566" lon="-2.30937">
        <ele>31.200000762939</ele>
        <time>2020-07-02T09:17:53.000Z</time>
      </trkpt>
      <trkpt lat="47.32566" lon="-2.30981">
        <ele>31.200000762939</ele>
        <time>2020-07-02T09:17:58.000Z</time>
      </trkpt>
      <trkpt lat="47.3257" lon="-2.31032">
        <ele>31.200000762939</ele>
        <time>2020-07-02T09:18:04.000Z</time>
      </trkpt>
      <trkpt lat="47.32572" lon="-2.31039">
        <ele>31.200000762939</ele>
        <time>2020-07-02T09:18:05.000Z</time>
      </trkpt>
      <trkpt lat="47.32575" lon="-2.31065">
        <ele>31.200000762939</ele>
        <time>2020-07-02T09:18:08.000Z</time>
      </trkpt>
      <trkpt lat="47.32575" lon="-2.31074">
        <ele>31.200000762939</ele>
        <time>2020-07-02T09:18:09.000Z</time>
      </trkpt>
      <trkpt lat="47.32574" lon="-2.31106">
        <ele>31.200000762939</ele>
        <time>2020-07-02T09:18:12.000Z</time>
      </trkpt>
      <trkpt lat="47.32571" lon="-2.31128">
        <ele>31.200000762939</ele>
        <time>2020-07-02T09:18:14.000Z</time>
      </trkpt>
      <trkpt lat="47.3257" lon="-2.31139">
        <ele>30.799999237061</ele>
        <time>2020-07-02T09:18:15.000Z</time>
      </trkpt>
      <trkpt lat="47.32569" lon="-2.3115">
        <ele>30.39999961853</ele>
        <time>2020-07-02T09:18:16.000Z</time>
      </trkpt>
      <trkpt lat="47.32567" lon="-2.31161">
        <ele>30</ele>
        <time>2020-07-02T09:18:17.000Z</time>
      </trkpt>
      <trkpt lat="47.32566" lon="-2.31171">
        <ele>29.60000038147</ele>
        <time>2020-07-02T09:18:18.000Z</time>
      </trkpt>
      <trkpt lat="47.32565" lon="-2.31182">
        <ele>29.200000762939</ele>
        <time>2020-07-02T09:18:19.000Z</time>
      </trkpt>
      <trkpt lat="47.32565" lon="-2.31193">
        <ele>29.200000762939</ele>
        <time>2020-07-02T09:18:20.000Z</time>
      </trkpt>
      <trkpt lat="47.32572" lon="-2.31211">
        <ele>29.200000762939</ele>
        <time>2020-07-02T09:18:22.000Z</time>
      </trkpt>
      <trkpt lat="47.32573" lon="-2.3124">
        <ele>29.200000762939</ele>
        <time>2020-07-02T09:18:25.000Z</time>
      </trkpt>
      <trkpt lat="47.32573" lon="-2.31252">
        <ele>29.200000762939</ele>
        <time>2020-07-02T09:18:26.000Z</time>
      </trkpt>
      <trkpt lat="47.32571" lon="-2.31292">
        <ele>29.200000762939</ele>
        <time>2020-07-02T09:18:30.000Z</time>
      </trkpt>
      <trkpt lat="47.3257" lon="-2.3131">
        <ele>29.200000762939</ele>
        <time>2020-07-02T09:18:32.000Z</time>
      </trkpt>
      <trkpt lat="47.32563" lon="-2.31325">
        <ele>29.200000762939</ele>
        <time>2020-07-02T09:18:34.000Z</time>
      </trkpt>
      <trkpt lat="47.32557" lon="-2.31358">
        <ele>29.200000762939</ele>
        <time>2020-07-02T09:18:38.000Z</time>
      </trkpt>
      <trkpt lat="47.32554" lon="-2.31397">
        <ele>29.200000762939</ele>
        <time>2020-07-02T09:18:44.000Z</time>
      </trkpt>
      <trkpt lat="47.32553" lon="-2.31421">
        <ele>29.200000762939</ele>
        <time>2020-07-02T09:18:49.000Z</time>
      </trkpt>
      <trkpt lat="47.32556" lon="-2.3144">
        <ele>29.200000762939</ele>
        <time>2020-07-02T09:18:54.000Z</time>
      </trkpt>
      <trkpt lat="47.32558" lon="-2.31462">
        <ele>29.200000762939</ele>
        <time>2020-07-02T09:18:59.000Z</time>
      </trkpt>
      <trkpt lat="47.32559" lon="-2.31496">
        <ele>29.200000762939</ele>
        <time>2020-07-02T09:19:06.000Z</time>
      </trkpt>
      <trkpt lat="47.32557" lon="-2.31523">
        <ele>29.200000762939</ele>
        <time>2020-07-02T09:19:11.000Z</time>
      </trkpt>
      <trkpt lat="47.32557" lon="-2.3157">
        <ele>29.200000762939</ele>
        <time>2020-07-02T09:19:18.000Z</time>
      </trkpt>
      <trkpt lat="47.32557" lon="-2.31578">
        <ele>29.200000762939</ele>
        <time>2020-07-02T09:19:19.000Z</time>
      </trkpt>
      <trkpt lat="47.3255" lon="-2.31593">
        <ele>29.200000762939</ele>
        <time>2020-07-02T09:19:22.000Z</time>
      </trkpt>
      <trkpt lat="47.32546" lon="-2.31598">
        <ele>29.200000762939</ele>
        <time>2020-07-02T09:19:23.000Z</time>
      </trkpt>
      <trkpt lat="47.32535" lon="-2.31614">
        <ele>29.200000762939</ele>
        <time>2020-07-02T09:19:26.000Z</time>
      </trkpt>
      <trkpt lat="47.32528" lon="-2.31625">
        <ele>29.200000762939</ele>
        <time>2020-07-02T09:19:28.000Z</time>
      </trkpt>
      <trkpt lat="47.32524" lon="-2.3163">
        <ele>29.200000762939</ele>
        <time>2020-07-02T09:19:29.000Z</time>
      </trkpt>
      <trkpt lat="47.32511" lon="-2.31648">
        <ele>29.200000762939</ele>
        <time>2020-07-02T09:19:33.000Z</time>
      </trkpt>
      <trkpt lat="47.32508" lon="-2.3167">
        <ele>29.200000762939</ele>
        <time>2020-07-02T09:19:36.000Z</time>
      </trkpt>
      <trkpt lat="47.32509" lon="-2.31701">
        <ele>29.200000762939</ele>
        <time>2020-07-02T09:19:40.000Z</time>
      </trkpt>
      <trkpt lat="47.32509" lon="-2.31708">
        <ele>29.200000762939</ele>
        <time>2020-07-02T09:19:41.000Z</time>
      </trkpt>
      <trkpt lat="47.32513" lon="-2.3176">
        <ele>29.200000762939</ele>
        <time>2020-07-02T09:19:47.000Z</time>
      </trkpt>
      <trkpt lat="47.32519" lon="-2.31825">
        <ele>29.200000762939</ele>
        <time>2020-07-02T09:19:54.000Z</time>
      </trkpt>
      <trkpt lat="47.3252" lon="-2.31845">
        <ele>29.200000762939</ele>
        <time>2020-07-02T09:19:56.000Z</time>
      </trkpt>
      <trkpt lat="47.32519" lon="-2.31854">
        <ele>29.200000762939</ele>
        <time>2020-07-02T09:19:57.000Z</time>
      </trkpt>
      <trkpt lat="47.32515" lon="-2.31893">
        <ele>29.200000762939</ele>
        <time>2020-07-02T09:20:01.000Z</time>
      </trkpt>
      <trkpt lat="47.32508" lon="-2.31957">
        <ele>29.200000762939</ele>
        <time>2020-07-02T09:20:08.000Z</time>
      </trkpt>
      <trkpt lat="47.32504" lon="-2.32019">
        <ele>29.200000762939</ele>
        <time>2020-07-02T09:20:15.000Z</time>
      </trkpt>
      <trkpt lat="47.32501" lon="-2.32066">
        <ele>29.200000762939</ele>
        <time>2020-07-02T09:20:21.000Z</time>
      </trkpt>
      <trkpt lat="47.325" lon="-2.32073">
        <ele>29.200000762939</ele>
        <time>2020-07-02T09:20:22.000Z</time>
      </trkpt>
      <trkpt lat="47.32499" lon="-2.32088">
        <ele>28.799999237061</ele>
        <time>2020-07-02T09:20:25.000Z</time>
      </trkpt>
      <trkpt lat="47.32501" lon="-2.32091">
        <ele>28.200000762939</ele>
        <time>2020-07-02T09:20:26.000Z</time>
      </trkpt>
      <trkpt lat="47.32503" lon="-2.32092">
        <ele>27.799999237061</ele>
        <time>2020-07-02T09:20:27.000Z</time>
      </trkpt>
      <trkpt lat="47.32506" lon="-2.32093">
        <ele>27.39999961853</ele>
        <time>2020-07-02T09:20:28.000Z</time>
      </trkpt>
      <trkpt lat="47.32508" lon="-2.32094">
        <ele>26.799999237061</ele>
        <time>2020-07-02T09:20:29.000Z</time>
      </trkpt>
      <trkpt lat="47.32522" lon="-2.32094">
        <ele>26.799999237061</ele>
        <time>2020-07-02T09:20:35.000Z</time>
      </trkpt>
      <trkpt lat="47.32535" lon="-2.32092">
        <ele>26.799999237061</ele>
        <time>2020-07-02T09:20:41.000Z</time>
      </trkpt>
      <trkpt lat="47.32548" lon="-2.32092">
        <ele>26.799999237061</ele>
        <time>2020-07-02T09:20:47.000Z</time>
      </trkpt>
      <trkpt lat="47.32561" lon="-2.3209">
        <ele>26.799999237061</ele>
        <time>2020-07-02T09:20:53.000Z</time>
      </trkpt>
      <trkpt lat="47.3258" lon="-2.3209">
        <ele>26.799999237061</ele>
        <time>2020-07-02T09:21:00.000Z</time>
      </trkpt>
      <trkpt lat="47.32591" lon="-2.321">
        <ele>26.39999961853</ele>
        <time>2020-07-02T09:21:05.000Z</time>
      </trkpt>
      <trkpt lat="47.32591" lon="-2.32103">
        <ele>26</ele>
        <time>2020-07-02T09:21:06.000Z</time>
      </trkpt>
      <trkpt lat="47.32592" lon="-2.32105">
        <ele>25.60000038147</ele>
        <time>2020-07-02T09:21:07.000Z</time>
      </trkpt>
      <trkpt lat="47.32591" lon="-2.32106">
        <ele>25</ele>
        <time>2020-07-02T09:21:08.000Z</time>
      </trkpt>
      <trkpt lat="47.32591" lon="-2.32107">
        <ele>24.60000038147</ele>
        <time>2020-07-02T09:21:09.000Z</time>
      </trkpt>
      <trkpt lat="47.32591" lon="-2.32108">
        <ele>24.60000038147</ele>
        <time>2020-07-02T09:21:16.000Z</time>
      </trkpt>
      <trkpt lat="47.32586" lon="-2.32129">
        <ele>24.60000038147</ele>
        <time>2020-07-02T09:21:20.000Z</time>
      </trkpt>
      <trkpt lat="47.32575" lon="-2.32169">
        <ele>24.60000038147</ele>
        <time>2020-07-02T09:21:25.000Z</time>
      </trkpt>
      <trkpt lat="47.32567" lon="-2.32195">
        <ele>24.200000762939</ele>
        <time>2020-07-02T09:21:28.000Z</time>
      </trkpt>
      <trkpt lat="47.32564" lon="-2.32204">
        <ele>23.799999237061</ele>
        <time>2020-07-02T09:21:29.000Z</time>
      </trkpt>
      <trkpt lat="47.32561" lon="-2.32212">
        <ele>23.39999961853</ele>
        <time>2020-07-02T09:21:30.000Z</time>
      </trkpt>
      <trkpt lat="47.32559" lon="-2.3222">
        <ele>23</ele>
        <time>2020-07-02T09:21:31.000Z</time>
      </trkpt>
      <trkpt lat="47.32556" lon="-2.32228">
        <ele>22.60000038147</ele>
        <time>2020-07-02T09:21:32.000Z</time>
      </trkpt>
      <trkpt lat="47.32544" lon="-2.32269">
        <ele>22.60000038147</ele>
        <time>2020-07-02T09:21:37.000Z</time>
      </trkpt>
      <trkpt lat="47.32535" lon="-2.32304">
        <ele>23.200000762939</ele>
        <time>2020-07-02T09:21:42.000Z</time>
      </trkpt>
      <trkpt lat="47.32536" lon="-2.3231">
        <ele>23.60000038147</ele>
        <time>2020-07-02T09:21:43.000Z</time>
      </trkpt>
      <trkpt lat="47.32539" lon="-2.32314">
        <ele>24.200000762939</ele>
        <time>2020-07-02T09:21:44.000Z</time>
      </trkpt>
      <trkpt lat="47.32544" lon="-2.32317">
        <ele>24.799999237061</ele>
        <time>2020-07-02T09:21:45.000Z</time>
      </trkpt>
      <trkpt lat="47.32549" lon="-2.32317">
        <ele>25.200000762939</ele>
        <time>2020-07-02T09:21:46.000Z</time>
      </trkpt>
      <trkpt lat="47.32559" lon="-2.32315">
        <ele>25.200000762939</ele>
        <time>2020-07-02T09:21:48.000Z</time>
      </trkpt>
      <trkpt lat="47.32576" lon="-2.32311">
        <ele>25.200000762939</ele>
        <time>2020-07-02T09:21:51.000Z</time>
      </trkpt>
      <trkpt lat="47.32611" lon="-2.32306">
        <ele>25.200000762939</ele>
        <time>2020-07-02T09:21:57.000Z</time>
      </trkpt>
      <trkpt lat="47.32647" lon="-2.32307">
        <ele>25.200000762939</ele>
        <time>2020-07-02T09:22:03.000Z</time>
      </trkpt>
      <trkpt lat="47.32685" lon="-2.32315">
        <ele>25.200000762939</ele>
        <time>2020-07-02T09:22:09.000Z</time>
      </trkpt>
      <trkpt lat="47.32733" lon="-2.32338">
        <ele>25.200000762939</ele>
        <time>2020-07-02T09:22:16.000Z</time>
      </trkpt>
      <trkpt lat="47.32761" lon="-2.32356">
        <ele>24.799999237061</ele>
        <time>2020-07-02T09:22:20.000Z</time>
      </trkpt>
      <trkpt lat="47.32769" lon="-2.32361">
        <ele>24.39999961853</ele>
        <time>2020-07-02T09:22:21.000Z</time>
      </trkpt>
      <trkpt lat="47.32776" lon="-2.32365">
        <ele>24</ele>
        <time>2020-07-02T09:22:22.000Z</time>
      </trkpt>
      <trkpt lat="47.32784" lon="-2.3237">
        <ele>23.39999961853</ele>
        <time>2020-07-02T09:22:23.000Z</time>
      </trkpt>
      <trkpt lat="47.32791" lon="-2.32374">
        <ele>23</ele>
        <time>2020-07-02T09:22:24.000Z</time>
      </trkpt>
      <trkpt lat="47.32805" lon="-2.32386">
        <ele>23</ele>
        <time>2020-07-02T09:22:26.000Z</time>
      </trkpt>
      <trkpt lat="47.32817" lon="-2.32399">
        <ele>23</ele>
        <time>2020-07-02T09:22:28.000Z</time>
      </trkpt>
      <trkpt lat="47.32857" lon="-2.32432">
        <ele>23</ele>
        <time>2020-07-02T09:22:34.000Z</time>
      </trkpt>
      <trkpt lat="47.32893" lon="-2.32455">
        <ele>23</ele>
        <time>2020-07-02T09:22:40.000Z</time>
      </trkpt>
      <trkpt lat="47.32905" lon="-2.32476">
        <ele>23</ele>
        <time>2020-07-02T09:22:43.000Z</time>
      </trkpt>
      <trkpt lat="47.32908" lon="-2.32484">
        <ele>23</ele>
        <time>2020-07-02T09:22:44.000Z</time>
      </trkpt>
      <trkpt lat="47.3291" lon="-2.32493">
        <ele>23</ele>
        <time>2020-07-02T09:22:45.000Z</time>
      </trkpt>
      <trkpt lat="47.32917" lon="-2.3252">
        <ele>23</ele>
        <time>2020-07-02T09:22:48.000Z</time>
      </trkpt>
      <trkpt lat="47.3292" lon="-2.3255">
        <ele>23</ele>
        <time>2020-07-02T09:22:51.000Z</time>
      </trkpt>
      <trkpt lat="47.32919" lon="-2.3257">
        <ele>23</ele>
        <time>2020-07-02T09:22:53.000Z</time>
      </trkpt>
      <trkpt lat="47.32919" lon="-2.32618">
        <ele>23</ele>
        <time>2020-07-02T09:22:58.000Z</time>
      </trkpt>
      <trkpt lat="47.3292" lon="-2.32625">
        <ele>23</ele>
        <time>2020-07-02T09:22:59.000Z</time>
      </trkpt>
      <trkpt lat="47.32932" lon="-2.32637">
        <ele>23</ele>
        <time>2020-07-02T09:23:02.000Z</time>
      </trkpt>
      <trkpt lat="47.32951" lon="-2.32638">
        <ele>23</ele>
        <time>2020-07-02T09:23:05.000Z</time>
      </trkpt>
      <trkpt lat="47.32963" lon="-2.32635">
        <ele>23</ele>
        <time>2020-07-02T09:23:07.000Z</time>
      </trkpt>
      <trkpt lat="47.3298" lon="-2.32629">
        <ele>23</ele>
        <time>2020-07-02T09:23:10.000Z</time>
      </trkpt>
      <trkpt lat="47.32991" lon="-2.32622">
        <ele>22.60000038147</ele>
        <time>2020-07-02T09:23:12.000Z</time>
      </trkpt>
      <trkpt lat="47.32997" lon="-2.3262">
        <ele>22.200000762939</ele>
        <time>2020-07-02T09:23:13.000Z</time>
      </trkpt>
      <trkpt lat="47.33003" lon="-2.32621">
        <ele>21.60000038147</ele>
        <time>2020-07-02T09:23:14.000Z</time>
      </trkpt>
      <trkpt lat="47.33009" lon="-2.32622">
        <ele>21.200000762939</ele>
        <time>2020-07-02T09:23:15.000Z</time>
      </trkpt>
      <trkpt lat="47.33015" lon="-2.32624">
        <ele>20.799999237061</ele>
        <time>2020-07-02T09:23:16.000Z</time>
      </trkpt>
      <trkpt lat="47.33027" lon="-2.32627">
        <ele>20.799999237061</ele>
        <time>2020-07-02T09:23:18.000Z</time>
      </trkpt>
      <trkpt lat="47.33034" lon="-2.32627">
        <ele>20.799999237061</ele>
        <time>2020-07-02T09:23:19.000Z</time>
      </trkpt>
      <trkpt lat="47.33051" lon="-2.32616">
        <ele>20.799999237061</ele>
        <time>2020-07-02T09:23:22.000Z</time>
      </trkpt>
      <trkpt lat="47.33087" lon="-2.32586">
        <ele>20.799999237061</ele>
        <time>2020-07-02T09:23:28.000Z</time>
      </trkpt>
      <trkpt lat="47.33106" lon="-2.3257">
        <ele>21.200000762939</ele>
        <time>2020-07-02T09:23:31.000Z</time>
      </trkpt>
      <trkpt lat="47.33112" lon="-2.32564">
        <ele>21.60000038147</ele>
        <time>2020-07-02T09:23:32.000Z</time>
      </trkpt>
      <trkpt lat="47.33118" lon="-2.32559">
        <ele>22</ele>
        <time>2020-07-02T09:23:33.000Z</time>
      </trkpt>
      <trkpt lat="47.33124" lon="-2.32555">
        <ele>22.39999961853</ele>
        <time>2020-07-02T09:23:34.000Z</time>
      </trkpt>
      <trkpt lat="47.33131" lon="-2.3255">
        <ele>22.799999237061</ele>
        <time>2020-07-02T09:23:35.000Z</time>
      </trkpt>
      <trkpt lat="47.3316" lon="-2.32528">
        <ele>22.799999237061</ele>
        <time>2020-07-02T09:23:40.000Z</time>
      </trkpt>
      <trkpt lat="47.33171" lon="-2.3252">
        <ele>22.799999237061</ele>
        <time>2020-07-02T09:23:42.000Z</time>
      </trkpt>
      <trkpt lat="47.33189" lon="-2.32511">
        <ele>22.799999237061</ele>
        <time>2020-07-02T09:23:45.000Z</time>
      </trkpt>
      <trkpt lat="47.33201" lon="-2.32505">
        <ele>23.200000762939</ele>
        <time>2020-07-02T09:23:47.000Z</time>
      </trkpt>
      <trkpt lat="47.33207" lon="-2.32503">
        <ele>23.60000038147</ele>
        <time>2020-07-02T09:23:48.000Z</time>
      </trkpt>
      <trkpt lat="47.33213" lon="-2.325">
        <ele>24</ele>
        <time>2020-07-02T09:23:49.000Z</time>
      </trkpt>
      <trkpt lat="47.33219" lon="-2.32496">
        <ele>24.39999961853</ele>
        <time>2020-07-02T09:23:50.000Z</time>
      </trkpt>
      <trkpt lat="47.33226" lon="-2.32494">
        <ele>25</ele>
        <time>2020-07-02T09:23:51.000Z</time>
      </trkpt>
      <trkpt lat="47.33274" lon="-2.32474">
        <ele>25</ele>
        <time>2020-07-02T09:23:58.000Z</time>
      </trkpt>
      <trkpt lat="47.33314" lon="-2.32455">
        <ele>25</ele>
        <time>2020-07-02T09:24:04.000Z</time>
      </trkpt>
      <trkpt lat="47.33333" lon="-2.32446">
        <ele>25</ele>
        <time>2020-07-02T09:24:07.000Z</time>
      </trkpt>
      <trkpt lat="47.33344" lon="-2.32431">
        <ele>25</ele>
        <time>2020-07-02T09:24:09.000Z</time>
      </trkpt>
      <trkpt lat="47.33363" lon="-2.32409">
        <ele>25</ele>
        <time>2020-07-02T09:24:12.000Z</time>
      </trkpt>
      <trkpt lat="47.33377" lon="-2.32398">
        <ele>25</ele>
        <time>2020-07-02T09:24:14.000Z</time>
      </trkpt>
      <trkpt lat="47.33431" lon="-2.32353">
        <ele>25</ele>
        <time>2020-07-02T09:24:22.000Z</time>
      </trkpt>
      <trkpt lat="47.33439" lon="-2.32348">
        <ele>24.39999961853</ele>
        <time>2020-07-02T09:24:23.000Z</time>
      </trkpt>
      <trkpt lat="47.33446" lon="-2.32342">
        <ele>24</ele>
        <time>2020-07-02T09:24:24.000Z</time>
      </trkpt>
      <trkpt lat="47.33453" lon="-2.32337">
        <ele>23.60000038147</ele>
        <time>2020-07-02T09:24:25.000Z</time>
      </trkpt>
      <trkpt lat="47.3346" lon="-2.32333">
        <ele>23.200000762939</ele>
        <time>2020-07-02T09:24:26.000Z</time>
      </trkpt>
      <trkpt lat="47.33468" lon="-2.32328">
        <ele>22.799999237061</ele>
        <time>2020-07-02T09:24:27.000Z</time>
      </trkpt>
      <trkpt lat="47.33474" lon="-2.32325">
        <ele>22.799999237061</ele>
        <time>2020-07-02T09:24:28.000Z</time>
      </trkpt>
      <trkpt lat="47.33482" lon="-2.32322">
        <ele>22.799999237061</ele>
        <time>2020-07-02T09:24:29.000Z</time>
      </trkpt>
      <trkpt lat="47.33524" lon="-2.32303">
        <ele>22.799999237061</ele>
        <time>2020-07-02T09:24:35.000Z</time>
      </trkpt>
      <trkpt lat="47.33531" lon="-2.32302">
        <ele>22.799999237061</ele>
        <time>2020-07-02T09:24:36.000Z</time>
      </trkpt>
      <trkpt lat="47.3355" lon="-2.32302">
        <ele>22.799999237061</ele>
        <time>2020-07-02T09:24:39.000Z</time>
      </trkpt>
      <trkpt lat="47.33562" lon="-2.32299">
        <ele>22.799999237061</ele>
        <time>2020-07-02T09:24:41.000Z</time>
      </trkpt>
      <trkpt lat="47.33573" lon="-2.32294">
        <ele>22.799999237061</ele>
        <time>2020-07-02T09:24:43.000Z</time>
      </trkpt>
      <trkpt lat="47.33587" lon="-2.3229">
        <ele>23.200000762939</ele>
        <time>2020-07-02T09:24:45.000Z</time>
      </trkpt>
      <trkpt lat="47.33593" lon="-2.32289">
        <ele>23.60000038147</ele>
        <time>2020-07-02T09:24:46.000Z</time>
      </trkpt>
      <trkpt lat="47.336" lon="-2.32288">
        <ele>24</ele>
        <time>2020-07-02T09:24:47.000Z</time>
      </trkpt>
      <trkpt lat="47.33606" lon="-2.32286">
        <ele>24.39999961853</ele>
        <time>2020-07-02T09:24:48.000Z</time>
      </trkpt>
      <trkpt lat="47.33613" lon="-2.32286">
        <ele>24.799999237061</ele>
        <time>2020-07-02T09:24:49.000Z</time>
      </trkpt>
      <trkpt lat="47.33647" lon="-2.32279">
        <ele>24.799999237061</ele>
        <time>2020-07-02T09:24:54.000Z</time>
      </trkpt>
      <trkpt lat="47.33683" lon="-2.32258">
        <ele>24.799999237061</ele>
        <time>2020-07-02T09:24:59.000Z</time>
      </trkpt>
      <trkpt lat="47.33697" lon="-2.32248">
        <ele>24.799999237061</ele>
        <time>2020-07-02T09:25:01.000Z</time>
      </trkpt>
      <trkpt lat="47.33718" lon="-2.32235">
        <ele>24.799999237061</ele>
        <time>2020-07-02T09:25:04.000Z</time>
      </trkpt>
      <trkpt lat="47.33761" lon="-2.3221">
        <ele>24.799999237061</ele>
        <time>2020-07-02T09:25:10.000Z</time>
      </trkpt>
      <trkpt lat="47.33805" lon="-2.32198">
        <ele>24.799999237061</ele>
        <time>2020-07-02T09:25:16.000Z</time>
      </trkpt>
      <trkpt lat="47.33852" lon="-2.3219">
        <ele>24.799999237061</ele>
        <time>2020-07-02T09:25:22.000Z</time>
      </trkpt>
      <trkpt lat="47.33899" lon="-2.32191">
        <ele>24.39999961853</ele>
        <time>2020-07-02T09:25:28.000Z</time>
      </trkpt>
      <trkpt lat="47.33906" lon="-2.32193">
        <ele>23.799999237061</ele>
        <time>2020-07-02T09:25:29.000Z</time>
      </trkpt>
      <trkpt lat="47.33914" lon="-2.32192">
        <ele>23.39999961853</ele>
        <time>2020-07-02T09:25:30.000Z</time>
      </trkpt>
      <trkpt lat="47.33921" lon="-2.32191">
        <ele>22.799999237061</ele>
        <time>2020-07-02T09:25:31.000Z</time>
      </trkpt>
      <trkpt lat="47.33928" lon="-2.3219">
        <ele>22.39999961853</ele>
        <time>2020-07-02T09:25:32.000Z</time>
      </trkpt>
      <trkpt lat="47.33935" lon="-2.32191">
        <ele>22.39999961853</ele>
        <time>2020-07-02T09:25:33.000Z</time>
      </trkpt>
      <trkpt lat="47.33957" lon="-2.32203">
        <ele>22.39999961853</ele>
        <time>2020-07-02T09:25:36.000Z</time>
      </trkpt>
      <trkpt lat="47.33965" lon="-2.32206">
        <ele>22.39999961853</ele>
        <time>2020-07-02T09:25:37.000Z</time>
      </trkpt>
      <trkpt lat="47.33986" lon="-2.32208">
        <ele>22.39999961853</ele>
        <time>2020-07-02T09:25:40.000Z</time>
      </trkpt>
      <trkpt lat="47.33993" lon="-2.32207">
        <ele>22.39999961853</ele>
        <time>2020-07-02T09:25:41.000Z</time>
      </trkpt>
      <trkpt lat="47.34021" lon="-2.32208">
        <ele>22.39999961853</ele>
        <time>2020-07-02T09:25:45.000Z</time>
      </trkpt>
      <trkpt lat="47.34064" lon="-2.32216">
        <ele>22.39999961853</ele>
        <time>2020-07-02T09:25:51.000Z</time>
      </trkpt>
      <trkpt lat="47.34071" lon="-2.3222">
        <ele>22.39999961853</ele>
        <time>2020-07-02T09:25:52.000Z</time>
      </trkpt>
      <trkpt lat="47.34082" lon="-2.32232">
        <ele>22.39999961853</ele>
        <time>2020-07-02T09:25:54.000Z</time>
      </trkpt>
      <trkpt lat="47.34094" lon="-2.32261">
        <ele>22.39999961853</ele>
        <time>2020-07-02T09:25:58.000Z</time>
      </trkpt>
      <trkpt lat="47.34096" lon="-2.32269">
        <ele>22.39999961853</ele>
        <time>2020-07-02T09:25:59.000Z</time>
      </trkpt>
      <trkpt lat="47.34098" lon="-2.32276">
        <ele>22.799999237061</ele>
        <time>2020-07-02T09:26:00.000Z</time>
      </trkpt>
      <trkpt lat="47.341" lon="-2.32286">
        <ele>23.200000762939</ele>
        <time>2020-07-02T09:26:01.000Z</time>
      </trkpt>
      <trkpt lat="47.34102" lon="-2.32296">
        <ele>23.60000038147</ele>
        <time>2020-07-02T09:26:02.000Z</time>
      </trkpt>
      <trkpt lat="47.34104" lon="-2.32306">
        <ele>24</ele>
        <time>2020-07-02T09:26:03.000Z</time>
      </trkpt>
      <trkpt lat="47.34106" lon="-2.32316">
        <ele>24.39999961853</ele>
        <time>2020-07-02T09:26:04.000Z</time>
      </trkpt>
      <trkpt lat="47.34107" lon="-2.32326">
        <ele>24.39999961853</ele>
        <time>2020-07-02T09:26:05.000Z</time>
      </trkpt>
      <trkpt lat="47.34111" lon="-2.32345">
        <ele>25</ele>
        <time>2020-07-02T09:26:07.000Z</time>
      </trkpt>
      <trkpt lat="47.34113" lon="-2.32355">
        <ele>25.39999961853</ele>
        <time>2020-07-02T09:26:08.000Z</time>
      </trkpt>
      <trkpt lat="47.34116" lon="-2.32365">
        <ele>25.799999237061</ele>
        <time>2020-07-02T09:26:09.000Z</time>
      </trkpt>
      <trkpt lat="47.34118" lon="-2.32375">
        <ele>26.200000762939</ele>
        <time>2020-07-02T09:26:10.000Z</time>
      </trkpt>
      <trkpt lat="47.3412" lon="-2.32384">
        <ele>26.60000038147</ele>
        <time>2020-07-02T09:26:11.000Z</time>
      </trkpt>
      <trkpt lat="47.34123" lon="-2.32393">
        <ele>26.60000038147</ele>
        <time>2020-07-02T09:26:12.000Z</time>
      </trkpt>
      <trkpt lat="47.34143" lon="-2.32458">
        <ele>26.60000038147</ele>
        <time>2020-07-02T09:26:19.000Z</time>
      </trkpt>
      <trkpt lat="47.34148" lon="-2.32475">
        <ele>27</ele>
        <time>2020-07-02T09:26:21.000Z</time>
      </trkpt>
      <trkpt lat="47.3415" lon="-2.32483">
        <ele>27.39999961853</ele>
        <time>2020-07-02T09:26:22.000Z</time>
      </trkpt>
      <trkpt lat="47.34152" lon="-2.32492">
        <ele>27.799999237061</ele>
        <time>2020-07-02T09:26:23.000Z</time>
      </trkpt>
      <trkpt lat="47.34153" lon="-2.32499">
        <ele>28.200000762939</ele>
        <time>2020-07-02T09:26:24.000Z</time>
      </trkpt>
      <trkpt lat="47.34154" lon="-2.32506">
        <ele>28.60000038147</ele>
        <time>2020-07-02T09:26:25.000Z</time>
      </trkpt>
      <trkpt lat="47.34158" lon="-2.32552">
        <ele>28.60000038147</ele>
        <time>2020-07-02T09:26:32.000Z</time>
      </trkpt>
      <trkpt lat="47.34154" lon="-2.32589">
        <ele>28.60000038147</ele>
        <time>2020-07-02T09:26:39.000Z</time>
      </trkpt>
      <trkpt lat="47.34152" lon="-2.32612">
        <ele>28.60000038147</ele>
        <time>2020-07-02T09:26:43.000Z</time>
      </trkpt>
      <trkpt lat="47.34155" lon="-2.32653">
        <ele>28.60000038147</ele>
        <time>2020-07-02T09:26:50.000Z</time>
      </trkpt>
      <trkpt lat="47.34159" lon="-2.32675">
        <ele>28.60000038147</ele>
        <time>2020-07-02T09:26:55.000Z</time>
      </trkpt>
      <trkpt lat="47.34161" lon="-2.32705">
        <ele>28.60000038147</ele>
        <time>2020-07-02T09:27:02.000Z</time>
      </trkpt>
      <trkpt lat="47.34161" lon="-2.32729">
        <ele>28.60000038147</ele>
        <time>2020-07-02T09:27:08.000Z</time>
      </trkpt>
      <trkpt lat="47.34163" lon="-2.32755">
        <ele>28.60000038147</ele>
        <time>2020-07-02T09:27:15.000Z</time>
      </trkpt>
      <trkpt lat="47.34166" lon="-2.32768">
        <ele>28.200000762939</ele>
        <time>2020-07-02T09:27:20.000Z</time>
      </trkpt>
      <trkpt lat="47.34166" lon="-2.3277">
        <ele>27.799999237061</ele>
        <time>2020-07-02T09:27:21.000Z</time>
      </trkpt>
      <trkpt lat="47.34167" lon="-2.32772">
        <ele>27.39999961853</ele>
        <time>2020-07-02T09:27:22.000Z</time>
      </trkpt>
      <trkpt lat="47.34167" lon="-2.32773">
        <ele>26.799999237061</ele>
        <time>2020-07-02T09:27:23.000Z</time>
      </trkpt>
      <trkpt lat="47.34168" lon="-2.32775">
        <ele>26.39999961853</ele>
        <time>2020-07-02T09:27:24.000Z</time>
      </trkpt>
      <trkpt lat="47.3417" lon="-2.32778">
        <ele>26.39999961853</ele>
        <time>2020-07-02T09:27:26.000Z</time>
      </trkpt>
      <trkpt lat="47.34173" lon="-2.32785">
        <ele>26.39999961853</ele>
        <time>2020-07-02T09:27:28.000Z</time>
      </trkpt>
      <trkpt lat="47.34177" lon="-2.328">
        <ele>26.39999961853</ele>
        <time>2020-07-02T09:27:34.000Z</time>
      </trkpt>
      <trkpt lat="47.34184" lon="-2.32816">
        <ele>26.39999961853</ele>
        <time>2020-07-02T09:27:38.000Z</time>
      </trkpt>
      <trkpt lat="47.34192" lon="-2.32836">
        <ele>26.39999961853</ele>
        <time>2020-07-02T09:27:43.000Z</time>
      </trkpt>
      <trkpt lat="47.34204" lon="-2.32857">
        <ele>26.39999961853</ele>
        <time>2020-07-02T09:27:48.000Z</time>
      </trkpt>
      <trkpt lat="47.34206" lon="-2.32862">
        <ele>26</ele>
        <time>2020-07-02T09:27:49.000Z</time>
      </trkpt>
      <trkpt lat="47.34209" lon="-2.32868">
        <ele>25.60000038147</ele>
        <time>2020-07-02T09:27:50.000Z</time>
      </trkpt>
      <trkpt lat="47.34212" lon="-2.32874">
        <ele>24.799999237061</ele>
        <time>2020-07-02T09:27:51.000Z</time>
      </trkpt>
      <trkpt lat="47.34215" lon="-2.32879">
        <ele>24.39999961853</ele>
        <time>2020-07-02T09:27:52.000Z</time>
      </trkpt>
      <trkpt lat="47.34217" lon="-2.32884">
        <ele>24.39999961853</ele>
        <time>2020-07-02T09:27:53.000Z</time>
      </trkpt>
      <trkpt lat="47.34224" lon="-2.32899">
        <ele>24</ele>
        <time>2020-07-02T09:27:57.000Z</time>
      </trkpt>
      <trkpt lat="47.34226" lon="-2.32902">
        <ele>23.60000038147</ele>
        <time>2020-07-02T09:27:58.000Z</time>
      </trkpt>
      <trkpt lat="47.34228" lon="-2.32906">
        <ele>23.200000762939</ele>
        <time>2020-07-02T09:27:59.000Z</time>
      </trkpt>
      <trkpt lat="47.34229" lon="-2.32908">
        <ele>22.60000038147</ele>
        <time>2020-07-02T09:28:00.000Z</time>
      </trkpt>
      <trkpt lat="47.34231" lon="-2.32912">
        <ele>22.200000762939</ele>
        <time>2020-07-02T09:28:01.000Z</time>
      </trkpt>
      <trkpt lat="47.34238" lon="-2.32926">
        <ele>22.200000762939</ele>
        <time>2020-07-02T09:28:04.000Z</time>
      </trkpt>
      <trkpt lat="47.34246" lon="-2.32941">
        <ele>21.799999237061</ele>
        <time>2020-07-02T09:28:08.000Z</time>
      </trkpt>
      <trkpt lat="47.34247" lon="-2.32943">
        <ele>21.39999961853</ele>
        <time>2020-07-02T09:28:09.000Z</time>
      </trkpt>
      <trkpt lat="47.34248" lon="-2.32946">
        <ele>21</ele>
        <time>2020-07-02T09:28:10.000Z</time>
      </trkpt>
      <trkpt lat="47.34249" lon="-2.32949">
        <ele>20.60000038147</ele>
        <time>2020-07-02T09:28:11.000Z</time>
      </trkpt>
      <trkpt lat="47.34252" lon="-2.32952">
        <ele>20</ele>
        <time>2020-07-02T09:28:12.000Z</time>
      </trkpt>
      <trkpt lat="47.34256" lon="-2.32957">
        <ele>20</ele>
        <time>2020-07-02T09:28:14.000Z</time>
      </trkpt>
      <trkpt lat="47.34266" lon="-2.32976">
        <ele>20</ele>
        <time>2020-07-02T09:28:18.000Z</time>
      </trkpt>
      <trkpt lat="47.3427" lon="-2.33004">
        <ele>20</ele>
        <time>2020-07-02T09:28:22.000Z</time>
      </trkpt>
      <trkpt lat="47.34268" lon="-2.33037">
        <ele>20</ele>
        <time>2020-07-02T09:28:27.000Z</time>
      </trkpt>
      <trkpt lat="47.34268" lon="-2.33059">
        <ele>20</ele>
        <time>2020-07-02T09:28:32.000Z</time>
      </trkpt>
      <trkpt lat="47.34267" lon="-2.33066">
        <ele>20</ele>
        <time>2020-07-02T09:28:35.000Z</time>
      </trkpt>
      <trkpt lat="47.3426" lon="-2.33085">
        <ele>20</ele>
        <time>2020-07-02T09:29:21.000Z</time>
      </trkpt>
      <trkpt lat="47.34258" lon="-2.33087">
        <ele>20</ele>
        <time>2020-07-02T09:29:22.000Z</time>
      </trkpt>
      <trkpt lat="47.34255" lon="-2.33094">
        <ele>20</ele>
        <time>2020-07-02T09:29:26.000Z</time>
      </trkpt>
      <trkpt lat="47.34253" lon="-2.33098">
        <ele>20</ele>
        <time>2020-07-02T09:29:28.000Z</time>
      </trkpt>
      <trkpt lat="47.34251" lon="-2.33108">
        <ele>20</ele>
        <time>2020-07-02T09:29:32.000Z</time>
      </trkpt>
      <trkpt lat="47.34252" lon="-2.3311">
        <ele>20</ele>
        <time>2020-07-02T09:29:33.000Z</time>
      </trkpt>
      <trkpt lat="47.3425" lon="-2.33116">
        <ele>20</ele>
        <time>2020-07-02T09:29:36.000Z</time>
      </trkpt>
      <trkpt lat="47.34249" lon="-2.33121">
        <ele>20</ele>
        <time>2020-07-02T09:29:38.000Z</time>
      </trkpt>
      <trkpt lat="47.34243" lon="-2.33142">
        <ele>20</ele>
        <time>2020-07-02T09:29:44.000Z</time>
      </trkpt>
      <trkpt lat="47.34234" lon="-2.3317">
        <ele>20</ele>
        <time>2020-07-02T09:29:51.000Z</time>
      </trkpt>
      <trkpt lat="47.34223" lon="-2.33204">
        <ele>20</ele>
        <time>2020-07-02T09:29:58.000Z</time>
      </trkpt>
      <trkpt lat="47.34214" lon="-2.33232">
        <ele>20</ele>
        <time>2020-07-02T09:30:04.000Z</time>
      </trkpt>
      <trkpt lat="47.34204" lon="-2.33265">
        <ele>20</ele>
        <time>2020-07-02T09:30:11.000Z</time>
      </trkpt>
      <trkpt lat="47.34193" lon="-2.33298">
        <ele>20</ele>
        <time>2020-07-02T09:30:18.000Z</time>
      </trkpt>
      <trkpt lat="47.34184" lon="-2.33325">
        <ele>20</ele>
        <time>2020-07-02T09:30:24.000Z</time>
      </trkpt>
      <trkpt lat="47.34174" lon="-2.33361">
        <ele>20</ele>
        <time>2020-07-02T09:30:33.000Z</time>
      </trkpt>
      <trkpt lat="47.34174" lon="-2.33365">
        <ele>20.39999961853</ele>
        <time>2020-07-02T09:30:34.000Z</time>
      </trkpt>
      <trkpt lat="47.34174" lon="-2.33368">
        <ele>20.799999237061</ele>
        <time>2020-07-02T09:30:35.000Z</time>
      </trkpt>
      <trkpt lat="47.34172" lon="-2.33372">
        <ele>21.200000762939</ele>
        <time>2020-07-02T09:30:36.000Z</time>
      </trkpt>
      <trkpt lat="47.34171" lon="-2.33377">
        <ele>21.60000038147</ele>
        <time>2020-07-02T09:30:37.000Z</time>
      </trkpt>
      <trkpt lat="47.34169" lon="-2.33381">
        <ele>22</ele>
        <time>2020-07-02T09:30:38.000Z</time>
      </trkpt>
      <trkpt lat="47.34154" lon="-2.33405">
        <ele>22</ele>
        <time>2020-07-02T09:30:45.000Z</time>
      </trkpt>
      <trkpt lat="47.34141" lon="-2.33424">
        <ele>22</ele>
        <time>2020-07-02T09:30:50.000Z</time>
      </trkpt>
      <trkpt lat="47.34128" lon="-2.33444">
        <ele>22</ele>
        <time>2020-07-02T09:30:56.000Z</time>
      </trkpt>
      <trkpt lat="47.34115" lon="-2.33467">
        <ele>22</ele>
        <time>2020-07-02T09:31:02.000Z</time>
      </trkpt>
      <trkpt lat="47.34101" lon="-2.33488">
        <ele>22</ele>
        <time>2020-07-02T09:31:09.000Z</time>
      </trkpt>
      <trkpt lat="47.34099" lon="-2.33493">
        <ele>22.60000038147</ele>
        <time>2020-07-02T09:31:10.000Z</time>
      </trkpt>
      <trkpt lat="47.34097" lon="-2.33497">
        <ele>23</ele>
        <time>2020-07-02T09:31:11.000Z</time>
      </trkpt>
      <trkpt lat="47.34096" lon="-2.335">
        <ele>23.39999961853</ele>
        <time>2020-07-02T09:31:12.000Z</time>
      </trkpt>
      <trkpt lat="47.34094" lon="-2.33504">
        <ele>23.799999237061</ele>
        <time>2020-07-02T09:31:13.000Z</time>
      </trkpt>
      <trkpt lat="47.34092" lon="-2.33508">
        <ele>24.200000762939</ele>
        <time>2020-07-02T09:31:14.000Z</time>
      </trkpt>
      <trkpt lat="47.34087" lon="-2.33518">
        <ele>24.200000762939</ele>
        <time>2020-07-02T09:31:17.000Z</time>
      </trkpt>
      <trkpt lat="47.34072" lon="-2.33543">
        <ele>24.200000762939</ele>
        <time>2020-07-02T09:31:23.000Z</time>
      </trkpt>
      <trkpt lat="47.34059" lon="-2.33564">
        <ele>24.200000762939</ele>
        <time>2020-07-02T09:31:28.000Z</time>
      </trkpt>
      <trkpt lat="47.34046" lon="-2.33587">
        <ele>24.200000762939</ele>
        <time>2020-07-02T09:31:33.000Z</time>
      </trkpt>
      <trkpt lat="47.34031" lon="-2.33617">
        <ele>24.200000762939</ele>
        <time>2020-07-02T09:31:40.000Z</time>
      </trkpt>
      <trkpt lat="47.34016" lon="-2.33643">
        <ele>24.200000762939</ele>
        <time>2020-07-02T09:31:46.000Z</time>
      </trkpt>
      <trkpt lat="47.34003" lon="-2.33668">
        <ele>24.200000762939</ele>
        <time>2020-07-02T09:31:52.000Z</time>
      </trkpt>
      <trkpt lat="47.34001" lon="-2.33671">
        <ele>24.60000038147</ele>
        <time>2020-07-02T09:31:53.000Z</time>
      </trkpt>
      <trkpt lat="47.33999" lon="-2.33676">
        <ele>25</ele>
        <time>2020-07-02T09:31:54.000Z</time>
      </trkpt>
      <trkpt lat="47.33997" lon="-2.33679">
        <ele>25.39999961853</ele>
        <time>2020-07-02T09:31:55.000Z</time>
      </trkpt>
      <trkpt lat="47.33994" lon="-2.33683">
        <ele>25.799999237061</ele>
        <time>2020-07-02T09:31:56.000Z</time>
      </trkpt>
      <trkpt lat="47.33992" lon="-2.33687">
        <ele>26.200000762939</ele>
        <time>2020-07-02T09:31:57.000Z</time>
      </trkpt>
      <trkpt lat="47.33987" lon="-2.33695">
        <ele>26.200000762939</ele>
        <time>2020-07-02T09:31:59.000Z</time>
      </trkpt>
      <trkpt lat="47.33964" lon="-2.33731">
        <ele>26.200000762939</ele>
        <time>2020-07-02T09:32:06.000Z</time>
      </trkpt>
      <trkpt lat="47.33935" lon="-2.33776">
        <ele>26.200000762939</ele>
        <time>2020-07-02T09:32:14.000Z</time>
      </trkpt>
      <trkpt lat="47.33921" lon="-2.33805">
        <ele>26.200000762939</ele>
        <time>2020-07-02T09:32:21.000Z</time>
      </trkpt>
      <trkpt lat="47.3391" lon="-2.33825">
        <ele>26.60000038147</ele>
        <time>2020-07-02T09:32:27.000Z</time>
      </trkpt>
      <trkpt lat="47.33908" lon="-2.33827">
        <ele>27</ele>
        <time>2020-07-02T09:32:28.000Z</time>
      </trkpt>
      <trkpt lat="47.33906" lon="-2.33831">
        <ele>27.39999961853</ele>
        <time>2020-07-02T09:32:29.000Z</time>
      </trkpt>
      <trkpt lat="47.33904" lon="-2.33834">
        <ele>27.799999237061</ele>
        <time>2020-07-02T09:32:30.000Z</time>
      </trkpt>
      <trkpt lat="47.33902" lon="-2.33837">
        <ele>28.200000762939</ele>
        <time>2020-07-02T09:32:31.000Z</time>
      </trkpt>
      <trkpt lat="47.33899" lon="-2.33842">
        <ele>28.200000762939</ele>
        <time>2020-07-02T09:32:33.000Z</time>
      </trkpt>
      <trkpt lat="47.33888" lon="-2.33854">
        <ele>28.200000762939</ele>
        <time>2020-07-02T09:32:40.000Z</time>
      </trkpt>
      <trkpt lat="47.33887" lon="-2.33856">
        <ele>28.200000762939</ele>
        <time>2020-07-02T09:32:43.000Z</time>
      </trkpt>
      <trkpt lat="47.33885" lon="-2.33858">
        <ele>28.200000762939</ele>
        <time>2020-07-02T09:32:51.000Z</time>
      </trkpt>
      <trkpt lat="47.33883" lon="-2.33861">
        <ele>28.200000762939</ele>
        <time>2020-07-02T09:32:52.000Z</time>
      </trkpt>
      <trkpt lat="47.33859" lon="-2.33884">
        <ele>28.200000762939</ele>
        <time>2020-07-02T09:32:59.000Z</time>
      </trkpt>
      <trkpt lat="47.33831" lon="-2.33909">
        <ele>28.200000762939</ele>
        <time>2020-07-02T09:33:06.000Z</time>
      </trkpt>
      <trkpt lat="47.33798" lon="-2.33935">
        <ele>28.60000038147</ele>
        <time>2020-07-02T09:33:13.000Z</time>
      </trkpt>
      <trkpt lat="47.33794" lon="-2.33939">
        <ele>29</ele>
        <time>2020-07-02T09:33:14.000Z</time>
      </trkpt>
      <trkpt lat="47.33789" lon="-2.33942">
        <ele>29.39999961853</ele>
        <time>2020-07-02T09:33:15.000Z</time>
      </trkpt>
      <trkpt lat="47.33784" lon="-2.33946">
        <ele>29.799999237061</ele>
        <time>2020-07-02T09:33:16.000Z</time>
      </trkpt>
      <trkpt lat="47.3378" lon="-2.33949">
        <ele>30.200000762939</ele>
        <time>2020-07-02T09:33:17.000Z</time>
      </trkpt>
      <trkpt lat="47.33767" lon="-2.33959">
        <ele>30.200000762939</ele>
        <time>2020-07-02T09:33:20.000Z</time>
      </trkpt>
      <trkpt lat="47.33737" lon="-2.33984">
        <ele>30.200000762939</ele>
        <time>2020-07-02T09:33:27.000Z</time>
      </trkpt>
      <trkpt lat="47.33717" lon="-2.34003">
        <ele>30.200000762939</ele>
        <time>2020-07-02T09:33:32.000Z</time>
      </trkpt>
      <trkpt lat="47.3371" lon="-2.3401">
        <ele>30.200000762939</ele>
        <time>2020-07-02T09:33:34.000Z</time>
      </trkpt>
      <trkpt lat="47.33692" lon="-2.34027">
        <ele>30.60000038147</ele>
        <time>2020-07-02T09:33:39.000Z</time>
      </trkpt>
      <trkpt lat="47.33688" lon="-2.34031">
        <ele>31.200000762939</ele>
        <time>2020-07-02T09:33:40.000Z</time>
      </trkpt>
      <trkpt lat="47.33683" lon="-2.34036">
        <ele>31.60000038147</ele>
        <time>2020-07-02T09:33:41.000Z</time>
      </trkpt>
      <trkpt lat="47.33677" lon="-2.34041">
        <ele>32</ele>
        <time>2020-07-02T09:33:42.000Z</time>
      </trkpt>
      <trkpt lat="47.33672" lon="-2.34045">
        <ele>32.400001525879</ele>
        <time>2020-07-02T09:33:43.000Z</time>
      </trkpt>
      <trkpt lat="47.33661" lon="-2.34056">
        <ele>32.400001525879</ele>
        <time>2020-07-02T09:33:45.000Z</time>
      </trkpt>
      <trkpt lat="47.33626" lon="-2.34085">
        <ele>32.400001525879</ele>
        <time>2020-07-02T09:33:52.000Z</time>
      </trkpt>
      <trkpt lat="47.33618" lon="-2.34093">
        <ele>32.400001525879</ele>
        <time>2020-07-02T09:33:54.000Z</time>
      </trkpt>
      <trkpt lat="47.33606" lon="-2.34106">
        <ele>32.400001525879</ele>
        <time>2020-07-02T09:33:57.000Z</time>
      </trkpt>
      <trkpt lat="47.33601" lon="-2.3411">
        <ele>32.400001525879</ele>
        <time>2020-07-02T09:33:58.000Z</time>
      </trkpt>
      <trkpt lat="47.33585" lon="-2.3412">
        <ele>32.400001525879</ele>
        <time>2020-07-02T09:34:01.000Z</time>
      </trkpt>
      <trkpt lat="47.33552" lon="-2.34147">
        <ele>32.400001525879</ele>
        <time>2020-07-02T09:34:07.000Z</time>
      </trkpt>
      <trkpt lat="47.33546" lon="-2.34151">
        <ele>32.400001525879</ele>
        <time>2020-07-02T09:34:08.000Z</time>
      </trkpt>
      <trkpt lat="47.33504" lon="-2.34179">
        <ele>32.400001525879</ele>
        <time>2020-07-02T09:34:16.000Z</time>
      </trkpt>
      <trkpt lat="47.33468" lon="-2.34212">
        <ele>32.400001525879</ele>
        <time>2020-07-02T09:34:23.000Z</time>
      </trkpt>
      <trkpt lat="47.33464" lon="-2.34218">
        <ele>32.400001525879</ele>
        <time>2020-07-02T09:34:24.000Z</time>
      </trkpt>
      <trkpt lat="47.33453" lon="-2.34235">
        <ele>32.799999237061</ele>
        <time>2020-07-02T09:34:27.000Z</time>
      </trkpt>
      <trkpt lat="47.33449" lon="-2.34241">
        <ele>33.200000762939</ele>
        <time>2020-07-02T09:34:28.000Z</time>
      </trkpt>
      <trkpt lat="47.33446" lon="-2.34247">
        <ele>33.599998474121</ele>
        <time>2020-07-02T09:34:29.000Z</time>
      </trkpt>
      <trkpt lat="47.33443" lon="-2.34253">
        <ele>34</ele>
        <time>2020-07-02T09:34:30.000Z</time>
      </trkpt>
      <trkpt lat="47.33441" lon="-2.34259">
        <ele>34.400001525879</ele>
        <time>2020-07-02T09:34:31.000Z</time>
      </trkpt>
      <trkpt lat="47.33436" lon="-2.34272">
        <ele>34.400001525879</ele>
        <time>2020-07-02T09:34:33.000Z</time>
      </trkpt>
      <trkpt lat="47.3342" lon="-2.34325">
        <ele>34.400001525879</ele>
        <time>2020-07-02T09:34:40.000Z</time>
      </trkpt>
      <trkpt lat="47.33399" lon="-2.34382">
        <ele>34.400001525879</ele>
        <time>2020-07-02T09:34:47.000Z</time>
      </trkpt>
      <trkpt lat="47.33386" lon="-2.34416">
        <ele>34.400001525879</ele>
        <time>2020-07-02T09:34:52.000Z</time>
      </trkpt>
      <trkpt lat="47.33374" lon="-2.34449">
        <ele>34.400001525879</ele>
        <time>2020-07-02T09:34:57.000Z</time>
      </trkpt>
      <trkpt lat="47.33367" lon="-2.34463">
        <ele>34.400001525879</ele>
        <time>2020-07-02T09:34:59.000Z</time>
      </trkpt>
      <trkpt lat="47.33355" lon="-2.34495">
        <ele>34.400001525879</ele>
        <time>2020-07-02T09:35:04.000Z</time>
      </trkpt>
      <trkpt lat="47.33347" lon="-2.34512">
        <ele>34.400001525879</ele>
        <time>2020-07-02T09:35:07.000Z</time>
      </trkpt>
      <trkpt lat="47.33344" lon="-2.34523">
        <ele>34.400001525879</ele>
        <time>2020-07-02T09:35:09.000Z</time>
      </trkpt>
      <trkpt lat="47.33338" lon="-2.34548">
        <ele>34.400001525879</ele>
        <time>2020-07-02T09:35:15.000Z</time>
      </trkpt>
      <trkpt lat="47.33334" lon="-2.34559">
        <ele>34.400001525879</ele>
        <time>2020-07-02T09:35:21.000Z</time>
      </trkpt>
      <trkpt lat="47.3333" lon="-2.34571">
        <ele>34.400001525879</ele>
        <time>2020-07-02T09:35:28.000Z</time>
      </trkpt>
      <trkpt lat="47.33328" lon="-2.34577">
        <ele>34.400001525879</ele>
        <time>2020-07-02T09:35:32.000Z</time>
      </trkpt>
      <trkpt lat="47.33327" lon="-2.34581">
        <ele>34.400001525879</ele>
        <time>2020-07-02T09:36:13.000Z</time>
      </trkpt>
      <trkpt lat="47.33326" lon="-2.34585">
        <ele>34.400001525879</ele>
        <time>2020-07-02T09:36:14.000Z</time>
      </trkpt>
      <trkpt lat="47.33317" lon="-2.34606">
        <ele>34.400001525879</ele>
        <time>2020-07-02T09:36:19.000Z</time>
      </trkpt>
      <trkpt lat="47.3331" lon="-2.34626">
        <ele>34.400001525879</ele>
        <time>2020-07-02T09:36:25.000Z</time>
      </trkpt>
      <trkpt lat="47.33306" lon="-2.34636">
        <ele>34.400001525879</ele>
        <time>2020-07-02T09:36:28.000Z</time>
      </trkpt>
      <trkpt lat="47.33302" lon="-2.34644">
        <ele>34.400001525879</ele>
        <time>2020-07-02T09:36:30.000Z</time>
      </trkpt>
      <trkpt lat="47.33291" lon="-2.34666">
        <ele>34.400001525879</ele>
        <time>2020-07-02T09:36:35.000Z</time>
      </trkpt>
      <trkpt lat="47.3328" lon="-2.34703">
        <ele>34.400001525879</ele>
        <time>2020-07-02T09:36:42.000Z</time>
      </trkpt>
      <trkpt lat="47.33271" lon="-2.34729">
        <ele>34.400001525879</ele>
        <time>2020-07-02T09:36:47.000Z</time>
      </trkpt>
      <trkpt lat="47.33264" lon="-2.3475">
        <ele>34.400001525879</ele>
        <time>2020-07-02T09:36:52.000Z</time>
      </trkpt>
      <trkpt lat="47.33254" lon="-2.3478">
        <ele>34.400001525879</ele>
        <time>2020-07-02T09:36:58.000Z</time>
      </trkpt>
      <trkpt lat="47.33246" lon="-2.34806">
        <ele>34.400001525879</ele>
        <time>2020-07-02T09:37:04.000Z</time>
      </trkpt>
      <trkpt lat="47.33237" lon="-2.34835">
        <ele>34.400001525879</ele>
        <time>2020-07-02T09:37:10.000Z</time>
      </trkpt>
      <trkpt lat="47.33223" lon="-2.34869">
        <ele>34.400001525879</ele>
        <time>2020-07-02T09:37:17.000Z</time>
      </trkpt>
      <trkpt lat="47.33214" lon="-2.34891">
        <ele>34.400001525879</ele>
        <time>2020-07-02T09:37:23.000Z</time>
      </trkpt>
      <trkpt lat="47.33205" lon="-2.34911">
        <ele>34.799999237061</ele>
        <time>2020-07-02T09:37:28.000Z</time>
      </trkpt>
      <trkpt lat="47.33203" lon="-2.34916">
        <ele>35.200000762939</ele>
        <time>2020-07-02T09:37:29.000Z</time>
      </trkpt>
      <trkpt lat="47.332" lon="-2.3492">
        <ele>35.799999237061</ele>
        <time>2020-07-02T09:37:30.000Z</time>
      </trkpt>
      <trkpt lat="47.33198" lon="-2.34925">
        <ele>36.200000762939</ele>
        <time>2020-07-02T09:37:31.000Z</time>
      </trkpt>
      <trkpt lat="47.33195" lon="-2.3493">
        <ele>36.599998474121</ele>
        <time>2020-07-02T09:37:32.000Z</time>
      </trkpt>
      <trkpt lat="47.33191" lon="-2.34939">
        <ele>36.599998474121</ele>
        <time>2020-07-02T09:37:34.000Z</time>
      </trkpt>
      <trkpt lat="47.33172" lon="-2.34972">
        <ele>36.599998474121</ele>
        <time>2020-07-02T09:37:41.000Z</time>
      </trkpt>
      <trkpt lat="47.33158" lon="-2.34998">
        <ele>36.599998474121</ele>
        <time>2020-07-02T09:37:48.000Z</time>
      </trkpt>
      <trkpt lat="47.33143" lon="-2.35023">
        <ele>36.599998474121</ele>
        <time>2020-07-02T09:37:55.000Z</time>
      </trkpt>
      <trkpt lat="47.33138" lon="-2.35031">
        <ele>37</ele>
        <time>2020-07-02T09:37:57.000Z</time>
      </trkpt>
      <trkpt lat="47.33136" lon="-2.35034">
        <ele>37.400001525879</ele>
        <time>2020-07-02T09:37:58.000Z</time>
      </trkpt>
      <trkpt lat="47.33133" lon="-2.35038">
        <ele>37.799999237061</ele>
        <time>2020-07-02T09:37:59.000Z</time>
      </trkpt>
      <trkpt lat="47.3313" lon="-2.35041">
        <ele>38.200000762939</ele>
        <time>2020-07-02T09:38:00.000Z</time>
      </trkpt>
      <trkpt lat="47.33127" lon="-2.35045">
        <ele>38.599998474121</ele>
        <time>2020-07-02T09:38:01.000Z</time>
      </trkpt>
      <trkpt lat="47.33117" lon="-2.35061">
        <ele>38.599998474121</ele>
        <time>2020-07-02T09:38:05.000Z</time>
      </trkpt>
      <trkpt lat="47.33105" lon="-2.35082">
        <ele>38.599998474121</ele>
        <time>2020-07-02T09:38:11.000Z</time>
      </trkpt>
      <trkpt lat="47.3309" lon="-2.35105">
        <ele>38.599998474121</ele>
        <time>2020-07-02T09:38:17.000Z</time>
      </trkpt>
      <trkpt lat="47.33078" lon="-2.35123">
        <ele>38.599998474121</ele>
        <time>2020-07-02T09:38:22.000Z</time>
      </trkpt>
      <trkpt lat="47.3306" lon="-2.35158">
        <ele>38.599998474121</ele>
        <time>2020-07-02T09:38:27.000Z</time>
      </trkpt>
      <trkpt lat="47.33044" lon="-2.35181">
        <ele>38.599998474121</ele>
        <time>2020-07-02T09:38:32.000Z</time>
      </trkpt>
      <trkpt lat="47.33043" lon="-2.35183">
        <ele>38.599998474121</ele>
        <time>2020-07-02T09:38:33.000Z</time>
      </trkpt>
      <trkpt lat="47.33039" lon="-2.35195">
        <ele>38.599998474121</ele>
        <time>2020-07-02T09:38:37.000Z</time>
      </trkpt>
      <trkpt lat="47.33035" lon="-2.35201">
        <ele>38.599998474121</ele>
        <time>2020-07-02T09:38:42.000Z</time>
      </trkpt>
      <trkpt lat="47.33033" lon="-2.35207">
        <ele>38.599998474121</ele>
        <time>2020-07-02T09:38:52.000Z</time>
      </trkpt>
      <trkpt lat="47.33032" lon="-2.35213">
        <ele>39</ele>
        <time>2020-07-02T09:38:54.000Z</time>
      </trkpt>
      <trkpt lat="47.33032" lon="-2.35216">
        <ele>39.400001525879</ele>
        <time>2020-07-02T09:38:55.000Z</time>
      </trkpt>
      <trkpt lat="47.33033" lon="-2.3522">
        <ele>39.799999237061</ele>
        <time>2020-07-02T09:38:56.000Z</time>
      </trkpt>
      <trkpt lat="47.33034" lon="-2.35223">
        <ele>40.799999237061</ele>
        <time>2020-07-02T09:38:57.000Z</time>
      </trkpt>
      <trkpt lat="47.33034" lon="-2.35228">
        <ele>40.799999237061</ele>
        <time>2020-07-02T09:38:58.000Z</time>
      </trkpt>
      <trkpt lat="47.33032" lon="-2.35252">
        <ele>40.799999237061</ele>
        <time>2020-07-02T09:39:02.000Z</time>
      </trkpt>
      <trkpt lat="47.3303" lon="-2.35304">
        <ele>40.799999237061</ele>
        <time>2020-07-02T09:39:10.000Z</time>
      </trkpt>
      <trkpt lat="47.33032" lon="-2.35346">
        <ele>40.799999237061</ele>
        <time>2020-07-02T09:39:16.000Z</time>
      </trkpt>
      <trkpt lat="47.33037" lon="-2.35397">
        <ele>40.799999237061</ele>
        <time>2020-07-02T09:39:23.000Z</time>
      </trkpt>
      <trkpt lat="47.33035" lon="-2.35437">
        <ele>40.799999237061</ele>
        <time>2020-07-02T09:39:28.000Z</time>
      </trkpt>
      <trkpt lat="47.33035" lon="-2.35444">
        <ele>40.799999237061</ele>
        <time>2020-07-02T09:39:29.000Z</time>
      </trkpt>
      <trkpt lat="47.33033" lon="-2.35451">
        <ele>40.400001525879</ele>
        <time>2020-07-02T09:39:30.000Z</time>
      </trkpt>
      <trkpt lat="47.33033" lon="-2.35459">
        <ele>39.799999237061</ele>
        <time>2020-07-02T09:39:31.000Z</time>
      </trkpt>
      <trkpt lat="47.33032" lon="-2.35468">
        <ele>39.400001525879</ele>
        <time>2020-07-02T09:39:32.000Z</time>
      </trkpt>
      <trkpt lat="47.33031" lon="-2.35476">
        <ele>39</ele>
        <time>2020-07-02T09:39:33.000Z</time>
      </trkpt>
      <trkpt lat="47.3303" lon="-2.35485">
        <ele>38.599998474121</ele>
        <time>2020-07-02T09:39:34.000Z</time>
      </trkpt>
      <trkpt lat="47.33028" lon="-2.35511">
        <ele>38.599998474121</ele>
        <time>2020-07-02T09:39:37.000Z</time>
      </trkpt>
      <trkpt lat="47.33027" lon="-2.35519">
        <ele>38.599998474121</ele>
        <time>2020-07-02T09:39:38.000Z</time>
      </trkpt>
      <trkpt lat="47.33028" lon="-2.35542">
        <ele>38.599998474121</ele>
        <time>2020-07-02T09:39:41.000Z</time>
      </trkpt>
      <trkpt lat="47.33029" lon="-2.35557">
        <ele>38.599998474121</ele>
        <time>2020-07-02T09:39:43.000Z</time>
      </trkpt>
      <trkpt lat="47.33028" lon="-2.35565">
        <ele>38.599998474121</ele>
        <time>2020-07-02T09:39:44.000Z</time>
      </trkpt>
      <trkpt lat="47.33027" lon="-2.35581">
        <ele>38.200000762939</ele>
        <time>2020-07-02T09:39:46.000Z</time>
      </trkpt>
      <trkpt lat="47.33026" lon="-2.3559">
        <ele>37.799999237061</ele>
        <time>2020-07-02T09:39:47.000Z</time>
      </trkpt>
      <trkpt lat="47.33025" lon="-2.35599">
        <ele>37.400001525879</ele>
        <time>2020-07-02T09:39:48.000Z</time>
      </trkpt>
      <trkpt lat="47.33023" lon="-2.35609">
        <ele>37</ele>
        <time>2020-07-02T09:39:49.000Z</time>
      </trkpt>
      <trkpt lat="47.33022" lon="-2.35619">
        <ele>36.599998474121</ele>
        <time>2020-07-02T09:39:50.000Z</time>
      </trkpt>
      <trkpt lat="47.3302" lon="-2.35638">
        <ele>36.599998474121</ele>
        <time>2020-07-02T09:39:52.000Z</time>
      </trkpt>
      <trkpt lat="47.33016" lon="-2.35668">
        <ele>36.599998474121</ele>
        <time>2020-07-02T09:39:55.000Z</time>
      </trkpt>
      <trkpt lat="47.33015" lon="-2.35678">
        <ele>36.200000762939</ele>
        <time>2020-07-02T09:39:56.000Z</time>
      </trkpt>
      <trkpt lat="47.33014" lon="-2.35687">
        <ele>35.799999237061</ele>
        <time>2020-07-02T09:39:57.000Z</time>
      </trkpt>
      <trkpt lat="47.33013" lon="-2.35696">
        <ele>35.200000762939</ele>
        <time>2020-07-02T09:39:58.000Z</time>
      </trkpt>
      <trkpt lat="47.33012" lon="-2.35706">
        <ele>34.799999237061</ele>
        <time>2020-07-02T09:39:59.000Z</time>
      </trkpt>
      <trkpt lat="47.33012" lon="-2.35716">
        <ele>34.400001525879</ele>
        <time>2020-07-02T09:40:00.000Z</time>
      </trkpt>
      <trkpt lat="47.33011" lon="-2.35735">
        <ele>34.400001525879</ele>
        <time>2020-07-02T09:40:02.000Z</time>
      </trkpt>
      <trkpt lat="47.33012" lon="-2.35744">
        <ele>34.400001525879</ele>
        <time>2020-07-02T09:40:03.000Z</time>
      </trkpt>
      <trkpt lat="47.33017" lon="-2.35769">
        <ele>34.400001525879</ele>
        <time>2020-07-02T09:40:06.000Z</time>
      </trkpt>
      <trkpt lat="47.33033" lon="-2.35793">
        <ele>34.400001525879</ele>
        <time>2020-07-02T09:40:10.000Z</time>
      </trkpt>
      <trkpt lat="47.33038" lon="-2.35797">
        <ele>34.400001525879</ele>
        <time>2020-07-02T09:40:11.000Z</time>
      </trkpt>
      <trkpt lat="47.33044" lon="-2.35801">
        <ele>34.400001525879</ele>
        <time>2020-07-02T09:40:12.000Z</time>
      </trkpt>
      <trkpt lat="47.33062" lon="-2.35803">
        <ele>34.400001525879</ele>
        <time>2020-07-02T09:40:15.000Z</time>
      </trkpt>
      <trkpt lat="47.33073" lon="-2.35803">
        <ele>34.400001525879</ele>
        <time>2020-07-02T09:40:17.000Z</time>
      </trkpt>
      <trkpt lat="47.33092" lon="-2.35803">
        <ele>34.799999237061</ele>
        <time>2020-07-02T09:40:20.000Z</time>
      </trkpt>
      <trkpt lat="47.33098" lon="-2.35804">
        <ele>35.400001525879</ele>
        <time>2020-07-02T09:40:21.000Z</time>
      </trkpt>
      <trkpt lat="47.33104" lon="-2.35804">
        <ele>35.799999237061</ele>
        <time>2020-07-02T09:40:22.000Z</time>
      </trkpt>
      <trkpt lat="47.3311" lon="-2.35804">
        <ele>36.200000762939</ele>
        <time>2020-07-02T09:40:23.000Z</time>
      </trkpt>
      <trkpt lat="47.33115" lon="-2.35804">
        <ele>36.599998474121</ele>
        <time>2020-07-02T09:40:24.000Z</time>
      </trkpt>
      <trkpt lat="47.33133" lon="-2.35806">
        <ele>36.599998474121</ele>
        <time>2020-07-02T09:40:27.000Z</time>
      </trkpt>
      <trkpt lat="47.33143" lon="-2.35806">
        <ele>36.599998474121</ele>
        <time>2020-07-02T09:40:29.000Z</time>
      </trkpt>
      <trkpt lat="47.33154" lon="-2.35807">
        <ele>37</ele>
        <time>2020-07-02T09:40:31.000Z</time>
      </trkpt>
      <trkpt lat="47.33159" lon="-2.35808">
        <ele>37.400001525879</ele>
        <time>2020-07-02T09:40:32.000Z</time>
      </trkpt>
      <trkpt lat="47.33164" lon="-2.35809">
        <ele>37.799999237061</ele>
        <time>2020-07-02T09:40:33.000Z</time>
      </trkpt>
      <trkpt lat="47.33169" lon="-2.35811">
        <ele>38.200000762939</ele>
        <time>2020-07-02T09:40:34.000Z</time>
      </trkpt>
      <trkpt lat="47.33175" lon="-2.35812">
        <ele>38.599998474121</ele>
        <time>2020-07-02T09:40:35.000Z</time>
      </trkpt>
      <trkpt lat="47.33202" lon="-2.35817">
        <ele>38.599998474121</ele>
        <time>2020-07-02T09:40:40.000Z</time>
      </trkpt>
      <trkpt lat="47.33237" lon="-2.35831">
        <ele>38.599998474121</ele>
        <time>2020-07-02T09:40:47.000Z</time>
      </trkpt>
      <trkpt lat="47.33241" lon="-2.35833">
        <ele>39.200000762939</ele>
        <time>2020-07-02T09:40:48.000Z</time>
      </trkpt>
      <trkpt lat="47.33245" lon="-2.35836">
        <ele>39.599998474121</ele>
        <time>2020-07-02T09:40:49.000Z</time>
      </trkpt>
      <trkpt lat="47.3325" lon="-2.35838">
        <ele>40</ele>
        <time>2020-07-02T09:40:50.000Z</time>
      </trkpt>
      <trkpt lat="47.33254" lon="-2.35841">
        <ele>40.400001525879</ele>
        <time>2020-07-02T09:40:51.000Z</time>
      </trkpt>
      <trkpt lat="47.33258" lon="-2.35844">
        <ele>41</ele>
        <time>2020-07-02T09:40:52.000Z</time>
      </trkpt>
      <trkpt lat="47.33262" lon="-2.35848">
        <ele>41</ele>
        <time>2020-07-02T09:40:53.000Z</time>
      </trkpt>
      <trkpt lat="47.33266" lon="-2.35852">
        <ele>41</ele>
        <time>2020-07-02T09:40:54.000Z</time>
      </trkpt>
      <trkpt lat="47.33277" lon="-2.35865">
        <ele>41.400001525879</ele>
        <time>2020-07-02T09:40:57.000Z</time>
      </trkpt>
      <trkpt lat="47.33281" lon="-2.35869">
        <ele>41.799999237061</ele>
        <time>2020-07-02T09:40:58.000Z</time>
      </trkpt>
      <trkpt lat="47.33285" lon="-2.35873">
        <ele>42.200000762939</ele>
        <time>2020-07-02T09:40:59.000Z</time>
      </trkpt>
      <trkpt lat="47.33289" lon="-2.35876">
        <ele>43.200000762939</ele>
        <time>2020-07-02T09:41:00.000Z</time>
      </trkpt>
      <trkpt lat="47.33304" lon="-2.3589">
        <ele>43.200000762939</ele>
        <time>2020-07-02T09:41:04.000Z</time>
      </trkpt>
      <trkpt lat="47.33307" lon="-2.35894">
        <ele>43.200000762939</ele>
        <time>2020-07-02T09:41:05.000Z</time>
      </trkpt>
      <trkpt lat="47.33313" lon="-2.35904">
        <ele>43.599998474121</ele>
        <time>2020-07-02T09:41:07.000Z</time>
      </trkpt>
      <trkpt lat="47.33316" lon="-2.3591">
        <ele>44</ele>
        <time>2020-07-02T09:41:08.000Z</time>
      </trkpt>
      <trkpt lat="47.33318" lon="-2.35916">
        <ele>44.400001525879</ele>
        <time>2020-07-02T09:41:09.000Z</time>
      </trkpt>
      <trkpt lat="47.3332" lon="-2.35923">
        <ele>44.799999237061</ele>
        <time>2020-07-02T09:41:10.000Z</time>
      </trkpt>
      <trkpt lat="47.33322" lon="-2.3593">
        <ele>45.200000762939</ele>
        <time>2020-07-02T09:41:11.000Z</time>
      </trkpt>
      <trkpt lat="47.33324" lon="-2.35937">
        <ele>45.200000762939</ele>
        <time>2020-07-02T09:41:12.000Z</time>
      </trkpt>
      <trkpt lat="47.33325" lon="-2.3595">
        <ele>45.200000762939</ele>
        <time>2020-07-02T09:41:14.000Z</time>
      </trkpt>
      <trkpt lat="47.33325" lon="-2.35958">
        <ele>45.200000762939</ele>
        <time>2020-07-02T09:41:15.000Z</time>
      </trkpt>
      <trkpt lat="47.33324" lon="-2.35972">
        <ele>45.200000762939</ele>
        <time>2020-07-02T09:41:17.000Z</time>
      </trkpt>
      <trkpt lat="47.33319" lon="-2.35995">
        <ele>45.200000762939</ele>
        <time>2020-07-02T09:41:20.000Z</time>
      </trkpt>
      <trkpt lat="47.33315" lon="-2.36035">
        <ele>45.200000762939</ele>
        <time>2020-07-02T09:41:25.000Z</time>
      </trkpt>
      <trkpt lat="47.33314" lon="-2.3605">
        <ele>45.200000762939</ele>
        <time>2020-07-02T09:41:27.000Z</time>
      </trkpt>
      <trkpt lat="47.33311" lon="-2.36086">
        <ele>45.200000762939</ele>
        <time>2020-07-02T09:41:32.000Z</time>
      </trkpt>
      <trkpt lat="47.33312" lon="-2.36093">
        <ele>45.200000762939</ele>
        <time>2020-07-02T09:41:33.000Z</time>
      </trkpt>
      <trkpt lat="47.33314" lon="-2.36129">
        <ele>45.200000762939</ele>
        <time>2020-07-02T09:41:38.000Z</time>
      </trkpt>
      <trkpt lat="47.33314" lon="-2.36175">
        <ele>45.200000762939</ele>
        <time>2020-07-02T09:41:44.000Z</time>
      </trkpt>
      <trkpt lat="47.33313" lon="-2.3624">
        <ele>45.200000762939</ele>
        <time>2020-07-02T09:41:52.000Z</time>
      </trkpt>
      <trkpt lat="47.33313" lon="-2.36296">
        <ele>45.200000762939</ele>
        <time>2020-07-02T09:41:58.000Z</time>
      </trkpt>
      <trkpt lat="47.33318" lon="-2.36358">
        <ele>45.200000762939</ele>
        <time>2020-07-02T09:42:04.000Z</time>
      </trkpt>
      <trkpt lat="47.3333" lon="-2.36419">
        <ele>45.200000762939</ele>
        <time>2020-07-02T09:42:10.000Z</time>
      </trkpt>
      <trkpt lat="47.33336" lon="-2.36458">
        <ele>44.799999237061</ele>
        <time>2020-07-02T09:42:14.000Z</time>
      </trkpt>
      <trkpt lat="47.33337" lon="-2.36468">
        <ele>44.400001525879</ele>
        <time>2020-07-02T09:42:15.000Z</time>
      </trkpt>
      <trkpt lat="47.33338" lon="-2.36477">
        <ele>44</ele>
        <time>2020-07-02T09:42:16.000Z</time>
      </trkpt>
      <trkpt lat="47.33337" lon="-2.36487">
        <ele>43.599998474121</ele>
        <time>2020-07-02T09:42:17.000Z</time>
      </trkpt>
      <trkpt lat="47.33335" lon="-2.36497">
        <ele>43.200000762939</ele>
        <time>2020-07-02T09:42:18.000Z</time>
      </trkpt>
      <trkpt lat="47.33326" lon="-2.36539">
        <ele>42.599998474121</ele>
        <time>2020-07-02T09:42:22.000Z</time>
      </trkpt>
      <trkpt lat="47.33323" lon="-2.3655">
        <ele>42.200000762939</ele>
        <time>2020-07-02T09:42:23.000Z</time>
      </trkpt>
      <trkpt lat="47.3332" lon="-2.36561">
        <ele>41.799999237061</ele>
        <time>2020-07-02T09:42:24.000Z</time>
      </trkpt>
      <trkpt lat="47.33318" lon="-2.36572">
        <ele>41.400001525879</ele>
        <time>2020-07-02T09:42:25.000Z</time>
      </trkpt>
      <trkpt lat="47.33315" lon="-2.36583">
        <ele>41</ele>
        <time>2020-07-02T09:42:26.000Z</time>
      </trkpt>
      <trkpt lat="47.33306" lon="-2.36618">
        <ele>41</ele>
        <time>2020-07-02T09:42:29.000Z</time>
      </trkpt>
      <trkpt lat="47.33284" lon="-2.36689">
        <ele>41</ele>
        <time>2020-07-02T09:42:35.000Z</time>
      </trkpt>
      <trkpt lat="47.33277" lon="-2.36709">
        <ele>40.599998474121</ele>
        <time>2020-07-02T09:42:37.000Z</time>
      </trkpt>
      <trkpt lat="47.33273" lon="-2.36719">
        <ele>39.799999237061</ele>
        <time>2020-07-02T09:42:38.000Z</time>
      </trkpt>
      <trkpt lat="47.33269" lon="-2.36729">
        <ele>39.400001525879</ele>
        <time>2020-07-02T09:42:39.000Z</time>
      </trkpt>
      <trkpt lat="47.33265" lon="-2.36737">
        <ele>39</ele>
        <time>2020-07-02T09:42:40.000Z</time>
      </trkpt>
      <trkpt lat="47.33257" lon="-2.36752">
        <ele>39</ele>
        <time>2020-07-02T09:42:42.000Z</time>
      </trkpt>
      <trkpt lat="47.33246" lon="-2.36766">
        <ele>39</ele>
        <time>2020-07-02T09:42:44.000Z</time>
      </trkpt>
      <trkpt lat="47.33217" lon="-2.36793">
        <ele>39</ele>
        <time>2020-07-02T09:42:49.000Z</time>
      </trkpt>
      <trkpt lat="47.3319" lon="-2.36817">
        <ele>39.400001525879</ele>
        <time>2020-07-02T09:42:54.000Z</time>
      </trkpt>
      <trkpt lat="47.33185" lon="-2.36822">
        <ele>39.799999237061</ele>
        <time>2020-07-02T09:42:55.000Z</time>
      </trkpt>
      <trkpt lat="47.3318" lon="-2.36826">
        <ele>40.200000762939</ele>
        <time>2020-07-02T09:42:56.000Z</time>
      </trkpt>
      <trkpt lat="47.33175" lon="-2.3683">
        <ele>40.599998474121</ele>
        <time>2020-07-02T09:42:57.000Z</time>
      </trkpt>
      <trkpt lat="47.3317" lon="-2.36834">
        <ele>41</ele>
        <time>2020-07-02T09:42:58.000Z</time>
      </trkpt>
      <trkpt lat="47.33162" lon="-2.36841">
        <ele>41</ele>
        <time>2020-07-02T09:43:00.000Z</time>
      </trkpt>
      <trkpt lat="47.33154" lon="-2.36848">
        <ele>41.400001525879</ele>
        <time>2020-07-02T09:43:02.000Z</time>
      </trkpt>
      <trkpt lat="47.33149" lon="-2.36852">
        <ele>42.400001525879</ele>
        <time>2020-07-02T09:43:03.000Z</time>
      </trkpt>
      <trkpt lat="47.33145" lon="-2.36855">
        <ele>42.799999237061</ele>
        <time>2020-07-02T09:43:04.000Z</time>
      </trkpt>
      <trkpt lat="47.33141" lon="-2.36859">
        <ele>43.200000762939</ele>
        <time>2020-07-02T09:43:05.000Z</time>
      </trkpt>
      <trkpt lat="47.33134" lon="-2.36867">
        <ele>43.200000762939</ele>
        <time>2020-07-02T09:43:07.000Z</time>
      </trkpt>
      <trkpt lat="47.33131" lon="-2.36871">
        <ele>43.200000762939</ele>
        <time>2020-07-02T09:43:08.000Z</time>
      </trkpt>
      <trkpt lat="47.33115" lon="-2.36889">
        <ele>43.200000762939</ele>
        <time>2020-07-02T09:43:12.000Z</time>
      </trkpt>
      <trkpt lat="47.33111" lon="-2.36896">
        <ele>43.200000762939</ele>
        <time>2020-07-02T09:43:13.000Z</time>
      </trkpt>
      <trkpt lat="47.33107" lon="-2.36919">
        <ele>43.200000762939</ele>
        <time>2020-07-02T09:43:16.000Z</time>
      </trkpt>
      <trkpt lat="47.33107" lon="-2.36928">
        <ele>43.200000762939</ele>
        <time>2020-07-02T09:43:17.000Z</time>
      </trkpt>
      <trkpt lat="47.33107" lon="-2.36936">
        <ele>43.599998474121</ele>
        <time>2020-07-02T09:43:18.000Z</time>
      </trkpt>
      <trkpt lat="47.33107" lon="-2.36945">
        <ele>44</ele>
        <time>2020-07-02T09:43:19.000Z</time>
      </trkpt>
      <trkpt lat="47.33107" lon="-2.36952">
        <ele>44.400001525879</ele>
        <time>2020-07-02T09:43:20.000Z</time>
      </trkpt>
      <trkpt lat="47.33108" lon="-2.3696">
        <ele>44.799999237061</ele>
        <time>2020-07-02T09:43:21.000Z</time>
      </trkpt>
      <trkpt lat="47.33108" lon="-2.36968">
        <ele>45.200000762939</ele>
        <time>2020-07-02T09:43:22.000Z</time>
      </trkpt>
      <trkpt lat="47.33108" lon="-2.36976">
        <ele>45.200000762939</ele>
        <time>2020-07-02T09:43:23.000Z</time>
      </trkpt>
      <trkpt lat="47.33106" lon="-2.37006">
        <ele>45.200000762939</ele>
        <time>2020-07-02T09:43:27.000Z</time>
      </trkpt>
      <trkpt lat="47.33105" lon="-2.37028">
        <ele>45.599998474121</ele>
        <time>2020-07-02T09:43:30.000Z</time>
      </trkpt>
      <trkpt lat="47.33105" lon="-2.37035">
        <ele>46</ele>
        <time>2020-07-02T09:43:31.000Z</time>
      </trkpt>
      <trkpt lat="47.33105" lon="-2.3704">
        <ele>46.599998474121</ele>
        <time>2020-07-02T09:43:32.000Z</time>
      </trkpt>
      <trkpt lat="47.33105" lon="-2.37046">
        <ele>47</ele>
        <time>2020-07-02T09:43:33.000Z</time>
      </trkpt>
      <trkpt lat="47.33105" lon="-2.37052">
        <ele>47.400001525879</ele>
        <time>2020-07-02T09:43:34.000Z</time>
      </trkpt>
      <trkpt lat="47.33105" lon="-2.37065">
        <ele>47.400001525879</ele>
        <time>2020-07-02T09:43:36.000Z</time>
      </trkpt>
      <trkpt lat="47.33108" lon="-2.37086">
        <ele>47.400001525879</ele>
        <time>2020-07-02T09:43:39.000Z</time>
      </trkpt>
      <trkpt lat="47.33108" lon="-2.37093">
        <ele>47.400001525879</ele>
        <time>2020-07-02T09:43:40.000Z</time>
      </trkpt>
      <trkpt lat="47.33107" lon="-2.37129">
        <ele>47.400001525879</ele>
        <time>2020-07-02T09:43:45.000Z</time>
      </trkpt>
      <trkpt lat="47.33105" lon="-2.37171">
        <ele>47.400001525879</ele>
        <time>2020-07-02T09:43:50.000Z</time>
      </trkpt>
      <trkpt lat="47.33104" lon="-2.37181">
        <ele>47.400001525879</ele>
        <time>2020-07-02T09:43:51.000Z</time>
      </trkpt>
      <trkpt lat="47.33104" lon="-2.37201">
        <ele>46.799999237061</ele>
        <time>2020-07-02T09:43:53.000Z</time>
      </trkpt>
      <trkpt lat="47.33104" lon="-2.37211">
        <ele>46.400001525879</ele>
        <time>2020-07-02T09:43:54.000Z</time>
      </trkpt>
      <trkpt lat="47.33105" lon="-2.37221">
        <ele>45.799999237061</ele>
        <time>2020-07-02T09:43:55.000Z</time>
      </trkpt>
      <trkpt lat="47.33105" lon="-2.37231">
        <ele>45.200000762939</ele>
        <time>2020-07-02T09:43:56.000Z</time>
      </trkpt>
      <trkpt lat="47.33104" lon="-2.37241">
        <ele>44.400001525879</ele>
        <time>2020-07-02T09:43:57.000Z</time>
      </trkpt>
      <trkpt lat="47.33104" lon="-2.37253">
        <ele>43.599998474121</ele>
        <time>2020-07-02T09:43:58.000Z</time>
      </trkpt>
      <trkpt lat="47.33104" lon="-2.37265">
        <ele>43</ele>
        <time>2020-07-02T09:43:59.000Z</time>
      </trkpt>
      <trkpt lat="47.33104" lon="-2.37277">
        <ele>42.400001525879</ele>
        <time>2020-07-02T09:44:00.000Z</time>
      </trkpt>
      <trkpt lat="47.33104" lon="-2.37288">
        <ele>41.799999237061</ele>
        <time>2020-07-02T09:44:01.000Z</time>
      </trkpt>
      <trkpt lat="47.33103" lon="-2.373">
        <ele>41.200000762939</ele>
        <time>2020-07-02T09:44:02.000Z</time>
      </trkpt>
      <trkpt lat="47.33104" lon="-2.37314">
        <ele>40.599998474121</ele>
        <time>2020-07-02T09:44:03.000Z</time>
      </trkpt>
      <trkpt lat="47.33105" lon="-2.37326">
        <ele>40.200000762939</ele>
        <time>2020-07-02T09:44:04.000Z</time>
      </trkpt>
      <trkpt lat="47.33109" lon="-2.37366">
        <ele>39.599998474121</ele>
        <time>2020-07-02T09:44:07.000Z</time>
      </trkpt>
      <trkpt lat="47.33111" lon="-2.37379">
        <ele>39.200000762939</ele>
        <time>2020-07-02T09:44:08.000Z</time>
      </trkpt>
      <trkpt lat="47.33112" lon="-2.37392">
        <ele>38.799999237061</ele>
        <time>2020-07-02T09:44:09.000Z</time>
      </trkpt>
      <trkpt lat="47.33112" lon="-2.37405">
        <ele>38.200000762939</ele>
        <time>2020-07-02T09:44:10.000Z</time>
      </trkpt>
      <trkpt lat="47.33112" lon="-2.37419">
        <ele>37.799999237061</ele>
        <time>2020-07-02T09:44:11.000Z</time>
      </trkpt>
      <trkpt lat="47.33111" lon="-2.37432">
        <ele>37.799999237061</ele>
        <time>2020-07-02T09:44:12.000Z</time>
      </trkpt>
      <trkpt lat="47.33107" lon="-2.37457">
        <ele>37.799999237061</ele>
        <time>2020-07-02T09:44:14.000Z</time>
      </trkpt>
      <trkpt lat="47.33105" lon="-2.37468">
        <ele>37.799999237061</ele>
        <time>2020-07-02T09:44:15.000Z</time>
      </trkpt>
      <trkpt lat="47.33101" lon="-2.37478">
        <ele>37.799999237061</ele>
        <time>2020-07-02T09:44:16.000Z</time>
      </trkpt>
      <trkpt lat="47.3308" lon="-2.37526">
        <ele>37.799999237061</ele>
        <time>2020-07-02T09:44:21.000Z</time>
      </trkpt>
      <trkpt lat="47.33056" lon="-2.37574">
        <ele>37.799999237061</ele>
        <time>2020-07-02T09:44:27.000Z</time>
      </trkpt>
      <trkpt lat="47.33034" lon="-2.37617">
        <ele>37.799999237061</ele>
        <time>2020-07-02T09:44:33.000Z</time>
      </trkpt>
      <trkpt lat="47.33031" lon="-2.37622">
        <ele>37.799999237061</ele>
        <time>2020-07-02T09:44:34.000Z</time>
      </trkpt>
      <trkpt lat="47.33027" lon="-2.3763">
        <ele>37.799999237061</ele>
        <time>2020-07-02T09:44:36.000Z</time>
      </trkpt>
      <trkpt lat="47.33028" lon="-2.37641">
        <ele>37.799999237061</ele>
        <time>2020-07-02T09:44:40.000Z</time>
      </trkpt>
      <trkpt lat="47.33037" lon="-2.37653">
        <ele>37.799999237061</ele>
        <time>2020-07-02T09:44:44.000Z</time>
      </trkpt>
      <trkpt lat="47.33039" lon="-2.37656">
        <ele>37.799999237061</ele>
        <time>2020-07-02T09:44:45.000Z</time>
      </trkpt>
      <trkpt lat="47.33054" lon="-2.37678">
        <ele>37.799999237061</ele>
        <time>2020-07-02T09:44:51.000Z</time>
      </trkpt>
      <trkpt lat="47.33071" lon="-2.37702">
        <ele>37.799999237061</ele>
        <time>2020-07-02T09:44:58.000Z</time>
      </trkpt>
      <trkpt lat="47.33089" lon="-2.37718">
        <ele>37.799999237061</ele>
        <time>2020-07-02T09:45:05.000Z</time>
      </trkpt>
      <trkpt lat="47.33097" lon="-2.37726">
        <ele>37.799999237061</ele>
        <time>2020-07-02T09:45:10.000Z</time>
      </trkpt>
      <trkpt lat="47.33107" lon="-2.37734">
        <ele>37.799999237061</ele>
        <time>2020-07-02T09:45:15.000Z</time>
      </trkpt>
      <trkpt lat="47.33119" lon="-2.37736">
        <ele>37.799999237061</ele>
        <time>2020-07-02T09:45:21.000Z</time>
      </trkpt>
      <trkpt lat="47.3312" lon="-2.37738">
        <ele>37.799999237061</ele>
        <time>2020-07-02T09:45:22.000Z</time>
      </trkpt>
      <trkpt lat="47.33119" lon="-2.37745">
        <ele>37.799999237061</ele>
        <time>2020-07-02T09:45:25.000Z</time>
      </trkpt>
      <trkpt lat="47.33113" lon="-2.37754">
        <ele>37.799999237061</ele>
        <time>2020-07-02T09:45:28.000Z</time>
      </trkpt>
      <trkpt lat="47.3311" lon="-2.37757">
        <ele>37.799999237061</ele>
        <time>2020-07-02T09:45:29.000Z</time>
      </trkpt>
      <trkpt lat="47.33101" lon="-2.37768">
        <ele>37.799999237061</ele>
        <time>2020-07-02T09:45:32.000Z</time>
      </trkpt>
      <trkpt lat="47.3309" lon="-2.3778">
        <ele>37.799999237061</ele>
        <time>2020-07-02T09:45:35.000Z</time>
      </trkpt>
      <trkpt lat="47.33069" lon="-2.37802">
        <ele>37.799999237061</ele>
        <time>2020-07-02T09:45:41.000Z</time>
      </trkpt>
      <trkpt lat="47.3305" lon="-2.37821">
        <ele>37.799999237061</ele>
        <time>2020-07-02T09:45:46.000Z</time>
      </trkpt>
      <trkpt lat="47.33046" lon="-2.37825">
        <ele>37.799999237061</ele>
        <time>2020-07-02T09:45:47.000Z</time>
      </trkpt>
      <trkpt lat="47.33035" lon="-2.37839">
        <ele>37.799999237061</ele>
        <time>2020-07-02T09:45:50.000Z</time>
      </trkpt>
      <trkpt lat="47.33029" lon="-2.3785">
        <ele>38.200000762939</ele>
        <time>2020-07-02T09:45:52.000Z</time>
      </trkpt>
      <trkpt lat="47.33027" lon="-2.37858">
        <ele>38.799999237061</ele>
        <time>2020-07-02T09:45:53.000Z</time>
      </trkpt>
      <trkpt lat="47.33025" lon="-2.37864">
        <ele>39.200000762939</ele>
        <time>2020-07-02T09:45:54.000Z</time>
      </trkpt>
      <trkpt lat="47.33022" lon="-2.3787">
        <ele>39.599998474121</ele>
        <time>2020-07-02T09:45:55.000Z</time>
      </trkpt>
      <trkpt lat="47.33018" lon="-2.37876">
        <ele>40</ele>
        <time>2020-07-02T09:45:56.000Z</time>
      </trkpt>
      <trkpt lat="47.33014" lon="-2.37884">
        <ele>40</ele>
        <time>2020-07-02T09:45:57.000Z</time>
      </trkpt>
      <trkpt lat="47.32998" lon="-2.3791">
        <ele>40</ele>
        <time>2020-07-02T09:46:01.000Z</time>
      </trkpt>
      <trkpt lat="47.32995" lon="-2.37915">
        <ele>40</ele>
        <time>2020-07-02T09:46:02.000Z</time>
      </trkpt>
      <trkpt lat="47.32985" lon="-2.37932">
        <ele>40</ele>
        <time>2020-07-02T09:46:05.000Z</time>
      </trkpt>
      <trkpt lat="47.32974" lon="-2.3795">
        <ele>40</ele>
        <time>2020-07-02T09:46:08.000Z</time>
      </trkpt>
      <trkpt lat="47.3297" lon="-2.37956">
        <ele>40</ele>
        <time>2020-07-02T09:46:09.000Z</time>
      </trkpt>
      <trkpt lat="47.32954" lon="-2.37978">
        <ele>40</ele>
        <time>2020-07-02T09:46:13.000Z</time>
      </trkpt>
      <trkpt lat="47.32927" lon="-2.38016">
        <ele>40</ele>
        <time>2020-07-02T09:46:19.000Z</time>
      </trkpt>
      <trkpt lat="47.32923" lon="-2.38023">
        <ele>40</ele>
        <time>2020-07-02T09:46:20.000Z</time>
      </trkpt>
      <trkpt lat="47.32919" lon="-2.3803">
        <ele>40.799999237061</ele>
        <time>2020-07-02T09:46:21.000Z</time>
      </trkpt>
      <trkpt lat="47.32915" lon="-2.38037">
        <ele>41.200000762939</ele>
        <time>2020-07-02T09:46:22.000Z</time>
      </trkpt>
      <trkpt lat="47.32912" lon="-2.38044">
        <ele>41.599998474121</ele>
        <time>2020-07-02T09:46:23.000Z</time>
      </trkpt>
      <trkpt lat="47.32908" lon="-2.3805">
        <ele>42</ele>
        <time>2020-07-02T09:46:24.000Z</time>
      </trkpt>
      <trkpt lat="47.32905" lon="-2.38056">
        <ele>42</ele>
        <time>2020-07-02T09:46:25.000Z</time>
      </trkpt>
      <trkpt lat="47.32877" lon="-2.38105">
        <ele>42</ele>
        <time>2020-07-02T09:46:33.000Z</time>
      </trkpt>
      <trkpt lat="47.32854" lon="-2.38145">
        <ele>42</ele>
        <time>2020-07-02T09:46:40.000Z</time>
      </trkpt>
      <trkpt lat="47.32851" lon="-2.3815">
        <ele>42</ele>
        <time>2020-07-02T09:46:41.000Z</time>
      </trkpt>
      <trkpt lat="47.3283" lon="-2.38191">
        <ele>42</ele>
        <time>2020-07-02T09:46:48.000Z</time>
      </trkpt>
      <trkpt lat="47.32828" lon="-2.38198">
        <ele>42.400001525879</ele>
        <time>2020-07-02T09:46:49.000Z</time>
      </trkpt>
      <trkpt lat="47.32825" lon="-2.38204">
        <ele>42.799999237061</ele>
        <time>2020-07-02T09:46:50.000Z</time>
      </trkpt>
      <trkpt lat="47.32823" lon="-2.3821">
        <ele>43.200000762939</ele>
        <time>2020-07-02T09:46:51.000Z</time>
      </trkpt>
      <trkpt lat="47.32821" lon="-2.38216">
        <ele>43.599998474121</ele>
        <time>2020-07-02T09:46:52.000Z</time>
      </trkpt>
      <trkpt lat="47.32819" lon="-2.38222">
        <ele>44</ele>
        <time>2020-07-02T09:46:53.000Z</time>
      </trkpt>
      <trkpt lat="47.32816" lon="-2.38234">
        <ele>44</ele>
        <time>2020-07-02T09:46:55.000Z</time>
      </trkpt>
      <trkpt lat="47.32811" lon="-2.38251">
        <ele>44.599998474121</ele>
        <time>2020-07-02T09:46:58.000Z</time>
      </trkpt>
      <trkpt lat="47.3281" lon="-2.38256">
        <ele>45</ele>
        <time>2020-07-02T09:46:59.000Z</time>
      </trkpt>
      <trkpt lat="47.32809" lon="-2.38261">
        <ele>45.400001525879</ele>
        <time>2020-07-02T09:47:00.000Z</time>
      </trkpt>
      <trkpt lat="47.32807" lon="-2.38267">
        <ele>45.799999237061</ele>
        <time>2020-07-02T09:47:01.000Z</time>
      </trkpt>
      <trkpt lat="47.32805" lon="-2.38272">
        <ele>46.200000762939</ele>
        <time>2020-07-02T09:47:02.000Z</time>
      </trkpt>
      <trkpt lat="47.32799" lon="-2.38295">
        <ele>46.599998474121</ele>
        <time>2020-07-02T09:47:06.000Z</time>
      </trkpt>
      <trkpt lat="47.32797" lon="-2.38301">
        <ele>47</ele>
        <time>2020-07-02T09:47:07.000Z</time>
      </trkpt>
      <trkpt lat="47.32796" lon="-2.38306">
        <ele>47.400001525879</ele>
        <time>2020-07-02T09:47:08.000Z</time>
      </trkpt>
      <trkpt lat="47.32795" lon="-2.38312">
        <ele>47.799999237061</ele>
        <time>2020-07-02T09:47:09.000Z</time>
      </trkpt>
      <trkpt lat="47.32794" lon="-2.38316">
        <ele>48.200000762939</ele>
        <time>2020-07-02T09:47:10.000Z</time>
      </trkpt>
      <trkpt lat="47.3279" lon="-2.38331">
        <ele>48.599998474121</ele>
        <time>2020-07-02T09:47:13.000Z</time>
      </trkpt>
      <trkpt lat="47.32789" lon="-2.38336">
        <ele>49</ele>
        <time>2020-07-02T09:47:14.000Z</time>
      </trkpt>
      <trkpt lat="47.32788" lon="-2.38342">
        <ele>49.599998474121</ele>
        <time>2020-07-02T09:47:15.000Z</time>
      </trkpt>
      <trkpt lat="47.32787" lon="-2.38347">
        <ele>50</ele>
        <time>2020-07-02T09:47:16.000Z</time>
      </trkpt>
      <trkpt lat="47.32787" lon="-2.38353">
        <ele>50.400001525879</ele>
        <time>2020-07-02T09:47:17.000Z</time>
      </trkpt>
      <trkpt lat="47.32785" lon="-2.38369">
        <ele>50.400001525879</ele>
        <time>2020-07-02T09:47:20.000Z</time>
      </trkpt>
      <trkpt lat="47.32782" lon="-2.3839">
        <ele>50.799999237061</ele>
        <time>2020-07-02T09:47:24.000Z</time>
      </trkpt>
      <trkpt lat="47.32779" lon="-2.38393">
        <ele>51.200000762939</ele>
        <time>2020-07-02T09:47:25.000Z</time>
      </trkpt>
      <trkpt lat="47.32776" lon="-2.38395">
        <ele>51.599998474121</ele>
        <time>2020-07-02T09:47:26.000Z</time>
      </trkpt>
      <trkpt lat="47.32772" lon="-2.38396">
        <ele>52</ele>
        <time>2020-07-02T09:47:27.000Z</time>
      </trkpt>
      <trkpt lat="47.32769" lon="-2.38397">
        <ele>52.400001525879</ele>
        <time>2020-07-02T09:47:28.000Z</time>
      </trkpt>
      <trkpt lat="47.32765" lon="-2.38398">
        <ele>52.400001525879</ele>
        <time>2020-07-02T09:47:29.000Z</time>
      </trkpt>
      <trkpt lat="47.32761" lon="-2.38399">
        <ele>52.400001525879</ele>
        <time>2020-07-02T09:47:30.000Z</time>
      </trkpt>
      <trkpt lat="47.32736" lon="-2.38402">
        <ele>52.400001525879</ele>
        <time>2020-07-02T09:47:36.000Z</time>
      </trkpt>
      <trkpt lat="47.32722" lon="-2.38406">
        <ele>52.400001525879</ele>
        <time>2020-07-02T09:47:39.000Z</time>
      </trkpt>
      <trkpt lat="47.32709" lon="-2.38407">
        <ele>52.400001525879</ele>
        <time>2020-07-02T09:47:42.000Z</time>
      </trkpt>
      <trkpt lat="47.32699" lon="-2.38407">
        <ele>52.400001525879</ele>
        <time>2020-07-02T09:47:44.000Z</time>
      </trkpt>
      <trkpt lat="47.32689" lon="-2.384">
        <ele>52.400001525879</ele>
        <time>2020-07-02T09:47:46.000Z</time>
      </trkpt>
      <trkpt lat="47.32684" lon="-2.38395">
        <ele>52</ele>
        <time>2020-07-02T09:47:47.000Z</time>
      </trkpt>
      <trkpt lat="47.32677" lon="-2.38388">
        <ele>51.599998474121</ele>
        <time>2020-07-02T09:47:48.000Z</time>
      </trkpt>
      <trkpt lat="47.32671" lon="-2.38381">
        <ele>51.200000762939</ele>
        <time>2020-07-02T09:47:49.000Z</time>
      </trkpt>
      <trkpt lat="47.32664" lon="-2.38372">
        <ele>50.799999237061</ele>
        <time>2020-07-02T09:47:50.000Z</time>
      </trkpt>
      <trkpt lat="47.32657" lon="-2.38364">
        <ele>50.400001525879</ele>
        <time>2020-07-02T09:47:51.000Z</time>
      </trkpt>
      <trkpt lat="47.32651" lon="-2.38356">
        <ele>50</ele>
        <time>2020-07-02T09:47:52.000Z</time>
      </trkpt>
      <trkpt lat="47.32644" lon="-2.38347">
        <ele>49.599998474121</ele>
        <time>2020-07-02T09:47:53.000Z</time>
      </trkpt>
      <trkpt lat="47.32638" lon="-2.38338">
        <ele>49.200000762939</ele>
        <time>2020-07-02T09:47:54.000Z</time>
      </trkpt>
      <trkpt lat="47.32631" lon="-2.3833">
        <ele>48.799999237061</ele>
        <time>2020-07-02T09:47:55.000Z</time>
      </trkpt>
      <trkpt lat="47.32624" lon="-2.38321">
        <ele>48.200000762939</ele>
        <time>2020-07-02T09:47:56.000Z</time>
      </trkpt>
      <trkpt lat="47.32617" lon="-2.38313">
        <ele>47.799999237061</ele>
        <time>2020-07-02T09:47:57.000Z</time>
      </trkpt>
      <trkpt lat="47.32609" lon="-2.38308">
        <ele>47.400001525879</ele>
        <time>2020-07-02T09:47:58.000Z</time>
      </trkpt>
      <trkpt lat="47.32602" lon="-2.38304">
        <ele>46.599998474121</ele>
        <time>2020-07-02T09:47:59.000Z</time>
      </trkpt>
      <trkpt lat="47.32594" lon="-2.38303">
        <ele>46.200000762939</ele>
        <time>2020-07-02T09:48:00.000Z</time>
      </trkpt>
      <trkpt lat="47.32579" lon="-2.38306">
        <ele>45.799999237061</ele>
        <time>2020-07-02T09:48:02.000Z</time>
      </trkpt>
      <trkpt lat="47.32572" lon="-2.38307">
        <ele>45.400001525879</ele>
        <time>2020-07-02T09:48:03.000Z</time>
      </trkpt>
      <trkpt lat="47.32565" lon="-2.3831">
        <ele>45</ele>
        <time>2020-07-02T09:48:04.000Z</time>
      </trkpt>
      <trkpt lat="47.32558" lon="-2.38311">
        <ele>44.599998474121</ele>
        <time>2020-07-02T09:48:05.000Z</time>
      </trkpt>
      <trkpt lat="47.32551" lon="-2.38314">
        <ele>44</ele>
        <time>2020-07-02T09:48:06.000Z</time>
      </trkpt>
      <trkpt lat="47.32545" lon="-2.38316">
        <ele>44</ele>
        <time>2020-07-02T09:48:07.000Z</time>
      </trkpt>
      <trkpt lat="47.32539" lon="-2.38317">
        <ele>44</ele>
        <time>2020-07-02T09:48:08.000Z</time>
      </trkpt>
      <trkpt lat="47.32532" lon="-2.38322">
        <ele>44</ele>
        <time>2020-07-02T09:48:10.000Z</time>
      </trkpt>
      <trkpt lat="47.32529" lon="-2.38337">
        <ele>44</ele>
        <time>2020-07-02T09:48:14.000Z</time>
      </trkpt>
      <trkpt lat="47.3253" lon="-2.38343">
        <ele>44</ele>
        <time>2020-07-02T09:48:15.000Z</time>
      </trkpt>
      <trkpt lat="47.32529" lon="-2.38374">
        <ele>44.599998474121</ele>
        <time>2020-07-02T09:48:20.000Z</time>
      </trkpt>
      <trkpt lat="47.32527" lon="-2.38379">
        <ele>45</ele>
        <time>2020-07-02T09:48:21.000Z</time>
      </trkpt>
      <trkpt lat="47.32525" lon="-2.38384">
        <ele>45.400001525879</ele>
        <time>2020-07-02T09:48:22.000Z</time>
      </trkpt>
      <trkpt lat="47.32521" lon="-2.38387">
        <ele>45.799999237061</ele>
        <time>2020-07-02T09:48:23.000Z</time>
      </trkpt>
      <trkpt lat="47.32516" lon="-2.38388">
        <ele>46.400001525879</ele>
        <time>2020-07-02T09:48:24.000Z</time>
      </trkpt>
      <trkpt lat="47.32507" lon="-2.38385">
        <ele>46.400001525879</ele>
        <time>2020-07-02T09:48:26.000Z</time>
      </trkpt>
      <trkpt lat="47.32502" lon="-2.38383">
        <ele>46.400001525879</ele>
        <time>2020-07-02T09:48:27.000Z</time>
      </trkpt>
      <trkpt lat="47.32473" lon="-2.38373">
        <ele>46.400001525879</ele>
        <time>2020-07-02T09:48:33.000Z</time>
      </trkpt>
      <trkpt lat="47.32438" lon="-2.38357">
        <ele>46.400001525879</ele>
        <time>2020-07-02T09:48:40.000Z</time>
      </trkpt>
      <trkpt lat="47.32406" lon="-2.38341">
        <ele>46.400001525879</ele>
        <time>2020-07-02T09:48:46.000Z</time>
      </trkpt>
      <trkpt lat="47.32363" lon="-2.38323">
        <ele>46.400001525879</ele>
        <time>2020-07-02T09:48:53.000Z</time>
      </trkpt>
      <trkpt lat="47.32326" lon="-2.38307">
        <ele>46.400001525879</ele>
        <time>2020-07-02T09:48:58.000Z</time>
      </trkpt>
      <trkpt lat="47.32279" lon="-2.38292">
        <ele>46.400001525879</ele>
        <time>2020-07-02T09:49:04.000Z</time>
      </trkpt>
      <trkpt lat="47.32272" lon="-2.38291">
        <ele>46.400001525879</ele>
        <time>2020-07-02T09:49:05.000Z</time>
      </trkpt>
      <trkpt lat="47.32266" lon="-2.38292">
        <ele>45.799999237061</ele>
        <time>2020-07-02T09:49:06.000Z</time>
      </trkpt>
      <trkpt lat="47.32261" lon="-2.38292">
        <ele>45.400001525879</ele>
        <time>2020-07-02T09:49:07.000Z</time>
      </trkpt>
      <trkpt lat="47.32255" lon="-2.38294">
        <ele>44.799999237061</ele>
        <time>2020-07-02T09:49:08.000Z</time>
      </trkpt>
      <trkpt lat="47.3225" lon="-2.38295">
        <ele>44.200000762939</ele>
        <time>2020-07-02T09:49:09.000Z</time>
      </trkpt>
      <trkpt lat="47.32245" lon="-2.38295">
        <ele>43.799999237061</ele>
        <time>2020-07-02T09:49:10.000Z</time>
      </trkpt>
      <trkpt lat="47.32225" lon="-2.38297">
        <ele>43.799999237061</ele>
        <time>2020-07-02T09:49:14.000Z</time>
      </trkpt>
      <trkpt lat="47.32217" lon="-2.38299">
        <ele>43.799999237061</ele>
        <time>2020-07-02T09:49:16.000Z</time>
      </trkpt>
      <trkpt lat="47.32208" lon="-2.38311">
        <ele>43.799999237061</ele>
        <time>2020-07-02T09:49:19.000Z</time>
      </trkpt>
      <trkpt lat="47.32205" lon="-2.38315">
        <ele>43.799999237061</ele>
        <time>2020-07-02T09:49:20.000Z</time>
      </trkpt>
      <trkpt lat="47.32198" lon="-2.38324">
        <ele>43.799999237061</ele>
        <time>2020-07-02T09:49:22.000Z</time>
      </trkpt>
      <trkpt lat="47.32192" lon="-2.38333">
        <ele>43.799999237061</ele>
        <time>2020-07-02T09:49:24.000Z</time>
      </trkpt>
      <trkpt lat="47.32183" lon="-2.38346">
        <ele>43.799999237061</ele>
        <time>2020-07-02T09:49:27.000Z</time>
      </trkpt>
      <trkpt lat="47.32177" lon="-2.38355">
        <ele>43.799999237061</ele>
        <time>2020-07-02T09:49:29.000Z</time>
      </trkpt>
      <trkpt lat="47.32163" lon="-2.38375">
        <ele>43.799999237061</ele>
        <time>2020-07-02T09:49:34.000Z</time>
      </trkpt>
      <trkpt lat="47.32151" lon="-2.38398">
        <ele>43.799999237061</ele>
        <time>2020-07-02T09:49:39.000Z</time>
      </trkpt>
      <trkpt lat="47.32136" lon="-2.38415">
        <ele>43.799999237061</ele>
        <time>2020-07-02T09:49:44.000Z</time>
      </trkpt>
      <trkpt lat="47.32117" lon="-2.38424">
        <ele>43.799999237061</ele>
        <time>2020-07-02T09:49:48.000Z</time>
      </trkpt>
      <trkpt lat="47.32112" lon="-2.38427">
        <ele>43.799999237061</ele>
        <time>2020-07-02T09:49:49.000Z</time>
      </trkpt>
      <trkpt lat="47.32091" lon="-2.38437">
        <ele>43.799999237061</ele>
        <time>2020-07-02T09:49:54.000Z</time>
      </trkpt>
      <trkpt lat="47.32067" lon="-2.38448">
        <ele>43.799999237061</ele>
        <time>2020-07-02T09:49:59.000Z</time>
      </trkpt>
      <trkpt lat="47.32062" lon="-2.38449">
        <ele>43.799999237061</ele>
        <time>2020-07-02T09:50:00.000Z</time>
      </trkpt>
      <trkpt lat="47.32038" lon="-2.38455">
        <ele>44.200000762939</ele>
        <time>2020-07-02T09:50:05.000Z</time>
      </trkpt>
      <trkpt lat="47.32033" lon="-2.38458">
        <ele>44.599998474121</ele>
        <time>2020-07-02T09:50:06.000Z</time>
      </trkpt>
      <trkpt lat="47.32028" lon="-2.3846">
        <ele>45</ele>
        <time>2020-07-02T09:50:07.000Z</time>
      </trkpt>
      <trkpt lat="47.32023" lon="-2.38462">
        <ele>45.400001525879</ele>
        <time>2020-07-02T09:50:08.000Z</time>
      </trkpt>
      <trkpt lat="47.32018" lon="-2.38464">
        <ele>45.799999237061</ele>
        <time>2020-07-02T09:50:09.000Z</time>
      </trkpt>
      <trkpt lat="47.31993" lon="-2.38475">
        <ele>45.799999237061</ele>
        <time>2020-07-02T09:50:14.000Z</time>
      </trkpt>
      <trkpt lat="47.31958" lon="-2.38488">
        <ele>45.799999237061</ele>
        <time>2020-07-02T09:50:21.000Z</time>
      </trkpt>
      <trkpt lat="47.31953" lon="-2.38489">
        <ele>46.200000762939</ele>
        <time>2020-07-02T09:50:22.000Z</time>
      </trkpt>
      <trkpt lat="47.31947" lon="-2.3849">
        <ele>46.599998474121</ele>
        <time>2020-07-02T09:50:23.000Z</time>
      </trkpt>
      <trkpt lat="47.31943" lon="-2.38491">
        <ele>47.200000762939</ele>
        <time>2020-07-02T09:50:24.000Z</time>
      </trkpt>
      <trkpt lat="47.31938" lon="-2.38491">
        <ele>47.599998474121</ele>
        <time>2020-07-02T09:50:25.000Z</time>
      </trkpt>
      <trkpt lat="47.31933" lon="-2.38492">
        <ele>48</ele>
        <time>2020-07-02T09:50:26.000Z</time>
      </trkpt>
      <trkpt lat="47.31928" lon="-2.38494">
        <ele>48</ele>
        <time>2020-07-02T09:50:27.000Z</time>
      </trkpt>
      <trkpt lat="47.31914" lon="-2.38502">
        <ele>48</ele>
        <time>2020-07-02T09:50:30.000Z</time>
      </trkpt>
      <trkpt lat="47.31909" lon="-2.38504">
        <ele>48</ele>
        <time>2020-07-02T09:50:31.000Z</time>
      </trkpt>
      <trkpt lat="47.31901" lon="-2.38509">
        <ele>48.400001525879</ele>
        <time>2020-07-02T09:50:33.000Z</time>
      </trkpt>
      <trkpt lat="47.31896" lon="-2.38512">
        <ele>48.799999237061</ele>
        <time>2020-07-02T09:50:34.000Z</time>
      </trkpt>
      <trkpt lat="47.31892" lon="-2.38513">
        <ele>49.200000762939</ele>
        <time>2020-07-02T09:50:35.000Z</time>
      </trkpt>
      <trkpt lat="47.31888" lon="-2.38515">
        <ele>49.599998474121</ele>
        <time>2020-07-02T09:50:36.000Z</time>
      </trkpt>
      <trkpt lat="47.31884" lon="-2.38517">
        <ele>50</ele>
        <time>2020-07-02T09:50:37.000Z</time>
      </trkpt>
      <trkpt lat="47.3188" lon="-2.38519">
        <ele>50</ele>
        <time>2020-07-02T09:50:38.000Z</time>
      </trkpt>
      <trkpt lat="47.31852" lon="-2.38529">
        <ele>50</ele>
        <time>2020-07-02T09:50:45.000Z</time>
      </trkpt>
      <trkpt lat="47.31848" lon="-2.3853">
        <ele>50.400001525879</ele>
        <time>2020-07-02T09:50:46.000Z</time>
      </trkpt>
      <trkpt lat="47.31845" lon="-2.38532">
        <ele>50.799999237061</ele>
        <time>2020-07-02T09:50:47.000Z</time>
      </trkpt>
      <trkpt lat="47.31842" lon="-2.38533">
        <ele>51.200000762939</ele>
        <time>2020-07-02T09:50:48.000Z</time>
      </trkpt>
      <trkpt lat="47.31839" lon="-2.38534">
        <ele>51.599998474121</ele>
        <time>2020-07-02T09:50:49.000Z</time>
      </trkpt>
      <trkpt lat="47.31836" lon="-2.38535">
        <ele>52</ele>
        <time>2020-07-02T09:50:50.000Z</time>
      </trkpt>
      <trkpt lat="47.31832" lon="-2.38536">
        <ele>52</ele>
        <time>2020-07-02T09:50:51.000Z</time>
      </trkpt>
      <trkpt lat="47.31817" lon="-2.38536">
        <ele>52</ele>
        <time>2020-07-02T09:50:56.000Z</time>
      </trkpt>
      <trkpt lat="47.31813" lon="-2.38525">
        <ele>52.400001525879</ele>
        <time>2020-07-02T09:50:59.000Z</time>
      </trkpt>
      <trkpt lat="47.31813" lon="-2.3852">
        <ele>52.799999237061</ele>
        <time>2020-07-02T09:51:00.000Z</time>
      </trkpt>
      <trkpt lat="47.31813" lon="-2.38515">
        <ele>53.200000762939</ele>
        <time>2020-07-02T09:51:01.000Z</time>
      </trkpt>
      <trkpt lat="47.31813" lon="-2.38508">
        <ele>53.599998474121</ele>
        <time>2020-07-02T09:51:02.000Z</time>
      </trkpt>
      <trkpt lat="47.31813" lon="-2.38502">
        <ele>54</ele>
        <time>2020-07-02T09:51:03.000Z</time>
      </trkpt>
      <trkpt lat="47.31813" lon="-2.38495">
        <ele>54</ele>
        <time>2020-07-02T09:51:04.000Z</time>
      </trkpt>
      <trkpt lat="47.31812" lon="-2.38445">
        <ele>54</ele>
        <time>2020-07-02T09:51:10.000Z</time>
      </trkpt>
      <trkpt lat="47.31812" lon="-2.38372">
        <ele>54</ele>
        <time>2020-07-02T09:51:18.000Z</time>
      </trkpt>
      <trkpt lat="47.3181" lon="-2.3829">
        <ele>53.599998474121</ele>
        <time>2020-07-02T09:51:26.000Z</time>
      </trkpt>
      <trkpt lat="47.3181" lon="-2.3828">
        <ele>53.200000762939</ele>
        <time>2020-07-02T09:51:27.000Z</time>
      </trkpt>
      <trkpt lat="47.3181" lon="-2.38269">
        <ele>52.799999237061</ele>
        <time>2020-07-02T09:51:28.000Z</time>
      </trkpt>
      <trkpt lat="47.31809" lon="-2.38258">
        <ele>52.200000762939</ele>
        <time>2020-07-02T09:51:29.000Z</time>
      </trkpt>
      <trkpt lat="47.31809" lon="-2.38246">
        <ele>51.799999237061</ele>
        <time>2020-07-02T09:51:30.000Z</time>
      </trkpt>
      <trkpt lat="47.31806" lon="-2.38189">
        <ele>51.400001525879</ele>
        <time>2020-07-02T09:51:35.000Z</time>
      </trkpt>
      <trkpt lat="47.31806" lon="-2.38177">
        <ele>51</ele>
        <time>2020-07-02T09:51:36.000Z</time>
      </trkpt>
      <trkpt lat="47.31805" lon="-2.38166">
        <ele>50.599998474121</ele>
        <time>2020-07-02T09:51:37.000Z</time>
      </trkpt>
      <trkpt lat="47.31805" lon="-2.38154">
        <ele>50.200000762939</ele>
        <time>2020-07-02T09:51:38.000Z</time>
      </trkpt>
      <trkpt lat="47.31804" lon="-2.38142">
        <ele>49.799999237061</ele>
        <time>2020-07-02T09:51:39.000Z</time>
      </trkpt>
      <trkpt lat="47.31803" lon="-2.38107">
        <ele>49.799999237061</ele>
        <time>2020-07-02T09:51:42.000Z</time>
      </trkpt>
      <trkpt lat="47.318" lon="-2.38049">
        <ele>49.400001525879</ele>
        <time>2020-07-02T09:51:47.000Z</time>
      </trkpt>
      <trkpt lat="47.31799" lon="-2.38038">
        <ele>48.799999237061</ele>
        <time>2020-07-02T09:51:48.000Z</time>
      </trkpt>
      <trkpt lat="47.31797" lon="-2.38027">
        <ele>48.400001525879</ele>
        <time>2020-07-02T09:51:49.000Z</time>
      </trkpt>
      <trkpt lat="47.31796" lon="-2.38017">
        <ele>48</ele>
        <time>2020-07-02T09:51:50.000Z</time>
      </trkpt>
      <trkpt lat="47.31796" lon="-2.38006">
        <ele>47.599998474121</ele>
        <time>2020-07-02T09:51:51.000Z</time>
      </trkpt>
      <trkpt lat="47.31796" lon="-2.37954">
        <ele>47.599998474121</ele>
        <time>2020-07-02T09:51:56.000Z</time>
      </trkpt>
      <trkpt lat="47.318" lon="-2.37898">
        <ele>47.599998474121</ele>
        <time>2020-07-02T09:52:02.000Z</time>
      </trkpt>
      <trkpt lat="47.31803" lon="-2.3787">
        <ele>48.400001525879</ele>
        <time>2020-07-02T09:52:05.000Z</time>
      </trkpt>
      <trkpt lat="47.31804" lon="-2.37861">
        <ele>48.799999237061</ele>
        <time>2020-07-02T09:52:06.000Z</time>
      </trkpt>
      <trkpt lat="47.31805" lon="-2.37852">
        <ele>49.400001525879</ele>
        <time>2020-07-02T09:52:07.000Z</time>
      </trkpt>
      <trkpt lat="47.31806" lon="-2.37843">
        <ele>49.799999237061</ele>
        <time>2020-07-02T09:52:08.000Z</time>
      </trkpt>
      <trkpt lat="47.31808" lon="-2.37824">
        <ele>49.799999237061</ele>
        <time>2020-07-02T09:52:10.000Z</time>
      </trkpt>
      <trkpt lat="47.31813" lon="-2.37779">
        <ele>50.200000762939</ele>
        <time>2020-07-02T09:52:15.000Z</time>
      </trkpt>
      <trkpt lat="47.31814" lon="-2.3777">
        <ele>50.599998474121</ele>
        <time>2020-07-02T09:52:16.000Z</time>
      </trkpt>
      <trkpt lat="47.31815" lon="-2.37761">
        <ele>51</ele>
        <time>2020-07-02T09:52:17.000Z</time>
      </trkpt>
      <trkpt lat="47.31815" lon="-2.37753">
        <ele>51.400001525879</ele>
        <time>2020-07-02T09:52:18.000Z</time>
      </trkpt>
      <trkpt lat="47.31816" lon="-2.37744">
        <ele>52</ele>
        <time>2020-07-02T09:52:19.000Z</time>
      </trkpt>
      <trkpt lat="47.31823" lon="-2.37684">
        <ele>52</ele>
        <time>2020-07-02T09:52:26.000Z</time>
      </trkpt>
      <trkpt lat="47.31826" lon="-2.37668">
        <ele>52</ele>
        <time>2020-07-02T09:52:28.000Z</time>
      </trkpt>
      <trkpt lat="47.31823" lon="-2.37654">
        <ele>52</ele>
        <time>2020-07-02T09:52:30.000Z</time>
      </trkpt>
      <trkpt lat="47.31809" lon="-2.37652">
        <ele>52</ele>
        <time>2020-07-02T09:52:33.000Z</time>
      </trkpt>
      <trkpt lat="47.31793" lon="-2.37661">
        <ele>52</ele>
        <time>2020-07-02T09:52:36.000Z</time>
      </trkpt>
      <trkpt lat="47.31787" lon="-2.37666">
        <ele>52</ele>
        <time>2020-07-02T09:52:37.000Z</time>
      </trkpt>
      <trkpt lat="47.31763" lon="-2.37692">
        <ele>52</ele>
        <time>2020-07-02T09:52:42.000Z</time>
      </trkpt>
      <trkpt lat="47.31739" lon="-2.3771">
        <ele>52</ele>
        <time>2020-07-02T09:52:47.000Z</time>
      </trkpt>
      <trkpt lat="47.31707" lon="-2.37717">
        <ele>52</ele>
        <time>2020-07-02T09:52:53.000Z</time>
      </trkpt>
      <trkpt lat="47.31696" lon="-2.37715">
        <ele>52</ele>
        <time>2020-07-02T09:52:55.000Z</time>
      </trkpt>
      <trkpt lat="47.31686" lon="-2.37709">
        <ele>52</ele>
        <time>2020-07-02T09:52:57.000Z</time>
      </trkpt>
      <trkpt lat="47.31677" lon="-2.377">
        <ele>52</ele>
        <time>2020-07-02T09:52:59.000Z</time>
      </trkpt>
      <trkpt lat="47.31674" lon="-2.37695">
        <ele>52</ele>
        <time>2020-07-02T09:53:00.000Z</time>
      </trkpt>
      <trkpt lat="47.31666" lon="-2.37684">
        <ele>52</ele>
        <time>2020-07-02T09:53:02.000Z</time>
      </trkpt>
      <trkpt lat="47.31649" lon="-2.37666">
        <ele>52</ele>
        <time>2020-07-02T09:53:06.000Z</time>
      </trkpt>
      <trkpt lat="47.31639" lon="-2.3766">
        <ele>52</ele>
        <time>2020-07-02T09:53:08.000Z</time>
      </trkpt>
      <trkpt lat="47.3162" lon="-2.37651">
        <ele>52</ele>
        <time>2020-07-02T09:53:12.000Z</time>
      </trkpt>
      <trkpt lat="47.31613" lon="-2.37641">
        <ele>52</ele>
        <time>2020-07-02T09:53:14.000Z</time>
      </trkpt>
      <trkpt lat="47.31613" lon="-2.37621">
        <ele>52</ele>
        <time>2020-07-02T09:53:17.000Z</time>
      </trkpt>
      <trkpt lat="47.31613" lon="-2.37573">
        <ele>52</ele>
        <time>2020-07-02T09:53:25.000Z</time>
      </trkpt>
      <trkpt lat="47.31619" lon="-2.37548">
        <ele>52</ele>
        <time>2020-07-02T09:53:30.000Z</time>
      </trkpt>
      <trkpt lat="47.31633" lon="-2.37511">
        <ele>52</ele>
        <time>2020-07-02T09:53:37.000Z</time>
      </trkpt>
      <trkpt lat="47.31636" lon="-2.37499">
        <ele>52</ele>
        <time>2020-07-02T09:53:39.000Z</time>
      </trkpt>
      <trkpt lat="47.31638" lon="-2.37474">
        <ele>52</ele>
        <time>2020-07-02T09:53:43.000Z</time>
      </trkpt>
      <trkpt lat="47.31638" lon="-2.37455">
        <ele>52</ele>
        <time>2020-07-02T09:53:46.000Z</time>
      </trkpt>
      <trkpt lat="47.31637" lon="-2.37437">
        <ele>52</ele>
        <time>2020-07-02T09:53:49.000Z</time>
      </trkpt>
      <trkpt lat="47.31633" lon="-2.37384">
        <ele>52</ele>
        <time>2020-07-02T09:53:58.000Z</time>
      </trkpt>
      <trkpt lat="47.31628" lon="-2.3736">
        <ele>52.400001525879</ele>
        <time>2020-07-02T09:54:03.000Z</time>
      </trkpt>
      <trkpt lat="47.31626" lon="-2.37354">
        <ele>52.799999237061</ele>
        <time>2020-07-02T09:54:04.000Z</time>
      </trkpt>
      <trkpt lat="47.31625" lon="-2.37349">
        <ele>53.200000762939</ele>
        <time>2020-07-02T09:54:05.000Z</time>
      </trkpt>
      <trkpt lat="47.31624" lon="-2.37344">
        <ele>53.599998474121</ele>
        <time>2020-07-02T09:54:06.000Z</time>
      </trkpt>
      <trkpt lat="47.31623" lon="-2.37338">
        <ele>54</ele>
        <time>2020-07-02T09:54:07.000Z</time>
      </trkpt>
      <trkpt lat="47.3162" lon="-2.37318">
        <ele>54</ele>
        <time>2020-07-02T09:54:11.000Z</time>
      </trkpt>
      <trkpt lat="47.31623" lon="-2.37296">
        <ele>54</ele>
        <time>2020-07-02T09:54:17.000Z</time>
      </trkpt>
      <trkpt lat="47.31636" lon="-2.37274">
        <ele>54</ele>
        <time>2020-07-02T09:54:24.000Z</time>
      </trkpt>
      <trkpt lat="47.31651" lon="-2.37259">
        <ele>54</ele>
        <time>2020-07-02T09:54:30.000Z</time>
      </trkpt>
      <trkpt lat="47.31666" lon="-2.37246">
        <ele>54</ele>
        <time>2020-07-02T09:54:37.000Z</time>
      </trkpt>
      <trkpt lat="47.31682" lon="-2.37231">
        <ele>54</ele>
        <time>2020-07-02T09:54:43.000Z</time>
      </trkpt>
      <trkpt lat="47.3169" lon="-2.3721">
        <ele>54</ele>
        <time>2020-07-02T09:54:47.000Z</time>
      </trkpt>
      <trkpt lat="47.31689" lon="-2.37188">
        <ele>54</ele>
        <time>2020-07-02T09:54:51.000Z</time>
      </trkpt>
      <trkpt lat="47.31684" lon="-2.37172">
        <ele>54</ele>
        <time>2020-07-02T09:54:54.000Z</time>
      </trkpt>
      <trkpt lat="47.31678" lon="-2.37158">
        <ele>54</ele>
        <time>2020-07-02T09:54:57.000Z</time>
      </trkpt>
      <trkpt lat="47.31664" lon="-2.37136">
        <ele>54</ele>
        <time>2020-07-02T09:55:03.000Z</time>
      </trkpt>
      <trkpt lat="47.31645" lon="-2.37101">
        <ele>54</ele>
        <time>2020-07-02T09:55:11.000Z</time>
      </trkpt>
      <trkpt lat="47.31634" lon="-2.37073">
        <ele>54</ele>
        <time>2020-07-02T09:55:17.000Z</time>
      </trkpt>
      <trkpt lat="47.31621" lon="-2.37045">
        <ele>54</ele>
        <time>2020-07-02T09:55:23.000Z</time>
      </trkpt>
      <trkpt lat="47.31609" lon="-2.37009">
        <ele>54</ele>
        <time>2020-07-02T09:55:29.000Z</time>
      </trkpt>
      <trkpt lat="47.316" lon="-2.36979">
        <ele>54</ele>
        <time>2020-07-02T09:55:35.000Z</time>
      </trkpt>
      <trkpt lat="47.31592" lon="-2.36954">
        <ele>54</ele>
        <time>2020-07-02T09:55:41.000Z</time>
      </trkpt>
      <trkpt lat="47.31592" lon="-2.36951">
        <ele>53.599998474121</ele>
        <time>2020-07-02T09:55:42.000Z</time>
      </trkpt>
      <trkpt lat="47.31591" lon="-2.36949">
        <ele>53</ele>
        <time>2020-07-02T09:55:43.000Z</time>
      </trkpt>
      <trkpt lat="47.3159" lon="-2.36947">
        <ele>52.599998474121</ele>
        <time>2020-07-02T09:55:44.000Z</time>
      </trkpt>
      <trkpt lat="47.3159" lon="-2.36946">
        <ele>52.200000762939</ele>
        <time>2020-07-02T09:55:45.000Z</time>
      </trkpt>
      <trkpt lat="47.3159" lon="-2.36945">
        <ele>51.799999237061</ele>
        <time>2020-07-02T09:55:46.000Z</time>
      </trkpt>
      <trkpt lat="47.3159" lon="-2.36945">
        <ele>51.799999237061</ele>
        <time>2020-07-02T09:55:47.000Z</time>
      </trkpt>
      <trkpt lat="47.31588" lon="-2.3694">
        <ele>51.799999237061</ele>
        <time>2020-07-02T09:56:44.000Z</time>
      </trkpt>
      <trkpt lat="47.31586" lon="-2.36932">
        <ele>51.799999237061</ele>
        <time>2020-07-02T09:56:46.000Z</time>
      </trkpt>
      <trkpt lat="47.31582" lon="-2.36922">
        <ele>51.799999237061</ele>
        <time>2020-07-02T09:56:48.000Z</time>
      </trkpt>
      <trkpt lat="47.31578" lon="-2.36909">
        <ele>51.799999237061</ele>
        <time>2020-07-02T09:56:50.000Z</time>
      </trkpt>
      <trkpt lat="47.31565" lon="-2.36863">
        <ele>51.400001525879</ele>
        <time>2020-07-02T09:56:56.000Z</time>
      </trkpt>
      <trkpt lat="47.31562" lon="-2.36855">
        <ele>51</ele>
        <time>2020-07-02T09:56:57.000Z</time>
      </trkpt>
      <trkpt lat="47.3156" lon="-2.36847">
        <ele>50.599998474121</ele>
        <time>2020-07-02T09:56:58.000Z</time>
      </trkpt>
      <trkpt lat="47.31557" lon="-2.36839">
        <ele>50.200000762939</ele>
        <time>2020-07-02T09:56:59.000Z</time>
      </trkpt>
      <trkpt lat="47.31555" lon="-2.36831">
        <ele>49.799999237061</ele>
        <time>2020-07-02T09:57:00.000Z</time>
      </trkpt>
      <trkpt lat="47.31551" lon="-2.36818">
        <ele>49.200000762939</ele>
        <time>2020-07-02T09:57:02.000Z</time>
      </trkpt>
      <trkpt lat="47.3155" lon="-2.36812">
        <ele>48.799999237061</ele>
        <time>2020-07-02T09:57:03.000Z</time>
      </trkpt>
      <trkpt lat="47.31549" lon="-2.36807">
        <ele>48.400001525879</ele>
        <time>2020-07-02T09:57:04.000Z</time>
      </trkpt>
      <trkpt lat="47.31547" lon="-2.36803">
        <ele>48</ele>
        <time>2020-07-02T09:57:05.000Z</time>
      </trkpt>
      <trkpt lat="47.31546" lon="-2.36797">
        <ele>47.599998474121</ele>
        <time>2020-07-02T09:57:06.000Z</time>
      </trkpt>
      <trkpt lat="47.31537" lon="-2.36756">
        <ele>47.599998474121</ele>
        <time>2020-07-02T09:57:11.000Z</time>
      </trkpt>
      <trkpt lat="47.31533" lon="-2.36737">
        <ele>47.200000762939</ele>
        <time>2020-07-02T09:57:13.000Z</time>
      </trkpt>
      <trkpt lat="47.3153" lon="-2.36728">
        <ele>46.799999237061</ele>
        <time>2020-07-02T09:57:14.000Z</time>
      </trkpt>
      <trkpt lat="47.31528" lon="-2.36719">
        <ele>46.400001525879</ele>
        <time>2020-07-02T09:57:15.000Z</time>
      </trkpt>
      <trkpt lat="47.31525" lon="-2.3671">
        <ele>46</ele>
        <time>2020-07-02T09:57:16.000Z</time>
      </trkpt>
      <trkpt lat="47.31523" lon="-2.36701">
        <ele>45.599998474121</ele>
        <time>2020-07-02T09:57:17.000Z</time>
      </trkpt>
      <trkpt lat="47.31521" lon="-2.36692">
        <ele>45.599998474121</ele>
        <time>2020-07-02T09:57:18.000Z</time>
      </trkpt>
      <trkpt lat="47.31513" lon="-2.36655">
        <ele>45.599998474121</ele>
        <time>2020-07-02T09:57:22.000Z</time>
      </trkpt>
      <trkpt lat="47.31512" lon="-2.36646">
        <ele>45.200000762939</ele>
        <time>2020-07-02T09:57:23.000Z</time>
      </trkpt>
      <trkpt lat="47.3151" lon="-2.36638">
        <ele>44.599998474121</ele>
        <time>2020-07-02T09:57:24.000Z</time>
      </trkpt>
      <trkpt lat="47.31508" lon="-2.36629">
        <ele>43.799999237061</ele>
        <time>2020-07-02T09:57:25.000Z</time>
      </trkpt>
      <trkpt lat="47.31505" lon="-2.36621">
        <ele>43.400001525879</ele>
        <time>2020-07-02T09:57:26.000Z</time>
      </trkpt>
      <trkpt lat="47.31499" lon="-2.36597">
        <ele>43.400001525879</ele>
        <time>2020-07-02T09:57:29.000Z</time>
      </trkpt>
      <trkpt lat="47.31498" lon="-2.36589">
        <ele>43.400001525879</ele>
        <time>2020-07-02T09:57:30.000Z</time>
      </trkpt>
      <trkpt lat="47.315" lon="-2.36566">
        <ele>43.400001525879</ele>
        <time>2020-07-02T09:57:33.000Z</time>
      </trkpt>
      <trkpt lat="47.315" lon="-2.36538">
        <ele>43.400001525879</ele>
        <time>2020-07-02T09:57:37.000Z</time>
      </trkpt>
      <trkpt lat="47.315" lon="-2.3653">
        <ele>43.400001525879</ele>
        <time>2020-07-02T09:57:39.000Z</time>
      </trkpt>
      <trkpt lat="47.315" lon="-2.36521">
        <ele>43.400001525879</ele>
        <time>2020-07-02T09:57:41.000Z</time>
      </trkpt>
      <trkpt lat="47.31498" lon="-2.365">
        <ele>43.400001525879</ele>
        <time>2020-07-02T09:57:46.000Z</time>
      </trkpt>
      <trkpt lat="47.31497" lon="-2.3647">
        <ele>43.400001525879</ele>
        <time>2020-07-02T09:57:51.000Z</time>
      </trkpt>
      <trkpt lat="47.31496" lon="-2.36464">
        <ele>43.400001525879</ele>
        <time>2020-07-02T09:57:52.000Z</time>
      </trkpt>
      <trkpt lat="47.31495" lon="-2.36439">
        <ele>43.400001525879</ele>
        <time>2020-07-02T09:57:56.000Z</time>
      </trkpt>
      <trkpt lat="47.31493" lon="-2.36398">
        <ele>43.400001525879</ele>
        <time>2020-07-02T09:58:03.000Z</time>
      </trkpt>
      <trkpt lat="47.31493" lon="-2.36386">
        <ele>43.799999237061</ele>
        <time>2020-07-02T09:58:05.000Z</time>
      </trkpt>
      <trkpt lat="47.31492" lon="-2.3638">
        <ele>44.200000762939</ele>
        <time>2020-07-02T09:58:06.000Z</time>
      </trkpt>
      <trkpt lat="47.31492" lon="-2.36374">
        <ele>44.799999237061</ele>
        <time>2020-07-02T09:58:07.000Z</time>
      </trkpt>
      <trkpt lat="47.31492" lon="-2.36369">
        <ele>45.200000762939</ele>
        <time>2020-07-02T09:58:08.000Z</time>
      </trkpt>
      <trkpt lat="47.31492" lon="-2.36362">
        <ele>45.599998474121</ele>
        <time>2020-07-02T09:58:09.000Z</time>
      </trkpt>
      <trkpt lat="47.31492" lon="-2.36348">
        <ele>45.599998474121</ele>
        <time>2020-07-02T09:58:11.000Z</time>
      </trkpt>
      <trkpt lat="47.3149" lon="-2.36329">
        <ele>45.599998474121</ele>
        <time>2020-07-02T09:58:14.000Z</time>
      </trkpt>
      <trkpt lat="47.31488" lon="-2.36312">
        <ele>46</ele>
        <time>2020-07-02T09:58:17.000Z</time>
      </trkpt>
      <trkpt lat="47.31487" lon="-2.36307">
        <ele>46.599998474121</ele>
        <time>2020-07-02T09:58:18.000Z</time>
      </trkpt>
      <trkpt lat="47.31486" lon="-2.36302">
        <ele>47</ele>
        <time>2020-07-02T09:58:19.000Z</time>
      </trkpt>
      <trkpt lat="47.31485" lon="-2.36298">
        <ele>47.400001525879</ele>
        <time>2020-07-02T09:58:20.000Z</time>
      </trkpt>
      <trkpt lat="47.31484" lon="-2.36293">
        <ele>47.799999237061</ele>
        <time>2020-07-02T09:58:21.000Z</time>
      </trkpt>
      <trkpt lat="47.31478" lon="-2.36266">
        <ele>47.799999237061</ele>
        <time>2020-07-02T09:58:27.000Z</time>
      </trkpt>
      <trkpt lat="47.31471" lon="-2.3623">
        <ele>47.799999237061</ele>
        <time>2020-07-02T09:58:35.000Z</time>
      </trkpt>
      <trkpt lat="47.31467" lon="-2.36206">
        <ele>47.799999237061</ele>
        <time>2020-07-02T09:58:40.000Z</time>
      </trkpt>
      <trkpt lat="47.31464" lon="-2.36191">
        <ele>48.200000762939</ele>
        <time>2020-07-02T09:58:43.000Z</time>
      </trkpt>
      <trkpt lat="47.31463" lon="-2.36186">
        <ele>48.599998474121</ele>
        <time>2020-07-02T09:58:44.000Z</time>
      </trkpt>
      <trkpt lat="47.31463" lon="-2.3618">
        <ele>49</ele>
        <time>2020-07-02T09:58:45.000Z</time>
      </trkpt>
      <trkpt lat="47.31461" lon="-2.36174">
        <ele>49.400001525879</ele>
        <time>2020-07-02T09:58:46.000Z</time>
      </trkpt>
      <trkpt lat="47.3146" lon="-2.36168">
        <ele>50</ele>
        <time>2020-07-02T09:58:47.000Z</time>
      </trkpt>
      <trkpt lat="47.31458" lon="-2.36161">
        <ele>50</ele>
        <time>2020-07-02T09:58:48.000Z</time>
      </trkpt>
      <trkpt lat="47.31453" lon="-2.36142">
        <ele>50</ele>
        <time>2020-07-02T09:58:51.000Z</time>
      </trkpt>
      <trkpt lat="47.31451" lon="-2.36135">
        <ele>50</ele>
        <time>2020-07-02T09:58:52.000Z</time>
      </trkpt>
      <trkpt lat="47.31443" lon="-2.36108">
        <ele>50</ele>
        <time>2020-07-02T09:58:56.000Z</time>
      </trkpt>
      <trkpt lat="47.31434" lon="-2.36087">
        <ele>50</ele>
        <time>2020-07-02T09:58:59.000Z</time>
      </trkpt>
      <trkpt lat="47.31415" lon="-2.36033">
        <ele>50</ele>
        <time>2020-07-02T09:59:06.000Z</time>
      </trkpt>
      <trkpt lat="47.31402" lon="-2.35992">
        <ele>49.599998474121</ele>
        <time>2020-07-02T09:59:11.000Z</time>
      </trkpt>
      <trkpt lat="47.31399" lon="-2.35983">
        <ele>49.200000762939</ele>
        <time>2020-07-02T09:59:12.000Z</time>
      </trkpt>
      <trkpt lat="47.31396" lon="-2.35975">
        <ele>48.799999237061</ele>
        <time>2020-07-02T09:59:13.000Z</time>
      </trkpt>
      <trkpt lat="47.31393" lon="-2.35966">
        <ele>48.400001525879</ele>
        <time>2020-07-02T09:59:14.000Z</time>
      </trkpt>
      <trkpt lat="47.31389" lon="-2.35957">
        <ele>48</ele>
        <time>2020-07-02T09:59:15.000Z</time>
      </trkpt>
      <trkpt lat="47.31379" lon="-2.3594">
        <ele>48</ele>
        <time>2020-07-02T09:59:17.000Z</time>
      </trkpt>
      <trkpt lat="47.31359" lon="-2.35899">
        <ele>48</ele>
        <time>2020-07-02T09:59:22.000Z</time>
      </trkpt>
      <trkpt lat="47.31345" lon="-2.35865">
        <ele>48</ele>
        <time>2020-07-02T09:59:26.000Z</time>
      </trkpt>
      <trkpt lat="47.31343" lon="-2.35858">
        <ele>48</ele>
        <time>2020-07-02T09:59:27.000Z</time>
      </trkpt>
      <trkpt lat="47.31339" lon="-2.35833">
        <ele>48</ele>
        <time>2020-07-02T09:59:30.000Z</time>
      </trkpt>
      <trkpt lat="47.31332" lon="-2.35773">
        <ele>48</ele>
        <time>2020-07-02T09:59:37.000Z</time>
      </trkpt>
      <trkpt lat="47.31331" lon="-2.35749">
        <ele>48</ele>
        <time>2020-07-02T09:59:40.000Z</time>
      </trkpt>
      <trkpt lat="47.31332" lon="-2.35732">
        <ele>48</ele>
        <time>2020-07-02T09:59:42.000Z</time>
      </trkpt>
      <trkpt lat="47.31332" lon="-2.35679">
        <ele>48</ele>
        <time>2020-07-02T09:59:48.000Z</time>
      </trkpt>
      <trkpt lat="47.3133" lon="-2.35619">
        <ele>48</ele>
        <time>2020-07-02T09:59:55.000Z</time>
      </trkpt>
      <trkpt lat="47.31328" lon="-2.35557">
        <ele>48</ele>
        <time>2020-07-02T10:00:02.000Z</time>
      </trkpt>
      <trkpt lat="47.31331" lon="-2.35508">
        <ele>48</ele>
        <time>2020-07-02T10:00:07.000Z</time>
      </trkpt>
      <trkpt lat="47.31329" lon="-2.35432">
        <ele>48</ele>
        <time>2020-07-02T10:00:14.000Z</time>
      </trkpt>
      <trkpt lat="47.31328" lon="-2.3536">
        <ele>48</ele>
        <time>2020-07-02T10:00:20.000Z</time>
      </trkpt>
      <trkpt lat="47.31334" lon="-2.35278">
        <ele>48</ele>
        <time>2020-07-02T10:00:26.000Z</time>
      </trkpt>
      <trkpt lat="47.31338" lon="-2.35187">
        <ele>48</ele>
        <time>2020-07-02T10:00:33.000Z</time>
      </trkpt>
      <trkpt lat="47.31339" lon="-2.35174">
        <ele>48</ele>
        <time>2020-07-02T10:00:34.000Z</time>
      </trkpt>
      <trkpt lat="47.31342" lon="-2.35085">
        <ele>48</ele>
        <time>2020-07-02T10:00:41.000Z</time>
      </trkpt>
      <trkpt lat="47.31342" lon="-2.35073">
        <ele>48</ele>
        <time>2020-07-02T10:00:42.000Z</time>
      </trkpt>
      <trkpt lat="47.3134" lon="-2.35001">
        <ele>48</ele>
        <time>2020-07-02T10:00:48.000Z</time>
      </trkpt>
      <trkpt lat="47.31338" lon="-2.34989">
        <ele>48</ele>
        <time>2020-07-02T10:00:49.000Z</time>
      </trkpt>
      <trkpt lat="47.31321" lon="-2.34922">
        <ele>48</ele>
        <time>2020-07-02T10:00:55.000Z</time>
      </trkpt>
      <trkpt lat="47.31305" lon="-2.34861">
        <ele>48</ele>
        <time>2020-07-02T10:01:01.000Z</time>
      </trkpt>
      <trkpt lat="47.3129" lon="-2.34794">
        <ele>48</ele>
        <time>2020-07-02T10:01:08.000Z</time>
      </trkpt>
      <trkpt lat="47.3128" lon="-2.34738">
        <ele>48</ele>
        <time>2020-07-02T10:01:14.000Z</time>
      </trkpt>
      <trkpt lat="47.31274" lon="-2.34698">
        <ele>47.400001525879</ele>
        <time>2020-07-02T10:01:19.000Z</time>
      </trkpt>
      <trkpt lat="47.31276" lon="-2.34693">
        <ele>47</ele>
        <time>2020-07-02T10:01:20.000Z</time>
      </trkpt>
      <trkpt lat="47.31278" lon="-2.34691">
        <ele>46.599998474121</ele>
        <time>2020-07-02T10:01:21.000Z</time>
      </trkpt>
      <trkpt lat="47.3128" lon="-2.3469">
        <ele>46.200000762939</ele>
        <time>2020-07-02T10:01:22.000Z</time>
      </trkpt>
      <trkpt lat="47.31281" lon="-2.34687">
        <ele>45.799999237061</ele>
        <time>2020-07-02T10:01:23.000Z</time>
      </trkpt>
      <trkpt lat="47.31288" lon="-2.34673">
        <ele>45.799999237061</ele>
        <time>2020-07-02T10:01:26.000Z</time>
      </trkpt>
      <trkpt lat="47.31292" lon="-2.34647">
        <ele>45.799999237061</ele>
        <time>2020-07-02T10:01:29.000Z</time>
      </trkpt>
      <trkpt lat="47.31288" lon="-2.34615">
        <ele>45.799999237061</ele>
        <time>2020-07-02T10:01:32.000Z</time>
      </trkpt>
      <trkpt lat="47.31286" lon="-2.34603">
        <ele>45.400001525879</ele>
        <time>2020-07-02T10:01:33.000Z</time>
      </trkpt>
      <trkpt lat="47.31285" lon="-2.34591">
        <ele>45</ele>
        <time>2020-07-02T10:01:34.000Z</time>
      </trkpt>
      <trkpt lat="47.31283" lon="-2.34579">
        <ele>44.599998474121</ele>
        <time>2020-07-02T10:01:35.000Z</time>
      </trkpt>
      <trkpt lat="47.31282" lon="-2.34566">
        <ele>44.200000762939</ele>
        <time>2020-07-02T10:01:36.000Z</time>
      </trkpt>
      <trkpt lat="47.31281" lon="-2.34552">
        <ele>43.799999237061</ele>
        <time>2020-07-02T10:01:37.000Z</time>
      </trkpt>
      <trkpt lat="47.31275" lon="-2.345">
        <ele>43.799999237061</ele>
        <time>2020-07-02T10:01:41.000Z</time>
      </trkpt>
      <trkpt lat="47.3127" lon="-2.3446">
        <ele>43.400001525879</ele>
        <time>2020-07-02T10:01:44.000Z</time>
      </trkpt>
      <trkpt lat="47.31269" lon="-2.34446">
        <ele>43</ele>
        <time>2020-07-02T10:01:45.000Z</time>
      </trkpt>
      <trkpt lat="47.31267" lon="-2.34433">
        <ele>42.599998474121</ele>
        <time>2020-07-02T10:01:46.000Z</time>
      </trkpt>
      <trkpt lat="47.31266" lon="-2.3442">
        <ele>42.200000762939</ele>
        <time>2020-07-02T10:01:47.000Z</time>
      </trkpt>
      <trkpt lat="47.31265" lon="-2.34406">
        <ele>41.799999237061</ele>
        <time>2020-07-02T10:01:48.000Z</time>
      </trkpt>
      <trkpt lat="47.31259" lon="-2.34366">
        <ele>41.200000762939</ele>
        <time>2020-07-02T10:01:51.000Z</time>
      </trkpt>
      <trkpt lat="47.31256" lon="-2.34355">
        <ele>40.799999237061</ele>
        <time>2020-07-02T10:01:52.000Z</time>
      </trkpt>
      <trkpt lat="47.31253" lon="-2.34348">
        <ele>40.400001525879</ele>
        <time>2020-07-02T10:01:53.000Z</time>
      </trkpt>
      <trkpt lat="47.31249" lon="-2.34342">
        <ele>40</ele>
        <time>2020-07-02T10:01:54.000Z</time>
      </trkpt>
      <trkpt lat="47.31245" lon="-2.34337">
        <ele>39.599998474121</ele>
        <time>2020-07-02T10:01:55.000Z</time>
      </trkpt>
      <trkpt lat="47.31239" lon="-2.3433">
        <ele>39.599998474121</ele>
        <time>2020-07-02T10:01:56.000Z</time>
      </trkpt>
      <trkpt lat="47.31231" lon="-2.34325">
        <ele>39.599998474121</ele>
        <time>2020-07-02T10:01:57.000Z</time>
      </trkpt>
      <trkpt lat="47.31211" lon="-2.34312">
        <ele>39.599998474121</ele>
        <time>2020-07-02T10:01:59.000Z</time>
      </trkpt>
      <trkpt lat="47.31196" lon="-2.3429">
        <ele>39.200000762939</ele>
        <time>2020-07-02T10:02:01.000Z</time>
      </trkpt>
      <trkpt lat="47.3119" lon="-2.34278">
        <ele>38.799999237061</ele>
        <time>2020-07-02T10:02:02.000Z</time>
      </trkpt>
      <trkpt lat="47.31184" lon="-2.34267">
        <ele>38.400001525879</ele>
        <time>2020-07-02T10:02:03.000Z</time>
      </trkpt>
      <trkpt lat="47.31177" lon="-2.34257">
        <ele>37.799999237061</ele>
        <time>2020-07-02T10:02:04.000Z</time>
      </trkpt>
      <trkpt lat="47.31171" lon="-2.34246">
        <ele>37.400001525879</ele>
        <time>2020-07-02T10:02:05.000Z</time>
      </trkpt>
      <trkpt lat="47.31152" lon="-2.34217">
        <ele>37.400001525879</ele>
        <time>2020-07-02T10:02:08.000Z</time>
      </trkpt>
      <trkpt lat="47.31122" lon="-2.34169">
        <ele>37.400001525879</ele>
        <time>2020-07-02T10:02:14.000Z</time>
      </trkpt>
      <trkpt lat="47.31109" lon="-2.34147">
        <ele>37.799999237061</ele>
        <time>2020-07-02T10:02:17.000Z</time>
      </trkpt>
      <trkpt lat="47.31105" lon="-2.34139">
        <ele>38.200000762939</ele>
        <time>2020-07-02T10:02:18.000Z</time>
      </trkpt>
      <trkpt lat="47.31101" lon="-2.34132">
        <ele>38.799999237061</ele>
        <time>2020-07-02T10:02:19.000Z</time>
      </trkpt>
      <trkpt lat="47.31098" lon="-2.34126">
        <ele>39.200000762939</ele>
        <time>2020-07-02T10:02:20.000Z</time>
      </trkpt>
      <trkpt lat="47.31094" lon="-2.34119">
        <ele>39.599998474121</ele>
        <time>2020-07-02T10:02:21.000Z</time>
      </trkpt>
      <trkpt lat="47.31091" lon="-2.34112">
        <ele>40</ele>
        <time>2020-07-02T10:02:22.000Z</time>
      </trkpt>
      <trkpt lat="47.31087" lon="-2.34105">
        <ele>40.599998474121</ele>
        <time>2020-07-02T10:02:23.000Z</time>
      </trkpt>
      <trkpt lat="47.31084" lon="-2.34098">
        <ele>41</ele>
        <time>2020-07-02T10:02:24.000Z</time>
      </trkpt>
      <trkpt lat="47.31081" lon="-2.3409">
        <ele>41.400001525879</ele>
        <time>2020-07-02T10:02:25.000Z</time>
      </trkpt>
      <trkpt lat="47.31079" lon="-2.34082">
        <ele>41.799999237061</ele>
        <time>2020-07-02T10:02:26.000Z</time>
      </trkpt>
      <trkpt lat="47.31066" lon="-2.34039">
        <ele>42.400001525879</ele>
        <time>2020-07-02T10:02:31.000Z</time>
      </trkpt>
      <trkpt lat="47.31066" lon="-2.3403">
        <ele>42.799999237061</ele>
        <time>2020-07-02T10:02:32.000Z</time>
      </trkpt>
      <trkpt lat="47.31065" lon="-2.34021">
        <ele>43.200000762939</ele>
        <time>2020-07-02T10:02:33.000Z</time>
      </trkpt>
      <trkpt lat="47.31064" lon="-2.34012">
        <ele>43.799999237061</ele>
        <time>2020-07-02T10:02:34.000Z</time>
      </trkpt>
      <trkpt lat="47.31063" lon="-2.34002">
        <ele>44.200000762939</ele>
        <time>2020-07-02T10:02:35.000Z</time>
      </trkpt>
      <trkpt lat="47.31063" lon="-2.33973">
        <ele>44.200000762939</ele>
        <time>2020-07-02T10:02:38.000Z</time>
      </trkpt>
      <trkpt lat="47.31061" lon="-2.33954">
        <ele>44.200000762939</ele>
        <time>2020-07-02T10:02:40.000Z</time>
      </trkpt>
      <trkpt lat="47.31051" lon="-2.33944">
        <ele>44.200000762939</ele>
        <time>2020-07-02T10:02:42.000Z</time>
      </trkpt>
      <trkpt lat="47.31034" lon="-2.33947">
        <ele>44.200000762939</ele>
        <time>2020-07-02T10:02:45.000Z</time>
      </trkpt>
      <trkpt lat="47.31016" lon="-2.33951">
        <ele>44.599998474121</ele>
        <time>2020-07-02T10:02:48.000Z</time>
      </trkpt>
      <trkpt lat="47.31011" lon="-2.33952">
        <ele>45</ele>
        <time>2020-07-02T10:02:49.000Z</time>
      </trkpt>
      <trkpt lat="47.31005" lon="-2.33952">
        <ele>45.599998474121</ele>
        <time>2020-07-02T10:02:50.000Z</time>
      </trkpt>
      <trkpt lat="47.31" lon="-2.33953">
        <ele>46</ele>
        <time>2020-07-02T10:02:51.000Z</time>
      </trkpt>
      <trkpt lat="47.30994" lon="-2.33954">
        <ele>46.400001525879</ele>
        <time>2020-07-02T10:02:52.000Z</time>
      </trkpt>
      <trkpt lat="47.30966" lon="-2.33954">
        <ele>46.400001525879</ele>
        <time>2020-07-02T10:02:57.000Z</time>
      </trkpt>
      <trkpt lat="47.30933" lon="-2.33949">
        <ele>46.400001525879</ele>
        <time>2020-07-02T10:03:03.000Z</time>
      </trkpt>
      <trkpt lat="47.30898" lon="-2.33947">
        <ele>46.400001525879</ele>
        <time>2020-07-02T10:03:09.000Z</time>
      </trkpt>
      <trkpt lat="47.30856" lon="-2.33954">
        <ele>46.400001525879</ele>
        <time>2020-07-02T10:03:16.000Z</time>
      </trkpt>
      <trkpt lat="47.30812" lon="-2.33964">
        <ele>46.400001525879</ele>
        <time>2020-07-02T10:03:24.000Z</time>
      </trkpt>
      <trkpt lat="47.30772" lon="-2.33974">
        <ele>46.400001525879</ele>
        <time>2020-07-02T10:03:31.000Z</time>
      </trkpt>
      <trkpt lat="47.30734" lon="-2.33982">
        <ele>46.400001525879</ele>
        <time>2020-07-02T10:03:38.000Z</time>
      </trkpt>
      <trkpt lat="47.30721" lon="-2.33989">
        <ele>46.400001525879</ele>
        <time>2020-07-02T10:03:42.000Z</time>
      </trkpt>
      <trkpt lat="47.30721" lon="-2.33993">
        <ele>46.400001525879</ele>
        <time>2020-07-02T10:03:44.000Z</time>
      </trkpt>
      <trkpt lat="47.30719" lon="-2.33997">
        <ele>46.400001525879</ele>
        <time>2020-07-02T10:03:46.000Z</time>
      </trkpt>
      <trkpt lat="47.30719" lon="-2.34008">
        <ele>46.400001525879</ele>
        <time>2020-07-02T10:03:50.000Z</time>
      </trkpt>
      <trkpt lat="47.30719" lon="-2.34011">
        <ele>46.400001525879</ele>
        <time>2020-07-02T10:03:51.000Z</time>
      </trkpt>
      <trkpt lat="47.30716" lon="-2.34018">
        <ele>46.400001525879</ele>
        <time>2020-07-02T10:03:54.000Z</time>
      </trkpt>
      <trkpt lat="47.30713" lon="-2.3402">
        <ele>46.400001525879</ele>
        <time>2020-07-02T10:03:56.000Z</time>
      </trkpt>
      <trkpt lat="47.30699" lon="-2.3402">
        <ele>46.400001525879</ele>
        <time>2020-07-02T10:04:02.000Z</time>
      </trkpt>
      <trkpt lat="47.30682" lon="-2.34026">
        <ele>46.400001525879</ele>
        <time>2020-07-02T10:04:08.000Z</time>
      </trkpt>
      <trkpt lat="47.30664" lon="-2.34041">
        <ele>46.400001525879</ele>
        <time>2020-07-02T10:04:14.000Z</time>
      </trkpt>
      <trkpt lat="47.30645" lon="-2.34055">
        <ele>46.400001525879</ele>
        <time>2020-07-02T10:04:20.000Z</time>
      </trkpt>
      <trkpt lat="47.30626" lon="-2.34063">
        <ele>46.400001525879</ele>
        <time>2020-07-02T10:04:26.000Z</time>
      </trkpt>
      <trkpt lat="47.30606" lon="-2.34079">
        <ele>46.400001525879</ele>
        <time>2020-07-02T10:04:32.000Z</time>
      </trkpt>
      <trkpt lat="47.30594" lon="-2.34102">
        <ele>46.400001525879</ele>
        <time>2020-07-02T10:04:38.000Z</time>
      </trkpt>
      <trkpt lat="47.3058" lon="-2.3413">
        <ele>46.400001525879</ele>
        <time>2020-07-02T10:04:45.000Z</time>
      </trkpt>
      <trkpt lat="47.30565" lon="-2.34147">
        <ele>46.400001525879</ele>
        <time>2020-07-02T10:04:51.000Z</time>
      </trkpt>
      <trkpt lat="47.3055" lon="-2.34169">
        <ele>46.400001525879</ele>
        <time>2020-07-02T10:04:58.000Z</time>
      </trkpt>
      <trkpt lat="47.30531" lon="-2.34183">
        <ele>46.400001525879</ele>
        <time>2020-07-02T10:05:05.000Z</time>
      </trkpt>
      <trkpt lat="47.3052" lon="-2.34197">
        <ele>46.400001525879</ele>
        <time>2020-07-02T10:05:09.000Z</time>
      </trkpt>
      <trkpt lat="47.30512" lon="-2.34217">
        <ele>46.400001525879</ele>
        <time>2020-07-02T10:05:14.000Z</time>
      </trkpt>
      <trkpt lat="47.30498" lon="-2.3425">
        <ele>46.400001525879</ele>
        <time>2020-07-02T10:05:21.000Z</time>
      </trkpt>
      <trkpt lat="47.30497" lon="-2.34272">
        <ele>46.799999237061</ele>
        <time>2020-07-02T10:05:25.000Z</time>
      </trkpt>
      <trkpt lat="47.30498" lon="-2.34277">
        <ele>47.200000762939</ele>
        <time>2020-07-02T10:05:26.000Z</time>
      </trkpt>
      <trkpt lat="47.305" lon="-2.34281">
        <ele>47.599998474121</ele>
        <time>2020-07-02T10:05:27.000Z</time>
      </trkpt>
      <trkpt lat="47.30503" lon="-2.34286">
        <ele>48</ele>
        <time>2020-07-02T10:05:28.000Z</time>
      </trkpt>
      <trkpt lat="47.30505" lon="-2.34291">
        <ele>48.599998474121</ele>
        <time>2020-07-02T10:05:29.000Z</time>
      </trkpt>
      <trkpt lat="47.30507" lon="-2.34296">
        <ele>48.599998474121</ele>
        <time>2020-07-02T10:05:30.000Z</time>
      </trkpt>
      <trkpt lat="47.30515" lon="-2.34319">
        <ele>48.599998474121</ele>
        <time>2020-07-02T10:05:35.000Z</time>
      </trkpt>
      <trkpt lat="47.30518" lon="-2.3435">
        <ele>48.599998474121</ele>
        <time>2020-07-02T10:05:40.000Z</time>
      </trkpt>
      <trkpt lat="47.30513" lon="-2.3438">
        <ele>48.599998474121</ele>
        <time>2020-07-02T10:05:45.000Z</time>
      </trkpt>
      <trkpt lat="47.30507" lon="-2.34411">
        <ele>48.599998474121</ele>
        <time>2020-07-02T10:05:51.000Z</time>
      </trkpt>
      <trkpt lat="47.30508" lon="-2.34416">
        <ele>48.599998474121</ele>
        <time>2020-07-02T10:05:52.000Z</time>
      </trkpt>
      <trkpt lat="47.30511" lon="-2.3444">
        <ele>48.599998474121</ele>
        <time>2020-07-02T10:05:56.000Z</time>
      </trkpt>
      <trkpt lat="47.30517" lon="-2.34459">
        <ele>48.599998474121</ele>
        <time>2020-07-02T10:06:00.000Z</time>
      </trkpt>
      <trkpt lat="47.3052" lon="-2.34463">
        <ele>48.599998474121</ele>
        <time>2020-07-02T10:06:01.000Z</time>
      </trkpt>
      <trkpt lat="47.30536" lon="-2.34479">
        <ele>48.599998474121</ele>
        <time>2020-07-02T10:06:06.000Z</time>
      </trkpt>
      <trkpt lat="47.30555" lon="-2.34505">
        <ele>48.599998474121</ele>
        <time>2020-07-02T10:06:12.000Z</time>
      </trkpt>
      <trkpt lat="47.30566" lon="-2.34533">
        <ele>48.599998474121</ele>
        <time>2020-07-02T10:06:18.000Z</time>
      </trkpt>
      <trkpt lat="47.30554" lon="-2.34557">
        <ele>48.599998474121</ele>
        <time>2020-07-02T10:06:22.000Z</time>
      </trkpt>
      <trkpt lat="47.30546" lon="-2.3457">
        <ele>48.599998474121</ele>
        <time>2020-07-02T10:06:24.000Z</time>
      </trkpt>
      <trkpt lat="47.30536" lon="-2.34581">
        <ele>48.599998474121</ele>
        <time>2020-07-02T10:06:26.000Z</time>
      </trkpt>
      <trkpt lat="47.30519" lon="-2.34603">
        <ele>48.599998474121</ele>
        <time>2020-07-02T10:06:30.000Z</time>
      </trkpt>
      <trkpt lat="47.30517" lon="-2.3461">
        <ele>48.599998474121</ele>
        <time>2020-07-02T10:06:31.000Z</time>
      </trkpt>
      <trkpt lat="47.30494" lon="-2.34647">
        <ele>48.599998474121</ele>
        <time>2020-07-02T10:06:37.000Z</time>
      </trkpt>
      <trkpt lat="47.30467" lon="-2.34677">
        <ele>48.599998474121</ele>
        <time>2020-07-02T10:06:42.000Z</time>
      </trkpt>
      <trkpt lat="47.30461" lon="-2.34682">
        <ele>48.599998474121</ele>
        <time>2020-07-02T10:06:43.000Z</time>
      </trkpt>
      <trkpt lat="47.30451" lon="-2.34691">
        <ele>48.599998474121</ele>
        <time>2020-07-02T10:06:45.000Z</time>
      </trkpt>
      <trkpt lat="47.30441" lon="-2.34701">
        <ele>48.599998474121</ele>
        <time>2020-07-02T10:06:47.000Z</time>
      </trkpt>
      <trkpt lat="47.30432" lon="-2.34713">
        <ele>48.599998474121</ele>
        <time>2020-07-02T10:06:49.000Z</time>
      </trkpt>
      <trkpt lat="47.30426" lon="-2.34717">
        <ele>48.599998474121</ele>
        <time>2020-07-02T10:06:50.000Z</time>
      </trkpt>
      <trkpt lat="47.30415" lon="-2.34724">
        <ele>48.599998474121</ele>
        <time>2020-07-02T10:06:52.000Z</time>
      </trkpt>
      <trkpt lat="47.30386" lon="-2.34743">
        <ele>48.599998474121</ele>
        <time>2020-07-02T10:06:57.000Z</time>
      </trkpt>
      <trkpt lat="47.30375" lon="-2.34752">
        <ele>48.599998474121</ele>
        <time>2020-07-02T10:06:59.000Z</time>
      </trkpt>
      <trkpt lat="47.30359" lon="-2.34762">
        <ele>48.599998474121</ele>
        <time>2020-07-02T10:07:02.000Z</time>
      </trkpt>
      <trkpt lat="47.30342" lon="-2.34775">
        <ele>48.599998474121</ele>
        <time>2020-07-02T10:07:05.000Z</time>
      </trkpt>
      <trkpt lat="47.30335" lon="-2.34788">
        <ele>48.599998474121</ele>
        <time>2020-07-02T10:07:07.000Z</time>
      </trkpt>
      <trkpt lat="47.30311" lon="-2.3483">
        <ele>48.599998474121</ele>
        <time>2020-07-02T10:07:13.000Z</time>
      </trkpt>
      <trkpt lat="47.30295" lon="-2.34846">
        <ele>48.599998474121</ele>
        <time>2020-07-02T10:07:16.000Z</time>
      </trkpt>
      <trkpt lat="47.30284" lon="-2.34853">
        <ele>48.599998474121</ele>
        <time>2020-07-02T10:07:18.000Z</time>
      </trkpt>
      <trkpt lat="47.30251" lon="-2.34872">
        <ele>48.599998474121</ele>
        <time>2020-07-02T10:07:23.000Z</time>
      </trkpt>
      <trkpt lat="47.30232" lon="-2.34887">
        <ele>48.599998474121</ele>
        <time>2020-07-02T10:07:26.000Z</time>
      </trkpt>
      <trkpt lat="47.3022" lon="-2.34898">
        <ele>48.599998474121</ele>
        <time>2020-07-02T10:07:28.000Z</time>
      </trkpt>
      <trkpt lat="47.3021" lon="-2.34911">
        <ele>48.599998474121</ele>
        <time>2020-07-02T10:07:30.000Z</time>
      </trkpt>
      <trkpt lat="47.30209" lon="-2.3492">
        <ele>48.599998474121</ele>
        <time>2020-07-02T10:07:31.000Z</time>
      </trkpt>
      <trkpt lat="47.3021" lon="-2.34948">
        <ele>48.599998474121</ele>
        <time>2020-07-02T10:07:34.000Z</time>
      </trkpt>
      <trkpt lat="47.3021" lon="-2.34959">
        <ele>48.599998474121</ele>
        <time>2020-07-02T10:07:35.000Z</time>
      </trkpt>
      <trkpt lat="47.30211" lon="-2.35023">
        <ele>48.599998474121</ele>
        <time>2020-07-02T10:07:41.000Z</time>
      </trkpt>
      <trkpt lat="47.3021" lon="-2.35036">
        <ele>48.599998474121</ele>
        <time>2020-07-02T10:07:42.000Z</time>
      </trkpt>
      <trkpt lat="47.3021" lon="-2.35068">
        <ele>48.599998474121</ele>
        <time>2020-07-02T10:07:45.000Z</time>
      </trkpt>
      <trkpt lat="47.3021" lon="-2.35077">
        <ele>48</ele>
        <time>2020-07-02T10:07:46.000Z</time>
      </trkpt>
      <trkpt lat="47.30211" lon="-2.35087">
        <ele>47.599998474121</ele>
        <time>2020-07-02T10:07:47.000Z</time>
      </trkpt>
      <trkpt lat="47.30211" lon="-2.35098">
        <ele>47</ele>
        <time>2020-07-02T10:07:48.000Z</time>
      </trkpt>
      <trkpt lat="47.3021" lon="-2.35108">
        <ele>46.599998474121</ele>
        <time>2020-07-02T10:07:49.000Z</time>
      </trkpt>
      <trkpt lat="47.30209" lon="-2.35117">
        <ele>46</ele>
        <time>2020-07-02T10:07:50.000Z</time>
      </trkpt>
      <trkpt lat="47.30209" lon="-2.35128">
        <ele>46</ele>
        <time>2020-07-02T10:07:51.000Z</time>
      </trkpt>
      <trkpt lat="47.30206" lon="-2.35166">
        <ele>45.599998474121</ele>
        <time>2020-07-02T10:07:55.000Z</time>
      </trkpt>
      <trkpt lat="47.30201" lon="-2.35169">
        <ele>45.200000762939</ele>
        <time>2020-07-02T10:07:56.000Z</time>
      </trkpt>
      <trkpt lat="47.30195" lon="-2.3517">
        <ele>44.799999237061</ele>
        <time>2020-07-02T10:07:57.000Z</time>
      </trkpt>
      <trkpt lat="47.3019" lon="-2.35171">
        <ele>44.400001525879</ele>
        <time>2020-07-02T10:07:58.000Z</time>
      </trkpt>
      <trkpt lat="47.30184" lon="-2.35174">
        <ele>44</ele>
        <time>2020-07-02T10:07:59.000Z</time>
      </trkpt>
      <trkpt lat="47.30179" lon="-2.35176">
        <ele>44</ele>
        <time>2020-07-02T10:08:00.000Z</time>
      </trkpt>
      <trkpt lat="47.30168" lon="-2.3518">
        <ele>43.599998474121</ele>
        <time>2020-07-02T10:08:02.000Z</time>
      </trkpt>
      <trkpt lat="47.30163" lon="-2.35185">
        <ele>43.200000762939</ele>
        <time>2020-07-02T10:08:03.000Z</time>
      </trkpt>
      <trkpt lat="47.30159" lon="-2.3519">
        <ele>42.799999237061</ele>
        <time>2020-07-02T10:08:04.000Z</time>
      </trkpt>
      <trkpt lat="47.30155" lon="-2.35193">
        <ele>42.400001525879</ele>
        <time>2020-07-02T10:08:05.000Z</time>
      </trkpt>
      <trkpt lat="47.30151" lon="-2.35195">
        <ele>42</ele>
        <time>2020-07-02T10:08:06.000Z</time>
      </trkpt>
      <trkpt lat="47.30142" lon="-2.35196">
        <ele>42</ele>
        <time>2020-07-02T10:08:08.000Z</time>
      </trkpt>
      <trkpt lat="47.30115" lon="-2.35206">
        <ele>42</ele>
        <time>2020-07-02T10:08:13.000Z</time>
      </trkpt>
      <trkpt lat="47.30081" lon="-2.35221">
        <ele>42</ele>
        <time>2020-07-02T10:08:19.000Z</time>
      </trkpt>
      <trkpt lat="47.30061" lon="-2.35232">
        <ele>42</ele>
        <time>2020-07-02T10:08:23.000Z</time>
      </trkpt>
      <trkpt lat="47.30032" lon="-2.35246">
        <ele>42</ele>
        <time>2020-07-02T10:08:29.000Z</time>
      </trkpt>
      <trkpt lat="47.30026" lon="-2.35247">
        <ele>42</ele>
        <time>2020-07-02T10:08:32.000Z</time>
      </trkpt>
      <trkpt lat="47.30015" lon="-2.35256">
        <ele>42</ele>
        <time>2020-07-02T10:08:36.000Z</time>
      </trkpt>
      <trkpt lat="47.30013" lon="-2.35256">
        <ele>41.599998474121</ele>
        <time>2020-07-02T10:08:37.000Z</time>
      </trkpt>
      <trkpt lat="47.30011" lon="-2.35258">
        <ele>41.200000762939</ele>
        <time>2020-07-02T10:08:38.000Z</time>
      </trkpt>
      <trkpt lat="47.3001" lon="-2.35259">
        <ele>40.799999237061</ele>
        <time>2020-07-02T10:08:39.000Z</time>
      </trkpt>
      <trkpt lat="47.30009" lon="-2.35261">
        <ele>40.400001525879</ele>
        <time>2020-07-02T10:08:40.000Z</time>
      </trkpt>
      <trkpt lat="47.30007" lon="-2.35261">
        <ele>40</ele>
        <time>2020-07-02T10:08:41.000Z</time>
      </trkpt>
      <trkpt lat="47.29998" lon="-2.35265">
        <ele>40</ele>
        <time>2020-07-02T10:08:44.000Z</time>
      </trkpt>
      <trkpt lat="47.29984" lon="-2.35279">
        <ele>40</ele>
        <time>2020-07-02T10:08:49.000Z</time>
      </trkpt>
      <trkpt lat="47.29969" lon="-2.35298">
        <ele>40</ele>
        <time>2020-07-02T10:08:55.000Z</time>
      </trkpt>
      <trkpt lat="47.29951" lon="-2.35317">
        <ele>40</ele>
        <time>2020-07-02T10:09:01.000Z</time>
      </trkpt>
      <trkpt lat="47.29932" lon="-2.35343">
        <ele>40</ele>
        <time>2020-07-02T10:09:08.000Z</time>
      </trkpt>
      <trkpt lat="47.29907" lon="-2.35373">
        <ele>40</ele>
        <time>2020-07-02T10:09:16.000Z</time>
      </trkpt>
      <trkpt lat="47.2988" lon="-2.35401">
        <ele>40</ele>
        <time>2020-07-02T10:09:24.000Z</time>
      </trkpt>
      <trkpt lat="47.2985" lon="-2.35432">
        <ele>40</ele>
        <time>2020-07-02T10:09:33.000Z</time>
      </trkpt>
      <trkpt lat="47.29831" lon="-2.35454">
        <ele>40</ele>
        <time>2020-07-02T10:09:39.000Z</time>
      </trkpt>
      <trkpt lat="47.29829" lon="-2.35459">
        <ele>40</ele>
        <time>2020-07-02T10:09:40.000Z</time>
      </trkpt>
      <trkpt lat="47.29828" lon="-2.35465">
        <ele>40.400001525879</ele>
        <time>2020-07-02T10:09:41.000Z</time>
      </trkpt>
      <trkpt lat="47.29827" lon="-2.3547">
        <ele>40.799999237061</ele>
        <time>2020-07-02T10:09:42.000Z</time>
      </trkpt>
      <trkpt lat="47.29828" lon="-2.35476">
        <ele>41.200000762939</ele>
        <time>2020-07-02T10:09:43.000Z</time>
      </trkpt>
      <trkpt lat="47.29829" lon="-2.35482">
        <ele>41.599998474121</ele>
        <time>2020-07-02T10:09:44.000Z</time>
      </trkpt>
      <trkpt lat="47.2983" lon="-2.35488">
        <ele>42</ele>
        <time>2020-07-02T10:09:45.000Z</time>
      </trkpt>
      <trkpt lat="47.29835" lon="-2.35505">
        <ele>42</ele>
        <time>2020-07-02T10:09:48.000Z</time>
      </trkpt>
      <trkpt lat="47.29837" lon="-2.3551">
        <ele>42</ele>
        <time>2020-07-02T10:09:49.000Z</time>
      </trkpt>
      <trkpt lat="47.29848" lon="-2.35549">
        <ele>42</ele>
        <time>2020-07-02T10:09:56.000Z</time>
      </trkpt>
      <trkpt lat="47.2985" lon="-2.35555">
        <ele>42.400001525879</ele>
        <time>2020-07-02T10:09:57.000Z</time>
      </trkpt>
      <trkpt lat="47.29852" lon="-2.35561">
        <ele>43</ele>
        <time>2020-07-02T10:09:58.000Z</time>
      </trkpt>
      <trkpt lat="47.29853" lon="-2.35567">
        <ele>43.400001525879</ele>
        <time>2020-07-02T10:09:59.000Z</time>
      </trkpt>
      <trkpt lat="47.29855" lon="-2.35572">
        <ele>43.799999237061</ele>
        <time>2020-07-02T10:10:00.000Z</time>
      </trkpt>
      <trkpt lat="47.29857" lon="-2.35578">
        <ele>44.200000762939</ele>
        <time>2020-07-02T10:10:01.000Z</time>
      </trkpt>
      <trkpt lat="47.29858" lon="-2.35584">
        <ele>44.200000762939</ele>
        <time>2020-07-02T10:10:02.000Z</time>
      </trkpt>
      <trkpt lat="47.29871" lon="-2.35632">
        <ele>44.200000762939</ele>
        <time>2020-07-02T10:10:10.000Z</time>
      </trkpt>
      <trkpt lat="47.29872" lon="-2.35638">
        <ele>44.200000762939</ele>
        <time>2020-07-02T10:10:11.000Z</time>
      </trkpt>
      <trkpt lat="47.29881" lon="-2.35686">
        <ele>44.200000762939</ele>
        <time>2020-07-02T10:10:19.000Z</time>
      </trkpt>
      <trkpt lat="47.29889" lon="-2.35719">
        <ele>44.599998474121</ele>
        <time>2020-07-02T10:10:25.000Z</time>
      </trkpt>
      <trkpt lat="47.2989" lon="-2.35725">
        <ele>45</ele>
        <time>2020-07-02T10:10:26.000Z</time>
      </trkpt>
      <trkpt lat="47.29891" lon="-2.3573">
        <ele>45.400001525879</ele>
        <time>2020-07-02T10:10:27.000Z</time>
      </trkpt>
      <trkpt lat="47.29892" lon="-2.35735">
        <ele>45.799999237061</ele>
        <time>2020-07-02T10:10:28.000Z</time>
      </trkpt>
      <trkpt lat="47.29894" lon="-2.35739">
        <ele>46.200000762939</ele>
        <time>2020-07-02T10:10:29.000Z</time>
      </trkpt>
      <trkpt lat="47.29897" lon="-2.3575">
        <ele>46.200000762939</ele>
        <time>2020-07-02T10:10:32.000Z</time>
      </trkpt>
      <trkpt lat="47.29896" lon="-2.35752">
        <ele>46.200000762939</ele>
        <time>2020-07-02T10:10:33.000Z</time>
      </trkpt>
      <trkpt lat="47.29888" lon="-2.35766">
        <ele>46.200000762939</ele>
        <time>2020-07-02T10:10:37.000Z</time>
      </trkpt>
      <trkpt lat="47.29869" lon="-2.35775">
        <ele>46.200000762939</ele>
        <time>2020-07-02T10:10:42.000Z</time>
      </trkpt>
      <trkpt lat="47.29843" lon="-2.35784">
        <ele>46.200000762939</ele>
        <time>2020-07-02T10:10:48.000Z</time>
      </trkpt>
      <trkpt lat="47.29836" lon="-2.35788">
        <ele>46.200000762939</ele>
        <time>2020-07-02T10:10:50.000Z</time>
      </trkpt>
      <trkpt lat="47.29806" lon="-2.35797">
        <ele>46.200000762939</ele>
        <time>2020-07-02T10:10:58.000Z</time>
      </trkpt>
      <trkpt lat="47.29775" lon="-2.35807">
        <ele>46.200000762939</ele>
        <time>2020-07-02T10:11:05.000Z</time>
      </trkpt>
      <trkpt lat="47.29741" lon="-2.3582">
        <ele>46.200000762939</ele>
        <time>2020-07-02T10:11:12.000Z</time>
      </trkpt>
      <trkpt lat="47.2971" lon="-2.35837">
        <ele>46.200000762939</ele>
        <time>2020-07-02T10:11:17.000Z</time>
      </trkpt>
      <trkpt lat="47.29673" lon="-2.35852">
        <ele>46.200000762939</ele>
        <time>2020-07-02T10:11:23.000Z</time>
      </trkpt>
      <trkpt lat="47.29644" lon="-2.35872">
        <ele>46.200000762939</ele>
        <time>2020-07-02T10:11:29.000Z</time>
      </trkpt>
      <trkpt lat="47.29608" lon="-2.35893">
        <ele>46.200000762939</ele>
        <time>2020-07-02T10:11:37.000Z</time>
      </trkpt>
      <trkpt lat="47.29585" lon="-2.35907">
        <ele>46.200000762939</ele>
        <time>2020-07-02T10:11:42.000Z</time>
      </trkpt>
      <trkpt lat="47.29557" lon="-2.35923">
        <ele>46.200000762939</ele>
        <time>2020-07-02T10:11:48.000Z</time>
      </trkpt>
      <trkpt lat="47.29529" lon="-2.3594">
        <ele>45.799999237061</ele>
        <time>2020-07-02T10:11:55.000Z</time>
      </trkpt>
      <trkpt lat="47.29526" lon="-2.35942">
        <ele>45.400001525879</ele>
        <time>2020-07-02T10:11:56.000Z</time>
      </trkpt>
      <trkpt lat="47.29524" lon="-2.35943">
        <ele>45</ele>
        <time>2020-07-02T10:11:57.000Z</time>
      </trkpt>
      <trkpt lat="47.29521" lon="-2.35945">
        <ele>44.599998474121</ele>
        <time>2020-07-02T10:11:58.000Z</time>
      </trkpt>
      <trkpt lat="47.29519" lon="-2.35946">
        <ele>44.200000762939</ele>
        <time>2020-07-02T10:11:59.000Z</time>
      </trkpt>
      <trkpt lat="47.29516" lon="-2.35946">
        <ele>44.200000762939</ele>
        <time>2020-07-02T10:12:00.000Z</time>
      </trkpt>
      <trkpt lat="47.29507" lon="-2.35934">
        <ele>44.200000762939</ele>
        <time>2020-07-02T10:12:04.000Z</time>
      </trkpt>
      <trkpt lat="47.29504" lon="-2.35925">
        <ele>44.200000762939</ele>
        <time>2020-07-02T10:12:06.000Z</time>
      </trkpt>
      <trkpt lat="47.295" lon="-2.35912">
        <ele>44.200000762939</ele>
        <time>2020-07-02T10:12:09.000Z</time>
      </trkpt>
      <trkpt lat="47.29491" lon="-2.35902">
        <ele>44.200000762939</ele>
        <time>2020-07-02T10:12:13.000Z</time>
      </trkpt>
      <trkpt lat="47.2947" lon="-2.35903">
        <ele>44.200000762939</ele>
        <time>2020-07-02T10:12:20.000Z</time>
      </trkpt>
      <trkpt lat="47.2946" lon="-2.35906">
        <ele>44.200000762939</ele>
        <time>2020-07-02T10:12:26.000Z</time>
      </trkpt>
      <trkpt lat="47.29456" lon="-2.35907">
        <ele>44.200000762939</ele>
        <time>2020-07-02T10:12:31.000Z</time>
      </trkpt>
      <trkpt lat="47.29453" lon="-2.35907">
        <ele>44.200000762939</ele>
        <time>2020-07-02T10:13:07.000Z</time>
      </trkpt>
      <trkpt lat="47.29451" lon="-2.35909">
        <ele>44.200000762939</ele>
        <time>2020-07-02T10:13:08.000Z</time>
      </trkpt>
      <trkpt lat="47.2945" lon="-2.3591">
        <ele>44.200000762939</ele>
        <time>2020-07-02T10:13:09.000Z</time>
      </trkpt>
      <trkpt lat="47.29442" lon="-2.35914">
        <ele>44.200000762939</ele>
        <time>2020-07-02T10:13:13.000Z</time>
      </trkpt>
      <trkpt lat="47.29438" lon="-2.35911">
        <ele>44.200000762939</ele>
        <time>2020-07-02T10:13:15.000Z</time>
      </trkpt>
      <trkpt lat="47.29434" lon="-2.35905">
        <ele>44.200000762939</ele>
        <time>2020-07-02T10:13:17.000Z</time>
      </trkpt>
      <trkpt lat="47.29426" lon="-2.35891">
        <ele>44.200000762939</ele>
        <time>2020-07-02T10:13:21.000Z</time>
      </trkpt>
      <trkpt lat="47.29405" lon="-2.35868">
        <ele>44.200000762939</ele>
        <time>2020-07-02T10:13:28.000Z</time>
      </trkpt>
      <trkpt lat="47.29382" lon="-2.35842">
        <ele>44.200000762939</ele>
        <time>2020-07-02T10:13:36.000Z</time>
      </trkpt>
      <trkpt lat="47.29359" lon="-2.35823">
        <ele>44.200000762939</ele>
        <time>2020-07-02T10:13:42.000Z</time>
      </trkpt>
      <trkpt lat="47.29332" lon="-2.35799">
        <ele>44.200000762939</ele>
        <time>2020-07-02T10:13:49.000Z</time>
      </trkpt>
      <trkpt lat="47.29293" lon="-2.35769">
        <ele>44.200000762939</ele>
        <time>2020-07-02T10:13:58.000Z</time>
      </trkpt>
      <trkpt lat="47.29261" lon="-2.35739">
        <ele>44.200000762939</ele>
        <time>2020-07-02T10:14:06.000Z</time>
      </trkpt>
      <trkpt lat="47.29257" lon="-2.35736">
        <ele>44.200000762939</ele>
        <time>2020-07-02T10:14:07.000Z</time>
      </trkpt>
      <trkpt lat="47.2925" lon="-2.35738">
        <ele>44.200000762939</ele>
        <time>2020-07-02T10:14:09.000Z</time>
      </trkpt>
      <trkpt lat="47.29245" lon="-2.3575">
        <ele>44.200000762939</ele>
        <time>2020-07-02T10:14:11.000Z</time>
      </trkpt>
      <trkpt lat="47.29238" lon="-2.35761">
        <ele>44.200000762939</ele>
        <time>2020-07-02T10:14:13.000Z</time>
      </trkpt>
      <trkpt lat="47.29235" lon="-2.35766">
        <ele>44.200000762939</ele>
        <time>2020-07-02T10:14:14.000Z</time>
      </trkpt>
      <trkpt lat="47.29205" lon="-2.35797">
        <ele>44.200000762939</ele>
        <time>2020-07-02T10:14:21.000Z</time>
      </trkpt>
      <trkpt lat="47.2917" lon="-2.35822">
        <ele>44.200000762939</ele>
        <time>2020-07-02T10:14:28.000Z</time>
      </trkpt>
      <trkpt lat="47.29137" lon="-2.35851">
        <ele>44.200000762939</ele>
        <time>2020-07-02T10:14:35.000Z</time>
      </trkpt>
      <trkpt lat="47.29097" lon="-2.35894">
        <ele>44.200000762939</ele>
        <time>2020-07-02T10:14:44.000Z</time>
      </trkpt>
      <trkpt lat="47.29059" lon="-2.35938">
        <ele>44.200000762939</ele>
        <time>2020-07-02T10:14:53.000Z</time>
      </trkpt>
      <trkpt lat="47.29024" lon="-2.35978">
        <ele>44.200000762939</ele>
        <time>2020-07-02T10:15:01.000Z</time>
      </trkpt>
      <trkpt lat="47.28992" lon="-2.36009">
        <ele>44.200000762939</ele>
        <time>2020-07-02T10:15:08.000Z</time>
      </trkpt>
      <trkpt lat="47.28959" lon="-2.3604">
        <ele>44.200000762939</ele>
        <time>2020-07-02T10:15:15.000Z</time>
      </trkpt>
      <trkpt lat="47.28954" lon="-2.36044">
        <ele>44.200000762939</ele>
        <time>2020-07-02T10:15:16.000Z</time>
      </trkpt>
      <trkpt lat="47.28918" lon="-2.3607">
        <ele>44.200000762939</ele>
        <time>2020-07-02T10:15:23.000Z</time>
      </trkpt>
      <trkpt lat="47.28883" lon="-2.36102">
        <ele>44.200000762939</ele>
        <time>2020-07-02T10:15:30.000Z</time>
      </trkpt>
      <trkpt lat="47.28843" lon="-2.36144">
        <ele>44.200000762939</ele>
        <time>2020-07-02T10:15:39.000Z</time>
      </trkpt>
      <trkpt lat="47.28814" lon="-2.36181">
        <ele>44.200000762939</ele>
        <time>2020-07-02T10:15:46.000Z</time>
      </trkpt>
      <trkpt lat="47.28782" lon="-2.36205">
        <ele>44.200000762939</ele>
        <time>2020-07-02T10:15:53.000Z</time>
      </trkpt>
      <trkpt lat="47.2875" lon="-2.36227">
        <ele>44.200000762939</ele>
        <time>2020-07-02T10:16:01.000Z</time>
      </trkpt>
      <trkpt lat="47.28733" lon="-2.36239">
        <ele>44.200000762939</ele>
        <time>2020-07-02T10:16:06.000Z</time>
      </trkpt>
      <trkpt lat="47.28722" lon="-2.36252">
        <ele>44.200000762939</ele>
        <time>2020-07-02T10:16:11.000Z</time>
      </trkpt>
      <trkpt lat="47.2871" lon="-2.36265">
        <ele>44.200000762939</ele>
        <time>2020-07-02T10:16:17.000Z</time>
      </trkpt>
      <trkpt lat="47.28708" lon="-2.36268">
        <ele>44.599998474121</ele>
        <time>2020-07-02T10:16:18.000Z</time>
      </trkpt>
      <trkpt lat="47.28706" lon="-2.3627">
        <ele>45</ele>
        <time>2020-07-02T10:16:19.000Z</time>
      </trkpt>
      <trkpt lat="47.28704" lon="-2.36272">
        <ele>45.400001525879</ele>
        <time>2020-07-02T10:16:20.000Z</time>
      </trkpt>
      <trkpt lat="47.28702" lon="-2.36274">
        <ele>45.799999237061</ele>
        <time>2020-07-02T10:16:21.000Z</time>
      </trkpt>
      <trkpt lat="47.287" lon="-2.36276">
        <ele>46.400001525879</ele>
        <time>2020-07-02T10:16:22.000Z</time>
      </trkpt>
      <trkpt lat="47.28696" lon="-2.36279">
        <ele>46.400001525879</ele>
        <time>2020-07-02T10:16:24.000Z</time>
      </trkpt>
      <trkpt lat="47.28686" lon="-2.36284">
        <ele>46.400001525879</ele>
        <time>2020-07-02T10:16:28.000Z</time>
      </trkpt>
      <trkpt lat="47.2868" lon="-2.36281">
        <ele>46.799999237061</ele>
        <time>2020-07-02T10:16:30.000Z</time>
      </trkpt>
      <trkpt lat="47.28677" lon="-2.36279">
        <ele>47.200000762939</ele>
        <time>2020-07-02T10:16:31.000Z</time>
      </trkpt>
      <trkpt lat="47.28675" lon="-2.36276">
        <ele>47.599998474121</ele>
        <time>2020-07-02T10:16:32.000Z</time>
      </trkpt>
      <trkpt lat="47.28673" lon="-2.36273">
        <ele>48</ele>
        <time>2020-07-02T10:16:33.000Z</time>
      </trkpt>
      <trkpt lat="47.28672" lon="-2.3627">
        <ele>48.400001525879</ele>
        <time>2020-07-02T10:16:34.000Z</time>
      </trkpt>
      <trkpt lat="47.28672" lon="-2.36267">
        <ele>48.400001525879</ele>
        <time>2020-07-02T10:16:35.000Z</time>
      </trkpt>
      <trkpt lat="47.28672" lon="-2.36247">
        <ele>48.400001525879</ele>
        <time>2020-07-02T10:16:40.000Z</time>
      </trkpt>
      <trkpt lat="47.28673" lon="-2.36223">
        <ele>48.799999237061</ele>
        <time>2020-07-02T10:16:45.000Z</time>
      </trkpt>
      <trkpt lat="47.28673" lon="-2.36218">
        <ele>49.599998474121</ele>
        <time>2020-07-02T10:16:46.000Z</time>
      </trkpt>
      <trkpt lat="47.28672" lon="-2.36213">
        <ele>50.200000762939</ele>
        <time>2020-07-02T10:16:47.000Z</time>
      </trkpt>
      <trkpt lat="47.28671" lon="-2.36208">
        <ele>50.599998474121</ele>
        <time>2020-07-02T10:16:48.000Z</time>
      </trkpt>
      <trkpt lat="47.28666" lon="-2.36199">
        <ele>50.599998474121</ele>
        <time>2020-07-02T10:16:50.000Z</time>
      </trkpt>
      <trkpt lat="47.28651" lon="-2.36177">
        <ele>50.599998474121</ele>
        <time>2020-07-02T10:16:55.000Z</time>
      </trkpt>
      <trkpt lat="47.28645" lon="-2.36166">
        <ele>51</ele>
        <time>2020-07-02T10:16:57.000Z</time>
      </trkpt>
      <trkpt lat="47.28643" lon="-2.36161">
        <ele>51.400001525879</ele>
        <time>2020-07-02T10:16:58.000Z</time>
      </trkpt>
      <trkpt lat="47.2864" lon="-2.36155">
        <ele>51.799999237061</ele>
        <time>2020-07-02T10:16:59.000Z</time>
      </trkpt>
      <trkpt lat="47.28637" lon="-2.3615">
        <ele>52.200000762939</ele>
        <time>2020-07-02T10:17:00.000Z</time>
      </trkpt>
      <trkpt lat="47.28633" lon="-2.36147">
        <ele>52.599998474121</ele>
        <time>2020-07-02T10:17:01.000Z</time>
      </trkpt>
      <trkpt lat="47.28622" lon="-2.36146">
        <ele>52.599998474121</ele>
        <time>2020-07-02T10:17:04.000Z</time>
      </trkpt>
      <trkpt lat="47.28618" lon="-2.36148">
        <ele>52.599998474121</ele>
        <time>2020-07-02T10:17:05.000Z</time>
      </trkpt>
      <trkpt lat="47.28606" lon="-2.36155">
        <ele>52.599998474121</ele>
        <time>2020-07-02T10:17:09.000Z</time>
      </trkpt>
      <trkpt lat="47.28603" lon="-2.36154">
        <ele>52.599998474121</ele>
        <time>2020-07-02T10:17:10.000Z</time>
      </trkpt>
      <trkpt lat="47.28582" lon="-2.36151">
        <ele>52.599998474121</ele>
        <time>2020-07-02T10:17:15.000Z</time>
      </trkpt>
      <trkpt lat="47.28562" lon="-2.3616">
        <ele>52.599998474121</ele>
        <time>2020-07-02T10:17:19.000Z</time>
      </trkpt>
      <trkpt lat="47.28549" lon="-2.36152">
        <ele>52.599998474121</ele>
        <time>2020-07-02T10:17:22.000Z</time>
      </trkpt>
      <trkpt lat="47.28546" lon="-2.36144">
        <ele>52.200000762939</ele>
        <time>2020-07-02T10:17:23.000Z</time>
      </trkpt>
      <trkpt lat="47.28544" lon="-2.36137">
        <ele>51.799999237061</ele>
        <time>2020-07-02T10:17:24.000Z</time>
      </trkpt>
      <trkpt lat="47.28543" lon="-2.36131">
        <ele>51.400001525879</ele>
        <time>2020-07-02T10:17:25.000Z</time>
      </trkpt>
      <trkpt lat="47.28541" lon="-2.36124">
        <ele>50.799999237061</ele>
        <time>2020-07-02T10:17:26.000Z</time>
      </trkpt>
      <trkpt lat="47.2854" lon="-2.36118">
        <ele>50.400001525879</ele>
        <time>2020-07-02T10:17:27.000Z</time>
      </trkpt>
      <trkpt lat="47.28536" lon="-2.3609">
        <ele>50.400001525879</ele>
        <time>2020-07-02T10:17:32.000Z</time>
      </trkpt>
      <trkpt lat="47.28534" lon="-2.36085">
        <ele>50.400001525879</ele>
        <time>2020-07-02T10:17:33.000Z</time>
      </trkpt>
      <trkpt lat="47.28525" lon="-2.36072">
        <ele>50.400001525879</ele>
        <time>2020-07-02T10:17:36.000Z</time>
      </trkpt>
      <trkpt lat="47.28506" lon="-2.36043">
        <ele>50.400001525879</ele>
        <time>2020-07-02T10:17:42.000Z</time>
      </trkpt>
      <trkpt lat="47.28486" lon="-2.36036">
        <ele>50.400001525879</ele>
        <time>2020-07-02T10:17:46.000Z</time>
      </trkpt>
      <trkpt lat="47.2847" lon="-2.36014">
        <ele>50.400001525879</ele>
        <time>2020-07-02T10:17:50.000Z</time>
      </trkpt>
      <trkpt lat="47.28466" lon="-2.36007">
        <ele>50.400001525879</ele>
        <time>2020-07-02T10:17:51.000Z</time>
      </trkpt>
      <trkpt lat="47.28462" lon="-2.36002">
        <ele>50.400001525879</ele>
        <time>2020-07-02T10:17:52.000Z</time>
      </trkpt>
      <trkpt lat="47.28453" lon="-2.35994">
        <ele>50.400001525879</ele>
        <time>2020-07-02T10:17:54.000Z</time>
      </trkpt>
      <trkpt lat="47.28448" lon="-2.35993">
        <ele>50.400001525879</ele>
        <time>2020-07-02T10:17:55.000Z</time>
      </trkpt>
      <trkpt lat="47.28439" lon="-2.35997">
        <ele>50.400001525879</ele>
        <time>2020-07-02T10:17:57.000Z</time>
      </trkpt>
      <trkpt lat="47.28429" lon="-2.36005">
        <ele>50.400001525879</ele>
        <time>2020-07-02T10:17:59.000Z</time>
      </trkpt>
      <trkpt lat="47.28411" lon="-2.36021">
        <ele>50.400001525879</ele>
        <time>2020-07-02T10:18:03.000Z</time>
      </trkpt>
      <trkpt lat="47.28395" lon="-2.36026">
        <ele>50.400001525879</ele>
        <time>2020-07-02T10:18:06.000Z</time>
      </trkpt>
      <trkpt lat="47.28388" lon="-2.36025">
        <ele>50.400001525879</ele>
        <time>2020-07-02T10:18:07.000Z</time>
      </trkpt>
      <trkpt lat="47.28373" lon="-2.36025">
        <ele>50</ele>
        <time>2020-07-02T10:18:09.000Z</time>
      </trkpt>
      <trkpt lat="47.28365" lon="-2.36026">
        <ele>49.400001525879</ele>
        <time>2020-07-02T10:18:10.000Z</time>
      </trkpt>
      <trkpt lat="47.28355" lon="-2.3603">
        <ele>49</ele>
        <time>2020-07-02T10:18:11.000Z</time>
      </trkpt>
      <trkpt lat="47.28347" lon="-2.36034">
        <ele>48.400001525879</ele>
        <time>2020-07-02T10:18:12.000Z</time>
      </trkpt>
      <trkpt lat="47.2834" lon="-2.3604">
        <ele>48</ele>
        <time>2020-07-02T10:18:13.000Z</time>
      </trkpt>
      <trkpt lat="47.28333" lon="-2.36046">
        <ele>47.400001525879</ele>
        <time>2020-07-02T10:18:14.000Z</time>
      </trkpt>
      <trkpt lat="47.28326" lon="-2.36051">
        <ele>46.799999237061</ele>
        <time>2020-07-02T10:18:15.000Z</time>
      </trkpt>
      <trkpt lat="47.28322" lon="-2.36053">
        <ele>46.200000762939</ele>
        <time>2020-07-02T10:18:16.000Z</time>
      </trkpt>
      <trkpt lat="47.28317" lon="-2.36052">
        <ele>45.400001525879</ele>
        <time>2020-07-02T10:18:17.000Z</time>
      </trkpt>
      <trkpt lat="47.28311" lon="-2.36051">
        <ele>44.799999237061</ele>
        <time>2020-07-02T10:18:18.000Z</time>
      </trkpt>
      <trkpt lat="47.28306" lon="-2.3605">
        <ele>44</ele>
        <time>2020-07-02T10:18:19.000Z</time>
      </trkpt>
      <trkpt lat="47.283" lon="-2.36048">
        <ele>43.400001525879</ele>
        <time>2020-07-02T10:18:20.000Z</time>
      </trkpt>
      <trkpt lat="47.28291" lon="-2.36044">
        <ele>42.799999237061</ele>
        <time>2020-07-02T10:18:22.000Z</time>
      </trkpt>
      <trkpt lat="47.28288" lon="-2.3604">
        <ele>42.400001525879</ele>
        <time>2020-07-02T10:18:23.000Z</time>
      </trkpt>
      <trkpt lat="47.28285" lon="-2.36035">
        <ele>41.599998474121</ele>
        <time>2020-07-02T10:18:24.000Z</time>
      </trkpt>
      <trkpt lat="47.28283" lon="-2.36029">
        <ele>40</ele>
        <time>2020-07-02T10:18:25.000Z</time>
      </trkpt>
      <trkpt lat="47.28281" lon="-2.36024">
        <ele>39.200000762939</ele>
        <time>2020-07-02T10:18:26.000Z</time>
      </trkpt>
      <trkpt lat="47.28281" lon="-2.36017">
        <ele>38.200000762939</ele>
        <time>2020-07-02T10:18:27.000Z</time>
      </trkpt>
      <trkpt lat="47.28281" lon="-2.3601">
        <ele>37.400001525879</ele>
        <time>2020-07-02T10:18:28.000Z</time>
      </trkpt>
      <trkpt lat="47.28281" lon="-2.36003">
        <ele>36.599998474121</ele>
        <time>2020-07-02T10:18:29.000Z</time>
      </trkpt>
      <trkpt lat="47.28282" lon="-2.35995">
        <ele>35.799999237061</ele>
        <time>2020-07-02T10:18:30.000Z</time>
      </trkpt>
      <trkpt lat="47.28282" lon="-2.35989">
        <ele>35.200000762939</ele>
        <time>2020-07-02T10:18:31.000Z</time>
      </trkpt>
      <trkpt lat="47.28281" lon="-2.35982">
        <ele>34.400001525879</ele>
        <time>2020-07-02T10:18:32.000Z</time>
      </trkpt>
      <trkpt lat="47.28279" lon="-2.35977">
        <ele>34.400001525879</ele>
        <time>2020-07-02T10:18:33.000Z</time>
      </trkpt>
      <trkpt lat="47.28262" lon="-2.35938">
        <ele>34.400001525879</ele>
        <time>2020-07-02T10:18:40.000Z</time>
      </trkpt>
      <trkpt lat="47.28253" lon="-2.35919">
        <ele>34.400001525879</ele>
        <time>2020-07-02T10:18:44.000Z</time>
      </trkpt>
      <trkpt lat="47.28249" lon="-2.35917">
        <ele>34.400001525879</ele>
        <time>2020-07-02T10:18:45.000Z</time>
      </trkpt>
      <trkpt lat="47.28235" lon="-2.35916">
        <ele>34.400001525879</ele>
        <time>2020-07-02T10:18:48.000Z</time>
      </trkpt>
      <trkpt lat="47.28231" lon="-2.35915">
        <ele>34.400001525879</ele>
        <time>2020-07-02T10:18:49.000Z</time>
      </trkpt>
      <trkpt lat="47.28226" lon="-2.35913">
        <ele>34.400001525879</ele>
        <time>2020-07-02T10:18:50.000Z</time>
      </trkpt>
      <trkpt lat="47.28211" lon="-2.35907">
        <ele>34.400001525879</ele>
        <time>2020-07-02T10:18:53.000Z</time>
      </trkpt>
      <trkpt lat="47.28204" lon="-2.35898">
        <ele>34.400001525879</ele>
        <time>2020-07-02T10:18:55.000Z</time>
      </trkpt>
      <trkpt lat="47.28198" lon="-2.35879">
        <ele>34.400001525879</ele>
        <time>2020-07-02T10:18:58.000Z</time>
      </trkpt>
      <trkpt lat="47.28195" lon="-2.35873">
        <ele>34.400001525879</ele>
        <time>2020-07-02T10:18:59.000Z</time>
      </trkpt>
      <trkpt lat="47.28181" lon="-2.35853">
        <ele>34.400001525879</ele>
        <time>2020-07-02T10:19:03.000Z</time>
      </trkpt>
      <trkpt lat="47.28174" lon="-2.35845">
        <ele>34.400001525879</ele>
        <time>2020-07-02T10:19:05.000Z</time>
      </trkpt>
      <trkpt lat="47.28166" lon="-2.35837">
        <ele>34.400001525879</ele>
        <time>2020-07-02T10:19:07.000Z</time>
      </trkpt>
      <trkpt lat="47.28161" lon="-2.35832">
        <ele>34.400001525879</ele>
        <time>2020-07-02T10:19:08.000Z</time>
      </trkpt>
      <trkpt lat="47.28157" lon="-2.35826">
        <ele>34.400001525879</ele>
        <time>2020-07-02T10:19:09.000Z</time>
      </trkpt>
      <trkpt lat="47.28148" lon="-2.35804">
        <ele>34.400001525879</ele>
        <time>2020-07-02T10:19:12.000Z</time>
      </trkpt>
      <trkpt lat="47.28144" lon="-2.35788">
        <ele>34.400001525879</ele>
        <time>2020-07-02T10:19:14.000Z</time>
      </trkpt>
      <trkpt lat="47.28139" lon="-2.35768">
        <ele>34.400001525879</ele>
        <time>2020-07-02T10:19:17.000Z</time>
      </trkpt>
      <trkpt lat="47.28135" lon="-2.35764">
        <ele>34</ele>
        <time>2020-07-02T10:19:18.000Z</time>
      </trkpt>
      <trkpt lat="47.2813" lon="-2.35762">
        <ele>33.400001525879</ele>
        <time>2020-07-02T10:19:19.000Z</time>
      </trkpt>
      <trkpt lat="47.28125" lon="-2.35761">
        <ele>33</ele>
        <time>2020-07-02T10:19:20.000Z</time>
      </trkpt>
      <trkpt lat="47.2812" lon="-2.35761">
        <ele>32.599998474121</ele>
        <time>2020-07-02T10:19:21.000Z</time>
      </trkpt>
      <trkpt lat="47.28116" lon="-2.35762">
        <ele>32.200000762939</ele>
        <time>2020-07-02T10:19:22.000Z</time>
      </trkpt>
      <trkpt lat="47.28113" lon="-2.35764">
        <ele>32.200000762939</ele>
        <time>2020-07-02T10:19:23.000Z</time>
      </trkpt>
      <trkpt lat="47.28103" lon="-2.35782">
        <ele>32.200000762939</ele>
        <time>2020-07-02T10:19:27.000Z</time>
      </trkpt>
      <trkpt lat="47.28093" lon="-2.358">
        <ele>32.200000762939</ele>
        <time>2020-07-02T10:19:32.000Z</time>
      </trkpt>
      <trkpt lat="47.28087" lon="-2.35793">
        <ele>32.200000762939</ele>
        <time>2020-07-02T10:19:36.000Z</time>
      </trkpt>
      <trkpt lat="47.28089" lon="-2.35782">
        <ele>32.200000762939</ele>
        <time>2020-07-02T10:19:39.000Z</time>
      </trkpt>
      <trkpt lat="47.28091" lon="-2.35771">
        <ele>32.200000762939</ele>
        <time>2020-07-02T10:19:41.000Z</time>
      </trkpt>
      <trkpt lat="47.28093" lon="-2.35749">
        <ele>32.599998474121</ele>
        <time>2020-07-02T10:19:45.000Z</time>
      </trkpt>
      <trkpt lat="47.28094" lon="-2.35744">
        <ele>33</ele>
        <time>2020-07-02T10:19:46.000Z</time>
      </trkpt>
      <trkpt lat="47.28094" lon="-2.35739">
        <ele>33.400001525879</ele>
        <time>2020-07-02T10:19:47.000Z</time>
      </trkpt>
      <trkpt lat="47.28095" lon="-2.35733">
        <ele>34</ele>
        <time>2020-07-02T10:19:48.000Z</time>
      </trkpt>
      <trkpt lat="47.28095" lon="-2.35728">
        <ele>34.400001525879</ele>
        <time>2020-07-02T10:19:49.000Z</time>
      </trkpt>
      <trkpt lat="47.28098" lon="-2.35706">
        <ele>34.400001525879</ele>
        <time>2020-07-02T10:19:53.000Z</time>
      </trkpt>
      <trkpt lat="47.28098" lon="-2.35699">
        <ele>34.400001525879</ele>
        <time>2020-07-02T10:19:54.000Z</time>
      </trkpt>
      <trkpt lat="47.28093" lon="-2.35679">
        <ele>34.400001525879</ele>
        <time>2020-07-02T10:19:57.000Z</time>
      </trkpt>
      <trkpt lat="47.28091" lon="-2.3567">
        <ele>34.400001525879</ele>
        <time>2020-07-02T10:19:58.000Z</time>
      </trkpt>
      <trkpt lat="47.28083" lon="-2.35641">
        <ele>34.400001525879</ele>
        <time>2020-07-02T10:20:01.000Z</time>
      </trkpt>
      <trkpt lat="47.28077" lon="-2.35607">
        <ele>33.400001525879</ele>
        <time>2020-07-02T10:20:04.000Z</time>
      </trkpt>
      <trkpt lat="47.28074" lon="-2.35598">
        <ele>32.799999237061</ele>
        <time>2020-07-02T10:20:05.000Z</time>
      </trkpt>
      <trkpt lat="47.2807" lon="-2.3559">
        <ele>32.400001525879</ele>
        <time>2020-07-02T10:20:06.000Z</time>
      </trkpt>
      <trkpt lat="47.28064" lon="-2.35585">
        <ele>31.799999237061</ele>
        <time>2020-07-02T10:20:07.000Z</time>
      </trkpt>
      <trkpt lat="47.28058" lon="-2.35581">
        <ele>31.39999961853</ele>
        <time>2020-07-02T10:20:08.000Z</time>
      </trkpt>
      <trkpt lat="47.28051" lon="-2.35579">
        <ele>31</ele>
        <time>2020-07-02T10:20:09.000Z</time>
      </trkpt>
      <trkpt lat="47.28044" lon="-2.35579">
        <ele>30.60000038147</ele>
        <time>2020-07-02T10:20:10.000Z</time>
      </trkpt>
      <trkpt lat="47.28037" lon="-2.35579">
        <ele>30</ele>
        <time>2020-07-02T10:20:11.000Z</time>
      </trkpt>
      <trkpt lat="47.2803" lon="-2.3558">
        <ele>29.60000038147</ele>
        <time>2020-07-02T10:20:12.000Z</time>
      </trkpt>
      <trkpt lat="47.28023" lon="-2.35582">
        <ele>29.60000038147</ele>
        <time>2020-07-02T10:20:13.000Z</time>
      </trkpt>
      <trkpt lat="47.28018" lon="-2.35583">
        <ele>29.60000038147</ele>
        <time>2020-07-02T10:20:14.000Z</time>
      </trkpt>
      <trkpt lat="47.28009" lon="-2.35584">
        <ele>29.200000762939</ele>
        <time>2020-07-02T10:20:17.000Z</time>
      </trkpt>
      <trkpt lat="47.28006" lon="-2.35584">
        <ele>28.799999237061</ele>
        <time>2020-07-02T10:20:18.000Z</time>
      </trkpt>
      <trkpt lat="47.28003" lon="-2.35584">
        <ele>28.200000762939</ele>
        <time>2020-07-02T10:20:19.000Z</time>
      </trkpt>
      <trkpt lat="47.28" lon="-2.35585">
        <ele>27.799999237061</ele>
        <time>2020-07-02T10:20:20.000Z</time>
      </trkpt>
      <trkpt lat="47.27998" lon="-2.35586">
        <ele>27.39999961853</ele>
        <time>2020-07-02T10:20:21.000Z</time>
      </trkpt>
      <trkpt lat="47.2799" lon="-2.35591">
        <ele>27.39999961853</ele>
        <time>2020-07-02T10:20:24.000Z</time>
      </trkpt>
      <trkpt lat="47.27989" lon="-2.35593">
        <ele>27.39999961853</ele>
        <time>2020-07-02T10:20:25.000Z</time>
      </trkpt>
      <trkpt lat="47.2799" lon="-2.35597">
        <ele>27.39999961853</ele>
        <time>2020-07-02T10:20:27.000Z</time>
      </trkpt>
      <trkpt lat="47.27994" lon="-2.35591">
        <ele>27.39999961853</ele>
        <time>2020-07-02T10:20:30.000Z</time>
      </trkpt>
      <trkpt lat="47.27986" lon="-2.35585">
        <ele>27.39999961853</ele>
        <time>2020-07-02T10:20:33.000Z</time>
      </trkpt>
      <trkpt lat="47.27976" lon="-2.35587">
        <ele>27.39999961853</ele>
        <time>2020-07-02T10:20:36.000Z</time>
      </trkpt>
      <trkpt lat="47.27972" lon="-2.35586">
        <ele>27.39999961853</ele>
        <time>2020-07-02T10:20:37.000Z</time>
      </trkpt>
      <trkpt lat="47.2796" lon="-2.35582">
        <ele>27.39999961853</ele>
        <time>2020-07-02T10:20:40.000Z</time>
      </trkpt>
      <trkpt lat="47.27954" lon="-2.35581">
        <ele>27.39999961853</ele>
        <time>2020-07-02T10:20:41.000Z</time>
      </trkpt>
      <trkpt lat="47.27938" lon="-2.35585">
        <ele>27.39999961853</ele>
        <time>2020-07-02T10:20:44.000Z</time>
      </trkpt>
      <trkpt lat="47.27933" lon="-2.35586">
        <ele>27.39999961853</ele>
        <time>2020-07-02T10:20:45.000Z</time>
      </trkpt>
      <trkpt lat="47.279" lon="-2.35595">
        <ele>27.39999961853</ele>
        <time>2020-07-02T10:20:51.000Z</time>
      </trkpt>
      <trkpt lat="47.27882" lon="-2.35598">
        <ele>27</ele>
        <time>2020-07-02T10:20:54.000Z</time>
      </trkpt>
      <trkpt lat="47.27876" lon="-2.356">
        <ele>26.60000038147</ele>
        <time>2020-07-02T10:20:55.000Z</time>
      </trkpt>
      <trkpt lat="47.27869" lon="-2.35601">
        <ele>26.200000762939</ele>
        <time>2020-07-02T10:20:56.000Z</time>
      </trkpt>
      <trkpt lat="47.27863" lon="-2.35603">
        <ele>25.799999237061</ele>
        <time>2020-07-02T10:20:57.000Z</time>
      </trkpt>
      <trkpt lat="47.27857" lon="-2.35605">
        <ele>25.39999961853</ele>
        <time>2020-07-02T10:20:58.000Z</time>
      </trkpt>
      <trkpt lat="47.27851" lon="-2.35607">
        <ele>25.39999961853</ele>
        <time>2020-07-02T10:20:59.000Z</time>
      </trkpt>
      <trkpt lat="47.27821" lon="-2.35615">
        <ele>24.799999237061</ele>
        <time>2020-07-02T10:21:04.000Z</time>
      </trkpt>
      <trkpt lat="47.27815" lon="-2.35617">
        <ele>24.39999961853</ele>
        <time>2020-07-02T10:21:05.000Z</time>
      </trkpt>
      <trkpt lat="47.27809" lon="-2.35618">
        <ele>24</ele>
        <time>2020-07-02T10:21:06.000Z</time>
      </trkpt>
      <trkpt lat="47.27804" lon="-2.35619">
        <ele>23.39999961853</ele>
        <time>2020-07-02T10:21:07.000Z</time>
      </trkpt>
      <trkpt lat="47.27798" lon="-2.35621">
        <ele>23</ele>
        <time>2020-07-02T10:21:08.000Z</time>
      </trkpt>
      <trkpt lat="47.27781" lon="-2.35632">
        <ele>23</ele>
        <time>2020-07-02T10:21:11.000Z</time>
      </trkpt>
      <trkpt lat="47.27765" lon="-2.35645">
        <ele>23</ele>
        <time>2020-07-02T10:21:14.000Z</time>
      </trkpt>
      <trkpt lat="47.27752" lon="-2.35662">
        <ele>23</ele>
        <time>2020-07-02T10:21:17.000Z</time>
      </trkpt>
      <trkpt lat="47.27748" lon="-2.35667">
        <ele>23</ele>
        <time>2020-07-02T10:21:18.000Z</time>
      </trkpt>
      <trkpt lat="47.27733" lon="-2.3569">
        <ele>23</ele>
        <time>2020-07-02T10:21:22.000Z</time>
      </trkpt>
      <trkpt lat="47.27718" lon="-2.35712">
        <ele>22.60000038147</ele>
        <time>2020-07-02T10:21:26.000Z</time>
      </trkpt>
      <trkpt lat="47.27714" lon="-2.35717">
        <ele>22</ele>
        <time>2020-07-02T10:21:27.000Z</time>
      </trkpt>
      <trkpt lat="47.27709" lon="-2.35721">
        <ele>21.60000038147</ele>
        <time>2020-07-02T10:21:28.000Z</time>
      </trkpt>
      <trkpt lat="47.27705" lon="-2.35725">
        <ele>21.200000762939</ele>
        <time>2020-07-02T10:21:29.000Z</time>
      </trkpt>
      <trkpt lat="47.277" lon="-2.35729">
        <ele>20.799999237061</ele>
        <time>2020-07-02T10:21:30.000Z</time>
      </trkpt>
      <trkpt lat="47.27688" lon="-2.35739">
        <ele>20.799999237061</ele>
        <time>2020-07-02T10:21:33.000Z</time>
      </trkpt>
      <trkpt lat="47.27681" lon="-2.35748">
        <ele>20.39999961853</ele>
        <time>2020-07-02T10:21:35.000Z</time>
      </trkpt>
      <trkpt lat="47.27678" lon="-2.35751">
        <ele>19.799999237061</ele>
        <time>2020-07-02T10:21:36.000Z</time>
      </trkpt>
      <trkpt lat="47.27674" lon="-2.35753">
        <ele>19.39999961853</ele>
        <time>2020-07-02T10:21:37.000Z</time>
      </trkpt>
      <trkpt lat="47.2767" lon="-2.3575">
        <ele>19</ele>
        <time>2020-07-02T10:21:38.000Z</time>
      </trkpt>
      <trkpt lat="47.27667" lon="-2.35745">
        <ele>18.60000038147</ele>
        <time>2020-07-02T10:21:39.000Z</time>
      </trkpt>
      <trkpt lat="47.27648" lon="-2.3573">
        <ele>18.60000038147</ele>
        <time>2020-07-02T10:21:43.000Z</time>
      </trkpt>
      <trkpt lat="47.27643" lon="-2.35728">
        <ele>18.60000038147</ele>
        <time>2020-07-02T10:21:44.000Z</time>
      </trkpt>
      <trkpt lat="47.27624" lon="-2.35721">
        <ele>18.200000762939</ele>
        <time>2020-07-02T10:21:47.000Z</time>
      </trkpt>
      <trkpt lat="47.27617" lon="-2.35719">
        <ele>17.799999237061</ele>
        <time>2020-07-02T10:21:48.000Z</time>
      </trkpt>
      <trkpt lat="47.2761" lon="-2.35717">
        <ele>17.39999961853</ele>
        <time>2020-07-02T10:21:49.000Z</time>
      </trkpt>
      <trkpt lat="47.27603" lon="-2.35715">
        <ele>17</ele>
        <time>2020-07-02T10:21:50.000Z</time>
      </trkpt>
      <trkpt lat="47.27596" lon="-2.35714">
        <ele>16.60000038147</ele>
        <time>2020-07-02T10:21:51.000Z</time>
      </trkpt>
      <trkpt lat="47.27563" lon="-2.35704">
        <ele>16.60000038147</ele>
        <time>2020-07-02T10:21:56.000Z</time>
      </trkpt>
      <trkpt lat="47.27532" lon="-2.35695">
        <ele>16.60000038147</ele>
        <time>2020-07-02T10:22:01.000Z</time>
      </trkpt>
      <trkpt lat="47.27519" lon="-2.35691">
        <ele>16.60000038147</ele>
        <time>2020-07-02T10:22:03.000Z</time>
      </trkpt>
      <trkpt lat="47.27494" lon="-2.35685">
        <ele>16.200000762939</ele>
        <time>2020-07-02T10:22:07.000Z</time>
      </trkpt>
      <trkpt lat="47.27488" lon="-2.35684">
        <ele>15.39999961853</ele>
        <time>2020-07-02T10:22:08.000Z</time>
      </trkpt>
      <trkpt lat="47.27482" lon="-2.35683">
        <ele>15</ele>
        <time>2020-07-02T10:22:09.000Z</time>
      </trkpt>
      <trkpt lat="47.27476" lon="-2.35682">
        <ele>14.60000038147</ele>
        <time>2020-07-02T10:22:10.000Z</time>
      </trkpt>
      <trkpt lat="47.27442" lon="-2.35674">
        <ele>14.60000038147</ele>
        <time>2020-07-02T10:22:16.000Z</time>
      </trkpt>
      <trkpt lat="47.27422" lon="-2.35669">
        <ele>14.60000038147</ele>
        <time>2020-07-02T10:22:20.000Z</time>
      </trkpt>
      <trkpt lat="47.27405" lon="-2.35672">
        <ele>14.60000038147</ele>
        <time>2020-07-02T10:22:23.000Z</time>
      </trkpt>
      <trkpt lat="47.27388" lon="-2.35681">
        <ele>14.199999809265</ele>
        <time>2020-07-02T10:22:26.000Z</time>
      </trkpt>
      <trkpt lat="47.27384" lon="-2.35685">
        <ele>13.800000190735</ele>
        <time>2020-07-02T10:22:27.000Z</time>
      </trkpt>
      <trkpt lat="47.27379" lon="-2.35688">
        <ele>13.39999961853</ele>
        <time>2020-07-02T10:22:28.000Z</time>
      </trkpt>
      <trkpt lat="47.27374" lon="-2.35692">
        <ele>13</ele>
        <time>2020-07-02T10:22:29.000Z</time>
      </trkpt>
      <trkpt lat="47.27369" lon="-2.35696">
        <ele>12.60000038147</ele>
        <time>2020-07-02T10:22:30.000Z</time>
      </trkpt>
      <trkpt lat="47.27352" lon="-2.35707">
        <ele>12.60000038147</ele>
        <time>2020-07-02T10:22:34.000Z</time>
      </trkpt>
      <trkpt lat="47.27345" lon="-2.35711">
        <ele>12.60000038147</ele>
        <time>2020-07-02T10:22:37.000Z</time>
      </trkpt>
      <trkpt lat="47.2733" lon="-2.35723">
        <ele>12.60000038147</ele>
        <time>2020-07-02T10:22:42.000Z</time>
      </trkpt>
      <trkpt lat="47.27315" lon="-2.35741">
        <ele>12.60000038147</ele>
        <time>2020-07-02T10:22:47.000Z</time>
      </trkpt>
      <trkpt lat="47.27306" lon="-2.35733">
        <ele>12.60000038147</ele>
        <time>2020-07-02T10:22:50.000Z</time>
      </trkpt>
      <trkpt lat="47.27299" lon="-2.35713">
        <ele>12.60000038147</ele>
        <time>2020-07-02T10:22:53.000Z</time>
      </trkpt>
      <trkpt lat="47.27296" lon="-2.35706">
        <ele>12.60000038147</ele>
        <time>2020-07-02T10:22:54.000Z</time>
      </trkpt>
      <trkpt lat="47.27272" lon="-2.35656">
        <ele>12.60000038147</ele>
        <time>2020-07-02T10:23:01.000Z</time>
      </trkpt>
      <trkpt lat="47.27245" lon="-2.35597">
        <ele>12.60000038147</ele>
        <time>2020-07-02T10:23:09.000Z</time>
      </trkpt>
      <trkpt lat="47.27219" lon="-2.3554">
        <ele>12.60000038147</ele>
        <time>2020-07-02T10:23:16.000Z</time>
      </trkpt>
      <trkpt lat="47.27192" lon="-2.35482">
        <ele>13.39999961853</ele>
        <time>2020-07-02T10:23:23.000Z</time>
      </trkpt>
      <trkpt lat="47.27188" lon="-2.35474">
        <ele>13.800000190735</ele>
        <time>2020-07-02T10:23:24.000Z</time>
      </trkpt>
      <trkpt lat="47.27183" lon="-2.35466">
        <ele>14.199999809265</ele>
        <time>2020-07-02T10:23:25.000Z</time>
      </trkpt>
      <trkpt lat="47.27179" lon="-2.35457">
        <ele>14.60000038147</ele>
        <time>2020-07-02T10:23:26.000Z</time>
      </trkpt>
      <trkpt lat="47.27158" lon="-2.35413">
        <ele>14.60000038147</ele>
        <time>2020-07-02T10:23:31.000Z</time>
      </trkpt>
      <trkpt lat="47.27128" lon="-2.35355">
        <ele>14.60000038147</ele>
        <time>2020-07-02T10:23:38.000Z</time>
      </trkpt>
      <trkpt lat="47.27093" lon="-2.35301">
        <ele>14.60000038147</ele>
        <time>2020-07-02T10:23:45.000Z</time>
      </trkpt>
      <trkpt lat="47.27053" lon="-2.35238">
        <ele>14.60000038147</ele>
        <time>2020-07-02T10:23:53.000Z</time>
      </trkpt>
      <trkpt lat="47.27016" lon="-2.35182">
        <ele>14.60000038147</ele>
        <time>2020-07-02T10:24:00.000Z</time>
      </trkpt>
      <trkpt lat="47.26978" lon="-2.35125">
        <ele>14.60000038147</ele>
        <time>2020-07-02T10:24:07.000Z</time>
      </trkpt>
      <trkpt lat="47.26939" lon="-2.35067">
        <ele>14.60000038147</ele>
        <time>2020-07-02T10:24:13.000Z</time>
      </trkpt>
      <trkpt lat="47.26897" lon="-2.35005">
        <ele>14.60000038147</ele>
        <time>2020-07-02T10:24:19.000Z</time>
      </trkpt>
      <trkpt lat="47.26876" lon="-2.34973">
        <ele>14.60000038147</ele>
        <time>2020-07-02T10:24:22.000Z</time>
      </trkpt>
      <trkpt lat="47.26835" lon="-2.34912">
        <ele>14.60000038147</ele>
        <time>2020-07-02T10:24:28.000Z</time>
      </trkpt>
      <trkpt lat="47.26829" lon="-2.34902">
        <ele>14.60000038147</ele>
        <time>2020-07-02T10:24:29.000Z</time>
      </trkpt>
      <trkpt lat="47.26799" lon="-2.34859">
        <ele>14.60000038147</ele>
        <time>2020-07-02T10:24:34.000Z</time>
      </trkpt>
      <trkpt lat="47.26772" lon="-2.3482">
        <ele>14.60000038147</ele>
        <time>2020-07-02T10:24:40.000Z</time>
      </trkpt>
      <trkpt lat="47.26748" lon="-2.34788">
        <ele>14.60000038147</ele>
        <time>2020-07-02T10:24:46.000Z</time>
      </trkpt>
      <trkpt lat="47.26709" lon="-2.34739">
        <ele>14.60000038147</ele>
        <time>2020-07-02T10:24:54.000Z</time>
      </trkpt>
      <trkpt lat="47.26668" lon="-2.34688">
        <ele>14.60000038147</ele>
        <time>2020-07-02T10:25:02.000Z</time>
      </trkpt>
      <trkpt lat="47.26657" lon="-2.34675">
        <ele>14.60000038147</ele>
        <time>2020-07-02T10:25:04.000Z</time>
      </trkpt>
      <trkpt lat="47.2662" lon="-2.3463">
        <ele>14.60000038147</ele>
        <time>2020-07-02T10:25:11.000Z</time>
      </trkpt>
      <trkpt lat="47.26586" lon="-2.34589">
        <ele>14.60000038147</ele>
        <time>2020-07-02T10:25:18.000Z</time>
      </trkpt>
      <trkpt lat="47.26544" lon="-2.34544">
        <ele>14.60000038147</ele>
        <time>2020-07-02T10:25:26.000Z</time>
      </trkpt>
      <trkpt lat="47.26501" lon="-2.34508">
        <ele>14.60000038147</ele>
        <time>2020-07-02T10:25:33.000Z</time>
      </trkpt>
      <trkpt lat="47.26463" lon="-2.34481">
        <ele>14.60000038147</ele>
        <time>2020-07-02T10:25:39.000Z</time>
      </trkpt>
      <trkpt lat="47.2642" lon="-2.3445">
        <ele>14.60000038147</ele>
        <time>2020-07-02T10:25:46.000Z</time>
      </trkpt>
      <trkpt lat="47.2637" lon="-2.3441">
        <ele>14.60000038147</ele>
        <time>2020-07-02T10:25:54.000Z</time>
      </trkpt>
      <trkpt lat="47.26343" lon="-2.34383">
        <ele>14.60000038147</ele>
        <time>2020-07-02T10:25:59.000Z</time>
      </trkpt>
      <trkpt lat="47.26337" lon="-2.3438">
        <ele>14.60000038147</ele>
        <time>2020-07-02T10:26:00.000Z</time>
      </trkpt>
      <trkpt lat="47.26319" lon="-2.34372">
        <ele>14.60000038147</ele>
        <time>2020-07-02T10:26:03.000Z</time>
      </trkpt>
      <trkpt lat="47.26304" lon="-2.34351">
        <ele>14.60000038147</ele>
        <time>2020-07-02T10:26:06.000Z</time>
      </trkpt>
      <trkpt lat="47.26292" lon="-2.34338">
        <ele>14.60000038147</ele>
        <time>2020-07-02T10:26:08.000Z</time>
      </trkpt>
      <trkpt lat="47.26273" lon="-2.34318">
        <ele>14.60000038147</ele>
        <time>2020-07-02T10:26:11.000Z</time>
      </trkpt>
      <trkpt lat="47.26232" lon="-2.34275">
        <ele>14.60000038147</ele>
        <time>2020-07-02T10:26:18.000Z</time>
      </trkpt>
      <trkpt lat="47.26198" lon="-2.34239">
        <ele>14.60000038147</ele>
        <time>2020-07-02T10:26:24.000Z</time>
      </trkpt>
      <trkpt lat="47.26161" lon="-2.34201">
        <ele>14.60000038147</ele>
        <time>2020-07-02T10:26:31.000Z</time>
      </trkpt>
      <trkpt lat="47.26139" lon="-2.34183">
        <ele>14.60000038147</ele>
        <time>2020-07-02T10:26:36.000Z</time>
      </trkpt>
      <trkpt lat="47.26129" lon="-2.34177">
        <ele>14.60000038147</ele>
        <time>2020-07-02T10:26:38.000Z</time>
      </trkpt>
      <trkpt lat="47.26119" lon="-2.34167">
        <ele>14.60000038147</ele>
        <time>2020-07-02T10:26:40.000Z</time>
      </trkpt>
      <trkpt lat="47.26087" lon="-2.3415">
        <ele>14.60000038147</ele>
        <time>2020-07-02T10:26:45.000Z</time>
      </trkpt>
      <trkpt lat="47.26051" lon="-2.34131">
        <ele>14.60000038147</ele>
        <time>2020-07-02T10:26:51.000Z</time>
      </trkpt>
      <trkpt lat="47.26039" lon="-2.34125">
        <ele>14.199999809265</ele>
        <time>2020-07-02T10:26:53.000Z</time>
      </trkpt>
      <trkpt lat="47.26033" lon="-2.34123">
        <ele>13.800000190735</ele>
        <time>2020-07-02T10:26:54.000Z</time>
      </trkpt>
      <trkpt lat="47.26027" lon="-2.3412">
        <ele>13.199999809265</ele>
        <time>2020-07-02T10:26:55.000Z</time>
      </trkpt>
      <trkpt lat="47.26021" lon="-2.34117">
        <ele>12.800000190735</ele>
        <time>2020-07-02T10:26:56.000Z</time>
      </trkpt>
      <trkpt lat="47.26015" lon="-2.34114">
        <ele>12.39999961853</ele>
        <time>2020-07-02T10:26:57.000Z</time>
      </trkpt>
      <trkpt lat="47.25995" lon="-2.34105">
        <ele>12.39999961853</ele>
        <time>2020-07-02T10:27:00.000Z</time>
      </trkpt>
      <trkpt lat="47.25946" lon="-2.34081">
        <ele>12.39999961853</ele>
        <time>2020-07-02T10:27:08.000Z</time>
      </trkpt>
      <trkpt lat="47.25921" lon="-2.34074">
        <ele>12.39999961853</ele>
        <time>2020-07-02T10:27:12.000Z</time>
      </trkpt>
      <trkpt lat="47.25909" lon="-2.34073">
        <ele>12.39999961853</ele>
        <time>2020-07-02T10:27:14.000Z</time>
      </trkpt>
      <trkpt lat="47.25895" lon="-2.34058">
        <ele>12.39999961853</ele>
        <time>2020-07-02T10:27:17.000Z</time>
      </trkpt>
      <trkpt lat="47.25893" lon="-2.3403">
        <ele>12.39999961853</ele>
        <time>2020-07-02T10:27:20.000Z</time>
      </trkpt>
      <trkpt lat="47.259" lon="-2.34004">
        <ele>12.39999961853</ele>
        <time>2020-07-02T10:27:23.000Z</time>
      </trkpt>
      <trkpt lat="47.25902" lon="-2.33995">
        <ele>12.39999961853</ele>
        <time>2020-07-02T10:27:24.000Z</time>
      </trkpt>
      <trkpt lat="47.25919" lon="-2.33947">
        <ele>12.39999961853</ele>
        <time>2020-07-02T10:27:29.000Z</time>
      </trkpt>
      <trkpt lat="47.25938" lon="-2.33916">
        <ele>12.39999961853</ele>
        <time>2020-07-02T10:27:33.000Z</time>
      </trkpt>
      <trkpt lat="47.25952" lon="-2.33878">
        <ele>12.39999961853</ele>
        <time>2020-07-02T10:27:37.000Z</time>
      </trkpt>
      <trkpt lat="47.25981" lon="-2.33797">
        <ele>12.39999961853</ele>
        <time>2020-07-02T10:27:45.000Z</time>
      </trkpt>
      <trkpt lat="47.25984" lon="-2.33787">
        <ele>12.39999961853</ele>
        <time>2020-07-02T10:27:46.000Z</time>
      </trkpt>
      <trkpt lat="47.2601" lon="-2.33717">
        <ele>12.39999961853</ele>
        <time>2020-07-02T10:27:53.000Z</time>
      </trkpt>
      <trkpt lat="47.26026" lon="-2.33654">
        <ele>12.39999961853</ele>
        <time>2020-07-02T10:27:59.000Z</time>
      </trkpt>
      <trkpt lat="47.26023" lon="-2.33622">
        <ele>12.39999961853</ele>
        <time>2020-07-02T10:28:03.000Z</time>
      </trkpt>
      <trkpt lat="47.26015" lon="-2.33592">
        <ele>12.39999961853</ele>
        <time>2020-07-02T10:28:06.000Z</time>
      </trkpt>
      <trkpt lat="47.26012" lon="-2.33582">
        <ele>12.39999961853</ele>
        <time>2020-07-02T10:28:07.000Z</time>
      </trkpt>
      <trkpt lat="47.25991" lon="-2.33538">
        <ele>12.39999961853</ele>
        <time>2020-07-02T10:28:12.000Z</time>
      </trkpt>
      <trkpt lat="47.25981" lon="-2.33515">
        <ele>12.39999961853</ele>
        <time>2020-07-02T10:28:16.000Z</time>
      </trkpt>
      <trkpt lat="47.25969" lon="-2.33502">
        <ele>12.39999961853</ele>
        <time>2020-07-02T10:28:21.000Z</time>
      </trkpt>
      <trkpt lat="47.25966" lon="-2.33499">
        <ele>12.39999961853</ele>
        <time>2020-07-02T10:28:22.000Z</time>
      </trkpt>
      <trkpt lat="47.25966" lon="-2.33492">
        <ele>12.39999961853</ele>
        <time>2020-07-02T10:28:24.000Z</time>
      </trkpt>
      <trkpt lat="47.25977" lon="-2.33492">
        <ele>12.39999961853</ele>
        <time>2020-07-02T10:28:27.000Z</time>
      </trkpt>
      <trkpt lat="47.2601" lon="-2.33487">
        <ele>12.39999961853</ele>
        <time>2020-07-02T10:28:33.000Z</time>
      </trkpt>
      <trkpt lat="47.26028" lon="-2.3348">
        <ele>12.39999961853</ele>
        <time>2020-07-02T10:28:36.000Z</time>
      </trkpt>
      <trkpt lat="47.26037" lon="-2.33469">
        <ele>12.39999961853</ele>
        <time>2020-07-02T10:28:38.000Z</time>
      </trkpt>
      <trkpt lat="47.26048" lon="-2.33447">
        <ele>12.39999961853</ele>
        <time>2020-07-02T10:28:42.000Z</time>
      </trkpt>
      <trkpt lat="47.26055" lon="-2.33442">
        <ele>12.39999961853</ele>
        <time>2020-07-02T10:28:44.000Z</time>
      </trkpt>
      <trkpt lat="47.26059" lon="-2.33437">
        <ele>12.39999961853</ele>
        <time>2020-07-02T10:28:46.000Z</time>
      </trkpt>
      <trkpt lat="47.26065" lon="-2.33418">
        <ele>12.39999961853</ele>
        <time>2020-07-02T10:28:50.000Z</time>
      </trkpt>
      <trkpt lat="47.2607" lon="-2.33406">
        <ele>12.39999961853</ele>
        <time>2020-07-02T10:28:52.000Z</time>
      </trkpt>
      <trkpt lat="47.26078" lon="-2.33397">
        <ele>12.39999961853</ele>
        <time>2020-07-02T10:28:54.000Z</time>
      </trkpt>
      <trkpt lat="47.26086" lon="-2.33385">
        <ele>12.39999961853</ele>
        <time>2020-07-02T10:28:57.000Z</time>
      </trkpt>
      <trkpt lat="47.26081" lon="-2.33368">
        <ele>12.39999961853</ele>
        <time>2020-07-02T10:29:00.000Z</time>
      </trkpt>
      <trkpt lat="47.26078" lon="-2.33361">
        <ele>12.39999961853</ele>
        <time>2020-07-02T10:29:01.000Z</time>
      </trkpt>
      <trkpt lat="47.26065" lon="-2.33324">
        <ele>12.39999961853</ele>
        <time>2020-07-02T10:29:06.000Z</time>
      </trkpt>
      <trkpt lat="47.26046" lon="-2.33269">
        <ele>12.39999961853</ele>
        <time>2020-07-02T10:29:13.000Z</time>
      </trkpt>
      <trkpt lat="47.26023" lon="-2.33204">
        <ele>12.39999961853</ele>
        <time>2020-07-02T10:29:21.000Z</time>
      </trkpt>
      <trkpt lat="47.25997" lon="-2.33132">
        <ele>12.39999961853</ele>
        <time>2020-07-02T10:29:30.000Z</time>
      </trkpt>
      <trkpt lat="47.25995" lon="-2.33124">
        <ele>12.39999961853</ele>
        <time>2020-07-02T10:29:31.000Z</time>
      </trkpt>
      <trkpt lat="47.25978" lon="-2.33074">
        <ele>12.39999961853</ele>
        <time>2020-07-02T10:29:37.000Z</time>
      </trkpt>
      <trkpt lat="47.25962" lon="-2.33014">
        <ele>12.39999961853</ele>
        <time>2020-07-02T10:29:44.000Z</time>
      </trkpt>
      <trkpt lat="47.2594" lon="-2.32955">
        <ele>12.39999961853</ele>
        <time>2020-07-02T10:29:51.000Z</time>
      </trkpt>
      <trkpt lat="47.25922" lon="-2.32903">
        <ele>12.39999961853</ele>
        <time>2020-07-02T10:29:57.000Z</time>
      </trkpt>
      <trkpt lat="47.259" lon="-2.32837">
        <ele>12.39999961853</ele>
        <time>2020-07-02T10:30:05.000Z</time>
      </trkpt>
      <trkpt lat="47.25878" lon="-2.32769">
        <ele>12.39999961853</ele>
        <time>2020-07-02T10:30:13.000Z</time>
      </trkpt>
      <trkpt lat="47.25859" lon="-2.32703">
        <ele>12.39999961853</ele>
        <time>2020-07-02T10:30:21.000Z</time>
      </trkpt>
      <trkpt lat="47.25837" lon="-2.3263">
        <ele>12.39999961853</ele>
        <time>2020-07-02T10:30:30.000Z</time>
      </trkpt>
      <trkpt lat="47.25832" lon="-2.32613">
        <ele>12.39999961853</ele>
        <time>2020-07-02T10:30:32.000Z</time>
      </trkpt>
      <trkpt lat="47.25828" lon="-2.32596">
        <ele>12.39999961853</ele>
        <time>2020-07-02T10:30:34.000Z</time>
      </trkpt>
      <trkpt lat="47.25827" lon="-2.32587">
        <ele>12.39999961853</ele>
        <time>2020-07-02T10:30:35.000Z</time>
      </trkpt>
      <trkpt lat="47.25821" lon="-2.32553">
        <ele>12.39999961853</ele>
        <time>2020-07-02T10:30:39.000Z</time>
      </trkpt>
      <trkpt lat="47.25809" lon="-2.32504">
        <ele>12.39999961853</ele>
        <time>2020-07-02T10:30:45.000Z</time>
      </trkpt>
      <trkpt lat="47.2581" lon="-2.32497">
        <ele>12.39999961853</ele>
        <time>2020-07-02T10:30:46.000Z</time>
      </trkpt>
      <trkpt lat="47.25818" lon="-2.3248">
        <ele>12.39999961853</ele>
        <time>2020-07-02T10:30:49.000Z</time>
      </trkpt>
      <trkpt lat="47.25832" lon="-2.32479">
        <ele>12.39999961853</ele>
        <time>2020-07-02T10:30:52.000Z</time>
      </trkpt>
      <trkpt lat="47.25844" lon="-2.32479">
        <ele>12.39999961853</ele>
        <time>2020-07-02T10:30:54.000Z</time>
      </trkpt>
      <trkpt lat="47.25865" lon="-2.32481">
        <ele>12.39999961853</ele>
        <time>2020-07-02T10:30:58.000Z</time>
      </trkpt>
      <trkpt lat="47.25876" lon="-2.32482">
        <ele>12.39999961853</ele>
        <time>2020-07-02T10:31:00.000Z</time>
      </trkpt>
      <trkpt lat="47.25886" lon="-2.32475">
        <ele>12.39999961853</ele>
        <time>2020-07-02T10:31:02.000Z</time>
      </trkpt>
      <trkpt lat="47.25898" lon="-2.32456">
        <ele>12.39999961853</ele>
        <time>2020-07-02T10:31:06.000Z</time>
      </trkpt>
      <trkpt lat="47.25902" lon="-2.3245">
        <ele>12.39999961853</ele>
        <time>2020-07-02T10:31:07.000Z</time>
      </trkpt>
      <trkpt lat="47.25921" lon="-2.3243">
        <ele>12.39999961853</ele>
        <time>2020-07-02T10:31:11.000Z</time>
      </trkpt>
      <trkpt lat="47.25957" lon="-2.32384">
        <ele>12.39999961853</ele>
        <time>2020-07-02T10:31:19.000Z</time>
      </trkpt>
      <trkpt lat="47.25988" lon="-2.32344">
        <ele>12.39999961853</ele>
        <time>2020-07-02T10:31:26.000Z</time>
      </trkpt>
      <trkpt lat="47.2603" lon="-2.32294">
        <ele>12.39999961853</ele>
        <time>2020-07-02T10:31:35.000Z</time>
      </trkpt>
      <trkpt lat="47.26034" lon="-2.32288">
        <ele>12.39999961853</ele>
        <time>2020-07-02T10:31:36.000Z</time>
      </trkpt>
      <trkpt lat="47.26053" lon="-2.32268">
        <ele>12.39999961853</ele>
        <time>2020-07-02T10:31:40.000Z</time>
      </trkpt>
      <trkpt lat="47.26071" lon="-2.32248">
        <ele>12.39999961853</ele>
        <time>2020-07-02T10:31:44.000Z</time>
      </trkpt>
      <trkpt lat="47.26084" lon="-2.32232">
        <ele>12.39999961853</ele>
        <time>2020-07-02T10:31:47.000Z</time>
      </trkpt>
      <trkpt lat="47.26107" lon="-2.32194">
        <ele>12.39999961853</ele>
        <time>2020-07-02T10:31:53.000Z</time>
      </trkpt>
      <trkpt lat="47.26124" lon="-2.32149">
        <ele>12.39999961853</ele>
        <time>2020-07-02T10:31:59.000Z</time>
      </trkpt>
      <trkpt lat="47.26138" lon="-2.32101">
        <ele>12.39999961853</ele>
        <time>2020-07-02T10:32:05.000Z</time>
      </trkpt>
      <trkpt lat="47.26158" lon="-2.32039">
        <ele>12.39999961853</ele>
        <time>2020-07-02T10:32:13.000Z</time>
      </trkpt>
      <trkpt lat="47.26161" lon="-2.32033">
        <ele>12.39999961853</ele>
        <time>2020-07-02T10:32:14.000Z</time>
      </trkpt>
      <trkpt lat="47.26173" lon="-2.32022">
        <ele>12.39999961853</ele>
        <time>2020-07-02T10:32:17.000Z</time>
      </trkpt>
      <trkpt lat="47.26188" lon="-2.32023">
        <ele>12.39999961853</ele>
        <time>2020-07-02T10:32:21.000Z</time>
      </trkpt>
      <trkpt lat="47.26191" lon="-2.32023">
        <ele>12.39999961853</ele>
        <time>2020-07-02T10:32:22.000Z</time>
      </trkpt>
      <trkpt lat="47.26197" lon="-2.32023">
        <ele>12.39999961853</ele>
        <time>2020-07-02T10:32:25.000Z</time>
      </trkpt>
      <trkpt lat="47.26198" lon="-2.3202">
        <ele>12.39999961853</ele>
        <time>2020-07-02T10:32:26.000Z</time>
      </trkpt>
      <trkpt lat="47.262" lon="-2.32008">
        <ele>12</ele>
        <time>2020-07-02T10:32:29.000Z</time>
      </trkpt>
      <trkpt lat="47.26202" lon="-2.32005">
        <ele>11.60000038147</ele>
        <time>2020-07-02T10:32:30.000Z</time>
      </trkpt>
      <trkpt lat="47.26203" lon="-2.32003">
        <ele>11.199999809265</ele>
        <time>2020-07-02T10:32:31.000Z</time>
      </trkpt>
      <trkpt lat="47.26205" lon="-2.32002">
        <ele>10.800000190735</ele>
        <time>2020-07-02T10:32:32.000Z</time>
      </trkpt>
      <trkpt lat="47.26207" lon="-2.32">
        <ele>10.39999961853</ele>
        <time>2020-07-02T10:32:33.000Z</time>
      </trkpt>
      <trkpt lat="47.2621" lon="-2.31997">
        <ele>10.39999961853</ele>
        <time>2020-07-02T10:32:34.000Z</time>
      </trkpt>
      <trkpt lat="47.26221" lon="-2.31986">
        <ele>10.39999961853</ele>
        <time>2020-07-02T10:32:38.000Z</time>
      </trkpt>
      <trkpt lat="47.26234" lon="-2.3198">
        <ele>10.39999961853</ele>
        <time>2020-07-02T10:32:42.000Z</time>
      </trkpt>
      <trkpt lat="47.26236" lon="-2.31976">
        <ele>10.39999961853</ele>
        <time>2020-07-02T10:32:43.000Z</time>
      </trkpt>
      <trkpt lat="47.26242" lon="-2.31964">
        <ele>10.39999961853</ele>
        <time>2020-07-02T10:32:45.000Z</time>
      </trkpt>
      <trkpt lat="47.26254" lon="-2.3194">
        <ele>10.39999961853</ele>
        <time>2020-07-02T10:32:50.000Z</time>
      </trkpt>
      <trkpt lat="47.2627" lon="-2.31916">
        <ele>10.39999961853</ele>
        <time>2020-07-02T10:32:56.000Z</time>
      </trkpt>
      <trkpt lat="47.26284" lon="-2.31905">
        <ele>10.39999961853</ele>
        <time>2020-07-02T10:32:59.000Z</time>
      </trkpt>
      <trkpt lat="47.2629" lon="-2.31899">
        <ele>10.39999961853</ele>
        <time>2020-07-02T10:33:01.000Z</time>
      </trkpt>
      <trkpt lat="47.26294" lon="-2.31889">
        <ele>10.39999961853</ele>
        <time>2020-07-02T10:33:03.000Z</time>
      </trkpt>
      <trkpt lat="47.26295" lon="-2.31883">
        <ele>10.39999961853</ele>
        <time>2020-07-02T10:33:04.000Z</time>
      </trkpt>
      <trkpt lat="47.263" lon="-2.31842">
        <ele>10.39999961853</ele>
        <time>2020-07-02T10:33:10.000Z</time>
      </trkpt>
      <trkpt lat="47.26302" lon="-2.31825">
        <ele>10.800000190735</ele>
        <time>2020-07-02T10:33:13.000Z</time>
      </trkpt>
      <trkpt lat="47.26303" lon="-2.31821">
        <ele>11.199999809265</ele>
        <time>2020-07-02T10:33:14.000Z</time>
      </trkpt>
      <trkpt lat="47.26303" lon="-2.31816">
        <ele>11.60000038147</ele>
        <time>2020-07-02T10:33:15.000Z</time>
      </trkpt>
      <trkpt lat="47.26304" lon="-2.31811">
        <ele>12.39999961853</ele>
        <time>2020-07-02T10:33:16.000Z</time>
      </trkpt>
      <trkpt lat="47.26304" lon="-2.3179">
        <ele>12.39999961853</ele>
        <time>2020-07-02T10:33:21.000Z</time>
      </trkpt>
      <trkpt lat="47.26301" lon="-2.31761">
        <ele>12.39999961853</ele>
        <time>2020-07-02T10:33:29.000Z</time>
      </trkpt>
      <trkpt lat="47.26299" lon="-2.31751">
        <ele>12.39999961853</ele>
        <time>2020-07-02T10:33:34.000Z</time>
      </trkpt>
      <trkpt lat="47.26297" lon="-2.31739">
        <ele>12.39999961853</ele>
        <time>2020-07-02T10:33:48.000Z</time>
      </trkpt>
      <trkpt lat="47.26302" lon="-2.31719">
        <ele>12.39999961853</ele>
        <time>2020-07-02T10:33:53.000Z</time>
      </trkpt>
      <trkpt lat="47.26315" lon="-2.31712">
        <ele>12.39999961853</ele>
        <time>2020-07-02T10:33:57.000Z</time>
      </trkpt>
      <trkpt lat="47.26317" lon="-2.31711">
        <ele>12.39999961853</ele>
        <time>2020-07-02T10:33:58.000Z</time>
      </trkpt>
      <trkpt lat="47.26332" lon="-2.317">
        <ele>12.39999961853</ele>
        <time>2020-07-02T10:34:03.000Z</time>
      </trkpt>
      <trkpt lat="47.26339" lon="-2.31688">
        <ele>12.39999961853</ele>
        <time>2020-07-02T10:34:06.000Z</time>
      </trkpt>
      <trkpt lat="47.26344" lon="-2.31685">
        <ele>12.39999961853</ele>
        <time>2020-07-02T10:34:08.000Z</time>
      </trkpt>
      <trkpt lat="47.26351" lon="-2.31682">
        <ele>12.800000190735</ele>
        <time>2020-07-02T10:34:10.000Z</time>
      </trkpt>
      <trkpt lat="47.26354" lon="-2.3168">
        <ele>13.39999961853</ele>
        <time>2020-07-02T10:34:11.000Z</time>
      </trkpt>
      <trkpt lat="47.26357" lon="-2.31678">
        <ele>13.800000190735</ele>
        <time>2020-07-02T10:34:12.000Z</time>
      </trkpt>
      <trkpt lat="47.26361" lon="-2.31677">
        <ele>14.199999809265</ele>
        <time>2020-07-02T10:34:13.000Z</time>
      </trkpt>
      <trkpt lat="47.26364" lon="-2.31676">
        <ele>14.60000038147</ele>
        <time>2020-07-02T10:34:14.000Z</time>
      </trkpt>
      <trkpt lat="47.26377" lon="-2.3167">
        <ele>14.60000038147</ele>
        <time>2020-07-02T10:34:18.000Z</time>
      </trkpt>
      <trkpt lat="47.26395" lon="-2.31659">
        <ele>14.60000038147</ele>
        <time>2020-07-02T10:34:24.000Z</time>
      </trkpt>
      <trkpt lat="47.26407" lon="-2.31646">
        <ele>14.60000038147</ele>
        <time>2020-07-02T10:34:30.000Z</time>
      </trkpt>
      <trkpt lat="47.26406" lon="-2.31628">
        <ele>14.60000038147</ele>
        <time>2020-07-02T10:34:34.000Z</time>
      </trkpt>
      <trkpt lat="47.26406" lon="-2.31623">
        <ele>14.60000038147</ele>
        <time>2020-07-02T10:34:35.000Z</time>
      </trkpt>
      <trkpt lat="47.26407" lon="-2.31607">
        <ele>15</ele>
        <time>2020-07-02T10:34:38.000Z</time>
      </trkpt>
      <trkpt lat="47.26407" lon="-2.31601">
        <ele>15.39999961853</ele>
        <time>2020-07-02T10:34:39.000Z</time>
      </trkpt>
      <trkpt lat="47.26407" lon="-2.31596">
        <ele>15.800000190735</ele>
        <time>2020-07-02T10:34:40.000Z</time>
      </trkpt>
      <trkpt lat="47.26407" lon="-2.31591">
        <ele>16.200000762939</ele>
        <time>2020-07-02T10:34:41.000Z</time>
      </trkpt>
      <trkpt lat="47.26407" lon="-2.31587">
        <ele>16.60000038147</ele>
        <time>2020-07-02T10:34:42.000Z</time>
      </trkpt>
      <trkpt lat="47.26406" lon="-2.31581">
        <ele>16.60000038147</ele>
        <time>2020-07-02T10:34:43.000Z</time>
      </trkpt>
      <trkpt lat="47.26407" lon="-2.3156">
        <ele>16.60000038147</ele>
        <time>2020-07-02T10:34:48.000Z</time>
      </trkpt>
      <trkpt lat="47.26409" lon="-2.31554">
        <ele>16.60000038147</ele>
        <time>2020-07-02T10:34:50.000Z</time>
      </trkpt>
      <trkpt lat="47.26413" lon="-2.31554">
        <ele>16.60000038147</ele>
        <time>2020-07-02T10:34:52.000Z</time>
      </trkpt>
      <trkpt lat="47.26416" lon="-2.31554">
        <ele>16.60000038147</ele>
        <time>2020-07-02T10:34:54.000Z</time>
      </trkpt>
      <trkpt lat="47.26416" lon="-2.31554">
        <ele>16.60000038147</ele>
        <time>2020-07-02T10:34:55.000Z</time>
      </trkpt>
    </trkseg>
  </trk>
</gpx>